<?xml version="1.0" encoding="UTF-8" standalone="no" ?>
<gpx xmlns="http://www.topografix.com/GPX/1/1" xmlns:xsi="http://www.w3.org/2001/XMLSchema-instance" xsi:schemaLocation="http://www.topografix.com/GPX/1/1 http://www.topografix.com/GPX/1/1/gpx.xsd" version="1.1" creator="VisuGPX - https://www.visugpx.com">
  <metadata>
    <name>Turon du Néouvielle par la Glère</name>
    <desc><![CDATA[[url]https://picasaweb.google.com/105108571230570121986/TuronDuNeouvielle#[/url]
[img]https://lh3.googleusercontent.com/-fxXTC5mYfZk/U5M-dNzvbvI/AAAAAAAARmk/WtAMlHO11YY/s800/Turon%2520du%2520N%25C3%25A9ouvielle%2520010.JPG[/img]]]></desc>
  </metadata>
  <trk>
    <name><![CDATA[Turon du Néouvielle]]></name>
    <trkseg>
      <trkpt lat="42.87483" lon="0.08557">
        <ele>1656</ele>
        <time>2014-06-07T03:32:40Z</time>
      </trkpt>
      <trkpt lat="42.87483" lon="0.08557">
        <ele>1656</ele>
        <time>2014-06-07T03:32:41Z</time>
      </trkpt>
      <trkpt lat="42.87482" lon="0.08557">
        <ele>1654</ele>
        <time>2014-06-07T03:32:45Z</time>
      </trkpt>
      <trkpt lat="42.87481" lon="0.08558">
        <ele>1654</ele>
        <time>2014-06-07T03:33:14Z</time>
      </trkpt>
      <trkpt lat="42.8748" lon="0.0856">
        <ele>1654</ele>
        <time>2014-06-07T03:33:34Z</time>
      </trkpt>
      <trkpt lat="42.87481" lon="0.0856">
        <ele>1656</ele>
        <time>2014-06-07T03:34:07Z</time>
      </trkpt>
      <trkpt lat="42.87479" lon="0.08562">
        <ele>1656</ele>
        <time>2014-06-07T03:34:41Z</time>
      </trkpt>
      <trkpt lat="42.87482" lon="0.08566">
        <ele>1655</ele>
        <time>2014-06-07T03:35:15Z</time>
      </trkpt>
      <trkpt lat="42.87481" lon="0.08561">
        <ele>1654</ele>
        <time>2014-06-07T03:35:33Z</time>
      </trkpt>
      <trkpt lat="42.87479" lon="0.08568">
        <ele>1654</ele>
        <time>2014-06-07T03:36:03Z</time>
      </trkpt>
      <trkpt lat="42.87479" lon="0.08563">
        <ele>1654</ele>
        <time>2014-06-07T03:36:39Z</time>
      </trkpt>
      <trkpt lat="42.87476" lon="0.08559">
        <ele>1653</ele>
        <time>2014-06-07T03:37:15Z</time>
      </trkpt>
      <trkpt lat="42.87477" lon="0.08564">
        <ele>1654</ele>
        <time>2014-06-07T03:37:40Z</time>
      </trkpt>
      <trkpt lat="42.87484" lon="0.08564">
        <ele>1653</ele>
        <time>2014-06-07T03:38:09Z</time>
      </trkpt>
      <trkpt lat="42.87485" lon="0.08562">
        <ele>1653</ele>
        <time>2014-06-07T03:38:41Z</time>
      </trkpt>
      <trkpt lat="42.87485" lon="0.08561">
        <ele>1654</ele>
        <time>2014-06-07T03:39:14Z</time>
      </trkpt>
      <trkpt lat="42.87484" lon="0.08563">
        <ele>1657</ele>
        <time>2014-06-07T03:39:46Z</time>
      </trkpt>
      <trkpt lat="42.8748" lon="0.08559">
        <ele>1658</ele>
        <time>2014-06-07T03:40:17Z</time>
      </trkpt>
      <trkpt lat="42.87479" lon="0.08556">
        <ele>1655</ele>
        <time>2014-06-07T03:40:31Z</time>
      </trkpt>
      <trkpt lat="42.87479" lon="0.08557">
        <ele>1658</ele>
        <time>2014-06-07T03:40:34Z</time>
      </trkpt>
      <trkpt lat="42.87484" lon="0.0856">
        <ele>1655</ele>
        <time>2014-06-07T03:40:57Z</time>
      </trkpt>
      <trkpt lat="42.8748" lon="0.08563">
        <ele>1653</ele>
        <time>2014-06-07T03:41:19Z</time>
      </trkpt>
      <trkpt lat="42.8748" lon="0.08568">
        <ele>1652</ele>
        <time>2014-06-07T03:41:49Z</time>
      </trkpt>
      <trkpt lat="42.87482" lon="0.08566">
        <ele>1652</ele>
        <time>2014-06-07T03:42:19Z</time>
      </trkpt>
      <trkpt lat="42.87479" lon="0.08555">
        <ele>1653</ele>
        <time>2014-06-07T03:42:49Z</time>
      </trkpt>
      <trkpt lat="42.87483" lon="0.08563">
        <ele>1656</ele>
        <time>2014-06-07T03:43:05Z</time>
      </trkpt>
      <trkpt lat="42.87481" lon="0.08555">
        <ele>1656</ele>
        <time>2014-06-07T03:43:37Z</time>
      </trkpt>
      <trkpt lat="42.87485" lon="0.08566">
        <ele>1656</ele>
        <time>2014-06-07T03:44:12Z</time>
      </trkpt>
      <trkpt lat="42.87479" lon="0.08554">
        <ele>1653</ele>
        <time>2014-06-07T03:44:42Z</time>
      </trkpt>
      <trkpt lat="42.8748" lon="0.08564">
        <ele>1654</ele>
        <time>2014-06-07T03:44:58Z</time>
      </trkpt>
      <trkpt lat="42.87479" lon="0.08563">
        <ele>1654</ele>
        <time>2014-06-07T03:45:12Z</time>
      </trkpt>
      <trkpt lat="42.87479" lon="0.08561">
        <ele>1655</ele>
        <time>2014-06-07T03:45:36Z</time>
      </trkpt>
      <trkpt lat="42.87479" lon="0.08561">
        <ele>1656</ele>
        <time>2014-06-07T03:45:39Z</time>
      </trkpt>
      <trkpt lat="42.87477" lon="0.08556">
        <ele>1656</ele>
        <time>2014-06-07T03:45:44Z</time>
      </trkpt>
      <trkpt lat="42.87465" lon="0.08551">
        <ele>1657</ele>
        <time>2014-06-07T03:45:59Z</time>
      </trkpt>
      <trkpt lat="42.87455" lon="0.08551">
        <ele>1658</ele>
        <time>2014-06-07T03:46:11Z</time>
      </trkpt>
      <trkpt lat="42.87441" lon="0.08555">
        <ele>1661</ele>
        <time>2014-06-07T03:46:29Z</time>
      </trkpt>
      <trkpt lat="42.8743" lon="0.08563">
        <ele>1661</ele>
        <time>2014-06-07T03:46:43Z</time>
      </trkpt>
      <trkpt lat="42.87425" lon="0.08567">
        <ele>1662</ele>
        <time>2014-06-07T03:46:55Z</time>
      </trkpt>
      <trkpt lat="42.8741" lon="0.08566">
        <ele>1662</ele>
        <time>2014-06-07T03:47:11Z</time>
      </trkpt>
      <trkpt lat="42.87409" lon="0.08566">
        <ele>1662</ele>
        <time>2014-06-07T03:47:12Z</time>
      </trkpt>
      <trkpt lat="42.87397" lon="0.08565">
        <ele>1663</ele>
        <time>2014-06-07T03:47:26Z</time>
      </trkpt>
      <trkpt lat="42.87396" lon="0.08565">
        <ele>1664</ele>
        <time>2014-06-07T03:47:27Z</time>
      </trkpt>
      <trkpt lat="42.87388" lon="0.08565">
        <ele>1666</ele>
        <time>2014-06-07T03:47:39Z</time>
      </trkpt>
      <trkpt lat="42.87383" lon="0.08568">
        <ele>1665</ele>
        <time>2014-06-07T03:47:51Z</time>
      </trkpt>
      <trkpt lat="42.87376" lon="0.08568">
        <ele>1668</ele>
        <time>2014-06-07T03:48:04Z</time>
      </trkpt>
      <trkpt lat="42.87375" lon="0.08568">
        <ele>1668</ele>
        <time>2014-06-07T03:48:05Z</time>
      </trkpt>
      <trkpt lat="42.87373" lon="0.08566">
        <ele>1673</ele>
        <time>2014-06-07T03:48:10Z</time>
      </trkpt>
      <trkpt lat="42.87372" lon="0.08566">
        <ele>1672</ele>
        <time>2014-06-07T03:48:11Z</time>
      </trkpt>
      <trkpt lat="42.87368" lon="0.08565">
        <ele>1670</ele>
        <time>2014-06-07T03:48:17Z</time>
      </trkpt>
      <trkpt lat="42.87366" lon="0.08565">
        <ele>1668</ele>
        <time>2014-06-07T03:48:20Z</time>
      </trkpt>
      <trkpt lat="42.87363" lon="0.08571">
        <ele>1670</ele>
        <time>2014-06-07T03:48:34Z</time>
      </trkpt>
      <trkpt lat="42.8736" lon="0.08573">
        <ele>1672</ele>
        <time>2014-06-07T03:48:47Z</time>
      </trkpt>
      <trkpt lat="42.87359" lon="0.08575">
        <ele>1673</ele>
        <time>2014-06-07T03:48:50Z</time>
      </trkpt>
      <trkpt lat="42.87354" lon="0.08586">
        <ele>1675</ele>
        <time>2014-06-07T03:49:02Z</time>
      </trkpt>
      <trkpt lat="42.87353" lon="0.08588">
        <ele>1674</ele>
        <time>2014-06-07T03:49:04Z</time>
      </trkpt>
      <trkpt lat="42.87343" lon="0.08593">
        <ele>1674</ele>
        <time>2014-06-07T03:49:17Z</time>
      </trkpt>
      <trkpt lat="42.87335" lon="0.086">
        <ele>1675</ele>
        <time>2014-06-07T03:49:30Z</time>
      </trkpt>
      <trkpt lat="42.87326" lon="0.08606">
        <ele>1675</ele>
        <time>2014-06-07T03:49:42Z</time>
      </trkpt>
      <trkpt lat="42.87313" lon="0.08611">
        <ele>1678</ele>
        <time>2014-06-07T03:49:56Z</time>
      </trkpt>
      <trkpt lat="42.87305" lon="0.0861">
        <ele>1678</ele>
        <time>2014-06-07T03:50:07Z</time>
      </trkpt>
      <trkpt lat="42.87296" lon="0.08608">
        <ele>1676</ele>
        <time>2014-06-07T03:50:20Z</time>
      </trkpt>
      <trkpt lat="42.87289" lon="0.08602">
        <ele>1678</ele>
        <time>2014-06-07T03:50:30Z</time>
      </trkpt>
      <trkpt lat="42.87288" lon="0.08598">
        <ele>1679</ele>
        <time>2014-06-07T03:50:33Z</time>
      </trkpt>
      <trkpt lat="42.87285" lon="0.08595">
        <ele>1679</ele>
        <time>2014-06-07T03:50:37Z</time>
      </trkpt>
      <trkpt lat="42.87274" lon="0.08591">
        <ele>1680</ele>
        <time>2014-06-07T03:50:50Z</time>
      </trkpt>
      <trkpt lat="42.87261" lon="0.08587">
        <ele>1682</ele>
        <time>2014-06-07T03:51:04Z</time>
      </trkpt>
      <trkpt lat="42.8726" lon="0.08586">
        <ele>1683</ele>
        <time>2014-06-07T03:51:05Z</time>
      </trkpt>
      <trkpt lat="42.87256" lon="0.08585">
        <ele>1684</ele>
        <time>2014-06-07T03:51:09Z</time>
      </trkpt>
      <trkpt lat="42.87245" lon="0.08587">
        <ele>1687</ele>
        <time>2014-06-07T03:51:22Z</time>
      </trkpt>
      <trkpt lat="42.87238" lon="0.08583">
        <ele>1690</ele>
        <time>2014-06-07T03:51:33Z</time>
      </trkpt>
      <trkpt lat="42.87232" lon="0.08581">
        <ele>1693</ele>
        <time>2014-06-07T03:51:48Z</time>
      </trkpt>
      <trkpt lat="42.87228" lon="0.08578">
        <ele>1694</ele>
        <time>2014-06-07T03:52:00Z</time>
      </trkpt>
      <trkpt lat="42.87223" lon="0.08579">
        <ele>1696</ele>
        <time>2014-06-07T03:52:12Z</time>
      </trkpt>
      <trkpt lat="42.87219" lon="0.08579">
        <ele>1697</ele>
        <time>2014-06-07T03:52:22Z</time>
      </trkpt>
      <trkpt lat="42.87214" lon="0.08579">
        <ele>1699</ele>
        <time>2014-06-07T03:52:35Z</time>
      </trkpt>
      <trkpt lat="42.87209" lon="0.08582">
        <ele>1702</ele>
        <time>2014-06-07T03:52:47Z</time>
      </trkpt>
      <trkpt lat="42.87207" lon="0.08581">
        <ele>1703</ele>
        <time>2014-06-07T03:52:50Z</time>
      </trkpt>
      <trkpt lat="42.87202" lon="0.08581">
        <ele>1706</ele>
        <time>2014-06-07T03:53:01Z</time>
      </trkpt>
      <trkpt lat="42.87194" lon="0.08579">
        <ele>1709</ele>
        <time>2014-06-07T03:53:15Z</time>
      </trkpt>
      <trkpt lat="42.87189" lon="0.08575">
        <ele>1709</ele>
        <time>2014-06-07T03:53:28Z</time>
      </trkpt>
      <trkpt lat="42.87184" lon="0.0858">
        <ele>1710</ele>
        <time>2014-06-07T03:53:43Z</time>
      </trkpt>
      <trkpt lat="42.87177" lon="0.08584">
        <ele>1713</ele>
        <time>2014-06-07T03:53:55Z</time>
      </trkpt>
      <trkpt lat="42.87174" lon="0.08586">
        <ele>1710</ele>
        <time>2014-06-07T03:54:02Z</time>
      </trkpt>
      <trkpt lat="42.87169" lon="0.08589">
        <ele>1712</ele>
        <time>2014-06-07T03:54:13Z</time>
      </trkpt>
      <trkpt lat="42.87162" lon="0.08592">
        <ele>1712</ele>
        <time>2014-06-07T03:54:25Z</time>
      </trkpt>
      <trkpt lat="42.87152" lon="0.08595">
        <ele>1714</ele>
        <time>2014-06-07T03:54:39Z</time>
      </trkpt>
      <trkpt lat="42.87146" lon="0.08599">
        <ele>1714</ele>
        <time>2014-06-07T03:54:51Z</time>
      </trkpt>
      <trkpt lat="42.87138" lon="0.08602">
        <ele>1713</ele>
        <time>2014-06-07T03:55:05Z</time>
      </trkpt>
      <trkpt lat="42.87137" lon="0.086">
        <ele>1715</ele>
        <time>2014-06-07T03:55:09Z</time>
      </trkpt>
      <trkpt lat="42.87135" lon="0.08599">
        <ele>1711</ele>
        <time>2014-06-07T03:55:12Z</time>
      </trkpt>
      <trkpt lat="42.87135" lon="0.08597">
        <ele>1715</ele>
        <time>2014-06-07T03:55:18Z</time>
      </trkpt>
      <trkpt lat="42.8713" lon="0.08595">
        <ele>1718</ele>
        <time>2014-06-07T03:55:26Z</time>
      </trkpt>
      <trkpt lat="42.87126" lon="0.08597">
        <ele>1721</ele>
        <time>2014-06-07T03:55:36Z</time>
      </trkpt>
      <trkpt lat="42.87119" lon="0.08598">
        <ele>1724</ele>
        <time>2014-06-07T03:55:48Z</time>
      </trkpt>
      <trkpt lat="42.87113" lon="0.08599">
        <ele>1726</ele>
        <time>2014-06-07T03:56:01Z</time>
      </trkpt>
      <trkpt lat="42.87104" lon="0.08596">
        <ele>1728</ele>
        <time>2014-06-07T03:56:15Z</time>
      </trkpt>
      <trkpt lat="42.871" lon="0.0859">
        <ele>1730</ele>
        <time>2014-06-07T03:56:27Z</time>
      </trkpt>
      <trkpt lat="42.87094" lon="0.0859">
        <ele>1734</ele>
        <time>2014-06-07T03:56:38Z</time>
      </trkpt>
      <trkpt lat="42.87094" lon="0.08591">
        <ele>1735</ele>
        <time>2014-06-07T03:56:40Z</time>
      </trkpt>
      <trkpt lat="42.87088" lon="0.08591">
        <ele>1737</ele>
        <time>2014-06-07T03:56:51Z</time>
      </trkpt>
      <trkpt lat="42.87086" lon="0.08594">
        <ele>1739</ele>
        <time>2014-06-07T03:57:02Z</time>
      </trkpt>
      <trkpt lat="42.87079" lon="0.08598">
        <ele>1741</ele>
        <time>2014-06-07T03:57:15Z</time>
      </trkpt>
      <trkpt lat="42.87075" lon="0.08598">
        <ele>1742</ele>
        <time>2014-06-07T03:57:23Z</time>
      </trkpt>
      <trkpt lat="42.87072" lon="0.08604">
        <ele>1745</ele>
        <time>2014-06-07T03:57:34Z</time>
      </trkpt>
      <trkpt lat="42.87069" lon="0.08606">
        <ele>1743</ele>
        <time>2014-06-07T03:57:42Z</time>
      </trkpt>
      <trkpt lat="42.87067" lon="0.0861">
        <ele>1746</ele>
        <time>2014-06-07T03:57:47Z</time>
      </trkpt>
      <trkpt lat="42.8706" lon="0.08611">
        <ele>1748</ele>
        <time>2014-06-07T03:57:57Z</time>
      </trkpt>
      <trkpt lat="42.87058" lon="0.08614">
        <ele>1745</ele>
        <time>2014-06-07T03:58:03Z</time>
      </trkpt>
      <trkpt lat="42.87054" lon="0.08615">
        <ele>1742</ele>
        <time>2014-06-07T03:58:09Z</time>
      </trkpt>
      <trkpt lat="42.87053" lon="0.08616">
        <ele>1745</ele>
        <time>2014-06-07T03:58:12Z</time>
      </trkpt>
      <trkpt lat="42.87052" lon="0.08617">
        <ele>1744</ele>
        <time>2014-06-07T03:58:13Z</time>
      </trkpt>
      <trkpt lat="42.87045" lon="0.08617">
        <ele>1745</ele>
        <time>2014-06-07T03:58:22Z</time>
      </trkpt>
      <trkpt lat="42.87044" lon="0.08623">
        <ele>1749</ele>
        <time>2014-06-07T03:58:29Z</time>
      </trkpt>
      <trkpt lat="42.87043" lon="0.0863">
        <ele>1748</ele>
        <time>2014-06-07T03:58:42Z</time>
      </trkpt>
      <trkpt lat="42.87041" lon="0.08629">
        <ele>1746</ele>
        <time>2014-06-07T03:58:47Z</time>
      </trkpt>
      <trkpt lat="42.8704" lon="0.08632">
        <ele>1744</ele>
        <time>2014-06-07T03:58:50Z</time>
      </trkpt>
      <trkpt lat="42.87039" lon="0.08631">
        <ele>1749</ele>
        <time>2014-06-07T03:58:54Z</time>
      </trkpt>
      <trkpt lat="42.87038" lon="0.08631">
        <ele>1752</ele>
        <time>2014-06-07T03:58:56Z</time>
      </trkpt>
      <trkpt lat="42.87037" lon="0.0863">
        <ele>1752</ele>
        <time>2014-06-07T03:58:57Z</time>
      </trkpt>
      <trkpt lat="42.87036" lon="0.08628">
        <ele>1751</ele>
        <time>2014-06-07T03:58:59Z</time>
      </trkpt>
      <trkpt lat="42.87031" lon="0.08625">
        <ele>1752</ele>
        <time>2014-06-07T03:59:15Z</time>
      </trkpt>
      <trkpt lat="42.8703" lon="0.08623">
        <ele>1751</ele>
        <time>2014-06-07T03:59:19Z</time>
      </trkpt>
      <trkpt lat="42.87026" lon="0.08624">
        <ele>1754</ele>
        <time>2014-06-07T03:59:33Z</time>
      </trkpt>
      <trkpt lat="42.87026" lon="0.08625">
        <ele>1756</ele>
        <time>2014-06-07T03:59:36Z</time>
      </trkpt>
      <trkpt lat="42.87026" lon="0.08624">
        <ele>1754</ele>
        <time>2014-06-07T03:59:39Z</time>
      </trkpt>
      <trkpt lat="42.87023" lon="0.08621">
        <ele>1756</ele>
        <time>2014-06-07T03:59:51Z</time>
      </trkpt>
      <trkpt lat="42.87021" lon="0.08617">
        <ele>1758</ele>
        <time>2014-06-07T04:00:04Z</time>
      </trkpt>
      <trkpt lat="42.87016" lon="0.08615">
        <ele>1760</ele>
        <time>2014-06-07T04:00:18Z</time>
      </trkpt>
      <trkpt lat="42.87012" lon="0.08615">
        <ele>1762</ele>
        <time>2014-06-07T04:00:25Z</time>
      </trkpt>
      <trkpt lat="42.87011" lon="0.0862">
        <ele>1763</ele>
        <time>2014-06-07T04:00:34Z</time>
      </trkpt>
      <trkpt lat="42.87001" lon="0.08621">
        <ele>1761</ele>
        <time>2014-06-07T04:00:48Z</time>
      </trkpt>
      <trkpt lat="42.86996" lon="0.0862">
        <ele>1761</ele>
        <time>2014-06-07T04:01:01Z</time>
      </trkpt>
      <trkpt lat="42.86993" lon="0.08621">
        <ele>1763</ele>
        <time>2014-06-07T04:01:11Z</time>
      </trkpt>
      <trkpt lat="42.8699" lon="0.08623">
        <ele>1767</ele>
        <time>2014-06-07T04:01:22Z</time>
      </trkpt>
      <trkpt lat="42.86987" lon="0.08621">
        <ele>1769</ele>
        <time>2014-06-07T04:01:33Z</time>
      </trkpt>
      <trkpt lat="42.86986" lon="0.08624">
        <ele>1770</ele>
        <time>2014-06-07T04:01:43Z</time>
      </trkpt>
      <trkpt lat="42.86981" lon="0.08625">
        <ele>1770</ele>
        <time>2014-06-07T04:01:53Z</time>
      </trkpt>
      <trkpt lat="42.8698" lon="0.08629">
        <ele>1773</ele>
        <time>2014-06-07T04:02:05Z</time>
      </trkpt>
      <trkpt lat="42.86976" lon="0.08628">
        <ele>1777</ele>
        <time>2014-06-07T04:02:15Z</time>
      </trkpt>
      <trkpt lat="42.86971" lon="0.08628">
        <ele>1778</ele>
        <time>2014-06-07T04:02:28Z</time>
      </trkpt>
      <trkpt lat="42.86969" lon="0.08631">
        <ele>1780</ele>
        <time>2014-06-07T04:02:39Z</time>
      </trkpt>
      <trkpt lat="42.86963" lon="0.08629">
        <ele>1783</ele>
        <time>2014-06-07T04:02:52Z</time>
      </trkpt>
      <trkpt lat="42.86962" lon="0.0863">
        <ele>1787</ele>
        <time>2014-06-07T04:02:57Z</time>
      </trkpt>
      <trkpt lat="42.8696" lon="0.0863">
        <ele>1788</ele>
        <time>2014-06-07T04:03:07Z</time>
      </trkpt>
      <trkpt lat="42.86958" lon="0.08631">
        <ele>1791</ele>
        <time>2014-06-07T04:03:18Z</time>
      </trkpt>
      <trkpt lat="42.86956" lon="0.08629">
        <ele>1792</ele>
        <time>2014-06-07T04:03:30Z</time>
      </trkpt>
      <trkpt lat="42.86954" lon="0.08626">
        <ele>1793</ele>
        <time>2014-06-07T04:03:53Z</time>
      </trkpt>
      <trkpt lat="42.86952" lon="0.08633">
        <ele>1795</ele>
        <time>2014-06-07T04:04:04Z</time>
      </trkpt>
      <trkpt lat="42.8695" lon="0.08638">
        <ele>1798</ele>
        <time>2014-06-07T04:04:18Z</time>
      </trkpt>
      <trkpt lat="42.86951" lon="0.08631">
        <ele>1796</ele>
        <time>2014-06-07T04:04:39Z</time>
      </trkpt>
      <trkpt lat="42.86951" lon="0.08632">
        <ele>1795</ele>
        <time>2014-06-07T04:04:43Z</time>
      </trkpt>
      <trkpt lat="42.86951" lon="0.08633">
        <ele>1794</ele>
        <time>2014-06-07T04:04:57Z</time>
      </trkpt>
      <trkpt lat="42.86948" lon="0.0864">
        <ele>1793</ele>
        <time>2014-06-07T04:05:30Z</time>
      </trkpt>
      <trkpt lat="42.86951" lon="0.0864">
        <ele>1795</ele>
        <time>2014-06-07T04:05:38Z</time>
      </trkpt>
      <trkpt lat="42.86951" lon="0.08638">
        <ele>1793</ele>
        <time>2014-06-07T04:05:47Z</time>
      </trkpt>
      <trkpt lat="42.86951" lon="0.08638">
        <ele>1792</ele>
        <time>2014-06-07T04:05:49Z</time>
      </trkpt>
      <trkpt lat="42.8695" lon="0.08637">
        <ele>1788</ele>
        <time>2014-06-07T04:05:57Z</time>
      </trkpt>
      <trkpt lat="42.86951" lon="0.08636">
        <ele>1785</ele>
        <time>2014-06-07T04:06:02Z</time>
      </trkpt>
      <trkpt lat="42.86952" lon="0.08641">
        <ele>1788</ele>
        <time>2014-06-07T04:06:07Z</time>
      </trkpt>
      <trkpt lat="42.8695" lon="0.08647">
        <ele>1789</ele>
        <time>2014-06-07T04:06:18Z</time>
      </trkpt>
      <trkpt lat="42.86949" lon="0.0865">
        <ele>1791</ele>
        <time>2014-06-07T04:06:22Z</time>
      </trkpt>
      <trkpt lat="42.86945" lon="0.08663">
        <ele>1793</ele>
        <time>2014-06-07T04:06:36Z</time>
      </trkpt>
      <trkpt lat="42.86944" lon="0.08666">
        <ele>1793</ele>
        <time>2014-06-07T04:06:39Z</time>
      </trkpt>
      <trkpt lat="42.86942" lon="0.08674">
        <ele>1793</ele>
        <time>2014-06-07T04:06:46Z</time>
      </trkpt>
      <trkpt lat="42.86938" lon="0.08687">
        <ele>1797</ele>
        <time>2014-06-07T04:07:00Z</time>
      </trkpt>
      <trkpt lat="42.86929" lon="0.08695">
        <ele>1799</ele>
        <time>2014-06-07T04:07:15Z</time>
      </trkpt>
      <trkpt lat="42.86922" lon="0.087">
        <ele>1803</ele>
        <time>2014-06-07T04:07:28Z</time>
      </trkpt>
      <trkpt lat="42.86914" lon="0.08706">
        <ele>1802</ele>
        <time>2014-06-07T04:07:40Z</time>
      </trkpt>
      <trkpt lat="42.86912" lon="0.08712">
        <ele>1800</ele>
        <time>2014-06-07T04:07:48Z</time>
      </trkpt>
      <trkpt lat="42.86907" lon="0.08717">
        <ele>1803</ele>
        <time>2014-06-07T04:07:56Z</time>
      </trkpt>
      <trkpt lat="42.86897" lon="0.08724">
        <ele>1803</ele>
        <time>2014-06-07T04:08:10Z</time>
      </trkpt>
      <trkpt lat="42.86891" lon="0.08731">
        <ele>1807</ele>
        <time>2014-06-07T04:08:19Z</time>
      </trkpt>
      <trkpt lat="42.86882" lon="0.08741">
        <ele>1810</ele>
        <time>2014-06-07T04:08:32Z</time>
      </trkpt>
      <trkpt lat="42.86876" lon="0.08745">
        <ele>1813</ele>
        <time>2014-06-07T04:08:40Z</time>
      </trkpt>
      <trkpt lat="42.86871" lon="0.08752">
        <ele>1815</ele>
        <time>2014-06-07T04:08:49Z</time>
      </trkpt>
      <trkpt lat="42.86865" lon="0.0876">
        <ele>1816</ele>
        <time>2014-06-07T04:08:58Z</time>
      </trkpt>
      <trkpt lat="42.86856" lon="0.0877">
        <ele>1815</ele>
        <time>2014-06-07T04:09:12Z</time>
      </trkpt>
      <trkpt lat="42.86852" lon="0.08782">
        <ele>1815</ele>
        <time>2014-06-07T04:09:24Z</time>
      </trkpt>
      <trkpt lat="42.8685" lon="0.0879">
        <ele>1816</ele>
        <time>2014-06-07T04:09:31Z</time>
      </trkpt>
      <trkpt lat="42.86848" lon="0.08806">
        <ele>1818</ele>
        <time>2014-06-07T04:09:45Z</time>
      </trkpt>
      <trkpt lat="42.86846" lon="0.08814">
        <ele>1821</ele>
        <time>2014-06-07T04:09:50Z</time>
      </trkpt>
      <trkpt lat="42.86846" lon="0.08815">
        <ele>1822</ele>
        <time>2014-06-07T04:09:51Z</time>
      </trkpt>
      <trkpt lat="42.8684" lon="0.08822">
        <ele>1820</ele>
        <time>2014-06-07T04:10:04Z</time>
      </trkpt>
      <trkpt lat="42.86836" lon="0.08822">
        <ele>1817</ele>
        <time>2014-06-07T04:10:08Z</time>
      </trkpt>
      <trkpt lat="42.86834" lon="0.08821">
        <ele>1816</ele>
        <time>2014-06-07T04:10:10Z</time>
      </trkpt>
      <trkpt lat="42.8683" lon="0.08817">
        <ele>1817</ele>
        <time>2014-06-07T04:10:15Z</time>
      </trkpt>
      <trkpt lat="42.86829" lon="0.08813">
        <ele>1818</ele>
        <time>2014-06-07T04:10:19Z</time>
      </trkpt>
      <trkpt lat="42.86829" lon="0.08812">
        <ele>1819</ele>
        <time>2014-06-07T04:10:20Z</time>
      </trkpt>
      <trkpt lat="42.86829" lon="0.08805">
        <ele>1820</ele>
        <time>2014-06-07T04:10:27Z</time>
      </trkpt>
      <trkpt lat="42.8683" lon="0.08804">
        <ele>1821</ele>
        <time>2014-06-07T04:10:29Z</time>
      </trkpt>
      <trkpt lat="42.86829" lon="0.08795">
        <ele>1818</ele>
        <time>2014-06-07T04:10:35Z</time>
      </trkpt>
      <trkpt lat="42.8683" lon="0.08793">
        <ele>1818</ele>
        <time>2014-06-07T04:10:37Z</time>
      </trkpt>
      <trkpt lat="42.8683" lon="0.08789">
        <ele>1819</ele>
        <time>2014-06-07T04:10:40Z</time>
      </trkpt>
      <trkpt lat="42.86831" lon="0.08786">
        <ele>1819</ele>
        <time>2014-06-07T04:10:42Z</time>
      </trkpt>
      <trkpt lat="42.86831" lon="0.08779">
        <ele>1820</ele>
        <time>2014-06-07T04:10:49Z</time>
      </trkpt>
      <trkpt lat="42.86832" lon="0.08773">
        <ele>1822</ele>
        <time>2014-06-07T04:10:53Z</time>
      </trkpt>
      <trkpt lat="42.86837" lon="0.08755">
        <ele>1823</ele>
        <time>2014-06-07T04:11:09Z</time>
      </trkpt>
      <trkpt lat="42.86838" lon="0.08754">
        <ele>1823</ele>
        <time>2014-06-07T04:11:10Z</time>
      </trkpt>
      <trkpt lat="42.86841" lon="0.08746">
        <ele>1828</ele>
        <time>2014-06-07T04:11:18Z</time>
      </trkpt>
      <trkpt lat="42.86841" lon="0.08744">
        <ele>1830</ele>
        <time>2014-06-07T04:11:21Z</time>
      </trkpt>
      <trkpt lat="42.86846" lon="0.08733">
        <ele>1826</ele>
        <time>2014-06-07T04:11:31Z</time>
      </trkpt>
      <trkpt lat="42.86847" lon="0.08732">
        <ele>1823</ele>
        <time>2014-06-07T04:11:33Z</time>
      </trkpt>
      <trkpt lat="42.8685" lon="0.08728">
        <ele>1826</ele>
        <time>2014-06-07T04:11:38Z</time>
      </trkpt>
      <trkpt lat="42.86853" lon="0.08722">
        <ele>1825</ele>
        <time>2014-06-07T04:11:43Z</time>
      </trkpt>
      <trkpt lat="42.86855" lon="0.08713">
        <ele>1829</ele>
        <time>2014-06-07T04:11:51Z</time>
      </trkpt>
      <trkpt lat="42.86856" lon="0.08711">
        <ele>1830</ele>
        <time>2014-06-07T04:11:53Z</time>
      </trkpt>
      <trkpt lat="42.86859" lon="0.08694">
        <ele>1830</ele>
        <time>2014-06-07T04:12:07Z</time>
      </trkpt>
      <trkpt lat="42.86863" lon="0.08685">
        <ele>1832</ele>
        <time>2014-06-07T04:12:14Z</time>
      </trkpt>
      <trkpt lat="42.86867" lon="0.08669">
        <ele>1833</ele>
        <time>2014-06-07T04:12:28Z</time>
      </trkpt>
      <trkpt lat="42.86868" lon="0.08663">
        <ele>1835</ele>
        <time>2014-06-07T04:12:32Z</time>
      </trkpt>
      <trkpt lat="42.86868" lon="0.08662">
        <ele>1835</ele>
        <time>2014-06-07T04:12:33Z</time>
      </trkpt>
      <trkpt lat="42.86866" lon="0.08646">
        <ele>1841</ele>
        <time>2014-06-07T04:12:46Z</time>
      </trkpt>
      <trkpt lat="42.86866" lon="0.08642">
        <ele>1843</ele>
        <time>2014-06-07T04:12:50Z</time>
      </trkpt>
      <trkpt lat="42.86863" lon="0.08631">
        <ele>1842</ele>
        <time>2014-06-07T04:13:03Z</time>
      </trkpt>
      <trkpt lat="42.86859" lon="0.0863">
        <ele>1842</ele>
        <time>2014-06-07T04:13:15Z</time>
      </trkpt>
      <trkpt lat="42.86858" lon="0.08633">
        <ele>1846</ele>
        <time>2014-06-07T04:13:28Z</time>
      </trkpt>
      <trkpt lat="42.86857" lon="0.08633">
        <ele>1847</ele>
        <time>2014-06-07T04:13:30Z</time>
      </trkpt>
      <trkpt lat="42.86855" lon="0.08633">
        <ele>1849</ele>
        <time>2014-06-07T04:13:35Z</time>
      </trkpt>
      <trkpt lat="42.86849" lon="0.08635">
        <ele>1848</ele>
        <time>2014-06-07T04:13:44Z</time>
      </trkpt>
      <trkpt lat="42.86848" lon="0.08636">
        <ele>1844</ele>
        <time>2014-06-07T04:13:51Z</time>
      </trkpt>
      <trkpt lat="42.86847" lon="0.08636">
        <ele>1849</ele>
        <time>2014-06-07T04:13:54Z</time>
      </trkpt>
      <trkpt lat="42.86844" lon="0.08637">
        <ele>1851</ele>
        <time>2014-06-07T04:14:12Z</time>
      </trkpt>
      <trkpt lat="42.86836" lon="0.08636">
        <ele>1852</ele>
        <time>2014-06-07T04:14:25Z</time>
      </trkpt>
      <trkpt lat="42.86831" lon="0.08638">
        <ele>1854</ele>
        <time>2014-06-07T04:14:39Z</time>
      </trkpt>
      <trkpt lat="42.86827" lon="0.08642">
        <ele>1854</ele>
        <time>2014-06-07T04:14:53Z</time>
      </trkpt>
      <trkpt lat="42.86822" lon="0.08645">
        <ele>1856</ele>
        <time>2014-06-07T04:15:04Z</time>
      </trkpt>
      <trkpt lat="42.86817" lon="0.08645">
        <ele>1860</ele>
        <time>2014-06-07T04:15:16Z</time>
      </trkpt>
      <trkpt lat="42.86814" lon="0.08645">
        <ele>1860</ele>
        <time>2014-06-07T04:15:31Z</time>
      </trkpt>
      <trkpt lat="42.86812" lon="0.08647">
        <ele>1863</ele>
        <time>2014-06-07T04:15:44Z</time>
      </trkpt>
      <trkpt lat="42.86808" lon="0.08647">
        <ele>1864</ele>
        <time>2014-06-07T04:15:54Z</time>
      </trkpt>
      <trkpt lat="42.86807" lon="0.08647">
        <ele>1867</ele>
        <time>2014-06-07T04:15:59Z</time>
      </trkpt>
      <trkpt lat="42.86805" lon="0.08648">
        <ele>1866</ele>
        <time>2014-06-07T04:16:13Z</time>
      </trkpt>
      <trkpt lat="42.86805" lon="0.08648">
        <ele>1867</ele>
        <time>2014-06-07T04:16:15Z</time>
      </trkpt>
      <trkpt lat="42.86803" lon="0.08646">
        <ele>1868</ele>
        <time>2014-06-07T04:16:26Z</time>
      </trkpt>
      <trkpt lat="42.86802" lon="0.08645">
        <ele>1869</ele>
        <time>2014-06-07T04:16:32Z</time>
      </trkpt>
      <trkpt lat="42.86798" lon="0.08644">
        <ele>1870</ele>
        <time>2014-06-07T04:16:45Z</time>
      </trkpt>
      <trkpt lat="42.86793" lon="0.08652">
        <ele>1872</ele>
        <time>2014-06-07T04:16:59Z</time>
      </trkpt>
      <trkpt lat="42.8679" lon="0.08656">
        <ele>1875</ele>
        <time>2014-06-07T04:17:06Z</time>
      </trkpt>
      <trkpt lat="42.86781" lon="0.08662">
        <ele>1876</ele>
        <time>2014-06-07T04:17:19Z</time>
      </trkpt>
      <trkpt lat="42.86773" lon="0.08672">
        <ele>1875</ele>
        <time>2014-06-07T04:17:34Z</time>
      </trkpt>
      <trkpt lat="42.86772" lon="0.08673">
        <ele>1875</ele>
        <time>2014-06-07T04:17:35Z</time>
      </trkpt>
      <trkpt lat="42.86761" lon="0.08682">
        <ele>1877</ele>
        <time>2014-06-07T04:17:51Z</time>
      </trkpt>
      <trkpt lat="42.86757" lon="0.08689">
        <ele>1880</ele>
        <time>2014-06-07T04:18:03Z</time>
      </trkpt>
      <trkpt lat="42.86756" lon="0.08691">
        <ele>1883</ele>
        <time>2014-06-07T04:18:06Z</time>
      </trkpt>
      <trkpt lat="42.86751" lon="0.08695">
        <ele>1881</ele>
        <time>2014-06-07T04:18:14Z</time>
      </trkpt>
      <trkpt lat="42.86743" lon="0.08698">
        <ele>1882</ele>
        <time>2014-06-07T04:18:28Z</time>
      </trkpt>
      <trkpt lat="42.86734" lon="0.08703">
        <ele>1882</ele>
        <time>2014-06-07T04:18:43Z</time>
      </trkpt>
      <trkpt lat="42.86732" lon="0.08704">
        <ele>1888</ele>
        <time>2014-06-07T04:18:46Z</time>
      </trkpt>
      <trkpt lat="42.86731" lon="0.08705">
        <ele>1889</ele>
        <time>2014-06-07T04:18:48Z</time>
      </trkpt>
      <trkpt lat="42.8673" lon="0.08706">
        <ele>1888</ele>
        <time>2014-06-07T04:18:50Z</time>
      </trkpt>
      <trkpt lat="42.86729" lon="0.08708">
        <ele>1888</ele>
        <time>2014-06-07T04:18:55Z</time>
      </trkpt>
      <trkpt lat="42.86725" lon="0.08716">
        <ele>1889</ele>
        <time>2014-06-07T04:19:02Z</time>
      </trkpt>
      <trkpt lat="42.86722" lon="0.08719">
        <ele>1891</ele>
        <time>2014-06-07T04:19:09Z</time>
      </trkpt>
      <trkpt lat="42.8672" lon="0.08721">
        <ele>1893</ele>
        <time>2014-06-07T04:19:12Z</time>
      </trkpt>
      <trkpt lat="42.86714" lon="0.0873">
        <ele>1895</ele>
        <time>2014-06-07T04:19:27Z</time>
      </trkpt>
      <trkpt lat="42.86709" lon="0.08736">
        <ele>1892</ele>
        <time>2014-06-07T04:19:38Z</time>
      </trkpt>
      <trkpt lat="42.867" lon="0.08746">
        <ele>1894</ele>
        <time>2014-06-07T04:19:55Z</time>
      </trkpt>
      <trkpt lat="42.8669" lon="0.08753">
        <ele>1895</ele>
        <time>2014-06-07T04:20:08Z</time>
      </trkpt>
      <trkpt lat="42.86681" lon="0.08758">
        <ele>1894</ele>
        <time>2014-06-07T04:20:22Z</time>
      </trkpt>
      <trkpt lat="42.86673" lon="0.08761">
        <ele>1893</ele>
        <time>2014-06-07T04:20:38Z</time>
      </trkpt>
      <trkpt lat="42.86662" lon="0.08765">
        <ele>1896</ele>
        <time>2014-06-07T04:20:56Z</time>
      </trkpt>
      <trkpt lat="42.86657" lon="0.08771">
        <ele>1897</ele>
        <time>2014-06-07T04:21:13Z</time>
      </trkpt>
      <trkpt lat="42.86649" lon="0.08777">
        <ele>1899</ele>
        <time>2014-06-07T04:21:28Z</time>
      </trkpt>
      <trkpt lat="42.86641" lon="0.0879">
        <ele>1901</ele>
        <time>2014-06-07T04:21:44Z</time>
      </trkpt>
      <trkpt lat="42.86636" lon="0.08804">
        <ele>1901</ele>
        <time>2014-06-07T04:21:59Z</time>
      </trkpt>
      <trkpt lat="42.86635" lon="0.08812">
        <ele>1901</ele>
        <time>2014-06-07T04:22:08Z</time>
      </trkpt>
      <trkpt lat="42.86635" lon="0.08819">
        <ele>1904</ele>
        <time>2014-06-07T04:22:23Z</time>
      </trkpt>
      <trkpt lat="42.86636" lon="0.0883">
        <ele>1907</ele>
        <time>2014-06-07T04:22:34Z</time>
      </trkpt>
      <trkpt lat="42.86639" lon="0.08842">
        <ele>1910</ele>
        <time>2014-06-07T04:22:48Z</time>
      </trkpt>
      <trkpt lat="42.86642" lon="0.08849">
        <ele>1913</ele>
        <time>2014-06-07T04:23:00Z</time>
      </trkpt>
      <trkpt lat="42.86644" lon="0.0885">
        <ele>1916</ele>
        <time>2014-06-07T04:23:05Z</time>
      </trkpt>
      <trkpt lat="42.86651" lon="0.08859">
        <ele>1917</ele>
        <time>2014-06-07T04:23:19Z</time>
      </trkpt>
      <trkpt lat="42.86658" lon="0.0887">
        <ele>1917</ele>
        <time>2014-06-07T04:23:34Z</time>
      </trkpt>
      <trkpt lat="42.86653" lon="0.08871">
        <ele>1914</ele>
        <time>2014-06-07T04:23:53Z</time>
      </trkpt>
      <trkpt lat="42.86653" lon="0.08871">
        <ele>1912</ele>
        <time>2014-06-07T04:24:08Z</time>
      </trkpt>
      <trkpt lat="42.86653" lon="0.08871">
        <ele>1911</ele>
        <time>2014-06-07T04:24:11Z</time>
      </trkpt>
      <trkpt lat="42.86658" lon="0.08877">
        <ele>1909</ele>
        <time>2014-06-07T04:24:24Z</time>
      </trkpt>
      <trkpt lat="42.86657" lon="0.08891">
        <ele>1911</ele>
        <time>2014-06-07T04:24:39Z</time>
      </trkpt>
      <trkpt lat="42.86655" lon="0.08901">
        <ele>1914</ele>
        <time>2014-06-07T04:24:52Z</time>
      </trkpt>
      <trkpt lat="42.86654" lon="0.0891">
        <ele>1917</ele>
        <time>2014-06-07T04:25:01Z</time>
      </trkpt>
      <trkpt lat="42.86652" lon="0.08923">
        <ele>1919</ele>
        <time>2014-06-07T04:25:16Z</time>
      </trkpt>
      <trkpt lat="42.86648" lon="0.08938">
        <ele>1921</ele>
        <time>2014-06-07T04:25:30Z</time>
      </trkpt>
      <trkpt lat="42.86645" lon="0.0895">
        <ele>1924</ele>
        <time>2014-06-07T04:25:43Z</time>
      </trkpt>
      <trkpt lat="42.8664" lon="0.08961">
        <ele>1925</ele>
        <time>2014-06-07T04:25:56Z</time>
      </trkpt>
      <trkpt lat="42.86633" lon="0.08969">
        <ele>1928</ele>
        <time>2014-06-07T04:26:08Z</time>
      </trkpt>
      <trkpt lat="42.86629" lon="0.08978">
        <ele>1931</ele>
        <time>2014-06-07T04:26:17Z</time>
      </trkpt>
      <trkpt lat="42.86628" lon="0.08981">
        <ele>1932</ele>
        <time>2014-06-07T04:26:20Z</time>
      </trkpt>
      <trkpt lat="42.86624" lon="0.08986">
        <ele>1934</ele>
        <time>2014-06-07T04:26:33Z</time>
      </trkpt>
      <trkpt lat="42.86621" lon="0.08984">
        <ele>1934</ele>
        <time>2014-06-07T04:27:14Z</time>
      </trkpt>
      <trkpt lat="42.86619" lon="0.08985">
        <ele>1933</ele>
        <time>2014-06-07T04:27:31Z</time>
      </trkpt>
      <trkpt lat="42.8662" lon="0.08993">
        <ele>1932</ele>
        <time>2014-06-07T04:27:42Z</time>
      </trkpt>
      <trkpt lat="42.86619" lon="0.08998">
        <ele>1933</ele>
        <time>2014-06-07T04:27:54Z</time>
      </trkpt>
      <trkpt lat="42.86619" lon="0.09003">
        <ele>1935</ele>
        <time>2014-06-07T04:28:07Z</time>
      </trkpt>
      <trkpt lat="42.86618" lon="0.09009">
        <ele>1936</ele>
        <time>2014-06-07T04:28:19Z</time>
      </trkpt>
      <trkpt lat="42.86615" lon="0.09009">
        <ele>1937</ele>
        <time>2014-06-07T04:28:33Z</time>
      </trkpt>
      <trkpt lat="42.86612" lon="0.09013">
        <ele>1940</ele>
        <time>2014-06-07T04:28:44Z</time>
      </trkpt>
      <trkpt lat="42.86612" lon="0.09016">
        <ele>1942</ele>
        <time>2014-06-07T04:28:48Z</time>
      </trkpt>
      <trkpt lat="42.86615" lon="0.09025">
        <ele>1942</ele>
        <time>2014-06-07T04:29:01Z</time>
      </trkpt>
      <trkpt lat="42.86615" lon="0.0903">
        <ele>1944</ele>
        <time>2014-06-07T04:29:13Z</time>
      </trkpt>
      <trkpt lat="42.86609" lon="0.09034">
        <ele>1944</ele>
        <time>2014-06-07T04:29:28Z</time>
      </trkpt>
      <trkpt lat="42.86599" lon="0.09038">
        <ele>1945</ele>
        <time>2014-06-07T04:29:43Z</time>
      </trkpt>
      <trkpt lat="42.86597" lon="0.09041">
        <ele>1946</ele>
        <time>2014-06-07T04:29:54Z</time>
      </trkpt>
      <trkpt lat="42.86594" lon="0.09042">
        <ele>1946</ele>
        <time>2014-06-07T04:30:10Z</time>
      </trkpt>
      <trkpt lat="42.86591" lon="0.09044">
        <ele>1949</ele>
        <time>2014-06-07T04:30:19Z</time>
      </trkpt>
      <trkpt lat="42.86585" lon="0.09036">
        <ele>1951</ele>
        <time>2014-06-07T04:30:31Z</time>
      </trkpt>
      <trkpt lat="42.86578" lon="0.09032">
        <ele>1952</ele>
        <time>2014-06-07T04:30:44Z</time>
      </trkpt>
      <trkpt lat="42.86575" lon="0.09033">
        <ele>1954</ele>
        <time>2014-06-07T04:30:59Z</time>
      </trkpt>
      <trkpt lat="42.86574" lon="0.09034">
        <ele>1954</ele>
        <time>2014-06-07T04:31:00Z</time>
      </trkpt>
      <trkpt lat="42.86575" lon="0.09034">
        <ele>1951</ele>
        <time>2014-06-07T04:31:03Z</time>
      </trkpt>
      <trkpt lat="42.86575" lon="0.09031">
        <ele>1949</ele>
        <time>2014-06-07T04:31:33Z</time>
      </trkpt>
      <trkpt lat="42.86576" lon="0.09035">
        <ele>1948</ele>
        <time>2014-06-07T04:32:00Z</time>
      </trkpt>
      <trkpt lat="42.86575" lon="0.09037">
        <ele>1949</ele>
        <time>2014-06-07T04:32:01Z</time>
      </trkpt>
      <trkpt lat="42.86573" lon="0.09045">
        <ele>1952</ele>
        <time>2014-06-07T04:32:13Z</time>
      </trkpt>
      <trkpt lat="42.86569" lon="0.09049">
        <ele>1954</ele>
        <time>2014-06-07T04:32:27Z</time>
      </trkpt>
      <trkpt lat="42.86562" lon="0.0905">
        <ele>1955</ele>
        <time>2014-06-07T04:32:41Z</time>
      </trkpt>
      <trkpt lat="42.86558" lon="0.09052">
        <ele>1955</ele>
        <time>2014-06-07T04:32:56Z</time>
      </trkpt>
      <trkpt lat="42.86555" lon="0.09054">
        <ele>1958</ele>
        <time>2014-06-07T04:33:05Z</time>
      </trkpt>
      <trkpt lat="42.86548" lon="0.09055">
        <ele>1961</ele>
        <time>2014-06-07T04:33:21Z</time>
      </trkpt>
      <trkpt lat="42.86542" lon="0.09053">
        <ele>1964</ele>
        <time>2014-06-07T04:33:36Z</time>
      </trkpt>
      <trkpt lat="42.8654" lon="0.09051">
        <ele>1964</ele>
        <time>2014-06-07T04:33:52Z</time>
      </trkpt>
      <trkpt lat="42.86538" lon="0.09046">
        <ele>1968</ele>
        <time>2014-06-07T04:34:05Z</time>
      </trkpt>
      <trkpt lat="42.86538" lon="0.09045">
        <ele>1968</ele>
        <time>2014-06-07T04:34:06Z</time>
      </trkpt>
      <trkpt lat="42.86535" lon="0.09045">
        <ele>1971</ele>
        <time>2014-06-07T04:34:17Z</time>
      </trkpt>
      <trkpt lat="42.86533" lon="0.09042">
        <ele>1973</ele>
        <time>2014-06-07T04:34:31Z</time>
      </trkpt>
      <trkpt lat="42.86525" lon="0.09044">
        <ele>1975</ele>
        <time>2014-06-07T04:34:46Z</time>
      </trkpt>
      <trkpt lat="42.86523" lon="0.09042">
        <ele>1977</ele>
        <time>2014-06-07T04:34:58Z</time>
      </trkpt>
      <trkpt lat="42.86522" lon="0.09044">
        <ele>1978</ele>
        <time>2014-06-07T04:35:13Z</time>
      </trkpt>
      <trkpt lat="42.86515" lon="0.09041">
        <ele>1978</ele>
        <time>2014-06-07T04:35:23Z</time>
      </trkpt>
      <trkpt lat="42.86517" lon="0.09041">
        <ele>1979</ele>
        <time>2014-06-07T04:35:40Z</time>
      </trkpt>
      <trkpt lat="42.86515" lon="0.09037">
        <ele>1982</ele>
        <time>2014-06-07T04:35:56Z</time>
      </trkpt>
      <trkpt lat="42.86513" lon="0.09041">
        <ele>1984</ele>
        <time>2014-06-07T04:36:08Z</time>
      </trkpt>
      <trkpt lat="42.86511" lon="0.09034">
        <ele>1985</ele>
        <time>2014-06-07T04:36:18Z</time>
      </trkpt>
      <trkpt lat="42.86508" lon="0.09032">
        <ele>1986</ele>
        <time>2014-06-07T04:36:30Z</time>
      </trkpt>
      <trkpt lat="42.86506" lon="0.09029">
        <ele>1986</ele>
        <time>2014-06-07T04:36:42Z</time>
      </trkpt>
      <trkpt lat="42.86504" lon="0.09024">
        <ele>1986</ele>
        <time>2014-06-07T04:36:56Z</time>
      </trkpt>
      <trkpt lat="42.86503" lon="0.09018">
        <ele>1987</ele>
        <time>2014-06-07T04:37:09Z</time>
      </trkpt>
      <trkpt lat="42.86503" lon="0.09017">
        <ele>1987</ele>
        <time>2014-06-07T04:37:23Z</time>
      </trkpt>
      <trkpt lat="42.86498" lon="0.09015">
        <ele>1990</ele>
        <time>2014-06-07T04:37:40Z</time>
      </trkpt>
      <trkpt lat="42.86497" lon="0.09012">
        <ele>1991</ele>
        <time>2014-06-07T04:37:48Z</time>
      </trkpt>
      <trkpt lat="42.86498" lon="0.09011">
        <ele>1994</ele>
        <time>2014-06-07T04:38:00Z</time>
      </trkpt>
      <trkpt lat="42.86496" lon="0.0901">
        <ele>1997</ele>
        <time>2014-06-07T04:38:10Z</time>
      </trkpt>
      <trkpt lat="42.86495" lon="0.0901">
        <ele>1998</ele>
        <time>2014-06-07T04:38:12Z</time>
      </trkpt>
      <trkpt lat="42.86494" lon="0.09008">
        <ele>2002</ele>
        <time>2014-06-07T04:38:23Z</time>
      </trkpt>
      <trkpt lat="42.86493" lon="0.09012">
        <ele>2004</ele>
        <time>2014-06-07T04:38:36Z</time>
      </trkpt>
      <trkpt lat="42.8649" lon="0.09009">
        <ele>2004</ele>
        <time>2014-06-07T04:38:50Z</time>
      </trkpt>
      <trkpt lat="42.86487" lon="0.09008">
        <ele>2006</ele>
        <time>2014-06-07T04:39:02Z</time>
      </trkpt>
      <trkpt lat="42.86486" lon="0.0901">
        <ele>2006</ele>
        <time>2014-06-07T04:39:18Z</time>
      </trkpt>
      <trkpt lat="42.86482" lon="0.09015">
        <ele>2007</ele>
        <time>2014-06-07T04:39:31Z</time>
      </trkpt>
      <trkpt lat="42.86478" lon="0.09015">
        <ele>2009</ele>
        <time>2014-06-07T04:39:44Z</time>
      </trkpt>
      <trkpt lat="42.86475" lon="0.09009">
        <ele>2010</ele>
        <time>2014-06-07T04:39:59Z</time>
      </trkpt>
      <trkpt lat="42.86473" lon="0.09005">
        <ele>2013</ele>
        <time>2014-06-07T04:40:13Z</time>
      </trkpt>
      <trkpt lat="42.86473" lon="0.09004">
        <ele>2013</ele>
        <time>2014-06-07T04:40:28Z</time>
      </trkpt>
      <trkpt lat="42.86472" lon="0.09001">
        <ele>2014</ele>
        <time>2014-06-07T04:40:39Z</time>
      </trkpt>
      <trkpt lat="42.86472" lon="0.08997">
        <ele>2014</ele>
        <time>2014-06-07T04:40:51Z</time>
      </trkpt>
      <trkpt lat="42.86469" lon="0.08993">
        <ele>2015</ele>
        <time>2014-06-07T04:41:26Z</time>
      </trkpt>
      <trkpt lat="42.86471" lon="0.08994">
        <ele>2015</ele>
        <time>2014-06-07T04:41:55Z</time>
      </trkpt>
      <trkpt lat="42.86471" lon="0.08995">
        <ele>2011</ele>
        <time>2014-06-07T04:42:28Z</time>
      </trkpt>
      <trkpt lat="42.86469" lon="0.08993">
        <ele>2012</ele>
        <time>2014-06-07T04:43:05Z</time>
      </trkpt>
      <trkpt lat="42.8647" lon="0.08993">
        <ele>2011</ele>
        <time>2014-06-07T04:43:11Z</time>
      </trkpt>
      <trkpt lat="42.8647" lon="0.08994">
        <ele>2012</ele>
        <time>2014-06-07T04:43:42Z</time>
      </trkpt>
      <trkpt lat="42.8647" lon="0.08993">
        <ele>2014</ele>
        <time>2014-06-07T04:44:09Z</time>
      </trkpt>
      <trkpt lat="42.86469" lon="0.08992">
        <ele>2012</ele>
        <time>2014-06-07T04:44:42Z</time>
      </trkpt>
      <trkpt lat="42.86469" lon="0.08993">
        <ele>2013</ele>
        <time>2014-06-07T04:45:18Z</time>
      </trkpt>
      <trkpt lat="42.86469" lon="0.08993">
        <ele>2015</ele>
        <time>2014-06-07T04:45:22Z</time>
      </trkpt>
      <trkpt lat="42.86469" lon="0.08994">
        <ele>2016</ele>
        <time>2014-06-07T04:45:27Z</time>
      </trkpt>
      <trkpt lat="42.86469" lon="0.08999">
        <ele>2016</ele>
        <time>2014-06-07T04:45:45Z</time>
      </trkpt>
      <trkpt lat="42.86469" lon="0.09001">
        <ele>2015</ele>
        <time>2014-06-07T04:46:09Z</time>
      </trkpt>
      <trkpt lat="42.86469" lon="0.08997">
        <ele>2013</ele>
        <time>2014-06-07T04:46:31Z</time>
      </trkpt>
      <trkpt lat="42.86466" lon="0.08995">
        <ele>2016</ele>
        <time>2014-06-07T04:46:40Z</time>
      </trkpt>
      <trkpt lat="42.86466" lon="0.08995">
        <ele>2016</ele>
        <time>2014-06-07T04:46:41Z</time>
      </trkpt>
      <trkpt lat="42.86463" lon="0.08997">
        <ele>2018</ele>
        <time>2014-06-07T04:46:47Z</time>
      </trkpt>
      <trkpt lat="42.86453" lon="0.08999">
        <ele>2019</ele>
        <time>2014-06-07T04:47:03Z</time>
      </trkpt>
      <trkpt lat="42.86448" lon="0.09002">
        <ele>2020</ele>
        <time>2014-06-07T04:47:19Z</time>
      </trkpt>
      <trkpt lat="42.86443" lon="0.09">
        <ele>2021</ele>
        <time>2014-06-07T04:47:36Z</time>
      </trkpt>
      <trkpt lat="42.86438" lon="0.08994">
        <ele>2022</ele>
        <time>2014-06-07T04:47:49Z</time>
      </trkpt>
      <trkpt lat="42.86432" lon="0.08995">
        <ele>2024</ele>
        <time>2014-06-07T04:48:02Z</time>
      </trkpt>
      <trkpt lat="42.86427" lon="0.08994">
        <ele>2025</ele>
        <time>2014-06-07T04:48:14Z</time>
      </trkpt>
      <trkpt lat="42.86425" lon="0.08991">
        <ele>2025</ele>
        <time>2014-06-07T04:48:25Z</time>
      </trkpt>
      <trkpt lat="42.86424" lon="0.08987">
        <ele>2027</ele>
        <time>2014-06-07T04:48:37Z</time>
      </trkpt>
      <trkpt lat="42.86421" lon="0.08983">
        <ele>2029</ele>
        <time>2014-06-07T04:48:52Z</time>
      </trkpt>
      <trkpt lat="42.86421" lon="0.08978">
        <ele>2031</ele>
        <time>2014-06-07T04:49:02Z</time>
      </trkpt>
      <trkpt lat="42.86427" lon="0.08965">
        <ele>2032</ele>
        <time>2014-06-07T04:49:16Z</time>
      </trkpt>
      <trkpt lat="42.8643" lon="0.08957">
        <ele>2034</ele>
        <time>2014-06-07T04:49:28Z</time>
      </trkpt>
      <trkpt lat="42.86428" lon="0.08954">
        <ele>2035</ele>
        <time>2014-06-07T04:49:40Z</time>
      </trkpt>
      <trkpt lat="42.86426" lon="0.0896">
        <ele>2037</ele>
        <time>2014-06-07T04:49:52Z</time>
      </trkpt>
      <trkpt lat="42.86417" lon="0.08966">
        <ele>2039</ele>
        <time>2014-06-07T04:50:06Z</time>
      </trkpt>
      <trkpt lat="42.86409" lon="0.08967">
        <ele>2040</ele>
        <time>2014-06-07T04:50:18Z</time>
      </trkpt>
      <trkpt lat="42.86408" lon="0.08968">
        <ele>2040</ele>
        <time>2014-06-07T04:50:21Z</time>
      </trkpt>
      <trkpt lat="42.86403" lon="0.08968">
        <ele>2041</ele>
        <time>2014-06-07T04:50:33Z</time>
      </trkpt>
      <trkpt lat="42.86396" lon="0.08966">
        <ele>2041</ele>
        <time>2014-06-07T04:50:46Z</time>
      </trkpt>
      <trkpt lat="42.86391" lon="0.08968">
        <ele>2041</ele>
        <time>2014-06-07T04:50:57Z</time>
      </trkpt>
      <trkpt lat="42.86389" lon="0.08969">
        <ele>2040</ele>
        <time>2014-06-07T04:51:04Z</time>
      </trkpt>
      <trkpt lat="42.86383" lon="0.08973">
        <ele>2042</ele>
        <time>2014-06-07T04:51:14Z</time>
      </trkpt>
      <trkpt lat="42.86377" lon="0.08978">
        <ele>2045</ele>
        <time>2014-06-07T04:51:26Z</time>
      </trkpt>
      <trkpt lat="42.86372" lon="0.08988">
        <ele>2047</ele>
        <time>2014-06-07T04:51:41Z</time>
      </trkpt>
      <trkpt lat="42.86371" lon="0.08999">
        <ele>2047</ele>
        <time>2014-06-07T04:51:58Z</time>
      </trkpt>
      <trkpt lat="42.86369" lon="0.0901">
        <ele>2051</ele>
        <time>2014-06-07T04:52:12Z</time>
      </trkpt>
      <trkpt lat="42.86369" lon="0.09011">
        <ele>2051</ele>
        <time>2014-06-07T04:52:13Z</time>
      </trkpt>
      <trkpt lat="42.86367" lon="0.09019">
        <ele>2052</ele>
        <time>2014-06-07T04:52:24Z</time>
      </trkpt>
      <trkpt lat="42.86366" lon="0.0902">
        <ele>2054</ele>
        <time>2014-06-07T04:52:29Z</time>
      </trkpt>
      <trkpt lat="42.86362" lon="0.09028">
        <ele>2055</ele>
        <time>2014-06-07T04:52:43Z</time>
      </trkpt>
      <trkpt lat="42.8636" lon="0.09033">
        <ele>2055</ele>
        <time>2014-06-07T04:52:51Z</time>
      </trkpt>
      <trkpt lat="42.86355" lon="0.09037">
        <ele>2055</ele>
        <time>2014-06-07T04:53:04Z</time>
      </trkpt>
      <trkpt lat="42.86352" lon="0.09044">
        <ele>2054</ele>
        <time>2014-06-07T04:53:16Z</time>
      </trkpt>
      <trkpt lat="42.86346" lon="0.09047">
        <ele>2055</ele>
        <time>2014-06-07T04:53:23Z</time>
      </trkpt>
      <trkpt lat="42.8634" lon="0.09062">
        <ele>2054</ele>
        <time>2014-06-07T04:53:38Z</time>
      </trkpt>
      <trkpt lat="42.86339" lon="0.09064">
        <ele>2054</ele>
        <time>2014-06-07T04:53:41Z</time>
      </trkpt>
      <trkpt lat="42.86338" lon="0.09066">
        <ele>2054</ele>
        <time>2014-06-07T04:53:54Z</time>
      </trkpt>
      <trkpt lat="42.86335" lon="0.09073">
        <ele>2054</ele>
        <time>2014-06-07T04:54:11Z</time>
      </trkpt>
      <trkpt lat="42.8633" lon="0.09083">
        <ele>2055</ele>
        <time>2014-06-07T04:54:23Z</time>
      </trkpt>
      <trkpt lat="42.86322" lon="0.09092">
        <ele>2057</ele>
        <time>2014-06-07T04:54:37Z</time>
      </trkpt>
      <trkpt lat="42.86315" lon="0.09097">
        <ele>2060</ele>
        <time>2014-06-07T04:54:49Z</time>
      </trkpt>
      <trkpt lat="42.86308" lon="0.09101">
        <ele>2062</ele>
        <time>2014-06-07T04:55:03Z</time>
      </trkpt>
      <trkpt lat="42.86303" lon="0.09097">
        <ele>2064</ele>
        <time>2014-06-07T04:55:16Z</time>
      </trkpt>
      <trkpt lat="42.86301" lon="0.09093">
        <ele>2066</ele>
        <time>2014-06-07T04:55:29Z</time>
      </trkpt>
      <trkpt lat="42.86299" lon="0.09092">
        <ele>2067</ele>
        <time>2014-06-07T04:55:42Z</time>
      </trkpt>
      <trkpt lat="42.86297" lon="0.09088">
        <ele>2067</ele>
        <time>2014-06-07T04:55:56Z</time>
      </trkpt>
      <trkpt lat="42.86297" lon="0.0909">
        <ele>2066</ele>
        <time>2014-06-07T04:56:09Z</time>
      </trkpt>
      <trkpt lat="42.8629" lon="0.09091">
        <ele>2066</ele>
        <time>2014-06-07T04:56:22Z</time>
      </trkpt>
      <trkpt lat="42.86282" lon="0.09096">
        <ele>2066</ele>
        <time>2014-06-07T04:56:38Z</time>
      </trkpt>
      <trkpt lat="42.86277" lon="0.09098">
        <ele>2066</ele>
        <time>2014-06-07T04:56:52Z</time>
      </trkpt>
      <trkpt lat="42.86272" lon="0.09103">
        <ele>2066</ele>
        <time>2014-06-07T04:57:05Z</time>
      </trkpt>
      <trkpt lat="42.86267" lon="0.09104">
        <ele>2067</ele>
        <time>2014-06-07T04:57:18Z</time>
      </trkpt>
      <trkpt lat="42.86265" lon="0.09103">
        <ele>2068</ele>
        <time>2014-06-07T04:57:23Z</time>
      </trkpt>
      <trkpt lat="42.86263" lon="0.09102">
        <ele>2070</ele>
        <time>2014-06-07T04:57:27Z</time>
      </trkpt>
      <trkpt lat="42.86254" lon="0.09104">
        <ele>2074</ele>
        <time>2014-06-07T04:57:44Z</time>
      </trkpt>
      <trkpt lat="42.86247" lon="0.09113">
        <ele>2076</ele>
        <time>2014-06-07T04:58:01Z</time>
      </trkpt>
      <trkpt lat="42.8624" lon="0.09121">
        <ele>2079</ele>
        <time>2014-06-07T04:58:16Z</time>
      </trkpt>
      <trkpt lat="42.86232" lon="0.09123">
        <ele>2081</ele>
        <time>2014-06-07T04:58:29Z</time>
      </trkpt>
      <trkpt lat="42.86231" lon="0.09124">
        <ele>2082</ele>
        <time>2014-06-07T04:58:33Z</time>
      </trkpt>
      <trkpt lat="42.86226" lon="0.09124">
        <ele>2083</ele>
        <time>2014-06-07T04:58:46Z</time>
      </trkpt>
      <trkpt lat="42.86219" lon="0.09127">
        <ele>2084</ele>
        <time>2014-06-07T04:58:59Z</time>
      </trkpt>
      <trkpt lat="42.86211" lon="0.09128">
        <ele>2086</ele>
        <time>2014-06-07T04:59:16Z</time>
      </trkpt>
      <trkpt lat="42.86205" lon="0.09129">
        <ele>2088</ele>
        <time>2014-06-07T04:59:29Z</time>
      </trkpt>
      <trkpt lat="42.86197" lon="0.09131">
        <ele>2089</ele>
        <time>2014-06-07T04:59:45Z</time>
      </trkpt>
      <trkpt lat="42.86191" lon="0.09138">
        <ele>2090</ele>
        <time>2014-06-07T04:59:59Z</time>
      </trkpt>
      <trkpt lat="42.86182" lon="0.0914">
        <ele>2092</ele>
        <time>2014-06-07T05:00:11Z</time>
      </trkpt>
      <trkpt lat="42.86178" lon="0.0914">
        <ele>2093</ele>
        <time>2014-06-07T05:00:22Z</time>
      </trkpt>
      <trkpt lat="42.86171" lon="0.09142">
        <ele>2096</ele>
        <time>2014-06-07T05:00:35Z</time>
      </trkpt>
      <trkpt lat="42.86167" lon="0.09144">
        <ele>2094</ele>
        <time>2014-06-07T05:00:47Z</time>
      </trkpt>
      <trkpt lat="42.86161" lon="0.09147">
        <ele>2097</ele>
        <time>2014-06-07T05:00:59Z</time>
      </trkpt>
      <trkpt lat="42.86153" lon="0.09149">
        <ele>2100</ele>
        <time>2014-06-07T05:01:14Z</time>
      </trkpt>
      <trkpt lat="42.86143" lon="0.09151">
        <ele>2103</ele>
        <time>2014-06-07T05:01:30Z</time>
      </trkpt>
      <trkpt lat="42.86135" lon="0.09154">
        <ele>2105</ele>
        <time>2014-06-07T05:01:44Z</time>
      </trkpt>
      <trkpt lat="42.86131" lon="0.09159">
        <ele>2109</ele>
        <time>2014-06-07T05:01:53Z</time>
      </trkpt>
      <trkpt lat="42.86127" lon="0.09164">
        <ele>2106</ele>
        <time>2014-06-07T05:02:00Z</time>
      </trkpt>
      <trkpt lat="42.86126" lon="0.09165">
        <ele>2104</ele>
        <time>2014-06-07T05:02:02Z</time>
      </trkpt>
      <trkpt lat="42.86118" lon="0.09169">
        <ele>2103</ele>
        <time>2014-06-07T05:02:14Z</time>
      </trkpt>
      <trkpt lat="42.86114" lon="0.09175">
        <ele>2103</ele>
        <time>2014-06-07T05:02:26Z</time>
      </trkpt>
      <trkpt lat="42.86112" lon="0.09176">
        <ele>2104</ele>
        <time>2014-06-07T05:02:40Z</time>
      </trkpt>
      <trkpt lat="42.86113" lon="0.09176">
        <ele>2105</ele>
        <time>2014-06-07T05:03:01Z</time>
      </trkpt>
      <trkpt lat="42.86113" lon="0.09177">
        <ele>2106</ele>
        <time>2014-06-07T05:03:26Z</time>
      </trkpt>
      <trkpt lat="42.86111" lon="0.09178">
        <ele>2107</ele>
        <time>2014-06-07T05:03:53Z</time>
      </trkpt>
      <trkpt lat="42.8611" lon="0.09179">
        <ele>2107</ele>
        <time>2014-06-07T05:04:22Z</time>
      </trkpt>
      <trkpt lat="42.86113" lon="0.09179">
        <ele>2106</ele>
        <time>2014-06-07T05:04:45Z</time>
      </trkpt>
      <trkpt lat="42.86109" lon="0.09181">
        <ele>2106</ele>
        <time>2014-06-07T05:05:05Z</time>
      </trkpt>
      <trkpt lat="42.86108" lon="0.09175">
        <ele>2106</ele>
        <time>2014-06-07T05:05:15Z</time>
      </trkpt>
      <trkpt lat="42.86102" lon="0.09173">
        <ele>2106</ele>
        <time>2014-06-07T05:05:30Z</time>
      </trkpt>
      <trkpt lat="42.86098" lon="0.09173">
        <ele>2107</ele>
        <time>2014-06-07T05:05:38Z</time>
      </trkpt>
      <trkpt lat="42.86094" lon="0.09173">
        <ele>2107</ele>
        <time>2014-06-07T05:05:44Z</time>
      </trkpt>
      <trkpt lat="42.86085" lon="0.09172">
        <ele>2107</ele>
        <time>2014-06-07T05:05:57Z</time>
      </trkpt>
      <trkpt lat="42.86083" lon="0.09172">
        <ele>2107</ele>
        <time>2014-06-07T05:06:05Z</time>
      </trkpt>
      <trkpt lat="42.8608" lon="0.09171">
        <ele>2104</ele>
        <time>2014-06-07T05:06:08Z</time>
      </trkpt>
      <trkpt lat="42.86073" lon="0.09171">
        <ele>2103</ele>
        <time>2014-06-07T05:06:19Z</time>
      </trkpt>
      <trkpt lat="42.86069" lon="0.09167">
        <ele>2102</ele>
        <time>2014-06-07T05:06:31Z</time>
      </trkpt>
      <trkpt lat="42.8606" lon="0.09164">
        <ele>2103</ele>
        <time>2014-06-07T05:06:48Z</time>
      </trkpt>
      <trkpt lat="42.86049" lon="0.09164">
        <ele>2105</ele>
        <time>2014-06-07T05:07:04Z</time>
      </trkpt>
      <trkpt lat="42.86048" lon="0.09163">
        <ele>2106</ele>
        <time>2014-06-07T05:07:06Z</time>
      </trkpt>
      <trkpt lat="42.86047" lon="0.09163">
        <ele>2107</ele>
        <time>2014-06-07T05:07:08Z</time>
      </trkpt>
      <trkpt lat="42.8604" lon="0.09159">
        <ele>2107</ele>
        <time>2014-06-07T05:07:18Z</time>
      </trkpt>
      <trkpt lat="42.86038" lon="0.09157">
        <ele>2107</ele>
        <time>2014-06-07T05:07:20Z</time>
      </trkpt>
      <trkpt lat="42.86032" lon="0.09151">
        <ele>2107</ele>
        <time>2014-06-07T05:07:32Z</time>
      </trkpt>
      <trkpt lat="42.86029" lon="0.09149">
        <ele>2107</ele>
        <time>2014-06-07T05:07:35Z</time>
      </trkpt>
      <trkpt lat="42.86025" lon="0.09142">
        <ele>2107</ele>
        <time>2014-06-07T05:07:43Z</time>
      </trkpt>
      <trkpt lat="42.86015" lon="0.09133">
        <ele>2108</ele>
        <time>2014-06-07T05:07:58Z</time>
      </trkpt>
      <trkpt lat="42.86015" lon="0.09132">
        <ele>2108</ele>
        <time>2014-06-07T05:07:59Z</time>
      </trkpt>
      <trkpt lat="42.86007" lon="0.09123">
        <ele>2109</ele>
        <time>2014-06-07T05:08:14Z</time>
      </trkpt>
      <trkpt lat="42.86006" lon="0.09118">
        <ele>2111</ele>
        <time>2014-06-07T05:08:27Z</time>
      </trkpt>
      <trkpt lat="42.86006" lon="0.09115">
        <ele>2112</ele>
        <time>2014-06-07T05:08:41Z</time>
      </trkpt>
      <trkpt lat="42.86006" lon="0.09113">
        <ele>2110</ele>
        <time>2014-06-07T05:09:01Z</time>
      </trkpt>
      <trkpt lat="42.86006" lon="0.09113">
        <ele>2109</ele>
        <time>2014-06-07T05:09:26Z</time>
      </trkpt>
      <trkpt lat="42.86005" lon="0.09117">
        <ele>2110</ele>
        <time>2014-06-07T05:09:55Z</time>
      </trkpt>
      <trkpt lat="42.86004" lon="0.09115">
        <ele>2110</ele>
        <time>2014-06-07T05:10:17Z</time>
      </trkpt>
      <trkpt lat="42.86005" lon="0.09115">
        <ele>2110</ele>
        <time>2014-06-07T05:10:50Z</time>
      </trkpt>
      <trkpt lat="42.86004" lon="0.09113">
        <ele>2106</ele>
        <time>2014-06-07T05:11:20Z</time>
      </trkpt>
      <trkpt lat="42.86004" lon="0.09114">
        <ele>2106</ele>
        <time>2014-06-07T05:11:21Z</time>
      </trkpt>
      <trkpt lat="42.86004" lon="0.0911">
        <ele>2108</ele>
        <time>2014-06-07T05:11:49Z</time>
      </trkpt>
      <trkpt lat="42.86004" lon="0.09107">
        <ele>2108</ele>
        <time>2014-06-07T05:12:19Z</time>
      </trkpt>
      <trkpt lat="42.86002" lon="0.09106">
        <ele>2112</ele>
        <time>2014-06-07T05:12:38Z</time>
      </trkpt>
      <trkpt lat="42.86004" lon="0.09115">
        <ele>2112</ele>
        <time>2014-06-07T05:13:07Z</time>
      </trkpt>
      <trkpt lat="42.86004" lon="0.09115">
        <ele>2110</ele>
        <time>2014-06-07T05:13:35Z</time>
      </trkpt>
      <trkpt lat="42.86005" lon="0.09114">
        <ele>2108</ele>
        <time>2014-06-07T05:13:56Z</time>
      </trkpt>
      <trkpt lat="42.86003" lon="0.09111">
        <ele>2109</ele>
        <time>2014-06-07T05:14:23Z</time>
      </trkpt>
      <trkpt lat="42.86003" lon="0.09112">
        <ele>2110</ele>
        <time>2014-06-07T05:14:43Z</time>
      </trkpt>
      <trkpt lat="42.86008" lon="0.0912">
        <ele>2106</ele>
        <time>2014-06-07T05:15:08Z</time>
      </trkpt>
      <trkpt lat="42.86007" lon="0.09116">
        <ele>2108</ele>
        <time>2014-06-07T05:15:39Z</time>
      </trkpt>
      <trkpt lat="42.86004" lon="0.09113">
        <ele>2111</ele>
        <time>2014-06-07T05:16:00Z</time>
      </trkpt>
      <trkpt lat="42.86005" lon="0.09115">
        <ele>2108</ele>
        <time>2014-06-07T05:16:28Z</time>
      </trkpt>
      <trkpt lat="42.86006" lon="0.09114">
        <ele>2104</ele>
        <time>2014-06-07T05:16:46Z</time>
      </trkpt>
      <trkpt lat="42.86006" lon="0.09114">
        <ele>2104</ele>
        <time>2014-06-07T05:16:47Z</time>
      </trkpt>
      <trkpt lat="42.86006" lon="0.09114">
        <ele>2104</ele>
        <time>2014-06-07T05:17:04Z</time>
      </trkpt>
      <trkpt lat="42.86006" lon="0.09115">
        <ele>2107</ele>
        <time>2014-06-07T05:17:09Z</time>
      </trkpt>
      <trkpt lat="42.86006" lon="0.09115">
        <ele>2110</ele>
        <time>2014-06-07T05:17:19Z</time>
      </trkpt>
      <trkpt lat="42.86005" lon="0.09115">
        <ele>2109</ele>
        <time>2014-06-07T05:17:32Z</time>
      </trkpt>
      <trkpt lat="42.86004" lon="0.09116">
        <ele>2106</ele>
        <time>2014-06-07T05:17:59Z</time>
      </trkpt>
      <trkpt lat="42.86007" lon="0.09113">
        <ele>2110</ele>
        <time>2014-06-07T05:18:09Z</time>
      </trkpt>
      <trkpt lat="42.86007" lon="0.09113">
        <ele>2110</ele>
        <time>2014-06-07T05:18:10Z</time>
      </trkpt>
      <trkpt lat="42.86005" lon="0.09111">
        <ele>2113</ele>
        <time>2014-06-07T05:18:21Z</time>
      </trkpt>
      <trkpt lat="42.86004" lon="0.0911">
        <ele>2116</ele>
        <time>2014-06-07T05:18:33Z</time>
      </trkpt>
      <trkpt lat="42.86002" lon="0.09109">
        <ele>2113</ele>
        <time>2014-06-07T05:18:38Z</time>
      </trkpt>
      <trkpt lat="42.86002" lon="0.09111">
        <ele>2109</ele>
        <time>2014-06-07T05:18:44Z</time>
      </trkpt>
      <trkpt lat="42.86001" lon="0.09111">
        <ele>2110</ele>
        <time>2014-06-07T05:18:51Z</time>
      </trkpt>
      <trkpt lat="42.86002" lon="0.09113">
        <ele>2113</ele>
        <time>2014-06-07T05:18:59Z</time>
      </trkpt>
      <trkpt lat="42.86" lon="0.09113">
        <ele>2114</ele>
        <time>2014-06-07T05:19:19Z</time>
      </trkpt>
      <trkpt lat="42.85999" lon="0.09111">
        <ele>2115</ele>
        <time>2014-06-07T05:19:37Z</time>
      </trkpt>
      <trkpt lat="42.85991" lon="0.09111">
        <ele>2117</ele>
        <time>2014-06-07T05:19:48Z</time>
      </trkpt>
      <trkpt lat="42.85982" lon="0.0911">
        <ele>2120</ele>
        <time>2014-06-07T05:19:59Z</time>
      </trkpt>
      <trkpt lat="42.85976" lon="0.0911">
        <ele>2124</ele>
        <time>2014-06-07T05:20:05Z</time>
      </trkpt>
      <trkpt lat="42.85974" lon="0.09111">
        <ele>2125</ele>
        <time>2014-06-07T05:20:07Z</time>
      </trkpt>
      <trkpt lat="42.85971" lon="0.09111">
        <ele>2121</ele>
        <time>2014-06-07T05:20:11Z</time>
      </trkpt>
      <trkpt lat="42.8597" lon="0.09111">
        <ele>2119</ele>
        <time>2014-06-07T05:20:13Z</time>
      </trkpt>
      <trkpt lat="42.85967" lon="0.09112">
        <ele>2123</ele>
        <time>2014-06-07T05:20:16Z</time>
      </trkpt>
      <trkpt lat="42.85965" lon="0.09112">
        <ele>2128</ele>
        <time>2014-06-07T05:20:18Z</time>
      </trkpt>
      <trkpt lat="42.85962" lon="0.09111">
        <ele>2124</ele>
        <time>2014-06-07T05:20:21Z</time>
      </trkpt>
      <trkpt lat="42.8596" lon="0.09111">
        <ele>2123</ele>
        <time>2014-06-07T05:20:23Z</time>
      </trkpt>
      <trkpt lat="42.85957" lon="0.09112">
        <ele>2120</ele>
        <time>2014-06-07T05:20:26Z</time>
      </trkpt>
      <trkpt lat="42.85955" lon="0.09114">
        <ele>2116</ele>
        <time>2014-06-07T05:20:29Z</time>
      </trkpt>
      <trkpt lat="42.85954" lon="0.09114">
        <ele>2116</ele>
        <time>2014-06-07T05:20:30Z</time>
      </trkpt>
      <trkpt lat="42.85949" lon="0.09113">
        <ele>2117</ele>
        <time>2014-06-07T05:20:36Z</time>
      </trkpt>
      <trkpt lat="42.85946" lon="0.09115">
        <ele>2116</ele>
        <time>2014-06-07T05:20:40Z</time>
      </trkpt>
      <trkpt lat="42.85941" lon="0.09117">
        <ele>2120</ele>
        <time>2014-06-07T05:20:46Z</time>
      </trkpt>
      <trkpt lat="42.8594" lon="0.09117">
        <ele>2122</ele>
        <time>2014-06-07T05:20:49Z</time>
      </trkpt>
      <trkpt lat="42.85939" lon="0.09117">
        <ele>2125</ele>
        <time>2014-06-07T05:20:50Z</time>
      </trkpt>
      <trkpt lat="42.85939" lon="0.09117">
        <ele>2125</ele>
        <time>2014-06-07T05:20:51Z</time>
      </trkpt>
      <trkpt lat="42.85935" lon="0.09121">
        <ele>2125</ele>
        <time>2014-06-07T05:20:58Z</time>
      </trkpt>
      <trkpt lat="42.85933" lon="0.09116">
        <ele>2127</ele>
        <time>2014-06-07T05:21:15Z</time>
      </trkpt>
      <trkpt lat="42.85933" lon="0.09114">
        <ele>2128</ele>
        <time>2014-06-07T05:21:18Z</time>
      </trkpt>
      <trkpt lat="42.85933" lon="0.09108">
        <ele>2130</ele>
        <time>2014-06-07T05:21:24Z</time>
      </trkpt>
      <trkpt lat="42.85934" lon="0.09104">
        <ele>2132</ele>
        <time>2014-06-07T05:21:29Z</time>
      </trkpt>
      <trkpt lat="42.85935" lon="0.09103">
        <ele>2134</ele>
        <time>2014-06-07T05:21:32Z</time>
      </trkpt>
      <trkpt lat="42.85932" lon="0.09104">
        <ele>2134</ele>
        <time>2014-06-07T05:21:43Z</time>
      </trkpt>
      <trkpt lat="42.85929" lon="0.09105">
        <ele>2137</ele>
        <time>2014-06-07T05:21:47Z</time>
      </trkpt>
      <trkpt lat="42.85922" lon="0.09109">
        <ele>2140</ele>
        <time>2014-06-07T05:21:58Z</time>
      </trkpt>
      <trkpt lat="42.85921" lon="0.09109">
        <ele>2140</ele>
        <time>2014-06-07T05:21:59Z</time>
      </trkpt>
      <trkpt lat="42.85916" lon="0.09111">
        <ele>2144</ele>
        <time>2014-06-07T05:22:08Z</time>
      </trkpt>
      <trkpt lat="42.85914" lon="0.09111">
        <ele>2140</ele>
        <time>2014-06-07T05:22:12Z</time>
      </trkpt>
      <trkpt lat="42.85903" lon="0.09112">
        <ele>2140</ele>
        <time>2014-06-07T05:22:26Z</time>
      </trkpt>
      <trkpt lat="42.85896" lon="0.09112">
        <ele>2140</ele>
        <time>2014-06-07T05:22:41Z</time>
      </trkpt>
      <trkpt lat="42.85895" lon="0.09107">
        <ele>2138</ele>
        <time>2014-06-07T05:23:01Z</time>
      </trkpt>
      <trkpt lat="42.85891" lon="0.09115">
        <ele>2139</ele>
        <time>2014-06-07T05:23:18Z</time>
      </trkpt>
      <trkpt lat="42.85885" lon="0.09119">
        <ele>2140</ele>
        <time>2014-06-07T05:23:32Z</time>
      </trkpt>
      <trkpt lat="42.85874" lon="0.09125">
        <ele>2144</ele>
        <time>2014-06-07T05:23:47Z</time>
      </trkpt>
      <trkpt lat="42.85873" lon="0.09125">
        <ele>2149</ele>
        <time>2014-06-07T05:23:49Z</time>
      </trkpt>
      <trkpt lat="42.85871" lon="0.09126">
        <ele>2145</ele>
        <time>2014-06-07T05:23:53Z</time>
      </trkpt>
      <trkpt lat="42.8587" lon="0.09126">
        <ele>2145</ele>
        <time>2014-06-07T05:23:54Z</time>
      </trkpt>
      <trkpt lat="42.8587" lon="0.09127">
        <ele>2140</ele>
        <time>2014-06-07T05:24:02Z</time>
      </trkpt>
      <trkpt lat="42.85869" lon="0.09127">
        <ele>2139</ele>
        <time>2014-06-07T05:24:04Z</time>
      </trkpt>
      <trkpt lat="42.85867" lon="0.09127">
        <ele>2142</ele>
        <time>2014-06-07T05:24:07Z</time>
      </trkpt>
      <trkpt lat="42.85867" lon="0.09127">
        <ele>2141</ele>
        <time>2014-06-07T05:24:08Z</time>
      </trkpt>
      <trkpt lat="42.85868" lon="0.09126">
        <ele>2140</ele>
        <time>2014-06-07T05:24:10Z</time>
      </trkpt>
      <trkpt lat="42.85866" lon="0.09123">
        <ele>2139</ele>
        <time>2014-06-07T05:24:15Z</time>
      </trkpt>
      <trkpt lat="42.85867" lon="0.09117">
        <ele>2142</ele>
        <time>2014-06-07T05:24:20Z</time>
      </trkpt>
      <trkpt lat="42.85868" lon="0.09116">
        <ele>2142</ele>
        <time>2014-06-07T05:24:21Z</time>
      </trkpt>
      <trkpt lat="42.85869" lon="0.0911">
        <ele>2145</ele>
        <time>2014-06-07T05:24:32Z</time>
      </trkpt>
      <trkpt lat="42.85869" lon="0.09111">
        <ele>2146</ele>
        <time>2014-06-07T05:24:45Z</time>
      </trkpt>
      <trkpt lat="42.8587" lon="0.0911">
        <ele>2148</ele>
        <time>2014-06-07T05:24:52Z</time>
      </trkpt>
      <trkpt lat="42.85866" lon="0.09107">
        <ele>2151</ele>
        <time>2014-06-07T05:25:10Z</time>
      </trkpt>
      <trkpt lat="42.85865" lon="0.09102">
        <ele>2153</ele>
        <time>2014-06-07T05:25:21Z</time>
      </trkpt>
      <trkpt lat="42.85866" lon="0.09098">
        <ele>2157</ele>
        <time>2014-06-07T05:25:28Z</time>
      </trkpt>
      <trkpt lat="42.85867" lon="0.09095">
        <ele>2162</ele>
        <time>2014-06-07T05:25:31Z</time>
      </trkpt>
      <trkpt lat="42.85868" lon="0.09094">
        <ele>2165</ele>
        <time>2014-06-07T05:25:35Z</time>
      </trkpt>
      <trkpt lat="42.85868" lon="0.09093">
        <ele>2168</ele>
        <time>2014-06-07T05:25:37Z</time>
      </trkpt>
      <trkpt lat="42.85868" lon="0.09092">
        <ele>2171</ele>
        <time>2014-06-07T05:25:39Z</time>
      </trkpt>
      <trkpt lat="42.85868" lon="0.09089">
        <ele>2168</ele>
        <time>2014-06-07T05:25:43Z</time>
      </trkpt>
      <trkpt lat="42.85869" lon="0.09089">
        <ele>2165</ele>
        <time>2014-06-07T05:25:46Z</time>
      </trkpt>
      <trkpt lat="42.85868" lon="0.09085">
        <ele>2161</ele>
        <time>2014-06-07T05:25:50Z</time>
      </trkpt>
      <trkpt lat="42.85868" lon="0.09084">
        <ele>2161</ele>
        <time>2014-06-07T05:25:51Z</time>
      </trkpt>
      <trkpt lat="42.85868" lon="0.09081">
        <ele>2156</ele>
        <time>2014-06-07T05:25:58Z</time>
      </trkpt>
      <trkpt lat="42.85868" lon="0.09081">
        <ele>2156</ele>
        <time>2014-06-07T05:25:59Z</time>
      </trkpt>
      <trkpt lat="42.85868" lon="0.09075">
        <ele>2163</ele>
        <time>2014-06-07T05:26:11Z</time>
      </trkpt>
      <trkpt lat="42.85868" lon="0.09074">
        <ele>2160</ele>
        <time>2014-06-07T05:26:12Z</time>
      </trkpt>
      <trkpt lat="42.85869" lon="0.0907">
        <ele>2160</ele>
        <time>2014-06-07T05:26:18Z</time>
      </trkpt>
      <trkpt lat="42.85868" lon="0.09069">
        <ele>2156</ele>
        <time>2014-06-07T05:26:23Z</time>
      </trkpt>
      <trkpt lat="42.85868" lon="0.09069">
        <ele>2156</ele>
        <time>2014-06-07T05:26:24Z</time>
      </trkpt>
      <trkpt lat="42.85867" lon="0.09067">
        <ele>2159</ele>
        <time>2014-06-07T05:26:31Z</time>
      </trkpt>
      <trkpt lat="42.85866" lon="0.09067">
        <ele>2157</ele>
        <time>2014-06-07T05:26:39Z</time>
      </trkpt>
      <trkpt lat="42.85868" lon="0.09065">
        <ele>2160</ele>
        <time>2014-06-07T05:26:47Z</time>
      </trkpt>
      <trkpt lat="42.85866" lon="0.09067">
        <ele>2160</ele>
        <time>2014-06-07T05:26:52Z</time>
      </trkpt>
      <trkpt lat="42.85863" lon="0.09066">
        <ele>2156</ele>
        <time>2014-06-07T05:26:57Z</time>
      </trkpt>
      <trkpt lat="42.85863" lon="0.09066">
        <ele>2155</ele>
        <time>2014-06-07T05:26:58Z</time>
      </trkpt>
      <trkpt lat="42.85862" lon="0.09067">
        <ele>2153</ele>
        <time>2014-06-07T05:27:03Z</time>
      </trkpt>
      <trkpt lat="42.85861" lon="0.09062">
        <ele>2154</ele>
        <time>2014-06-07T05:27:15Z</time>
      </trkpt>
      <trkpt lat="42.8586" lon="0.09061">
        <ele>2157</ele>
        <time>2014-06-07T05:27:17Z</time>
      </trkpt>
      <trkpt lat="42.85861" lon="0.09062">
        <ele>2160</ele>
        <time>2014-06-07T05:27:18Z</time>
      </trkpt>
      <trkpt lat="42.85858" lon="0.09061">
        <ele>2162</ele>
        <time>2014-06-07T05:27:25Z</time>
      </trkpt>
      <trkpt lat="42.85859" lon="0.0906">
        <ele>2159</ele>
        <time>2014-06-07T05:27:30Z</time>
      </trkpt>
      <trkpt lat="42.85857" lon="0.09057">
        <ele>2155</ele>
        <time>2014-06-07T05:27:37Z</time>
      </trkpt>
      <trkpt lat="42.85857" lon="0.09057">
        <ele>2155</ele>
        <time>2014-06-07T05:27:38Z</time>
      </trkpt>
      <trkpt lat="42.85856" lon="0.09055">
        <ele>2152</ele>
        <time>2014-06-07T05:27:43Z</time>
      </trkpt>
      <trkpt lat="42.85856" lon="0.09053">
        <ele>2151</ele>
        <time>2014-06-07T05:27:45Z</time>
      </trkpt>
      <trkpt lat="42.85856" lon="0.09054">
        <ele>2149</ele>
        <time>2014-06-07T05:27:52Z</time>
      </trkpt>
      <trkpt lat="42.8585" lon="0.09057">
        <ele>2151</ele>
        <time>2014-06-07T05:28:06Z</time>
      </trkpt>
      <trkpt lat="42.85848" lon="0.09064">
        <ele>2153</ele>
        <time>2014-06-07T05:28:20Z</time>
      </trkpt>
      <trkpt lat="42.85846" lon="0.09065">
        <ele>2151</ele>
        <time>2014-06-07T05:28:42Z</time>
      </trkpt>
      <trkpt lat="42.85847" lon="0.09068">
        <ele>2148</ele>
        <time>2014-06-07T05:28:57Z</time>
      </trkpt>
      <trkpt lat="42.85843" lon="0.09068">
        <ele>2147</ele>
        <time>2014-06-07T05:29:12Z</time>
      </trkpt>
      <trkpt lat="42.85844" lon="0.09065">
        <ele>2146</ele>
        <time>2014-06-07T05:29:25Z</time>
      </trkpt>
      <trkpt lat="42.85844" lon="0.09065">
        <ele>2149</ele>
        <time>2014-06-07T05:29:45Z</time>
      </trkpt>
      <trkpt lat="42.85845" lon="0.09064">
        <ele>2152</ele>
        <time>2014-06-07T05:29:56Z</time>
      </trkpt>
      <trkpt lat="42.85845" lon="0.09063">
        <ele>2152</ele>
        <time>2014-06-07T05:29:57Z</time>
      </trkpt>
      <trkpt lat="42.85843" lon="0.09066">
        <ele>2150</ele>
        <time>2014-06-07T05:30:17Z</time>
      </trkpt>
      <trkpt lat="42.85845" lon="0.09064">
        <ele>2147</ele>
        <time>2014-06-07T05:30:36Z</time>
      </trkpt>
      <trkpt lat="42.85843" lon="0.09073">
        <ele>2146</ele>
        <time>2014-06-07T05:30:58Z</time>
      </trkpt>
      <trkpt lat="42.85842" lon="0.09075">
        <ele>2149</ele>
        <time>2014-06-07T05:31:00Z</time>
      </trkpt>
      <trkpt lat="42.85841" lon="0.09075">
        <ele>2151</ele>
        <time>2014-06-07T05:31:02Z</time>
      </trkpt>
      <trkpt lat="42.85841" lon="0.09076">
        <ele>2155</ele>
        <time>2014-06-07T05:31:03Z</time>
      </trkpt>
      <trkpt lat="42.8584" lon="0.09079">
        <ele>2148</ele>
        <time>2014-06-07T05:31:07Z</time>
      </trkpt>
      <trkpt lat="42.85839" lon="0.09079">
        <ele>2149</ele>
        <time>2014-06-07T05:31:08Z</time>
      </trkpt>
      <trkpt lat="42.85839" lon="0.0908">
        <ele>2153</ele>
        <time>2014-06-07T05:31:10Z</time>
      </trkpt>
      <trkpt lat="42.85838" lon="0.0908">
        <ele>2156</ele>
        <time>2014-06-07T05:31:12Z</time>
      </trkpt>
      <trkpt lat="42.85838" lon="0.09081">
        <ele>2156</ele>
        <time>2014-06-07T05:31:13Z</time>
      </trkpt>
      <trkpt lat="42.85837" lon="0.09081">
        <ele>2158</ele>
        <time>2014-06-07T05:31:16Z</time>
      </trkpt>
      <trkpt lat="42.85836" lon="0.09083">
        <ele>2160</ele>
        <time>2014-06-07T05:31:19Z</time>
      </trkpt>
      <trkpt lat="42.85834" lon="0.09085">
        <ele>2165</ele>
        <time>2014-06-07T05:31:22Z</time>
      </trkpt>
      <trkpt lat="42.85833" lon="0.09085">
        <ele>2163</ele>
        <time>2014-06-07T05:31:23Z</time>
      </trkpt>
      <trkpt lat="42.8583" lon="0.09086">
        <ele>2167</ele>
        <time>2014-06-07T05:31:27Z</time>
      </trkpt>
      <trkpt lat="42.85828" lon="0.09087">
        <ele>2171</ele>
        <time>2014-06-07T05:31:30Z</time>
      </trkpt>
      <trkpt lat="42.85826" lon="0.09091">
        <ele>2176</ele>
        <time>2014-06-07T05:31:33Z</time>
      </trkpt>
      <trkpt lat="42.85825" lon="0.09092">
        <ele>2179</ele>
        <time>2014-06-07T05:31:34Z</time>
      </trkpt>
      <trkpt lat="42.85824" lon="0.09093">
        <ele>2183</ele>
        <time>2014-06-07T05:31:36Z</time>
      </trkpt>
      <trkpt lat="42.85824" lon="0.09093">
        <ele>2187</ele>
        <time>2014-06-07T05:31:37Z</time>
      </trkpt>
      <trkpt lat="42.85824" lon="0.09093">
        <ele>2179</ele>
        <time>2014-06-07T05:31:39Z</time>
      </trkpt>
      <trkpt lat="42.85824" lon="0.09093">
        <ele>2176</ele>
        <time>2014-06-07T05:31:40Z</time>
      </trkpt>
      <trkpt lat="42.85824" lon="0.09093">
        <ele>2171</ele>
        <time>2014-06-07T05:31:41Z</time>
      </trkpt>
      <trkpt lat="42.85824" lon="0.09094">
        <ele>2174</ele>
        <time>2014-06-07T05:31:44Z</time>
      </trkpt>
      <trkpt lat="42.85823" lon="0.09094">
        <ele>2170</ele>
        <time>2014-06-07T05:31:46Z</time>
      </trkpt>
      <trkpt lat="42.85824" lon="0.09094">
        <ele>2172</ele>
        <time>2014-06-07T05:31:47Z</time>
      </trkpt>
      <trkpt lat="42.85824" lon="0.09094">
        <ele>2177</ele>
        <time>2014-06-07T05:31:49Z</time>
      </trkpt>
      <trkpt lat="42.85823" lon="0.09095">
        <ele>2182</ele>
        <time>2014-06-07T05:31:53Z</time>
      </trkpt>
      <trkpt lat="42.85822" lon="0.09095">
        <ele>2186</ele>
        <time>2014-06-07T05:31:54Z</time>
      </trkpt>
      <trkpt lat="42.8582" lon="0.09095">
        <ele>2190</ele>
        <time>2014-06-07T05:31:59Z</time>
      </trkpt>
      <trkpt lat="42.8582" lon="0.09094">
        <ele>2183</ele>
        <time>2014-06-07T05:32:02Z</time>
      </trkpt>
      <trkpt lat="42.85821" lon="0.09095">
        <ele>2179</ele>
        <time>2014-06-07T05:32:04Z</time>
      </trkpt>
      <trkpt lat="42.85821" lon="0.09095">
        <ele>2179</ele>
        <time>2014-06-07T05:32:06Z</time>
      </trkpt>
      <trkpt lat="42.85821" lon="0.09095">
        <ele>2172</ele>
        <time>2014-06-07T05:32:10Z</time>
      </trkpt>
      <trkpt lat="42.85821" lon="0.09095">
        <ele>2170</ele>
        <time>2014-06-07T05:32:12Z</time>
      </trkpt>
      <trkpt lat="42.85818" lon="0.09092">
        <ele>2178</ele>
        <time>2014-06-07T05:32:16Z</time>
      </trkpt>
      <trkpt lat="42.85817" lon="0.0909">
        <ele>2179</ele>
        <time>2014-06-07T05:32:18Z</time>
      </trkpt>
      <trkpt lat="42.85816" lon="0.09087">
        <ele>2181</ele>
        <time>2014-06-07T05:32:22Z</time>
      </trkpt>
      <trkpt lat="42.85813" lon="0.09079">
        <ele>2175</ele>
        <time>2014-06-07T05:32:30Z</time>
      </trkpt>
      <trkpt lat="42.85812" lon="0.09078">
        <ele>2171</ele>
        <time>2014-06-07T05:32:32Z</time>
      </trkpt>
      <trkpt lat="42.85812" lon="0.09077">
        <ele>2170</ele>
        <time>2014-06-07T05:32:33Z</time>
      </trkpt>
      <trkpt lat="42.85811" lon="0.09075">
        <ele>2172</ele>
        <time>2014-06-07T05:32:36Z</time>
      </trkpt>
      <trkpt lat="42.85812" lon="0.09076">
        <ele>2169</ele>
        <time>2014-06-07T05:32:44Z</time>
      </trkpt>
      <trkpt lat="42.85812" lon="0.09076">
        <ele>2168</ele>
        <time>2014-06-07T05:32:46Z</time>
      </trkpt>
      <trkpt lat="42.85812" lon="0.09076">
        <ele>2172</ele>
        <time>2014-06-07T05:32:52Z</time>
      </trkpt>
      <trkpt lat="42.85812" lon="0.09076">
        <ele>2174</ele>
        <time>2014-06-07T05:32:54Z</time>
      </trkpt>
      <trkpt lat="42.85811" lon="0.09077">
        <ele>2167</ele>
        <time>2014-06-07T05:32:56Z</time>
      </trkpt>
      <trkpt lat="42.85812" lon="0.09077">
        <ele>2166</ele>
        <time>2014-06-07T05:32:58Z</time>
      </trkpt>
      <trkpt lat="42.85809" lon="0.09072">
        <ele>2170</ele>
        <time>2014-06-07T05:33:08Z</time>
      </trkpt>
      <trkpt lat="42.85809" lon="0.09071">
        <ele>2170</ele>
        <time>2014-06-07T05:33:09Z</time>
      </trkpt>
      <trkpt lat="42.85809" lon="0.0907">
        <ele>2165</ele>
        <time>2014-06-07T05:33:11Z</time>
      </trkpt>
      <trkpt lat="42.85809" lon="0.0907">
        <ele>2162</ele>
        <time>2014-06-07T05:33:12Z</time>
      </trkpt>
      <trkpt lat="42.85808" lon="0.09069">
        <ele>2163</ele>
        <time>2014-06-07T05:33:13Z</time>
      </trkpt>
      <trkpt lat="42.85806" lon="0.09069">
        <ele>2165</ele>
        <time>2014-06-07T05:33:16Z</time>
      </trkpt>
      <trkpt lat="42.85804" lon="0.09072">
        <ele>2166</ele>
        <time>2014-06-07T05:33:20Z</time>
      </trkpt>
      <trkpt lat="42.85803" lon="0.09076">
        <ele>2167</ele>
        <time>2014-06-07T05:33:25Z</time>
      </trkpt>
      <trkpt lat="42.85802" lon="0.09078">
        <ele>2166</ele>
        <time>2014-06-07T05:33:29Z</time>
      </trkpt>
      <trkpt lat="42.858" lon="0.09082">
        <ele>2169</ele>
        <time>2014-06-07T05:33:33Z</time>
      </trkpt>
      <trkpt lat="42.85799" lon="0.09082">
        <ele>2169</ele>
        <time>2014-06-07T05:33:34Z</time>
      </trkpt>
      <trkpt lat="42.85799" lon="0.09084">
        <ele>2166</ele>
        <time>2014-06-07T05:33:36Z</time>
      </trkpt>
      <trkpt lat="42.85798" lon="0.09085">
        <ele>2166</ele>
        <time>2014-06-07T05:33:37Z</time>
      </trkpt>
      <trkpt lat="42.8579" lon="0.09097">
        <ele>2169</ele>
        <time>2014-06-07T05:33:54Z</time>
      </trkpt>
      <trkpt lat="42.8579" lon="0.09098">
        <ele>2170</ele>
        <time>2014-06-07T05:33:55Z</time>
      </trkpt>
      <trkpt lat="42.85784" lon="0.09106">
        <ele>2172</ele>
        <time>2014-06-07T05:34:07Z</time>
      </trkpt>
      <trkpt lat="42.8578" lon="0.09105">
        <ele>2172</ele>
        <time>2014-06-07T05:34:20Z</time>
      </trkpt>
      <trkpt lat="42.85775" lon="0.09097">
        <ele>2175</ele>
        <time>2014-06-07T05:34:36Z</time>
      </trkpt>
      <trkpt lat="42.8577" lon="0.09113">
        <ele>2177</ele>
        <time>2014-06-07T05:34:52Z</time>
      </trkpt>
      <trkpt lat="42.85767" lon="0.09124">
        <ele>2179</ele>
        <time>2014-06-07T05:35:08Z</time>
      </trkpt>
      <trkpt lat="42.85761" lon="0.09136">
        <ele>2182</ele>
        <time>2014-06-07T05:35:28Z</time>
      </trkpt>
      <trkpt lat="42.85757" lon="0.09143">
        <ele>2185</ele>
        <time>2014-06-07T05:35:39Z</time>
      </trkpt>
      <trkpt lat="42.85753" lon="0.09143">
        <ele>2186</ele>
        <time>2014-06-07T05:35:52Z</time>
      </trkpt>
      <trkpt lat="42.85754" lon="0.09144">
        <ele>2186</ele>
        <time>2014-06-07T05:36:03Z</time>
      </trkpt>
      <trkpt lat="42.85752" lon="0.09142">
        <ele>2186</ele>
        <time>2014-06-07T05:36:12Z</time>
      </trkpt>
      <trkpt lat="42.85752" lon="0.09144">
        <ele>2187</ele>
        <time>2014-06-07T05:36:19Z</time>
      </trkpt>
      <trkpt lat="42.85752" lon="0.09145">
        <ele>2186</ele>
        <time>2014-06-07T05:36:23Z</time>
      </trkpt>
      <trkpt lat="42.85752" lon="0.09139">
        <ele>2189</ele>
        <time>2014-06-07T05:36:39Z</time>
      </trkpt>
      <trkpt lat="42.85751" lon="0.0914">
        <ele>2189</ele>
        <time>2014-06-07T05:36:59Z</time>
      </trkpt>
      <trkpt lat="42.85747" lon="0.09139">
        <ele>2188</ele>
        <time>2014-06-07T05:37:14Z</time>
      </trkpt>
      <trkpt lat="42.85747" lon="0.09138">
        <ele>2185</ele>
        <time>2014-06-07T05:37:25Z</time>
      </trkpt>
      <trkpt lat="42.85746" lon="0.09138">
        <ele>2186</ele>
        <time>2014-06-07T05:37:38Z</time>
      </trkpt>
      <trkpt lat="42.85747" lon="0.09138">
        <ele>2185</ele>
        <time>2014-06-07T05:37:40Z</time>
      </trkpt>
      <trkpt lat="42.85746" lon="0.09137">
        <ele>2183</ele>
        <time>2014-06-07T05:37:43Z</time>
      </trkpt>
      <trkpt lat="42.85745" lon="0.09138">
        <ele>2180</ele>
        <time>2014-06-07T05:37:46Z</time>
      </trkpt>
      <trkpt lat="42.85745" lon="0.09137">
        <ele>2180</ele>
        <time>2014-06-07T05:37:47Z</time>
      </trkpt>
      <trkpt lat="42.85745" lon="0.09136">
        <ele>2181</ele>
        <time>2014-06-07T05:37:53Z</time>
      </trkpt>
      <trkpt lat="42.85744" lon="0.0914">
        <ele>2180</ele>
        <time>2014-06-07T05:38:05Z</time>
      </trkpt>
      <trkpt lat="42.85743" lon="0.09141">
        <ele>2180</ele>
        <time>2014-06-07T05:38:09Z</time>
      </trkpt>
      <trkpt lat="42.85735" lon="0.09135">
        <ele>2179</ele>
        <time>2014-06-07T05:38:18Z</time>
      </trkpt>
      <trkpt lat="42.85733" lon="0.09136">
        <ele>2178</ele>
        <time>2014-06-07T05:38:29Z</time>
      </trkpt>
      <trkpt lat="42.85732" lon="0.09136">
        <ele>2179</ele>
        <time>2014-06-07T05:38:55Z</time>
      </trkpt>
      <trkpt lat="42.85731" lon="0.09134">
        <ele>2178</ele>
        <time>2014-06-07T05:39:12Z</time>
      </trkpt>
      <trkpt lat="42.8573" lon="0.09132">
        <ele>2179</ele>
        <time>2014-06-07T05:39:38Z</time>
      </trkpt>
      <trkpt lat="42.85729" lon="0.09131">
        <ele>2178</ele>
        <time>2014-06-07T05:39:59Z</time>
      </trkpt>
      <trkpt lat="42.85728" lon="0.09134">
        <ele>2176</ele>
        <time>2014-06-07T05:40:08Z</time>
      </trkpt>
      <trkpt lat="42.85718" lon="0.09133">
        <ele>2178</ele>
        <time>2014-06-07T05:40:21Z</time>
      </trkpt>
      <trkpt lat="42.8571" lon="0.09134">
        <ele>2180</ele>
        <time>2014-06-07T05:40:33Z</time>
      </trkpt>
      <trkpt lat="42.85705" lon="0.09138">
        <ele>2183</ele>
        <time>2014-06-07T05:40:40Z</time>
      </trkpt>
      <trkpt lat="42.85701" lon="0.09142">
        <ele>2184</ele>
        <time>2014-06-07T05:40:45Z</time>
      </trkpt>
      <trkpt lat="42.8569" lon="0.09142">
        <ele>2187</ele>
        <time>2014-06-07T05:41:03Z</time>
      </trkpt>
      <trkpt lat="42.85687" lon="0.09137">
        <ele>2191</ele>
        <time>2014-06-07T05:41:11Z</time>
      </trkpt>
      <trkpt lat="42.85686" lon="0.09136">
        <ele>2191</ele>
        <time>2014-06-07T05:41:12Z</time>
      </trkpt>
      <trkpt lat="42.85682" lon="0.0913">
        <ele>2192</ele>
        <time>2014-06-07T05:41:23Z</time>
      </trkpt>
      <trkpt lat="42.8568" lon="0.09131">
        <ele>2196</ele>
        <time>2014-06-07T05:41:27Z</time>
      </trkpt>
      <trkpt lat="42.85673" lon="0.09134">
        <ele>2196</ele>
        <time>2014-06-07T05:41:43Z</time>
      </trkpt>
      <trkpt lat="42.85668" lon="0.09136">
        <ele>2195</ele>
        <time>2014-06-07T05:42:02Z</time>
      </trkpt>
      <trkpt lat="42.85658" lon="0.09146">
        <ele>2193</ele>
        <time>2014-06-07T05:42:16Z</time>
      </trkpt>
      <trkpt lat="42.8565" lon="0.09153">
        <ele>2193</ele>
        <time>2014-06-07T05:42:29Z</time>
      </trkpt>
      <trkpt lat="42.85648" lon="0.09154">
        <ele>2195</ele>
        <time>2014-06-07T05:42:31Z</time>
      </trkpt>
      <trkpt lat="42.85639" lon="0.09163">
        <ele>2198</ele>
        <time>2014-06-07T05:42:43Z</time>
      </trkpt>
      <trkpt lat="42.85636" lon="0.09169">
        <ele>2198</ele>
        <time>2014-06-07T05:42:59Z</time>
      </trkpt>
      <trkpt lat="42.85633" lon="0.09172">
        <ele>2199</ele>
        <time>2014-06-07T05:43:04Z</time>
      </trkpt>
      <trkpt lat="42.85624" lon="0.09188">
        <ele>2196</ele>
        <time>2014-06-07T05:43:17Z</time>
      </trkpt>
      <trkpt lat="42.85619" lon="0.09203">
        <ele>2199</ele>
        <time>2014-06-07T05:43:30Z</time>
      </trkpt>
      <trkpt lat="42.85617" lon="0.09206">
        <ele>2198</ele>
        <time>2014-06-07T05:43:33Z</time>
      </trkpt>
      <trkpt lat="42.85617" lon="0.09209">
        <ele>2197</ele>
        <time>2014-06-07T05:43:35Z</time>
      </trkpt>
      <trkpt lat="42.85614" lon="0.09225">
        <ele>2197</ele>
        <time>2014-06-07T05:43:51Z</time>
      </trkpt>
      <trkpt lat="42.85609" lon="0.09236">
        <ele>2200</ele>
        <time>2014-06-07T05:44:05Z</time>
      </trkpt>
      <trkpt lat="42.85608" lon="0.09237">
        <ele>2201</ele>
        <time>2014-06-07T05:44:07Z</time>
      </trkpt>
      <trkpt lat="42.85606" lon="0.09236">
        <ele>2202</ele>
        <time>2014-06-07T05:44:14Z</time>
      </trkpt>
      <trkpt lat="42.85596" lon="0.09242">
        <ele>2203</ele>
        <time>2014-06-07T05:44:32Z</time>
      </trkpt>
      <trkpt lat="42.85592" lon="0.09242">
        <ele>2201</ele>
        <time>2014-06-07T05:44:37Z</time>
      </trkpt>
      <trkpt lat="42.8558" lon="0.09238">
        <ele>2202</ele>
        <time>2014-06-07T05:44:52Z</time>
      </trkpt>
      <trkpt lat="42.85576" lon="0.0924">
        <ele>2205</ele>
        <time>2014-06-07T05:45:03Z</time>
      </trkpt>
      <trkpt lat="42.85565" lon="0.09252">
        <ele>2206</ele>
        <time>2014-06-07T05:45:23Z</time>
      </trkpt>
      <trkpt lat="42.85561" lon="0.09253">
        <ele>2206</ele>
        <time>2014-06-07T05:45:29Z</time>
      </trkpt>
      <trkpt lat="42.85547" lon="0.09254">
        <ele>2207</ele>
        <time>2014-06-07T05:45:46Z</time>
      </trkpt>
      <trkpt lat="42.85533" lon="0.09256">
        <ele>2210</ele>
        <time>2014-06-07T05:46:03Z</time>
      </trkpt>
      <trkpt lat="42.8552" lon="0.09259">
        <ele>2212</ele>
        <time>2014-06-07T05:46:18Z</time>
      </trkpt>
      <trkpt lat="42.85512" lon="0.09262">
        <ele>2215</ele>
        <time>2014-06-07T05:46:29Z</time>
      </trkpt>
      <trkpt lat="42.85502" lon="0.09265">
        <ele>2215</ele>
        <time>2014-06-07T05:46:44Z</time>
      </trkpt>
      <trkpt lat="42.85497" lon="0.09269">
        <ele>2219</ele>
        <time>2014-06-07T05:46:53Z</time>
      </trkpt>
      <trkpt lat="42.85483" lon="0.09274">
        <ele>2220</ele>
        <time>2014-06-07T05:47:13Z</time>
      </trkpt>
      <trkpt lat="42.85476" lon="0.09277">
        <ele>2223</ele>
        <time>2014-06-07T05:47:29Z</time>
      </trkpt>
      <trkpt lat="42.85463" lon="0.09285">
        <ele>2227</ele>
        <time>2014-06-07T05:47:50Z</time>
      </trkpt>
      <trkpt lat="42.85461" lon="0.09287">
        <ele>2227</ele>
        <time>2014-06-07T05:47:54Z</time>
      </trkpt>
      <trkpt lat="42.85459" lon="0.09288">
        <ele>2229</ele>
        <time>2014-06-07T05:47:56Z</time>
      </trkpt>
      <trkpt lat="42.85447" lon="0.09297">
        <ele>2229</ele>
        <time>2014-06-07T05:48:17Z</time>
      </trkpt>
      <trkpt lat="42.85439" lon="0.09306">
        <ele>2232</ele>
        <time>2014-06-07T05:48:35Z</time>
      </trkpt>
      <trkpt lat="42.85434" lon="0.09312">
        <ele>2236</ele>
        <time>2014-06-07T05:48:47Z</time>
      </trkpt>
      <trkpt lat="42.85433" lon="0.09312">
        <ele>2236</ele>
        <time>2014-06-07T05:48:48Z</time>
      </trkpt>
      <trkpt lat="42.85425" lon="0.09324">
        <ele>2238</ele>
        <time>2014-06-07T05:49:03Z</time>
      </trkpt>
      <trkpt lat="42.85418" lon="0.09335">
        <ele>2239</ele>
        <time>2014-06-07T05:49:23Z</time>
      </trkpt>
      <trkpt lat="42.85417" lon="0.09338">
        <ele>2240</ele>
        <time>2014-06-07T05:49:27Z</time>
      </trkpt>
      <trkpt lat="42.85416" lon="0.0934">
        <ele>2238</ele>
        <time>2014-06-07T05:49:32Z</time>
      </trkpt>
      <trkpt lat="42.85417" lon="0.09342">
        <ele>2238</ele>
        <time>2014-06-07T05:49:50Z</time>
      </trkpt>
      <trkpt lat="42.85417" lon="0.09345">
        <ele>2240</ele>
        <time>2014-06-07T05:50:04Z</time>
      </trkpt>
      <trkpt lat="42.8541" lon="0.09348">
        <ele>2240</ele>
        <time>2014-06-07T05:50:18Z</time>
      </trkpt>
      <trkpt lat="42.85407" lon="0.0935">
        <ele>2244</ele>
        <time>2014-06-07T05:50:29Z</time>
      </trkpt>
      <trkpt lat="42.85405" lon="0.09351">
        <ele>2244</ele>
        <time>2014-06-07T05:50:34Z</time>
      </trkpt>
      <trkpt lat="42.85399" lon="0.09359">
        <ele>2246</ele>
        <time>2014-06-07T05:50:53Z</time>
      </trkpt>
      <trkpt lat="42.85392" lon="0.09368">
        <ele>2249</ele>
        <time>2014-06-07T05:51:11Z</time>
      </trkpt>
      <trkpt lat="42.8539" lon="0.0937">
        <ele>2252</ele>
        <time>2014-06-07T05:51:21Z</time>
      </trkpt>
      <trkpt lat="42.8539" lon="0.09371">
        <ele>2252</ele>
        <time>2014-06-07T05:51:22Z</time>
      </trkpt>
      <trkpt lat="42.8539" lon="0.09372">
        <ele>2254</ele>
        <time>2014-06-07T05:51:24Z</time>
      </trkpt>
      <trkpt lat="42.8539" lon="0.09374">
        <ele>2254</ele>
        <time>2014-06-07T05:51:29Z</time>
      </trkpt>
      <trkpt lat="42.85387" lon="0.09378">
        <ele>2258</ele>
        <time>2014-06-07T05:51:37Z</time>
      </trkpt>
      <trkpt lat="42.85384" lon="0.09379">
        <ele>2256</ele>
        <time>2014-06-07T05:51:48Z</time>
      </trkpt>
      <trkpt lat="42.85383" lon="0.0938">
        <ele>2259</ele>
        <time>2014-06-07T05:51:51Z</time>
      </trkpt>
      <trkpt lat="42.85382" lon="0.09386">
        <ele>2260</ele>
        <time>2014-06-07T05:52:06Z</time>
      </trkpt>
      <trkpt lat="42.85378" lon="0.09389">
        <ele>2263</ele>
        <time>2014-06-07T05:52:20Z</time>
      </trkpt>
      <trkpt lat="42.85377" lon="0.09391">
        <ele>2265</ele>
        <time>2014-06-07T05:52:30Z</time>
      </trkpt>
      <trkpt lat="42.85377" lon="0.09394">
        <ele>2264</ele>
        <time>2014-06-07T05:52:34Z</time>
      </trkpt>
      <trkpt lat="42.85377" lon="0.09397">
        <ele>2265</ele>
        <time>2014-06-07T05:52:38Z</time>
      </trkpt>
      <trkpt lat="42.85373" lon="0.09397">
        <ele>2267</ele>
        <time>2014-06-07T05:52:49Z</time>
      </trkpt>
      <trkpt lat="42.85369" lon="0.09396">
        <ele>2267</ele>
        <time>2014-06-07T05:53:01Z</time>
      </trkpt>
      <trkpt lat="42.85366" lon="0.09396">
        <ele>2270</ele>
        <time>2014-06-07T05:53:07Z</time>
      </trkpt>
      <trkpt lat="42.85357" lon="0.09393">
        <ele>2269</ele>
        <time>2014-06-07T05:53:23Z</time>
      </trkpt>
      <trkpt lat="42.85355" lon="0.09392">
        <ele>2271</ele>
        <time>2014-06-07T05:53:26Z</time>
      </trkpt>
      <trkpt lat="42.85351" lon="0.09391">
        <ele>2273</ele>
        <time>2014-06-07T05:53:32Z</time>
      </trkpt>
      <trkpt lat="42.85347" lon="0.0939">
        <ele>2277</ele>
        <time>2014-06-07T05:53:37Z</time>
      </trkpt>
      <trkpt lat="42.85347" lon="0.0939">
        <ele>2277</ele>
        <time>2014-06-07T05:53:38Z</time>
      </trkpt>
      <trkpt lat="42.85346" lon="0.09388">
        <ele>2274</ele>
        <time>2014-06-07T05:53:40Z</time>
      </trkpt>
      <trkpt lat="42.85346" lon="0.09388">
        <ele>2275</ele>
        <time>2014-06-07T05:53:41Z</time>
      </trkpt>
      <trkpt lat="42.85345" lon="0.09388">
        <ele>2278</ele>
        <time>2014-06-07T05:53:43Z</time>
      </trkpt>
      <trkpt lat="42.85345" lon="0.09387">
        <ele>2279</ele>
        <time>2014-06-07T05:53:44Z</time>
      </trkpt>
      <trkpt lat="42.85343" lon="0.09386">
        <ele>2281</ele>
        <time>2014-06-07T05:53:51Z</time>
      </trkpt>
      <trkpt lat="42.85343" lon="0.09386">
        <ele>2277</ele>
        <time>2014-06-07T05:53:53Z</time>
      </trkpt>
      <trkpt lat="42.85343" lon="0.09387">
        <ele>2281</ele>
        <time>2014-06-07T05:53:59Z</time>
      </trkpt>
      <trkpt lat="42.85342" lon="0.09387">
        <ele>2285</ele>
        <time>2014-06-07T05:54:01Z</time>
      </trkpt>
      <trkpt lat="42.85341" lon="0.09386">
        <ele>2282</ele>
        <time>2014-06-07T05:54:07Z</time>
      </trkpt>
      <trkpt lat="42.8534" lon="0.09386">
        <ele>2279</ele>
        <time>2014-06-07T05:54:08Z</time>
      </trkpt>
      <trkpt lat="42.8534" lon="0.09385">
        <ele>2277</ele>
        <time>2014-06-07T05:54:10Z</time>
      </trkpt>
      <trkpt lat="42.8534" lon="0.09385">
        <ele>2279</ele>
        <time>2014-06-07T05:54:12Z</time>
      </trkpt>
      <trkpt lat="42.85341" lon="0.09384">
        <ele>2278</ele>
        <time>2014-06-07T05:54:16Z</time>
      </trkpt>
      <trkpt lat="42.85341" lon="0.09383">
        <ele>2279</ele>
        <time>2014-06-07T05:54:23Z</time>
      </trkpt>
      <trkpt lat="42.85341" lon="0.09382">
        <ele>2276</ele>
        <time>2014-06-07T05:54:29Z</time>
      </trkpt>
      <trkpt lat="42.85341" lon="0.09384">
        <ele>2280</ele>
        <time>2014-06-07T05:54:36Z</time>
      </trkpt>
      <trkpt lat="42.85341" lon="0.09384">
        <ele>2284</ele>
        <time>2014-06-07T05:54:40Z</time>
      </trkpt>
      <trkpt lat="42.85341" lon="0.09383">
        <ele>2288</ele>
        <time>2014-06-07T05:54:44Z</time>
      </trkpt>
      <trkpt lat="42.85341" lon="0.09383">
        <ele>2290</ele>
        <time>2014-06-07T05:54:45Z</time>
      </trkpt>
      <trkpt lat="42.85341" lon="0.09383">
        <ele>2296</ele>
        <time>2014-06-07T05:54:46Z</time>
      </trkpt>
      <trkpt lat="42.85341" lon="0.09384">
        <ele>2299</ele>
        <time>2014-06-07T05:54:47Z</time>
      </trkpt>
      <trkpt lat="42.8534" lon="0.09383">
        <ele>2294</ele>
        <time>2014-06-07T05:54:51Z</time>
      </trkpt>
      <trkpt lat="42.8534" lon="0.09383">
        <ele>2295</ele>
        <time>2014-06-07T05:54:52Z</time>
      </trkpt>
      <trkpt lat="42.85339" lon="0.09383">
        <ele>2299</ele>
        <time>2014-06-07T05:54:53Z</time>
      </trkpt>
      <trkpt lat="42.85339" lon="0.09383">
        <ele>2305</ele>
        <time>2014-06-07T05:54:54Z</time>
      </trkpt>
      <trkpt lat="42.85339" lon="0.09383">
        <ele>2309</ele>
        <time>2014-06-07T05:54:55Z</time>
      </trkpt>
      <trkpt lat="42.85339" lon="0.09383">
        <ele>2305</ele>
        <time>2014-06-07T05:54:58Z</time>
      </trkpt>
      <trkpt lat="42.85339" lon="0.09383">
        <ele>2302</ele>
        <time>2014-06-07T05:54:59Z</time>
      </trkpt>
      <trkpt lat="42.85339" lon="0.09383">
        <ele>2299</ele>
        <time>2014-06-07T05:55:00Z</time>
      </trkpt>
      <trkpt lat="42.85339" lon="0.09384">
        <ele>2293</ele>
        <time>2014-06-07T05:55:02Z</time>
      </trkpt>
      <trkpt lat="42.85338" lon="0.09384">
        <ele>2289</ele>
        <time>2014-06-07T05:55:04Z</time>
      </trkpt>
      <trkpt lat="42.85338" lon="0.09384">
        <ele>2289</ele>
        <time>2014-06-07T05:55:05Z</time>
      </trkpt>
      <trkpt lat="42.85339" lon="0.09384">
        <ele>2295</ele>
        <time>2014-06-07T05:55:07Z</time>
      </trkpt>
      <trkpt lat="42.85338" lon="0.09384">
        <ele>2300</ele>
        <time>2014-06-07T05:55:09Z</time>
      </trkpt>
      <trkpt lat="42.85339" lon="0.09384">
        <ele>2300</ele>
        <time>2014-06-07T05:55:10Z</time>
      </trkpt>
      <trkpt lat="42.85339" lon="0.09384">
        <ele>2305</ele>
        <time>2014-06-07T05:55:14Z</time>
      </trkpt>
      <trkpt lat="42.85339" lon="0.09384">
        <ele>2303</ele>
        <time>2014-06-07T05:55:15Z</time>
      </trkpt>
      <trkpt lat="42.85339" lon="0.09384">
        <ele>2298</ele>
        <time>2014-06-07T05:55:17Z</time>
      </trkpt>
      <trkpt lat="42.85339" lon="0.09385">
        <ele>2303</ele>
        <time>2014-06-07T05:55:21Z</time>
      </trkpt>
      <trkpt lat="42.85338" lon="0.09385">
        <ele>2302</ele>
        <time>2014-06-07T05:55:22Z</time>
      </trkpt>
      <trkpt lat="42.85338" lon="0.09385">
        <ele>2297</ele>
        <time>2014-06-07T05:55:23Z</time>
      </trkpt>
      <trkpt lat="42.85338" lon="0.09384">
        <ele>2292</ele>
        <time>2014-06-07T05:55:25Z</time>
      </trkpt>
      <trkpt lat="42.85338" lon="0.09384">
        <ele>2289</ele>
        <time>2014-06-07T05:55:26Z</time>
      </trkpt>
      <trkpt lat="42.85339" lon="0.09384">
        <ele>2285</ele>
        <time>2014-06-07T05:55:28Z</time>
      </trkpt>
      <trkpt lat="42.85338" lon="0.09386">
        <ele>2281</ele>
        <time>2014-06-07T05:55:31Z</time>
      </trkpt>
      <trkpt lat="42.85338" lon="0.09386">
        <ele>2281</ele>
        <time>2014-06-07T05:55:32Z</time>
      </trkpt>
      <trkpt lat="42.85338" lon="0.09385">
        <ele>2278</ele>
        <time>2014-06-07T05:55:38Z</time>
      </trkpt>
      <trkpt lat="42.85338" lon="0.09385">
        <ele>2278</ele>
        <time>2014-06-07T05:55:39Z</time>
      </trkpt>
      <trkpt lat="42.8534" lon="0.09386">
        <ele>2275</ele>
        <time>2014-06-07T05:55:55Z</time>
      </trkpt>
      <trkpt lat="42.8534" lon="0.09386">
        <ele>2276</ele>
        <time>2014-06-07T05:56:07Z</time>
      </trkpt>
      <trkpt lat="42.8534" lon="0.09387">
        <ele>2274</ele>
        <time>2014-06-07T05:56:10Z</time>
      </trkpt>
      <trkpt lat="42.85347" lon="0.09392">
        <ele>2274</ele>
        <time>2014-06-07T05:56:22Z</time>
      </trkpt>
      <trkpt lat="42.85349" lon="0.09394">
        <ele>2273</ele>
        <time>2014-06-07T05:56:26Z</time>
      </trkpt>
      <trkpt lat="42.85351" lon="0.09403">
        <ele>2275</ele>
        <time>2014-06-07T05:56:41Z</time>
      </trkpt>
      <trkpt lat="42.85352" lon="0.09412">
        <ele>2276</ele>
        <time>2014-06-07T05:56:57Z</time>
      </trkpt>
      <trkpt lat="42.85352" lon="0.09415">
        <ele>2277</ele>
        <time>2014-06-07T05:57:09Z</time>
      </trkpt>
      <trkpt lat="42.8535" lon="0.09415">
        <ele>2279</ele>
        <time>2014-06-07T05:57:15Z</time>
      </trkpt>
      <trkpt lat="42.85348" lon="0.09417">
        <ele>2278</ele>
        <time>2014-06-07T05:57:28Z</time>
      </trkpt>
      <trkpt lat="42.85348" lon="0.09417">
        <ele>2277</ele>
        <time>2014-06-07T05:57:30Z</time>
      </trkpt>
      <trkpt lat="42.85354" lon="0.09426">
        <ele>2280</ele>
        <time>2014-06-07T05:57:47Z</time>
      </trkpt>
      <trkpt lat="42.85359" lon="0.09442">
        <ele>2283</ele>
        <time>2014-06-07T05:58:04Z</time>
      </trkpt>
      <trkpt lat="42.85359" lon="0.09443">
        <ele>2284</ele>
        <time>2014-06-07T05:58:06Z</time>
      </trkpt>
      <trkpt lat="42.85353" lon="0.09455">
        <ele>2289</ele>
        <time>2014-06-07T05:58:26Z</time>
      </trkpt>
      <trkpt lat="42.85351" lon="0.09459">
        <ele>2288</ele>
        <time>2014-06-07T05:58:31Z</time>
      </trkpt>
      <trkpt lat="42.85349" lon="0.09464">
        <ele>2290</ele>
        <time>2014-06-07T05:58:38Z</time>
      </trkpt>
      <trkpt lat="42.85346" lon="0.09469">
        <ele>2293</ele>
        <time>2014-06-07T05:58:47Z</time>
      </trkpt>
      <trkpt lat="42.85343" lon="0.09471">
        <ele>2292</ele>
        <time>2014-06-07T05:58:54Z</time>
      </trkpt>
      <trkpt lat="42.85341" lon="0.09479">
        <ele>2295</ele>
        <time>2014-06-07T05:59:09Z</time>
      </trkpt>
      <trkpt lat="42.85334" lon="0.0949">
        <ele>2297</ele>
        <time>2014-06-07T05:59:28Z</time>
      </trkpt>
      <trkpt lat="42.85331" lon="0.09493">
        <ele>2298</ele>
        <time>2014-06-07T05:59:43Z</time>
      </trkpt>
      <trkpt lat="42.85329" lon="0.09499">
        <ele>2298</ele>
        <time>2014-06-07T06:00:03Z</time>
      </trkpt>
      <trkpt lat="42.85323" lon="0.09506">
        <ele>2299</ele>
        <time>2014-06-07T06:00:24Z</time>
      </trkpt>
      <trkpt lat="42.85323" lon="0.09521">
        <ele>2298</ele>
        <time>2014-06-07T06:00:45Z</time>
      </trkpt>
      <trkpt lat="42.85322" lon="0.09523">
        <ele>2299</ele>
        <time>2014-06-07T06:00:47Z</time>
      </trkpt>
      <trkpt lat="42.85323" lon="0.09541">
        <ele>2296</ele>
        <time>2014-06-07T06:01:06Z</time>
      </trkpt>
      <trkpt lat="42.85323" lon="0.09546">
        <ele>2296</ele>
        <time>2014-06-07T06:01:10Z</time>
      </trkpt>
      <trkpt lat="42.85324" lon="0.09551">
        <ele>2297</ele>
        <time>2014-06-07T06:01:25Z</time>
      </trkpt>
      <trkpt lat="42.85325" lon="0.09552">
        <ele>2297</ele>
        <time>2014-06-07T06:01:52Z</time>
      </trkpt>
      <trkpt lat="42.85326" lon="0.09552">
        <ele>2296</ele>
        <time>2014-06-07T06:02:09Z</time>
      </trkpt>
      <trkpt lat="42.85326" lon="0.09553">
        <ele>2300</ele>
        <time>2014-06-07T06:02:15Z</time>
      </trkpt>
      <trkpt lat="42.85324" lon="0.09552">
        <ele>2296</ele>
        <time>2014-06-07T06:02:35Z</time>
      </trkpt>
      <trkpt lat="42.85323" lon="0.09551">
        <ele>2299</ele>
        <time>2014-06-07T06:02:43Z</time>
      </trkpt>
      <trkpt lat="42.85324" lon="0.09552">
        <ele>2296</ele>
        <time>2014-06-07T06:02:58Z</time>
      </trkpt>
      <trkpt lat="42.85325" lon="0.09553">
        <ele>2294</ele>
        <time>2014-06-07T06:03:09Z</time>
      </trkpt>
      <trkpt lat="42.85325" lon="0.09553">
        <ele>2296</ele>
        <time>2014-06-07T06:03:14Z</time>
      </trkpt>
      <trkpt lat="42.85324" lon="0.09552">
        <ele>2294</ele>
        <time>2014-06-07T06:03:23Z</time>
      </trkpt>
      <trkpt lat="42.85324" lon="0.09552">
        <ele>2294</ele>
        <time>2014-06-07T06:03:27Z</time>
      </trkpt>
      <trkpt lat="42.85324" lon="0.09552">
        <ele>2296</ele>
        <time>2014-06-07T06:03:32Z</time>
      </trkpt>
      <trkpt lat="42.85323" lon="0.09552">
        <ele>2296</ele>
        <time>2014-06-07T06:03:42Z</time>
      </trkpt>
      <trkpt lat="42.85323" lon="0.09553">
        <ele>2300</ele>
        <time>2014-06-07T06:03:46Z</time>
      </trkpt>
      <trkpt lat="42.85324" lon="0.09553">
        <ele>2298</ele>
        <time>2014-06-07T06:04:00Z</time>
      </trkpt>
      <trkpt lat="42.85325" lon="0.09553">
        <ele>2299</ele>
        <time>2014-06-07T06:04:21Z</time>
      </trkpt>
      <trkpt lat="42.85325" lon="0.09552">
        <ele>2296</ele>
        <time>2014-06-07T06:04:27Z</time>
      </trkpt>
      <trkpt lat="42.85325" lon="0.09553">
        <ele>2298</ele>
        <time>2014-06-07T06:04:34Z</time>
      </trkpt>
      <trkpt lat="42.85324" lon="0.09553">
        <ele>2297</ele>
        <time>2014-06-07T06:04:36Z</time>
      </trkpt>
      <trkpt lat="42.85324" lon="0.09552">
        <ele>2296</ele>
        <time>2014-06-07T06:05:01Z</time>
      </trkpt>
      <trkpt lat="42.85324" lon="0.09554">
        <ele>2296</ele>
        <time>2014-06-07T06:05:23Z</time>
      </trkpt>
      <trkpt lat="42.85325" lon="0.09554">
        <ele>2296</ele>
        <time>2014-06-07T06:05:57Z</time>
      </trkpt>
      <trkpt lat="42.85324" lon="0.09554">
        <ele>2300</ele>
        <time>2014-06-07T06:06:10Z</time>
      </trkpt>
      <trkpt lat="42.85324" lon="0.09554">
        <ele>2300</ele>
        <time>2014-06-07T06:06:11Z</time>
      </trkpt>
      <trkpt lat="42.85323" lon="0.09555">
        <ele>2298</ele>
        <time>2014-06-07T06:06:23Z</time>
      </trkpt>
      <trkpt lat="42.85325" lon="0.09554">
        <ele>2298</ele>
        <time>2014-06-07T06:06:29Z</time>
      </trkpt>
      <trkpt lat="42.85325" lon="0.09554">
        <ele>2299</ele>
        <time>2014-06-07T06:06:36Z</time>
      </trkpt>
      <trkpt lat="42.85325" lon="0.09555">
        <ele>2298</ele>
        <time>2014-06-07T06:06:38Z</time>
      </trkpt>
      <trkpt lat="42.85326" lon="0.09556">
        <ele>2302</ele>
        <time>2014-06-07T06:06:50Z</time>
      </trkpt>
      <trkpt lat="42.85328" lon="0.09558">
        <ele>2299</ele>
        <time>2014-06-07T06:06:57Z</time>
      </trkpt>
      <trkpt lat="42.85332" lon="0.09572">
        <ele>2300</ele>
        <time>2014-06-07T06:07:13Z</time>
      </trkpt>
      <trkpt lat="42.85334" lon="0.09583">
        <ele>2303</ele>
        <time>2014-06-07T06:07:27Z</time>
      </trkpt>
      <trkpt lat="42.85335" lon="0.09584">
        <ele>2303</ele>
        <time>2014-06-07T06:07:28Z</time>
      </trkpt>
      <trkpt lat="42.85334" lon="0.09596">
        <ele>2306</ele>
        <time>2014-06-07T06:07:46Z</time>
      </trkpt>
      <trkpt lat="42.85331" lon="0.09605">
        <ele>2309</ele>
        <time>2014-06-07T06:07:57Z</time>
      </trkpt>
      <trkpt lat="42.85328" lon="0.09618">
        <ele>2314</ele>
        <time>2014-06-07T06:08:13Z</time>
      </trkpt>
      <trkpt lat="42.85327" lon="0.0962">
        <ele>2311</ele>
        <time>2014-06-07T06:08:16Z</time>
      </trkpt>
      <trkpt lat="42.85327" lon="0.09623">
        <ele>2313</ele>
        <time>2014-06-07T06:08:19Z</time>
      </trkpt>
      <trkpt lat="42.85326" lon="0.09627">
        <ele>2312</ele>
        <time>2014-06-07T06:08:24Z</time>
      </trkpt>
      <trkpt lat="42.85326" lon="0.09629">
        <ele>2315</ele>
        <time>2014-06-07T06:08:26Z</time>
      </trkpt>
      <trkpt lat="42.85326" lon="0.09631">
        <ele>2317</ele>
        <time>2014-06-07T06:08:28Z</time>
      </trkpt>
      <trkpt lat="42.85325" lon="0.09635">
        <ele>2319</ele>
        <time>2014-06-07T06:08:34Z</time>
      </trkpt>
      <trkpt lat="42.85324" lon="0.09636">
        <ele>2313</ele>
        <time>2014-06-07T06:08:37Z</time>
      </trkpt>
      <trkpt lat="42.85324" lon="0.09637">
        <ele>2314</ele>
        <time>2014-06-07T06:08:38Z</time>
      </trkpt>
      <trkpt lat="42.85323" lon="0.09641">
        <ele>2317</ele>
        <time>2014-06-07T06:08:44Z</time>
      </trkpt>
      <trkpt lat="42.85322" lon="0.09641">
        <ele>2317</ele>
        <time>2014-06-07T06:08:45Z</time>
      </trkpt>
      <trkpt lat="42.85322" lon="0.09643">
        <ele>2321</ele>
        <time>2014-06-07T06:08:47Z</time>
      </trkpt>
      <trkpt lat="42.85322" lon="0.09644">
        <ele>2321</ele>
        <time>2014-06-07T06:08:48Z</time>
      </trkpt>
      <trkpt lat="42.85322" lon="0.09644">
        <ele>2317</ele>
        <time>2014-06-07T06:08:49Z</time>
      </trkpt>
      <trkpt lat="42.85321" lon="0.09645">
        <ele>2315</ele>
        <time>2014-06-07T06:08:51Z</time>
      </trkpt>
      <trkpt lat="42.8532" lon="0.09648">
        <ele>2319</ele>
        <time>2014-06-07T06:08:54Z</time>
      </trkpt>
      <trkpt lat="42.8532" lon="0.09649">
        <ele>2318</ele>
        <time>2014-06-07T06:08:55Z</time>
      </trkpt>
      <trkpt lat="42.85318" lon="0.09654">
        <ele>2319</ele>
        <time>2014-06-07T06:09:00Z</time>
      </trkpt>
      <trkpt lat="42.85317" lon="0.09656">
        <ele>2318</ele>
        <time>2014-06-07T06:09:03Z</time>
      </trkpt>
      <trkpt lat="42.85315" lon="0.09661">
        <ele>2322</ele>
        <time>2014-06-07T06:09:10Z</time>
      </trkpt>
      <trkpt lat="42.85311" lon="0.09673">
        <ele>2326</ele>
        <time>2014-06-07T06:09:28Z</time>
      </trkpt>
      <trkpt lat="42.85305" lon="0.09688">
        <ele>2325</ele>
        <time>2014-06-07T06:09:47Z</time>
      </trkpt>
      <trkpt lat="42.85298" lon="0.09697">
        <ele>2328</ele>
        <time>2014-06-07T06:10:00Z</time>
      </trkpt>
      <trkpt lat="42.85296" lon="0.09699">
        <ele>2329</ele>
        <time>2014-06-07T06:10:04Z</time>
      </trkpt>
      <trkpt lat="42.85287" lon="0.09716">
        <ele>2331</ele>
        <time>2014-06-07T06:10:26Z</time>
      </trkpt>
      <trkpt lat="42.8528" lon="0.09731">
        <ele>2334</ele>
        <time>2014-06-07T06:10:46Z</time>
      </trkpt>
      <trkpt lat="42.85272" lon="0.09745">
        <ele>2334</ele>
        <time>2014-06-07T06:11:06Z</time>
      </trkpt>
      <trkpt lat="42.8527" lon="0.09753">
        <ele>2336</ele>
        <time>2014-06-07T06:11:24Z</time>
      </trkpt>
      <trkpt lat="42.8527" lon="0.09757">
        <ele>2337</ele>
        <time>2014-06-07T06:11:28Z</time>
      </trkpt>
      <trkpt lat="42.85265" lon="0.09769">
        <ele>2339</ele>
        <time>2014-06-07T06:11:48Z</time>
      </trkpt>
      <trkpt lat="42.85264" lon="0.0977">
        <ele>2340</ele>
        <time>2014-06-07T06:11:50Z</time>
      </trkpt>
      <trkpt lat="42.85257" lon="0.0978">
        <ele>2343</ele>
        <time>2014-06-07T06:12:06Z</time>
      </trkpt>
      <trkpt lat="42.85248" lon="0.09791">
        <ele>2347</ele>
        <time>2014-06-07T06:12:22Z</time>
      </trkpt>
      <trkpt lat="42.85247" lon="0.09792">
        <ele>2348</ele>
        <time>2014-06-07T06:12:24Z</time>
      </trkpt>
      <trkpt lat="42.85244" lon="0.09796">
        <ele>2352</ele>
        <time>2014-06-07T06:12:30Z</time>
      </trkpt>
      <trkpt lat="42.85244" lon="0.09797">
        <ele>2351</ele>
        <time>2014-06-07T06:12:31Z</time>
      </trkpt>
      <trkpt lat="42.85234" lon="0.09805">
        <ele>2353</ele>
        <time>2014-06-07T06:12:48Z</time>
      </trkpt>
      <trkpt lat="42.85227" lon="0.09812">
        <ele>2354</ele>
        <time>2014-06-07T06:13:01Z</time>
      </trkpt>
      <trkpt lat="42.85222" lon="0.09815">
        <ele>2357</ele>
        <time>2014-06-07T06:13:10Z</time>
      </trkpt>
      <trkpt lat="42.85219" lon="0.09818">
        <ele>2353</ele>
        <time>2014-06-07T06:13:14Z</time>
      </trkpt>
      <trkpt lat="42.85219" lon="0.09818">
        <ele>2353</ele>
        <time>2014-06-07T06:13:15Z</time>
      </trkpt>
      <trkpt lat="42.85216" lon="0.09819">
        <ele>2352</ele>
        <time>2014-06-07T06:13:21Z</time>
      </trkpt>
      <trkpt lat="42.85204" lon="0.09824">
        <ele>2352</ele>
        <time>2014-06-07T06:13:37Z</time>
      </trkpt>
      <trkpt lat="42.85193" lon="0.09829">
        <ele>2354</ele>
        <time>2014-06-07T06:13:56Z</time>
      </trkpt>
      <trkpt lat="42.85181" lon="0.09837">
        <ele>2356</ele>
        <time>2014-06-07T06:14:15Z</time>
      </trkpt>
      <trkpt lat="42.85178" lon="0.09838">
        <ele>2359</ele>
        <time>2014-06-07T06:14:21Z</time>
      </trkpt>
      <trkpt lat="42.85177" lon="0.09839">
        <ele>2359</ele>
        <time>2014-06-07T06:14:22Z</time>
      </trkpt>
      <trkpt lat="42.85172" lon="0.09842">
        <ele>2361</ele>
        <time>2014-06-07T06:14:28Z</time>
      </trkpt>
      <trkpt lat="42.85168" lon="0.09844">
        <ele>2358</ele>
        <time>2014-06-07T06:14:34Z</time>
      </trkpt>
      <trkpt lat="42.85163" lon="0.09846">
        <ele>2360</ele>
        <time>2014-06-07T06:14:40Z</time>
      </trkpt>
      <trkpt lat="42.8516" lon="0.09847">
        <ele>2358</ele>
        <time>2014-06-07T06:14:44Z</time>
      </trkpt>
      <trkpt lat="42.85153" lon="0.09852">
        <ele>2361</ele>
        <time>2014-06-07T06:14:55Z</time>
      </trkpt>
      <trkpt lat="42.85148" lon="0.09855">
        <ele>2364</ele>
        <time>2014-06-07T06:15:04Z</time>
      </trkpt>
      <trkpt lat="42.85144" lon="0.09858">
        <ele>2366</ele>
        <time>2014-06-07T06:15:11Z</time>
      </trkpt>
      <trkpt lat="42.85142" lon="0.0986">
        <ele>2369</ele>
        <time>2014-06-07T06:15:16Z</time>
      </trkpt>
      <trkpt lat="42.85141" lon="0.0986">
        <ele>2369</ele>
        <time>2014-06-07T06:15:17Z</time>
      </trkpt>
      <trkpt lat="42.85138" lon="0.09864">
        <ele>2373</ele>
        <time>2014-06-07T06:15:23Z</time>
      </trkpt>
      <trkpt lat="42.85138" lon="0.09864">
        <ele>2370</ele>
        <time>2014-06-07T06:15:24Z</time>
      </trkpt>
      <trkpt lat="42.85135" lon="0.09867">
        <ele>2374</ele>
        <time>2014-06-07T06:15:31Z</time>
      </trkpt>
      <trkpt lat="42.85134" lon="0.09868">
        <ele>2374</ele>
        <time>2014-06-07T06:15:32Z</time>
      </trkpt>
      <trkpt lat="42.85133" lon="0.09871">
        <ele>2370</ele>
        <time>2014-06-07T06:15:36Z</time>
      </trkpt>
      <trkpt lat="42.85132" lon="0.09871">
        <ele>2370</ele>
        <time>2014-06-07T06:15:37Z</time>
      </trkpt>
      <trkpt lat="42.85131" lon="0.09871">
        <ele>2378</ele>
        <time>2014-06-07T06:15:39Z</time>
      </trkpt>
      <trkpt lat="42.85131" lon="0.09872">
        <ele>2376</ele>
        <time>2014-06-07T06:15:40Z</time>
      </trkpt>
      <trkpt lat="42.85131" lon="0.09871">
        <ele>2371</ele>
        <time>2014-06-07T06:15:41Z</time>
      </trkpt>
      <trkpt lat="42.85132" lon="0.09871">
        <ele>2372</ele>
        <time>2014-06-07T06:15:42Z</time>
      </trkpt>
      <trkpt lat="42.85134" lon="0.09871">
        <ele>2370</ele>
        <time>2014-06-07T06:15:48Z</time>
      </trkpt>
      <trkpt lat="42.85134" lon="0.09872">
        <ele>2367</ele>
        <time>2014-06-07T06:15:55Z</time>
      </trkpt>
      <trkpt lat="42.85133" lon="0.09874">
        <ele>2365</ele>
        <time>2014-06-07T06:16:06Z</time>
      </trkpt>
      <trkpt lat="42.85132" lon="0.09876">
        <ele>2368</ele>
        <time>2014-06-07T06:16:24Z</time>
      </trkpt>
      <trkpt lat="42.85132" lon="0.09877">
        <ele>2366</ele>
        <time>2014-06-07T06:16:26Z</time>
      </trkpt>
      <trkpt lat="42.8513" lon="0.09875">
        <ele>2370</ele>
        <time>2014-06-07T06:16:36Z</time>
      </trkpt>
      <trkpt lat="42.85125" lon="0.09882">
        <ele>2368</ele>
        <time>2014-06-07T06:16:47Z</time>
      </trkpt>
      <trkpt lat="42.85124" lon="0.09884">
        <ele>2362</ele>
        <time>2014-06-07T06:16:50Z</time>
      </trkpt>
      <trkpt lat="42.85124" lon="0.09885">
        <ele>2362</ele>
        <time>2014-06-07T06:16:51Z</time>
      </trkpt>
      <trkpt lat="42.85123" lon="0.09885">
        <ele>2367</ele>
        <time>2014-06-07T06:16:53Z</time>
      </trkpt>
      <trkpt lat="42.85123" lon="0.09886">
        <ele>2372</ele>
        <time>2014-06-07T06:16:54Z</time>
      </trkpt>
      <trkpt lat="42.85122" lon="0.09886">
        <ele>2372</ele>
        <time>2014-06-07T06:16:55Z</time>
      </trkpt>
      <trkpt lat="42.85121" lon="0.0989">
        <ele>2366</ele>
        <time>2014-06-07T06:17:00Z</time>
      </trkpt>
      <trkpt lat="42.8512" lon="0.09891">
        <ele>2366</ele>
        <time>2014-06-07T06:17:01Z</time>
      </trkpt>
      <trkpt lat="42.85117" lon="0.09893">
        <ele>2365</ele>
        <time>2014-06-07T06:17:05Z</time>
      </trkpt>
      <trkpt lat="42.85115" lon="0.09892">
        <ele>2361</ele>
        <time>2014-06-07T06:17:09Z</time>
      </trkpt>
      <trkpt lat="42.85114" lon="0.09892">
        <ele>2361</ele>
        <time>2014-06-07T06:17:10Z</time>
      </trkpt>
      <trkpt lat="42.85114" lon="0.09892">
        <ele>2364</ele>
        <time>2014-06-07T06:17:14Z</time>
      </trkpt>
      <trkpt lat="42.85112" lon="0.09891">
        <ele>2361</ele>
        <time>2014-06-07T06:17:22Z</time>
      </trkpt>
      <trkpt lat="42.85111" lon="0.09891">
        <ele>2361</ele>
        <time>2014-06-07T06:17:23Z</time>
      </trkpt>
      <trkpt lat="42.85111" lon="0.09891">
        <ele>2363</ele>
        <time>2014-06-07T06:17:26Z</time>
      </trkpt>
      <trkpt lat="42.85109" lon="0.09891">
        <ele>2365</ele>
        <time>2014-06-07T06:17:33Z</time>
      </trkpt>
      <trkpt lat="42.85108" lon="0.09891">
        <ele>2362</ele>
        <time>2014-06-07T06:17:42Z</time>
      </trkpt>
      <trkpt lat="42.85106" lon="0.09884">
        <ele>2364</ele>
        <time>2014-06-07T06:17:51Z</time>
      </trkpt>
      <trkpt lat="42.85105" lon="0.09883">
        <ele>2363</ele>
        <time>2014-06-07T06:17:53Z</time>
      </trkpt>
      <trkpt lat="42.85104" lon="0.09881">
        <ele>2364</ele>
        <time>2014-06-07T06:17:56Z</time>
      </trkpt>
      <trkpt lat="42.85098" lon="0.09862">
        <ele>2364</ele>
        <time>2014-06-07T06:18:14Z</time>
      </trkpt>
      <trkpt lat="42.85096" lon="0.09858">
        <ele>2367</ele>
        <time>2014-06-07T06:18:21Z</time>
      </trkpt>
      <trkpt lat="42.8509" lon="0.09846">
        <ele>2369</ele>
        <time>2014-06-07T06:18:36Z</time>
      </trkpt>
      <trkpt lat="42.85088" lon="0.09842">
        <ele>2377</ele>
        <time>2014-06-07T06:18:40Z</time>
      </trkpt>
      <trkpt lat="42.85084" lon="0.09838">
        <ele>2379</ele>
        <time>2014-06-07T06:18:49Z</time>
      </trkpt>
      <trkpt lat="42.85081" lon="0.09835">
        <ele>2376</ele>
        <time>2014-06-07T06:18:54Z</time>
      </trkpt>
      <trkpt lat="42.85071" lon="0.09831">
        <ele>2373</ele>
        <time>2014-06-07T06:19:07Z</time>
      </trkpt>
      <trkpt lat="42.85067" lon="0.0983">
        <ele>2371</ele>
        <time>2014-06-07T06:19:11Z</time>
      </trkpt>
      <trkpt lat="42.85057" lon="0.09827">
        <ele>2371</ele>
        <time>2014-06-07T06:19:22Z</time>
      </trkpt>
      <trkpt lat="42.85045" lon="0.09822">
        <ele>2372</ele>
        <time>2014-06-07T06:19:37Z</time>
      </trkpt>
      <trkpt lat="42.85042" lon="0.09819">
        <ele>2371</ele>
        <time>2014-06-07T06:19:53Z</time>
      </trkpt>
      <trkpt lat="42.85037" lon="0.09821">
        <ele>2369</ele>
        <time>2014-06-07T06:20:05Z</time>
      </trkpt>
      <trkpt lat="42.85035" lon="0.09818">
        <ele>2369</ele>
        <time>2014-06-07T06:20:17Z</time>
      </trkpt>
      <trkpt lat="42.85033" lon="0.09818">
        <ele>2368</ele>
        <time>2014-06-07T06:20:31Z</time>
      </trkpt>
      <trkpt lat="42.85031" lon="0.09817">
        <ele>2367</ele>
        <time>2014-06-07T06:20:33Z</time>
      </trkpt>
      <trkpt lat="42.85028" lon="0.09817">
        <ele>2367</ele>
        <time>2014-06-07T06:20:37Z</time>
      </trkpt>
      <trkpt lat="42.85017" lon="0.09827">
        <ele>2364</ele>
        <time>2014-06-07T06:20:50Z</time>
      </trkpt>
      <trkpt lat="42.85014" lon="0.09828">
        <ele>2365</ele>
        <time>2014-06-07T06:21:00Z</time>
      </trkpt>
      <trkpt lat="42.85015" lon="0.09828">
        <ele>2362</ele>
        <time>2014-06-07T06:21:12Z</time>
      </trkpt>
      <trkpt lat="42.85014" lon="0.09826">
        <ele>2364</ele>
        <time>2014-06-07T06:21:19Z</time>
      </trkpt>
      <trkpt lat="42.85014" lon="0.09827">
        <ele>2363</ele>
        <time>2014-06-07T06:21:22Z</time>
      </trkpt>
      <trkpt lat="42.85014" lon="0.09828">
        <ele>2364</ele>
        <time>2014-06-07T06:21:24Z</time>
      </trkpt>
      <trkpt lat="42.85014" lon="0.09828">
        <ele>2363</ele>
        <time>2014-06-07T06:21:27Z</time>
      </trkpt>
      <trkpt lat="42.85012" lon="0.09828">
        <ele>2366</ele>
        <time>2014-06-07T06:21:37Z</time>
      </trkpt>
      <trkpt lat="42.85008" lon="0.09824">
        <ele>2364</ele>
        <time>2014-06-07T06:21:51Z</time>
      </trkpt>
      <trkpt lat="42.85002" lon="0.09825">
        <ele>2362</ele>
        <time>2014-06-07T06:22:01Z</time>
      </trkpt>
      <trkpt lat="42.85" lon="0.09825">
        <ele>2360</ele>
        <time>2014-06-07T06:22:03Z</time>
      </trkpt>
      <trkpt lat="42.84995" lon="0.09823">
        <ele>2358</ele>
        <time>2014-06-07T06:22:15Z</time>
      </trkpt>
      <trkpt lat="42.84994" lon="0.0982">
        <ele>2359</ele>
        <time>2014-06-07T06:22:27Z</time>
      </trkpt>
      <trkpt lat="42.84992" lon="0.0982">
        <ele>2359</ele>
        <time>2014-06-07T06:22:42Z</time>
      </trkpt>
      <trkpt lat="42.84992" lon="0.0982">
        <ele>2360</ele>
        <time>2014-06-07T06:22:59Z</time>
      </trkpt>
      <trkpt lat="42.84992" lon="0.09819">
        <ele>2356</ele>
        <time>2014-06-07T06:23:14Z</time>
      </trkpt>
      <trkpt lat="42.84993" lon="0.0982">
        <ele>2356</ele>
        <time>2014-06-07T06:23:29Z</time>
      </trkpt>
      <trkpt lat="42.84991" lon="0.09824">
        <ele>2354</ele>
        <time>2014-06-07T06:23:59Z</time>
      </trkpt>
      <trkpt lat="42.8499" lon="0.0982">
        <ele>2356</ele>
        <time>2014-06-07T06:24:21Z</time>
      </trkpt>
      <trkpt lat="42.84985" lon="0.0982">
        <ele>2360</ele>
        <time>2014-06-07T06:24:40Z</time>
      </trkpt>
      <trkpt lat="42.84976" lon="0.09818">
        <ele>2361</ele>
        <time>2014-06-07T06:25:01Z</time>
      </trkpt>
      <trkpt lat="42.84967" lon="0.09817">
        <ele>2362</ele>
        <time>2014-06-07T06:25:10Z</time>
      </trkpt>
      <trkpt lat="42.84962" lon="0.09813">
        <ele>2360</ele>
        <time>2014-06-07T06:25:18Z</time>
      </trkpt>
      <trkpt lat="42.84957" lon="0.09808">
        <ele>2360</ele>
        <time>2014-06-07T06:25:24Z</time>
      </trkpt>
      <trkpt lat="42.84955" lon="0.0979">
        <ele>2360</ele>
        <time>2014-06-07T06:25:39Z</time>
      </trkpt>
      <trkpt lat="42.84957" lon="0.09782">
        <ele>2363</ele>
        <time>2014-06-07T06:25:53Z</time>
      </trkpt>
      <trkpt lat="42.84946" lon="0.09781">
        <ele>2364</ele>
        <time>2014-06-07T06:26:08Z</time>
      </trkpt>
      <trkpt lat="42.8494" lon="0.09779">
        <ele>2364</ele>
        <time>2014-06-07T06:26:14Z</time>
      </trkpt>
      <trkpt lat="42.84934" lon="0.09774">
        <ele>2367</ele>
        <time>2014-06-07T06:26:21Z</time>
      </trkpt>
      <trkpt lat="42.84918" lon="0.09763">
        <ele>2366</ele>
        <time>2014-06-07T06:26:39Z</time>
      </trkpt>
      <trkpt lat="42.84907" lon="0.0976">
        <ele>2366</ele>
        <time>2014-06-07T06:26:54Z</time>
      </trkpt>
      <trkpt lat="42.84892" lon="0.09762">
        <ele>2368</ele>
        <time>2014-06-07T06:27:13Z</time>
      </trkpt>
      <trkpt lat="42.8488" lon="0.09766">
        <ele>2370</ele>
        <time>2014-06-07T06:27:30Z</time>
      </trkpt>
      <trkpt lat="42.84868" lon="0.09771">
        <ele>2371</ele>
        <time>2014-06-07T06:27:48Z</time>
      </trkpt>
      <trkpt lat="42.84855" lon="0.09776">
        <ele>2371</ele>
        <time>2014-06-07T06:28:08Z</time>
      </trkpt>
      <trkpt lat="42.84844" lon="0.09779">
        <ele>2373</ele>
        <time>2014-06-07T06:28:26Z</time>
      </trkpt>
      <trkpt lat="42.84831" lon="0.09783">
        <ele>2374</ele>
        <time>2014-06-07T06:28:43Z</time>
      </trkpt>
      <trkpt lat="42.84819" lon="0.09784">
        <ele>2376</ele>
        <time>2014-06-07T06:29:01Z</time>
      </trkpt>
      <trkpt lat="42.84807" lon="0.09786">
        <ele>2376</ele>
        <time>2014-06-07T06:29:18Z</time>
      </trkpt>
      <trkpt lat="42.84793" lon="0.09792">
        <ele>2379</ele>
        <time>2014-06-07T06:29:38Z</time>
      </trkpt>
      <trkpt lat="42.8479" lon="0.09795">
        <ele>2383</ele>
        <time>2014-06-07T06:29:43Z</time>
      </trkpt>
      <trkpt lat="42.84789" lon="0.09795">
        <ele>2382</ele>
        <time>2014-06-07T06:29:44Z</time>
      </trkpt>
      <trkpt lat="42.84786" lon="0.09796">
        <ele>2383</ele>
        <time>2014-06-07T06:29:48Z</time>
      </trkpt>
      <trkpt lat="42.84785" lon="0.09797">
        <ele>2385</ele>
        <time>2014-06-07T06:29:50Z</time>
      </trkpt>
      <trkpt lat="42.84783" lon="0.09798">
        <ele>2386</ele>
        <time>2014-06-07T06:29:53Z</time>
      </trkpt>
      <trkpt lat="42.84769" lon="0.09803">
        <ele>2388</ele>
        <time>2014-06-07T06:30:13Z</time>
      </trkpt>
      <trkpt lat="42.84755" lon="0.09806">
        <ele>2390</ele>
        <time>2014-06-07T06:30:34Z</time>
      </trkpt>
      <trkpt lat="42.84744" lon="0.09807">
        <ele>2393</ele>
        <time>2014-06-07T06:30:49Z</time>
      </trkpt>
      <trkpt lat="42.84732" lon="0.09805">
        <ele>2393</ele>
        <time>2014-06-07T06:31:04Z</time>
      </trkpt>
      <trkpt lat="42.8472" lon="0.09804">
        <ele>2396</ele>
        <time>2014-06-07T06:31:20Z</time>
      </trkpt>
      <trkpt lat="42.84708" lon="0.09802">
        <ele>2398</ele>
        <time>2014-06-07T06:31:37Z</time>
      </trkpt>
      <trkpt lat="42.84695" lon="0.09801">
        <ele>2398</ele>
        <time>2014-06-07T06:31:52Z</time>
      </trkpt>
      <trkpt lat="42.84683" lon="0.09803">
        <ele>2399</ele>
        <time>2014-06-07T06:32:09Z</time>
      </trkpt>
      <trkpt lat="42.84668" lon="0.09805">
        <ele>2401</ele>
        <time>2014-06-07T06:32:30Z</time>
      </trkpt>
      <trkpt lat="42.84658" lon="0.09805">
        <ele>2405</ele>
        <time>2014-06-07T06:32:44Z</time>
      </trkpt>
      <trkpt lat="42.84655" lon="0.09804">
        <ele>2403</ele>
        <time>2014-06-07T06:32:49Z</time>
      </trkpt>
      <trkpt lat="42.8465" lon="0.09805">
        <ele>2404</ele>
        <time>2014-06-07T06:32:57Z</time>
      </trkpt>
      <trkpt lat="42.84637" lon="0.09804">
        <ele>2402</ele>
        <time>2014-06-07T06:33:11Z</time>
      </trkpt>
      <trkpt lat="42.8463" lon="0.09801">
        <ele>2405</ele>
        <time>2014-06-07T06:33:21Z</time>
      </trkpt>
      <trkpt lat="42.84626" lon="0.09802">
        <ele>2402</ele>
        <time>2014-06-07T06:33:26Z</time>
      </trkpt>
      <trkpt lat="42.84621" lon="0.09797">
        <ele>2403</ele>
        <time>2014-06-07T06:33:37Z</time>
      </trkpt>
      <trkpt lat="42.84629" lon="0.09786">
        <ele>2405</ele>
        <time>2014-06-07T06:33:47Z</time>
      </trkpt>
      <trkpt lat="42.84636" lon="0.09768">
        <ele>2404</ele>
        <time>2014-06-07T06:34:00Z</time>
      </trkpt>
      <trkpt lat="42.84632" lon="0.0975">
        <ele>2401</ele>
        <time>2014-06-07T06:34:11Z</time>
      </trkpt>
      <trkpt lat="42.84631" lon="0.09744">
        <ele>2403</ele>
        <time>2014-06-07T06:34:15Z</time>
      </trkpt>
      <trkpt lat="42.84622" lon="0.09729">
        <ele>2403</ele>
        <time>2014-06-07T06:34:28Z</time>
      </trkpt>
      <trkpt lat="42.84606" lon="0.09731">
        <ele>2404</ele>
        <time>2014-06-07T06:34:44Z</time>
      </trkpt>
      <trkpt lat="42.84589" lon="0.09739">
        <ele>2407</ele>
        <time>2014-06-07T06:35:04Z</time>
      </trkpt>
      <trkpt lat="42.84571" lon="0.09749">
        <ele>2406</ele>
        <time>2014-06-07T06:35:21Z</time>
      </trkpt>
      <trkpt lat="42.84557" lon="0.09751">
        <ele>2406</ele>
        <time>2014-06-07T06:35:37Z</time>
      </trkpt>
      <trkpt lat="42.84547" lon="0.09756">
        <ele>2408</ele>
        <time>2014-06-07T06:35:54Z</time>
      </trkpt>
      <trkpt lat="42.84536" lon="0.09764">
        <ele>2409</ele>
        <time>2014-06-07T06:36:12Z</time>
      </trkpt>
      <trkpt lat="42.84535" lon="0.09765">
        <ele>2411</ele>
        <time>2014-06-07T06:36:14Z</time>
      </trkpt>
      <trkpt lat="42.84521" lon="0.09771">
        <ele>2410</ele>
        <time>2014-06-07T06:36:36Z</time>
      </trkpt>
      <trkpt lat="42.84517" lon="0.09772">
        <ele>2414</ele>
        <time>2014-06-07T06:36:42Z</time>
      </trkpt>
      <trkpt lat="42.84516" lon="0.09772">
        <ele>2413</ele>
        <time>2014-06-07T06:36:43Z</time>
      </trkpt>
      <trkpt lat="42.84509" lon="0.09773">
        <ele>2413</ele>
        <time>2014-06-07T06:37:00Z</time>
      </trkpt>
      <trkpt lat="42.84507" lon="0.09772">
        <ele>2414</ele>
        <time>2014-06-07T06:37:03Z</time>
      </trkpt>
      <trkpt lat="42.84494" lon="0.09769">
        <ele>2415</ele>
        <time>2014-06-07T06:37:21Z</time>
      </trkpt>
      <trkpt lat="42.84491" lon="0.09768">
        <ele>2415</ele>
        <time>2014-06-07T06:37:24Z</time>
      </trkpt>
      <trkpt lat="42.8448" lon="0.09763">
        <ele>2414</ele>
        <time>2014-06-07T06:37:36Z</time>
      </trkpt>
      <trkpt lat="42.84469" lon="0.09765">
        <ele>2415</ele>
        <time>2014-06-07T06:37:52Z</time>
      </trkpt>
      <trkpt lat="42.84459" lon="0.09763">
        <ele>2417</ele>
        <time>2014-06-07T06:38:09Z</time>
      </trkpt>
      <trkpt lat="42.84454" lon="0.09757">
        <ele>2418</ele>
        <time>2014-06-07T06:38:20Z</time>
      </trkpt>
      <trkpt lat="42.84447" lon="0.09751">
        <ele>2420</ele>
        <time>2014-06-07T06:38:31Z</time>
      </trkpt>
      <trkpt lat="42.84432" lon="0.09741">
        <ele>2421</ele>
        <time>2014-06-07T06:38:47Z</time>
      </trkpt>
      <trkpt lat="42.84431" lon="0.09739">
        <ele>2420</ele>
        <time>2014-06-07T06:38:49Z</time>
      </trkpt>
      <trkpt lat="42.84428" lon="0.09735">
        <ele>2424</ele>
        <time>2014-06-07T06:38:53Z</time>
      </trkpt>
      <trkpt lat="42.84427" lon="0.09733">
        <ele>2425</ele>
        <time>2014-06-07T06:38:55Z</time>
      </trkpt>
      <trkpt lat="42.84419" lon="0.09721">
        <ele>2422</ele>
        <time>2014-06-07T06:39:10Z</time>
      </trkpt>
      <trkpt lat="42.84418" lon="0.09722">
        <ele>2422</ele>
        <time>2014-06-07T06:39:12Z</time>
      </trkpt>
      <trkpt lat="42.84399" lon="0.09721">
        <ele>2422</ele>
        <time>2014-06-07T06:39:33Z</time>
      </trkpt>
      <trkpt lat="42.84384" lon="0.09723">
        <ele>2424</ele>
        <time>2014-06-07T06:39:53Z</time>
      </trkpt>
      <trkpt lat="42.84368" lon="0.09724">
        <ele>2424</ele>
        <time>2014-06-07T06:40:10Z</time>
      </trkpt>
      <trkpt lat="42.84351" lon="0.09721">
        <ele>2424</ele>
        <time>2014-06-07T06:40:28Z</time>
      </trkpt>
      <trkpt lat="42.84334" lon="0.09722">
        <ele>2426</ele>
        <time>2014-06-07T06:40:44Z</time>
      </trkpt>
      <trkpt lat="42.84332" lon="0.09722">
        <ele>2430</ele>
        <time>2014-06-07T06:40:47Z</time>
      </trkpt>
      <trkpt lat="42.84329" lon="0.09722">
        <ele>2431</ele>
        <time>2014-06-07T06:40:49Z</time>
      </trkpt>
      <trkpt lat="42.84326" lon="0.09722">
        <ele>2430</ele>
        <time>2014-06-07T06:40:53Z</time>
      </trkpt>
      <trkpt lat="42.84316" lon="0.09726">
        <ele>2432</ele>
        <time>2014-06-07T06:41:05Z</time>
      </trkpt>
      <trkpt lat="42.84308" lon="0.09729">
        <ele>2434</ele>
        <time>2014-06-07T06:41:22Z</time>
      </trkpt>
      <trkpt lat="42.84308" lon="0.0973">
        <ele>2436</ele>
        <time>2014-06-07T06:41:24Z</time>
      </trkpt>
      <trkpt lat="42.84297" lon="0.09733">
        <ele>2435</ele>
        <time>2014-06-07T06:41:41Z</time>
      </trkpt>
      <trkpt lat="42.84282" lon="0.09737">
        <ele>2438</ele>
        <time>2014-06-07T06:42:01Z</time>
      </trkpt>
      <trkpt lat="42.84266" lon="0.09741">
        <ele>2437</ele>
        <time>2014-06-07T06:42:19Z</time>
      </trkpt>
      <trkpt lat="42.84265" lon="0.09741">
        <ele>2437</ele>
        <time>2014-06-07T06:42:20Z</time>
      </trkpt>
      <trkpt lat="42.84264" lon="0.09742">
        <ele>2438</ele>
        <time>2014-06-07T06:42:22Z</time>
      </trkpt>
      <trkpt lat="42.84252" lon="0.09741">
        <ele>2440</ele>
        <time>2014-06-07T06:42:41Z</time>
      </trkpt>
      <trkpt lat="42.84247" lon="0.09737">
        <ele>2441</ele>
        <time>2014-06-07T06:42:50Z</time>
      </trkpt>
      <trkpt lat="42.84238" lon="0.09721">
        <ele>2442</ele>
        <time>2014-06-07T06:43:05Z</time>
      </trkpt>
      <trkpt lat="42.84229" lon="0.0971">
        <ele>2442</ele>
        <time>2014-06-07T06:43:15Z</time>
      </trkpt>
      <trkpt lat="42.84215" lon="0.09696">
        <ele>2440</ele>
        <time>2014-06-07T06:43:34Z</time>
      </trkpt>
      <trkpt lat="42.84197" lon="0.09689">
        <ele>2439</ele>
        <time>2014-06-07T06:43:51Z</time>
      </trkpt>
      <trkpt lat="42.84176" lon="0.09693">
        <ele>2437</ele>
        <time>2014-06-07T06:44:07Z</time>
      </trkpt>
      <trkpt lat="42.84166" lon="0.09698">
        <ele>2439</ele>
        <time>2014-06-07T06:44:17Z</time>
      </trkpt>
      <trkpt lat="42.84147" lon="0.09713">
        <ele>2439</ele>
        <time>2014-06-07T06:44:37Z</time>
      </trkpt>
      <trkpt lat="42.84132" lon="0.09725">
        <ele>2441</ele>
        <time>2014-06-07T06:44:58Z</time>
      </trkpt>
      <trkpt lat="42.84126" lon="0.0973">
        <ele>2442</ele>
        <time>2014-06-07T06:45:06Z</time>
      </trkpt>
      <trkpt lat="42.84113" lon="0.09744">
        <ele>2441</ele>
        <time>2014-06-07T06:45:26Z</time>
      </trkpt>
      <trkpt lat="42.84104" lon="0.09751">
        <ele>2440</ele>
        <time>2014-06-07T06:45:45Z</time>
      </trkpt>
      <trkpt lat="42.841" lon="0.0976">
        <ele>2442</ele>
        <time>2014-06-07T06:45:59Z</time>
      </trkpt>
      <trkpt lat="42.84095" lon="0.09762">
        <ele>2442</ele>
        <time>2014-06-07T06:46:12Z</time>
      </trkpt>
      <trkpt lat="42.84095" lon="0.09759">
        <ele>2445</ele>
        <time>2014-06-07T06:46:27Z</time>
      </trkpt>
      <trkpt lat="42.84093" lon="0.09754">
        <ele>2448</ele>
        <time>2014-06-07T06:46:43Z</time>
      </trkpt>
      <trkpt lat="42.84089" lon="0.09757">
        <ele>2451</ele>
        <time>2014-06-07T06:47:00Z</time>
      </trkpt>
      <trkpt lat="42.84087" lon="0.09763">
        <ele>2453</ele>
        <time>2014-06-07T06:47:12Z</time>
      </trkpt>
      <trkpt lat="42.84079" lon="0.09765">
        <ele>2454</ele>
        <time>2014-06-07T06:47:27Z</time>
      </trkpt>
      <trkpt lat="42.84073" lon="0.09764">
        <ele>2456</ele>
        <time>2014-06-07T06:47:45Z</time>
      </trkpt>
      <trkpt lat="42.84069" lon="0.0976">
        <ele>2459</ele>
        <time>2014-06-07T06:47:57Z</time>
      </trkpt>
      <trkpt lat="42.84068" lon="0.09755">
        <ele>2460</ele>
        <time>2014-06-07T06:48:11Z</time>
      </trkpt>
      <trkpt lat="42.8407" lon="0.0975">
        <ele>2458</ele>
        <time>2014-06-07T06:48:26Z</time>
      </trkpt>
      <trkpt lat="42.84068" lon="0.09751">
        <ele>2460</ele>
        <time>2014-06-07T06:48:29Z</time>
      </trkpt>
      <trkpt lat="42.84062" lon="0.09756">
        <ele>2463</ele>
        <time>2014-06-07T06:48:45Z</time>
      </trkpt>
      <trkpt lat="42.84061" lon="0.09758">
        <ele>2466</ele>
        <time>2014-06-07T06:48:53Z</time>
      </trkpt>
      <trkpt lat="42.84061" lon="0.09759">
        <ele>2467</ele>
        <time>2014-06-07T06:48:56Z</time>
      </trkpt>
      <trkpt lat="42.84061" lon="0.09764">
        <ele>2467</ele>
        <time>2014-06-07T06:49:11Z</time>
      </trkpt>
      <trkpt lat="42.84038" lon="0.09762">
        <ele>2469</ele>
        <time>2014-06-07T06:49:32Z</time>
      </trkpt>
      <trkpt lat="42.84032" lon="0.0976">
        <ele>2471</ele>
        <time>2014-06-07T06:49:51Z</time>
      </trkpt>
      <trkpt lat="42.84026" lon="0.0976">
        <ele>2475</ele>
        <time>2014-06-07T06:50:08Z</time>
      </trkpt>
      <trkpt lat="42.84021" lon="0.09768">
        <ele>2476</ele>
        <time>2014-06-07T06:50:29Z</time>
      </trkpt>
      <trkpt lat="42.84009" lon="0.0977">
        <ele>2478</ele>
        <time>2014-06-07T06:50:44Z</time>
      </trkpt>
      <trkpt lat="42.84003" lon="0.09766">
        <ele>2482</ele>
        <time>2014-06-07T06:50:58Z</time>
      </trkpt>
      <trkpt lat="42.83996" lon="0.09767">
        <ele>2485</ele>
        <time>2014-06-07T06:51:09Z</time>
      </trkpt>
      <trkpt lat="42.83985" lon="0.09768">
        <ele>2487</ele>
        <time>2014-06-07T06:51:29Z</time>
      </trkpt>
      <trkpt lat="42.83975" lon="0.09768">
        <ele>2487</ele>
        <time>2014-06-07T06:51:47Z</time>
      </trkpt>
      <trkpt lat="42.83965" lon="0.09765">
        <ele>2489</ele>
        <time>2014-06-07T06:52:07Z</time>
      </trkpt>
      <trkpt lat="42.83963" lon="0.09765">
        <ele>2491</ele>
        <time>2014-06-07T06:52:11Z</time>
      </trkpt>
      <trkpt lat="42.83956" lon="0.09769">
        <ele>2494</ele>
        <time>2014-06-07T06:52:25Z</time>
      </trkpt>
      <trkpt lat="42.8395" lon="0.09776">
        <ele>2498</ele>
        <time>2014-06-07T06:52:39Z</time>
      </trkpt>
      <trkpt lat="42.83949" lon="0.09777">
        <ele>2497</ele>
        <time>2014-06-07T06:52:54Z</time>
      </trkpt>
      <trkpt lat="42.83946" lon="0.09774">
        <ele>2499</ele>
        <time>2014-06-07T06:53:05Z</time>
      </trkpt>
      <trkpt lat="42.83943" lon="0.09771">
        <ele>2501</ele>
        <time>2014-06-07T06:53:10Z</time>
      </trkpt>
      <trkpt lat="42.83941" lon="0.09769">
        <ele>2504</ele>
        <time>2014-06-07T06:53:19Z</time>
      </trkpt>
      <trkpt lat="42.8394" lon="0.09763">
        <ele>2504</ele>
        <time>2014-06-07T06:53:36Z</time>
      </trkpt>
      <trkpt lat="42.83934" lon="0.09766">
        <ele>2504</ele>
        <time>2014-06-07T06:53:52Z</time>
      </trkpt>
      <trkpt lat="42.8393" lon="0.09778">
        <ele>2505</ele>
        <time>2014-06-07T06:54:08Z</time>
      </trkpt>
      <trkpt lat="42.83932" lon="0.09786">
        <ele>2506</ele>
        <time>2014-06-07T06:54:24Z</time>
      </trkpt>
      <trkpt lat="42.83928" lon="0.09782">
        <ele>2509</ele>
        <time>2014-06-07T06:54:37Z</time>
      </trkpt>
      <trkpt lat="42.83922" lon="0.09781">
        <ele>2511</ele>
        <time>2014-06-07T06:54:49Z</time>
      </trkpt>
      <trkpt lat="42.83917" lon="0.09779">
        <ele>2515</ele>
        <time>2014-06-07T06:55:00Z</time>
      </trkpt>
      <trkpt lat="42.83915" lon="0.09779">
        <ele>2516</ele>
        <time>2014-06-07T06:55:04Z</time>
      </trkpt>
      <trkpt lat="42.83913" lon="0.09775">
        <ele>2519</ele>
        <time>2014-06-07T06:55:13Z</time>
      </trkpt>
      <trkpt lat="42.83908" lon="0.09774">
        <ele>2523</ele>
        <time>2014-06-07T06:55:25Z</time>
      </trkpt>
      <trkpt lat="42.839" lon="0.0978">
        <ele>2525</ele>
        <time>2014-06-07T06:55:45Z</time>
      </trkpt>
      <trkpt lat="42.83891" lon="0.09788">
        <ele>2525</ele>
        <time>2014-06-07T06:56:05Z</time>
      </trkpt>
      <trkpt lat="42.83883" lon="0.09793">
        <ele>2527</ele>
        <time>2014-06-07T06:56:20Z</time>
      </trkpt>
      <trkpt lat="42.83874" lon="0.09802">
        <ele>2528</ele>
        <time>2014-06-07T06:56:40Z</time>
      </trkpt>
      <trkpt lat="42.83873" lon="0.09804">
        <ele>2531</ele>
        <time>2014-06-07T06:56:45Z</time>
      </trkpt>
      <trkpt lat="42.83863" lon="0.0981">
        <ele>2534</ele>
        <time>2014-06-07T06:56:58Z</time>
      </trkpt>
      <trkpt lat="42.8386" lon="0.09812">
        <ele>2538</ele>
        <time>2014-06-07T06:57:02Z</time>
      </trkpt>
      <trkpt lat="42.83859" lon="0.09812">
        <ele>2538</ele>
        <time>2014-06-07T06:57:03Z</time>
      </trkpt>
      <trkpt lat="42.83854" lon="0.09816">
        <ele>2535</ele>
        <time>2014-06-07T06:57:09Z</time>
      </trkpt>
      <trkpt lat="42.83852" lon="0.09817">
        <ele>2534</ele>
        <time>2014-06-07T06:57:13Z</time>
      </trkpt>
      <trkpt lat="42.83843" lon="0.09826">
        <ele>2533</ele>
        <time>2014-06-07T06:57:31Z</time>
      </trkpt>
      <trkpt lat="42.83842" lon="0.09825">
        <ele>2535</ele>
        <time>2014-06-07T06:57:36Z</time>
      </trkpt>
      <trkpt lat="42.83831" lon="0.09823">
        <ele>2535</ele>
        <time>2014-06-07T06:57:52Z</time>
      </trkpt>
      <trkpt lat="42.83827" lon="0.0982">
        <ele>2538</ele>
        <time>2014-06-07T06:58:05Z</time>
      </trkpt>
      <trkpt lat="42.83823" lon="0.09821">
        <ele>2542</ele>
        <time>2014-06-07T06:58:15Z</time>
      </trkpt>
      <trkpt lat="42.83811" lon="0.09819">
        <ele>2545</ele>
        <time>2014-06-07T06:58:34Z</time>
      </trkpt>
      <trkpt lat="42.83797" lon="0.09818">
        <ele>2547</ele>
        <time>2014-06-07T06:58:51Z</time>
      </trkpt>
      <trkpt lat="42.83796" lon="0.09818">
        <ele>2551</ele>
        <time>2014-06-07T06:58:54Z</time>
      </trkpt>
      <trkpt lat="42.83797" lon="0.09819">
        <ele>2552</ele>
        <time>2014-06-07T06:59:08Z</time>
      </trkpt>
      <trkpt lat="42.83794" lon="0.0982">
        <ele>2550</ele>
        <time>2014-06-07T06:59:14Z</time>
      </trkpt>
      <trkpt lat="42.83785" lon="0.09819">
        <ele>2551</ele>
        <time>2014-06-07T06:59:27Z</time>
      </trkpt>
      <trkpt lat="42.83774" lon="0.09819">
        <ele>2551</ele>
        <time>2014-06-07T06:59:41Z</time>
      </trkpt>
      <trkpt lat="42.83762" lon="0.09818">
        <ele>2552</ele>
        <time>2014-06-07T06:59:56Z</time>
      </trkpt>
      <trkpt lat="42.83753" lon="0.09816">
        <ele>2549</ele>
        <time>2014-06-07T07:00:11Z</time>
      </trkpt>
      <trkpt lat="42.83743" lon="0.09818">
        <ele>2549</ele>
        <time>2014-06-07T07:00:30Z</time>
      </trkpt>
      <trkpt lat="42.83741" lon="0.09818">
        <ele>2550</ele>
        <time>2014-06-07T07:00:32Z</time>
      </trkpt>
      <trkpt lat="42.83727" lon="0.09817">
        <ele>2552</ele>
        <time>2014-06-07T07:00:50Z</time>
      </trkpt>
      <trkpt lat="42.83725" lon="0.09817">
        <ele>2554</ele>
        <time>2014-06-07T07:00:54Z</time>
      </trkpt>
      <trkpt lat="42.83723" lon="0.09817">
        <ele>2558</ele>
        <time>2014-06-07T07:00:57Z</time>
      </trkpt>
      <trkpt lat="42.83718" lon="0.09817">
        <ele>2554</ele>
        <time>2014-06-07T07:01:03Z</time>
      </trkpt>
      <trkpt lat="42.83718" lon="0.09817">
        <ele>2554</ele>
        <time>2014-06-07T07:01:04Z</time>
      </trkpt>
      <trkpt lat="42.8371" lon="0.09817">
        <ele>2555</ele>
        <time>2014-06-07T07:01:13Z</time>
      </trkpt>
      <trkpt lat="42.83696" lon="0.09823">
        <ele>2556</ele>
        <time>2014-06-07T07:01:31Z</time>
      </trkpt>
      <trkpt lat="42.83695" lon="0.09823">
        <ele>2555</ele>
        <time>2014-06-07T07:01:33Z</time>
      </trkpt>
      <trkpt lat="42.83689" lon="0.09825">
        <ele>2558</ele>
        <time>2014-06-07T07:01:42Z</time>
      </trkpt>
      <trkpt lat="42.83687" lon="0.09826">
        <ele>2553</ele>
        <time>2014-06-07T07:01:45Z</time>
      </trkpt>
      <trkpt lat="42.83678" lon="0.09829">
        <ele>2553</ele>
        <time>2014-06-07T07:02:01Z</time>
      </trkpt>
      <trkpt lat="42.83664" lon="0.09835">
        <ele>2556</ele>
        <time>2014-06-07T07:02:19Z</time>
      </trkpt>
      <trkpt lat="42.83659" lon="0.09838">
        <ele>2558</ele>
        <time>2014-06-07T07:02:27Z</time>
      </trkpt>
      <trkpt lat="42.83647" lon="0.09842">
        <ele>2560</ele>
        <time>2014-06-07T07:02:46Z</time>
      </trkpt>
      <trkpt lat="42.83639" lon="0.09845">
        <ele>2557</ele>
        <time>2014-06-07T07:02:57Z</time>
      </trkpt>
      <trkpt lat="42.8363" lon="0.09852">
        <ele>2560</ele>
        <time>2014-06-07T07:03:10Z</time>
      </trkpt>
      <trkpt lat="42.83618" lon="0.09858">
        <ele>2562</ele>
        <time>2014-06-07T07:03:26Z</time>
      </trkpt>
      <trkpt lat="42.83613" lon="0.09858">
        <ele>2563</ele>
        <time>2014-06-07T07:03:32Z</time>
      </trkpt>
      <trkpt lat="42.83613" lon="0.09861">
        <ele>2566</ele>
        <time>2014-06-07T07:03:40Z</time>
      </trkpt>
      <trkpt lat="42.83614" lon="0.0986">
        <ele>2566</ele>
        <time>2014-06-07T07:03:42Z</time>
      </trkpt>
      <trkpt lat="42.8361" lon="0.09857">
        <ele>2569</ele>
        <time>2014-06-07T07:03:47Z</time>
      </trkpt>
      <trkpt lat="42.83609" lon="0.09857">
        <ele>2567</ele>
        <time>2014-06-07T07:03:49Z</time>
      </trkpt>
      <trkpt lat="42.83606" lon="0.09858">
        <ele>2567</ele>
        <time>2014-06-07T07:03:55Z</time>
      </trkpt>
      <trkpt lat="42.83607" lon="0.09858">
        <ele>2569</ele>
        <time>2014-06-07T07:04:07Z</time>
      </trkpt>
      <trkpt lat="42.83607" lon="0.09858">
        <ele>2571</ele>
        <time>2014-06-07T07:04:09Z</time>
      </trkpt>
      <trkpt lat="42.83605" lon="0.09854">
        <ele>2568</ele>
        <time>2014-06-07T07:04:12Z</time>
      </trkpt>
      <trkpt lat="42.83605" lon="0.09854">
        <ele>2568</ele>
        <time>2014-06-07T07:04:13Z</time>
      </trkpt>
      <trkpt lat="42.83606" lon="0.09852">
        <ele>2568</ele>
        <time>2014-06-07T07:04:42Z</time>
      </trkpt>
      <trkpt lat="42.83603" lon="0.09853">
        <ele>2564</ele>
        <time>2014-06-07T07:04:53Z</time>
      </trkpt>
      <trkpt lat="42.83607" lon="0.09854">
        <ele>2564</ele>
        <time>2014-06-07T07:05:21Z</time>
      </trkpt>
      <trkpt lat="42.83604" lon="0.09856">
        <ele>2563</ele>
        <time>2014-06-07T07:05:47Z</time>
      </trkpt>
      <trkpt lat="42.83605" lon="0.09853">
        <ele>2562</ele>
        <time>2014-06-07T07:06:16Z</time>
      </trkpt>
      <trkpt lat="42.83606" lon="0.09853">
        <ele>2563</ele>
        <time>2014-06-07T07:06:23Z</time>
      </trkpt>
      <trkpt lat="42.83604" lon="0.09852">
        <ele>2566</ele>
        <time>2014-06-07T07:06:35Z</time>
      </trkpt>
      <trkpt lat="42.83603" lon="0.09852">
        <ele>2570</ele>
        <time>2014-06-07T07:06:37Z</time>
      </trkpt>
      <trkpt lat="42.83603" lon="0.09852">
        <ele>2570</ele>
        <time>2014-06-07T07:06:38Z</time>
      </trkpt>
      <trkpt lat="42.83602" lon="0.09851">
        <ele>2567</ele>
        <time>2014-06-07T07:06:42Z</time>
      </trkpt>
      <trkpt lat="42.83602" lon="0.09851">
        <ele>2567</ele>
        <time>2014-06-07T07:06:43Z</time>
      </trkpt>
      <trkpt lat="42.83603" lon="0.09853">
        <ele>2570</ele>
        <time>2014-06-07T07:06:52Z</time>
      </trkpt>
      <trkpt lat="42.83604" lon="0.09853">
        <ele>2572</ele>
        <time>2014-06-07T07:06:58Z</time>
      </trkpt>
      <trkpt lat="42.83605" lon="0.09855">
        <ele>2566</ele>
        <time>2014-06-07T07:07:06Z</time>
      </trkpt>
      <trkpt lat="42.83604" lon="0.09856">
        <ele>2566</ele>
        <time>2014-06-07T07:07:07Z</time>
      </trkpt>
      <trkpt lat="42.83601" lon="0.09859">
        <ele>2566</ele>
        <time>2014-06-07T07:07:12Z</time>
      </trkpt>
      <trkpt lat="42.83597" lon="0.0986">
        <ele>2563</ele>
        <time>2014-06-07T07:07:15Z</time>
      </trkpt>
      <trkpt lat="42.83597" lon="0.0986">
        <ele>2563</ele>
        <time>2014-06-07T07:07:16Z</time>
      </trkpt>
      <trkpt lat="42.8359" lon="0.0986">
        <ele>2563</ele>
        <time>2014-06-07T07:07:25Z</time>
      </trkpt>
      <trkpt lat="42.83577" lon="0.09866">
        <ele>2564</ele>
        <time>2014-06-07T07:07:41Z</time>
      </trkpt>
      <trkpt lat="42.83564" lon="0.0987">
        <ele>2567</ele>
        <time>2014-06-07T07:08:02Z</time>
      </trkpt>
      <trkpt lat="42.83557" lon="0.09877">
        <ele>2570</ele>
        <time>2014-06-07T07:08:18Z</time>
      </trkpt>
      <trkpt lat="42.8355" lon="0.09883">
        <ele>2574</ele>
        <time>2014-06-07T07:08:41Z</time>
      </trkpt>
      <trkpt lat="42.83548" lon="0.09879">
        <ele>2575</ele>
        <time>2014-06-07T07:08:51Z</time>
      </trkpt>
      <trkpt lat="42.83541" lon="0.09878">
        <ele>2577</ele>
        <time>2014-06-07T07:09:06Z</time>
      </trkpt>
      <trkpt lat="42.83534" lon="0.09882">
        <ele>2578</ele>
        <time>2014-06-07T07:09:22Z</time>
      </trkpt>
      <trkpt lat="42.83533" lon="0.09887">
        <ele>2581</ele>
        <time>2014-06-07T07:09:33Z</time>
      </trkpt>
      <trkpt lat="42.83532" lon="0.09893">
        <ele>2583</ele>
        <time>2014-06-07T07:09:44Z</time>
      </trkpt>
      <trkpt lat="42.83524" lon="0.09896">
        <ele>2586</ele>
        <time>2014-06-07T07:09:58Z</time>
      </trkpt>
      <trkpt lat="42.83521" lon="0.09896">
        <ele>2587</ele>
        <time>2014-06-07T07:10:15Z</time>
      </trkpt>
      <trkpt lat="42.83508" lon="0.09898">
        <ele>2588</ele>
        <time>2014-06-07T07:10:36Z</time>
      </trkpt>
      <trkpt lat="42.83501" lon="0.099">
        <ele>2588</ele>
        <time>2014-06-07T07:10:49Z</time>
      </trkpt>
      <trkpt lat="42.83496" lon="0.09902">
        <ele>2591</ele>
        <time>2014-06-07T07:11:05Z</time>
      </trkpt>
      <trkpt lat="42.83494" lon="0.09903">
        <ele>2593</ele>
        <time>2014-06-07T07:11:22Z</time>
      </trkpt>
      <trkpt lat="42.83488" lon="0.09904">
        <ele>2594</ele>
        <time>2014-06-07T07:11:49Z</time>
      </trkpt>
      <trkpt lat="42.83485" lon="0.09907">
        <ele>2595</ele>
        <time>2014-06-07T07:12:08Z</time>
      </trkpt>
      <trkpt lat="42.83479" lon="0.09906">
        <ele>2595</ele>
        <time>2014-06-07T07:12:30Z</time>
      </trkpt>
      <trkpt lat="42.83472" lon="0.09906">
        <ele>2599</ele>
        <time>2014-06-07T07:12:43Z</time>
      </trkpt>
      <trkpt lat="42.83469" lon="0.09906">
        <ele>2602</ele>
        <time>2014-06-07T07:12:53Z</time>
      </trkpt>
      <trkpt lat="42.83458" lon="0.09907">
        <ele>2605</ele>
        <time>2014-06-07T07:13:10Z</time>
      </trkpt>
      <trkpt lat="42.83449" lon="0.09908">
        <ele>2606</ele>
        <time>2014-06-07T07:13:28Z</time>
      </trkpt>
      <trkpt lat="42.83442" lon="0.09912">
        <ele>2607</ele>
        <time>2014-06-07T07:13:45Z</time>
      </trkpt>
      <trkpt lat="42.83432" lon="0.09913">
        <ele>2609</ele>
        <time>2014-06-07T07:14:03Z</time>
      </trkpt>
      <trkpt lat="42.8342" lon="0.09916">
        <ele>2610</ele>
        <time>2014-06-07T07:14:21Z</time>
      </trkpt>
      <trkpt lat="42.8341" lon="0.09918">
        <ele>2613</ele>
        <time>2014-06-07T07:14:38Z</time>
      </trkpt>
      <trkpt lat="42.8341" lon="0.09919">
        <ele>2613</ele>
        <time>2014-06-07T07:14:39Z</time>
      </trkpt>
      <trkpt lat="42.83409" lon="0.09922">
        <ele>2614</ele>
        <time>2014-06-07T07:14:55Z</time>
      </trkpt>
      <trkpt lat="42.83412" lon="0.09924">
        <ele>2612</ele>
        <time>2014-06-07T07:15:21Z</time>
      </trkpt>
      <trkpt lat="42.83407" lon="0.09923">
        <ele>2612</ele>
        <time>2014-06-07T07:15:53Z</time>
      </trkpt>
      <trkpt lat="42.83407" lon="0.09923">
        <ele>2614</ele>
        <time>2014-06-07T07:16:01Z</time>
      </trkpt>
      <trkpt lat="42.83407" lon="0.09922">
        <ele>2614</ele>
        <time>2014-06-07T07:16:02Z</time>
      </trkpt>
      <trkpt lat="42.83408" lon="0.09922">
        <ele>2616</ele>
        <time>2014-06-07T07:16:32Z</time>
      </trkpt>
      <trkpt lat="42.83406" lon="0.09918">
        <ele>2616</ele>
        <time>2014-06-07T07:17:02Z</time>
      </trkpt>
      <trkpt lat="42.83408" lon="0.09918">
        <ele>2614</ele>
        <time>2014-06-07T07:17:29Z</time>
      </trkpt>
      <trkpt lat="42.83409" lon="0.09916">
        <ele>2613</ele>
        <time>2014-06-07T07:17:57Z</time>
      </trkpt>
      <trkpt lat="42.83406" lon="0.09913">
        <ele>2616</ele>
        <time>2014-06-07T07:18:17Z</time>
      </trkpt>
      <trkpt lat="42.83405" lon="0.09915">
        <ele>2619</ele>
        <time>2014-06-07T07:18:45Z</time>
      </trkpt>
      <trkpt lat="42.83405" lon="0.09915">
        <ele>2619</ele>
        <time>2014-06-07T07:18:46Z</time>
      </trkpt>
      <trkpt lat="42.83405" lon="0.09915">
        <ele>2622</ele>
        <time>2014-06-07T07:18:50Z</time>
      </trkpt>
      <trkpt lat="42.83405" lon="0.09919">
        <ele>2617</ele>
        <time>2014-06-07T07:18:53Z</time>
      </trkpt>
      <trkpt lat="42.83405" lon="0.0992">
        <ele>2618</ele>
        <time>2014-06-07T07:18:54Z</time>
      </trkpt>
      <trkpt lat="42.83404" lon="0.09922">
        <ele>2617</ele>
        <time>2014-06-07T07:19:05Z</time>
      </trkpt>
      <trkpt lat="42.83402" lon="0.09921">
        <ele>2615</ele>
        <time>2014-06-07T07:19:21Z</time>
      </trkpt>
      <trkpt lat="42.83408" lon="0.09921">
        <ele>2615</ele>
        <time>2014-06-07T07:19:34Z</time>
      </trkpt>
      <trkpt lat="42.83409" lon="0.09918">
        <ele>2615</ele>
        <time>2014-06-07T07:19:37Z</time>
      </trkpt>
      <trkpt lat="42.83411" lon="0.09908">
        <ele>2614</ele>
        <time>2014-06-07T07:19:46Z</time>
      </trkpt>
      <trkpt lat="42.83418" lon="0.09888">
        <ele>2615</ele>
        <time>2014-06-07T07:20:02Z</time>
      </trkpt>
      <trkpt lat="42.83424" lon="0.09874">
        <ele>2616</ele>
        <time>2014-06-07T07:20:18Z</time>
      </trkpt>
      <trkpt lat="42.8343" lon="0.09866">
        <ele>2616</ele>
        <time>2014-06-07T07:20:32Z</time>
      </trkpt>
      <trkpt lat="42.83434" lon="0.09857">
        <ele>2617</ele>
        <time>2014-06-07T07:20:49Z</time>
      </trkpt>
      <trkpt lat="42.8344" lon="0.09845">
        <ele>2618</ele>
        <time>2014-06-07T07:21:04Z</time>
      </trkpt>
      <trkpt lat="42.83442" lon="0.0984">
        <ele>2622</ele>
        <time>2014-06-07T07:21:11Z</time>
      </trkpt>
      <trkpt lat="42.83442" lon="0.09839">
        <ele>2622</ele>
        <time>2014-06-07T07:21:12Z</time>
      </trkpt>
      <trkpt lat="42.83444" lon="0.09831">
        <ele>2625</ele>
        <time>2014-06-07T07:21:24Z</time>
      </trkpt>
      <trkpt lat="42.83447" lon="0.09817">
        <ele>2628</ele>
        <time>2014-06-07T07:21:40Z</time>
      </trkpt>
      <trkpt lat="42.83449" lon="0.09814">
        <ele>2630</ele>
        <time>2014-06-07T07:21:55Z</time>
      </trkpt>
      <trkpt lat="42.83458" lon="0.09808">
        <ele>2632</ele>
        <time>2014-06-07T07:22:09Z</time>
      </trkpt>
      <trkpt lat="42.83462" lon="0.0981">
        <ele>2632</ele>
        <time>2014-06-07T07:22:15Z</time>
      </trkpt>
      <trkpt lat="42.83466" lon="0.09826">
        <ele>2628</ele>
        <time>2014-06-07T07:22:24Z</time>
      </trkpt>
      <trkpt lat="42.83465" lon="0.09827">
        <ele>2628</ele>
        <time>2014-06-07T07:22:25Z</time>
      </trkpt>
      <trkpt lat="42.83446" lon="0.09848">
        <ele>2626</ele>
        <time>2014-06-07T07:22:41Z</time>
      </trkpt>
      <trkpt lat="42.83439" lon="0.0986">
        <ele>2623</ele>
        <time>2014-06-07T07:22:48Z</time>
      </trkpt>
      <trkpt lat="42.83437" lon="0.09863">
        <ele>2621</ele>
        <time>2014-06-07T07:22:50Z</time>
      </trkpt>
      <trkpt lat="42.83435" lon="0.09868">
        <ele>2620</ele>
        <time>2014-06-07T07:22:53Z</time>
      </trkpt>
      <trkpt lat="42.83432" lon="0.09874">
        <ele>2619</ele>
        <time>2014-06-07T07:22:58Z</time>
      </trkpt>
      <trkpt lat="42.83434" lon="0.0988">
        <ele>2615</ele>
        <time>2014-06-07T07:23:01Z</time>
      </trkpt>
      <trkpt lat="42.83446" lon="0.09879">
        <ele>2611</ele>
        <time>2014-06-07T07:23:07Z</time>
      </trkpt>
      <trkpt lat="42.83452" lon="0.09878">
        <ele>2610</ele>
        <time>2014-06-07T07:23:10Z</time>
      </trkpt>
      <trkpt lat="42.83455" lon="0.09876">
        <ele>2608</ele>
        <time>2014-06-07T07:23:15Z</time>
      </trkpt>
      <trkpt lat="42.83466" lon="0.09876">
        <ele>2605</ele>
        <time>2014-06-07T07:23:21Z</time>
      </trkpt>
      <trkpt lat="42.83477" lon="0.09875">
        <ele>2602</ele>
        <time>2014-06-07T07:23:27Z</time>
      </trkpt>
      <trkpt lat="42.83484" lon="0.09876">
        <ele>2599</ele>
        <time>2014-06-07T07:23:31Z</time>
      </trkpt>
      <trkpt lat="42.83486" lon="0.09875">
        <ele>2599</ele>
        <time>2014-06-07T07:23:32Z</time>
      </trkpt>
      <trkpt lat="42.83501" lon="0.09871">
        <ele>2595</ele>
        <time>2014-06-07T07:23:38Z</time>
      </trkpt>
      <trkpt lat="42.83508" lon="0.09869">
        <ele>2593</ele>
        <time>2014-06-07T07:23:41Z</time>
      </trkpt>
      <trkpt lat="42.83518" lon="0.09867">
        <ele>2589</ele>
        <time>2014-06-07T07:23:46Z</time>
      </trkpt>
      <trkpt lat="42.83523" lon="0.09875">
        <ele>2588</ele>
        <time>2014-06-07T07:23:49Z</time>
      </trkpt>
      <trkpt lat="42.83529" lon="0.09885">
        <ele>2586</ele>
        <time>2014-06-07T07:23:53Z</time>
      </trkpt>
      <trkpt lat="42.83542" lon="0.09888">
        <ele>2582</ele>
        <time>2014-06-07T07:24:01Z</time>
      </trkpt>
      <trkpt lat="42.83547" lon="0.09887">
        <ele>2581</ele>
        <time>2014-06-07T07:24:03Z</time>
      </trkpt>
      <trkpt lat="42.8355" lon="0.09883">
        <ele>2577</ele>
        <time>2014-06-07T07:24:05Z</time>
      </trkpt>
      <trkpt lat="42.8355" lon="0.09881">
        <ele>2578</ele>
        <time>2014-06-07T07:24:14Z</time>
      </trkpt>
      <trkpt lat="42.8355" lon="0.09881">
        <ele>2579</ele>
        <time>2014-06-07T07:24:16Z</time>
      </trkpt>
      <trkpt lat="42.83539" lon="0.09879">
        <ele>2579</ele>
        <time>2014-06-07T07:24:31Z</time>
      </trkpt>
      <trkpt lat="42.83536" lon="0.09881">
        <ele>2580</ele>
        <time>2014-06-07T07:24:38Z</time>
      </trkpt>
      <trkpt lat="42.83529" lon="0.09885">
        <ele>2583</ele>
        <time>2014-06-07T07:24:49Z</time>
      </trkpt>
      <trkpt lat="42.83521" lon="0.09889">
        <ele>2588</ele>
        <time>2014-06-07T07:25:03Z</time>
      </trkpt>
      <trkpt lat="42.83521" lon="0.09889">
        <ele>2588</ele>
        <time>2014-06-07T07:25:04Z</time>
      </trkpt>
      <trkpt lat="42.8352" lon="0.0989">
        <ele>2588</ele>
        <time>2014-06-07T07:25:09Z</time>
      </trkpt>
      <trkpt lat="42.83514" lon="0.09895">
        <ele>2592</ele>
        <time>2014-06-07T07:25:23Z</time>
      </trkpt>
      <trkpt lat="42.83513" lon="0.09895">
        <ele>2591</ele>
        <time>2014-06-07T07:25:24Z</time>
      </trkpt>
      <trkpt lat="42.835" lon="0.09898">
        <ele>2591</ele>
        <time>2014-06-07T07:25:46Z</time>
      </trkpt>
      <trkpt lat="42.83487" lon="0.09902">
        <ele>2593</ele>
        <time>2014-06-07T07:26:08Z</time>
      </trkpt>
      <trkpt lat="42.83481" lon="0.09903">
        <ele>2595</ele>
        <time>2014-06-07T07:26:22Z</time>
      </trkpt>
      <trkpt lat="42.83475" lon="0.09905">
        <ele>2599</ele>
        <time>2014-06-07T07:26:37Z</time>
      </trkpt>
      <trkpt lat="42.83468" lon="0.09905">
        <ele>2602</ele>
        <time>2014-06-07T07:26:53Z</time>
      </trkpt>
      <trkpt lat="42.83461" lon="0.09905">
        <ele>2605</ele>
        <time>2014-06-07T07:27:04Z</time>
      </trkpt>
      <trkpt lat="42.83453" lon="0.09905">
        <ele>2608</ele>
        <time>2014-06-07T07:27:18Z</time>
      </trkpt>
      <trkpt lat="42.83445" lon="0.09908">
        <ele>2611</ele>
        <time>2014-06-07T07:27:35Z</time>
      </trkpt>
      <trkpt lat="42.83434" lon="0.09908">
        <ele>2612</ele>
        <time>2014-06-07T07:27:51Z</time>
      </trkpt>
      <trkpt lat="42.83423" lon="0.09912">
        <ele>2613</ele>
        <time>2014-06-07T07:28:08Z</time>
      </trkpt>
      <trkpt lat="42.83414" lon="0.09916">
        <ele>2613</ele>
        <time>2014-06-07T07:28:24Z</time>
      </trkpt>
      <trkpt lat="42.83411" lon="0.0992">
        <ele>2615</ele>
        <time>2014-06-07T07:28:41Z</time>
      </trkpt>
      <trkpt lat="42.83409" lon="0.09917">
        <ele>2616</ele>
        <time>2014-06-07T07:29:00Z</time>
      </trkpt>
      <trkpt lat="42.83411" lon="0.09915">
        <ele>2618</ele>
        <time>2014-06-07T07:29:23Z</time>
      </trkpt>
      <trkpt lat="42.83413" lon="0.09916">
        <ele>2615</ele>
        <time>2014-06-07T07:29:39Z</time>
      </trkpt>
      <trkpt lat="42.83412" lon="0.09918">
        <ele>2613</ele>
        <time>2014-06-07T07:30:08Z</time>
      </trkpt>
      <trkpt lat="42.83415" lon="0.09916">
        <ele>2616</ele>
        <time>2014-06-07T07:30:36Z</time>
      </trkpt>
      <trkpt lat="42.83405" lon="0.09917">
        <ele>2616</ele>
        <time>2014-06-07T07:30:49Z</time>
      </trkpt>
      <trkpt lat="42.83402" lon="0.09924">
        <ele>2616</ele>
        <time>2014-06-07T07:31:11Z</time>
      </trkpt>
      <trkpt lat="42.83395" lon="0.09926">
        <ele>2617</ele>
        <time>2014-06-07T07:31:28Z</time>
      </trkpt>
      <trkpt lat="42.83387" lon="0.09921">
        <ele>2620</ele>
        <time>2014-06-07T07:31:44Z</time>
      </trkpt>
      <trkpt lat="42.83384" lon="0.0992">
        <ele>2623</ele>
        <time>2014-06-07T07:31:57Z</time>
      </trkpt>
      <trkpt lat="42.83379" lon="0.09933">
        <ele>2625</ele>
        <time>2014-06-07T07:32:12Z</time>
      </trkpt>
      <trkpt lat="42.83378" lon="0.09938">
        <ele>2628</ele>
        <time>2014-06-07T07:32:27Z</time>
      </trkpt>
      <trkpt lat="42.83378" lon="0.09946">
        <ele>2632</ele>
        <time>2014-06-07T07:32:39Z</time>
      </trkpt>
      <trkpt lat="42.83372" lon="0.09945">
        <ele>2631</ele>
        <time>2014-06-07T07:32:51Z</time>
      </trkpt>
      <trkpt lat="42.83368" lon="0.09937">
        <ele>2630</ele>
        <time>2014-06-07T07:33:08Z</time>
      </trkpt>
      <trkpt lat="42.83367" lon="0.09939">
        <ele>2632</ele>
        <time>2014-06-07T07:33:13Z</time>
      </trkpt>
      <trkpt lat="42.83366" lon="0.0994">
        <ele>2633</ele>
        <time>2014-06-07T07:33:14Z</time>
      </trkpt>
      <trkpt lat="42.83365" lon="0.09942">
        <ele>2634</ele>
        <time>2014-06-07T07:33:17Z</time>
      </trkpt>
      <trkpt lat="42.83361" lon="0.0995">
        <ele>2637</ele>
        <time>2014-06-07T07:33:31Z</time>
      </trkpt>
      <trkpt lat="42.83362" lon="0.09951">
        <ele>2639</ele>
        <time>2014-06-07T07:33:37Z</time>
      </trkpt>
      <trkpt lat="42.83361" lon="0.09951">
        <ele>2635</ele>
        <time>2014-06-07T07:33:39Z</time>
      </trkpt>
      <trkpt lat="42.83357" lon="0.09947">
        <ele>2637</ele>
        <time>2014-06-07T07:33:53Z</time>
      </trkpt>
      <trkpt lat="42.83355" lon="0.09943">
        <ele>2638</ele>
        <time>2014-06-07T07:34:00Z</time>
      </trkpt>
      <trkpt lat="42.83357" lon="0.09931">
        <ele>2640</ele>
        <time>2014-06-07T07:34:20Z</time>
      </trkpt>
      <trkpt lat="42.8335" lon="0.09939">
        <ele>2637</ele>
        <time>2014-06-07T07:34:39Z</time>
      </trkpt>
      <trkpt lat="42.83345" lon="0.09952">
        <ele>2640</ele>
        <time>2014-06-07T07:34:57Z</time>
      </trkpt>
      <trkpt lat="42.83342" lon="0.09963">
        <ele>2643</ele>
        <time>2014-06-07T07:35:11Z</time>
      </trkpt>
      <trkpt lat="42.83341" lon="0.09964">
        <ele>2644</ele>
        <time>2014-06-07T07:35:13Z</time>
      </trkpt>
      <trkpt lat="42.83341" lon="0.09967">
        <ele>2645</ele>
        <time>2014-06-07T07:35:17Z</time>
      </trkpt>
      <trkpt lat="42.83341" lon="0.0997">
        <ele>2648</ele>
        <time>2014-06-07T07:35:22Z</time>
      </trkpt>
      <trkpt lat="42.83339" lon="0.0998">
        <ele>2649</ele>
        <time>2014-06-07T07:35:32Z</time>
      </trkpt>
      <trkpt lat="42.83339" lon="0.09985">
        <ele>2652</ele>
        <time>2014-06-07T07:35:40Z</time>
      </trkpt>
      <trkpt lat="42.83338" lon="0.09994">
        <ele>2653</ele>
        <time>2014-06-07T07:35:49Z</time>
      </trkpt>
      <trkpt lat="42.83338" lon="0.0999">
        <ele>2652</ele>
        <time>2014-06-07T07:36:03Z</time>
      </trkpt>
      <trkpt lat="42.8333" lon="0.09986">
        <ele>2653</ele>
        <time>2014-06-07T07:36:20Z</time>
      </trkpt>
      <trkpt lat="42.83326" lon="0.09984">
        <ele>2657</ele>
        <time>2014-06-07T07:36:29Z</time>
      </trkpt>
      <trkpt lat="42.83322" lon="0.09976">
        <ele>2660</ele>
        <time>2014-06-07T07:36:42Z</time>
      </trkpt>
      <trkpt lat="42.83321" lon="0.09971">
        <ele>2663</ele>
        <time>2014-06-07T07:36:49Z</time>
      </trkpt>
      <trkpt lat="42.83319" lon="0.09965">
        <ele>2660</ele>
        <time>2014-06-07T07:36:57Z</time>
      </trkpt>
      <trkpt lat="42.83319" lon="0.09965">
        <ele>2660</ele>
        <time>2014-06-07T07:36:58Z</time>
      </trkpt>
      <trkpt lat="42.83318" lon="0.09964">
        <ele>2665</ele>
        <time>2014-06-07T07:37:02Z</time>
      </trkpt>
      <trkpt lat="42.83318" lon="0.09963">
        <ele>2666</ele>
        <time>2014-06-07T07:37:04Z</time>
      </trkpt>
      <trkpt lat="42.83317" lon="0.09958">
        <ele>2670</ele>
        <time>2014-06-07T07:37:11Z</time>
      </trkpt>
      <trkpt lat="42.83317" lon="0.09959">
        <ele>2670</ele>
        <time>2014-06-07T07:37:12Z</time>
      </trkpt>
      <trkpt lat="42.83315" lon="0.09962">
        <ele>2673</ele>
        <time>2014-06-07T07:37:19Z</time>
      </trkpt>
      <trkpt lat="42.83314" lon="0.09962">
        <ele>2673</ele>
        <time>2014-06-07T07:37:20Z</time>
      </trkpt>
      <trkpt lat="42.83312" lon="0.09966">
        <ele>2673</ele>
        <time>2014-06-07T07:37:25Z</time>
      </trkpt>
      <trkpt lat="42.83311" lon="0.09967">
        <ele>2676</ele>
        <time>2014-06-07T07:37:27Z</time>
      </trkpt>
      <trkpt lat="42.8331" lon="0.09968">
        <ele>2673</ele>
        <time>2014-06-07T07:37:32Z</time>
      </trkpt>
      <trkpt lat="42.83306" lon="0.09974">
        <ele>2673</ele>
        <time>2014-06-07T07:37:42Z</time>
      </trkpt>
      <trkpt lat="42.83305" lon="0.09979">
        <ele>2677</ele>
        <time>2014-06-07T07:37:50Z</time>
      </trkpt>
      <trkpt lat="42.83304" lon="0.09981">
        <ele>2681</ele>
        <time>2014-06-07T07:37:53Z</time>
      </trkpt>
      <trkpt lat="42.83304" lon="0.09985">
        <ele>2685</ele>
        <time>2014-06-07T07:38:01Z</time>
      </trkpt>
      <trkpt lat="42.83304" lon="0.09985">
        <ele>2685</ele>
        <time>2014-06-07T07:38:02Z</time>
      </trkpt>
      <trkpt lat="42.83303" lon="0.09985">
        <ele>2681</ele>
        <time>2014-06-07T07:38:05Z</time>
      </trkpt>
      <trkpt lat="42.83302" lon="0.09997">
        <ele>2685</ele>
        <time>2014-06-07T07:38:20Z</time>
      </trkpt>
      <trkpt lat="42.83302" lon="0.09997">
        <ele>2689</ele>
        <time>2014-06-07T07:38:22Z</time>
      </trkpt>
      <trkpt lat="42.83302" lon="0.09998">
        <ele>2688</ele>
        <time>2014-06-07T07:38:23Z</time>
      </trkpt>
      <trkpt lat="42.83301" lon="0.09999">
        <ele>2694</ele>
        <time>2014-06-07T07:38:25Z</time>
      </trkpt>
      <trkpt lat="42.83302" lon="0.09999">
        <ele>2701</ele>
        <time>2014-06-07T07:38:26Z</time>
      </trkpt>
      <trkpt lat="42.83302" lon="0.09999">
        <ele>2700</ele>
        <time>2014-06-07T07:38:27Z</time>
      </trkpt>
      <trkpt lat="42.83302" lon="0.09999">
        <ele>2705</ele>
        <time>2014-06-07T07:38:28Z</time>
      </trkpt>
      <trkpt lat="42.83302" lon="0.1">
        <ele>2703</ele>
        <time>2014-06-07T07:38:29Z</time>
      </trkpt>
      <trkpt lat="42.83301" lon="0.1">
        <ele>2692</ele>
        <time>2014-06-07T07:38:31Z</time>
      </trkpt>
      <trkpt lat="42.83301" lon="0.1">
        <ele>2688</ele>
        <time>2014-06-07T07:38:32Z</time>
      </trkpt>
      <trkpt lat="42.83301" lon="0.09999">
        <ele>2689</ele>
        <time>2014-06-07T07:38:33Z</time>
      </trkpt>
      <trkpt lat="42.83301" lon="0.09999">
        <ele>2684</ele>
        <time>2014-06-07T07:38:35Z</time>
      </trkpt>
      <trkpt lat="42.83301" lon="0.09999">
        <ele>2680</ele>
        <time>2014-06-07T07:38:36Z</time>
      </trkpt>
      <trkpt lat="42.83301" lon="0.09998">
        <ele>2677</ele>
        <time>2014-06-07T07:38:45Z</time>
      </trkpt>
      <trkpt lat="42.83301" lon="0.09998">
        <ele>2677</ele>
        <time>2014-06-07T07:38:46Z</time>
      </trkpt>
      <trkpt lat="42.83302" lon="0.09999">
        <ele>2674</ele>
        <time>2014-06-07T07:38:48Z</time>
      </trkpt>
      <trkpt lat="42.83302" lon="0.09998">
        <ele>2674</ele>
        <time>2014-06-07T07:38:49Z</time>
      </trkpt>
      <trkpt lat="42.83301" lon="0.10003">
        <ele>2675</ele>
        <time>2014-06-07T07:39:10Z</time>
      </trkpt>
      <trkpt lat="42.83302" lon="0.10015">
        <ele>2678</ele>
        <time>2014-06-07T07:39:27Z</time>
      </trkpt>
      <trkpt lat="42.83302" lon="0.10015">
        <ele>2677</ele>
        <time>2014-06-07T07:39:28Z</time>
      </trkpt>
      <trkpt lat="42.83303" lon="0.10015">
        <ele>2675</ele>
        <time>2014-06-07T07:39:31Z</time>
      </trkpt>
      <trkpt lat="42.83304" lon="0.10015">
        <ele>2678</ele>
        <time>2014-06-07T07:39:52Z</time>
      </trkpt>
      <trkpt lat="42.83305" lon="0.10015">
        <ele>2677</ele>
        <time>2014-06-07T07:40:04Z</time>
      </trkpt>
      <trkpt lat="42.83301" lon="0.10016">
        <ele>2678</ele>
        <time>2014-06-07T07:40:26Z</time>
      </trkpt>
      <trkpt lat="42.83293" lon="0.10013">
        <ele>2678</ele>
        <time>2014-06-07T07:40:41Z</time>
      </trkpt>
      <trkpt lat="42.83292" lon="0.10013">
        <ele>2680</ele>
        <time>2014-06-07T07:40:44Z</time>
      </trkpt>
      <trkpt lat="42.83281" lon="0.10008">
        <ele>2683</ele>
        <time>2014-06-07T07:41:03Z</time>
      </trkpt>
      <trkpt lat="42.83275" lon="0.10003">
        <ele>2686</ele>
        <time>2014-06-07T07:41:19Z</time>
      </trkpt>
      <trkpt lat="42.83274" lon="0.09999">
        <ele>2688</ele>
        <time>2014-06-07T07:41:25Z</time>
      </trkpt>
      <trkpt lat="42.8327" lon="0.09993">
        <ele>2692</ele>
        <time>2014-06-07T07:41:36Z</time>
      </trkpt>
      <trkpt lat="42.83269" lon="0.09993">
        <ele>2692</ele>
        <time>2014-06-07T07:41:37Z</time>
      </trkpt>
      <trkpt lat="42.83269" lon="0.09992">
        <ele>2689</ele>
        <time>2014-06-07T07:41:40Z</time>
      </trkpt>
      <trkpt lat="42.83265" lon="0.09988">
        <ele>2691</ele>
        <time>2014-06-07T07:41:54Z</time>
      </trkpt>
      <trkpt lat="42.83262" lon="0.09992">
        <ele>2695</ele>
        <time>2014-06-07T07:42:01Z</time>
      </trkpt>
      <trkpt lat="42.83261" lon="0.09993">
        <ele>2699</ele>
        <time>2014-06-07T07:42:04Z</time>
      </trkpt>
      <trkpt lat="42.83259" lon="0.09999">
        <ele>2697</ele>
        <time>2014-06-07T07:42:15Z</time>
      </trkpt>
      <trkpt lat="42.83257" lon="0.1001">
        <ele>2698</ele>
        <time>2014-06-07T07:42:32Z</time>
      </trkpt>
      <trkpt lat="42.83255" lon="0.10015">
        <ele>2700</ele>
        <time>2014-06-07T07:42:40Z</time>
      </trkpt>
      <trkpt lat="42.83255" lon="0.10017">
        <ele>2703</ele>
        <time>2014-06-07T07:42:44Z</time>
      </trkpt>
      <trkpt lat="42.83255" lon="0.10019">
        <ele>2706</ele>
        <time>2014-06-07T07:42:47Z</time>
      </trkpt>
      <trkpt lat="42.83255" lon="0.10027">
        <ele>2706</ele>
        <time>2014-06-07T07:43:04Z</time>
      </trkpt>
      <trkpt lat="42.83256" lon="0.1003">
        <ele>2706</ele>
        <time>2014-06-07T07:43:19Z</time>
      </trkpt>
      <trkpt lat="42.83256" lon="0.10032">
        <ele>2702</ele>
        <time>2014-06-07T07:43:32Z</time>
      </trkpt>
      <trkpt lat="42.83254" lon="0.1003">
        <ele>2706</ele>
        <time>2014-06-07T07:43:37Z</time>
      </trkpt>
      <trkpt lat="42.83253" lon="0.1003">
        <ele>2705</ele>
        <time>2014-06-07T07:43:38Z</time>
      </trkpt>
      <trkpt lat="42.83246" lon="0.10027">
        <ele>2707</ele>
        <time>2014-06-07T07:43:57Z</time>
      </trkpt>
      <trkpt lat="42.83244" lon="0.10028">
        <ele>2707</ele>
        <time>2014-06-07T07:43:59Z</time>
      </trkpt>
      <trkpt lat="42.83242" lon="0.10026">
        <ele>2707</ele>
        <time>2014-06-07T07:44:04Z</time>
      </trkpt>
      <trkpt lat="42.8324" lon="0.10026">
        <ele>2708</ele>
        <time>2014-06-07T07:44:07Z</time>
      </trkpt>
      <trkpt lat="42.8323" lon="0.10022">
        <ele>2709</ele>
        <time>2014-06-07T07:44:24Z</time>
      </trkpt>
      <trkpt lat="42.83224" lon="0.10019">
        <ele>2705</ele>
        <time>2014-06-07T07:44:33Z</time>
      </trkpt>
      <trkpt lat="42.83223" lon="0.10018">
        <ele>2705</ele>
        <time>2014-06-07T07:44:34Z</time>
      </trkpt>
      <trkpt lat="42.83221" lon="0.10016">
        <ele>2704</ele>
        <time>2014-06-07T07:44:42Z</time>
      </trkpt>
      <trkpt lat="42.8322" lon="0.10015">
        <ele>2705</ele>
        <time>2014-06-07T07:44:44Z</time>
      </trkpt>
      <trkpt lat="42.8322" lon="0.10014">
        <ele>2708</ele>
        <time>2014-06-07T07:44:45Z</time>
      </trkpt>
      <trkpt lat="42.83219" lon="0.10013">
        <ele>2711</ele>
        <time>2014-06-07T07:44:49Z</time>
      </trkpt>
      <trkpt lat="42.83214" lon="0.10004">
        <ele>2714</ele>
        <time>2014-06-07T07:45:03Z</time>
      </trkpt>
      <trkpt lat="42.83213" lon="0.10001">
        <ele>2712</ele>
        <time>2014-06-07T07:45:07Z</time>
      </trkpt>
      <trkpt lat="42.83209" lon="0.09996">
        <ele>2715</ele>
        <time>2014-06-07T07:45:22Z</time>
      </trkpt>
      <trkpt lat="42.83205" lon="0.09998">
        <ele>2719</ele>
        <time>2014-06-07T07:45:31Z</time>
      </trkpt>
      <trkpt lat="42.83205" lon="0.09999">
        <ele>2723</ele>
        <time>2014-06-07T07:45:32Z</time>
      </trkpt>
      <trkpt lat="42.83204" lon="0.09999">
        <ele>2721</ele>
        <time>2014-06-07T07:45:33Z</time>
      </trkpt>
      <trkpt lat="42.83203" lon="0.1">
        <ele>2724</ele>
        <time>2014-06-07T07:45:36Z</time>
      </trkpt>
      <trkpt lat="42.83203" lon="0.10002">
        <ele>2718</ele>
        <time>2014-06-07T07:45:38Z</time>
      </trkpt>
      <trkpt lat="42.83203" lon="0.10002">
        <ele>2718</ele>
        <time>2014-06-07T07:45:39Z</time>
      </trkpt>
      <trkpt lat="42.83202" lon="0.10004">
        <ele>2724</ele>
        <time>2014-06-07T07:45:41Z</time>
      </trkpt>
      <trkpt lat="42.83202" lon="0.10004">
        <ele>2722</ele>
        <time>2014-06-07T07:45:42Z</time>
      </trkpt>
      <trkpt lat="42.83198" lon="0.10012">
        <ele>2725</ele>
        <time>2014-06-07T07:46:00Z</time>
      </trkpt>
      <trkpt lat="42.83197" lon="0.10016">
        <ele>2729</ele>
        <time>2014-06-07T07:46:07Z</time>
      </trkpt>
      <trkpt lat="42.83195" lon="0.10025">
        <ele>2733</ele>
        <time>2014-06-07T07:46:19Z</time>
      </trkpt>
      <trkpt lat="42.83195" lon="0.10026">
        <ele>2737</ele>
        <time>2014-06-07T07:46:20Z</time>
      </trkpt>
      <trkpt lat="42.83195" lon="0.10026">
        <ele>2736</ele>
        <time>2014-06-07T07:46:21Z</time>
      </trkpt>
      <trkpt lat="42.83195" lon="0.10028">
        <ele>2730</ele>
        <time>2014-06-07T07:46:24Z</time>
      </trkpt>
      <trkpt lat="42.83196" lon="0.10029">
        <ele>2731</ele>
        <time>2014-06-07T07:46:25Z</time>
      </trkpt>
      <trkpt lat="42.83195" lon="0.1004">
        <ele>2734</ele>
        <time>2014-06-07T07:46:42Z</time>
      </trkpt>
      <trkpt lat="42.83195" lon="0.10041">
        <ele>2738</ele>
        <time>2014-06-07T07:46:45Z</time>
      </trkpt>
      <trkpt lat="42.83195" lon="0.10043">
        <ele>2735</ele>
        <time>2014-06-07T07:46:54Z</time>
      </trkpt>
      <trkpt lat="42.83196" lon="0.10045">
        <ele>2730</ele>
        <time>2014-06-07T07:47:07Z</time>
      </trkpt>
      <trkpt lat="42.83195" lon="0.10045">
        <ele>2734</ele>
        <time>2014-06-07T07:47:11Z</time>
      </trkpt>
      <trkpt lat="42.83195" lon="0.10045">
        <ele>2734</ele>
        <time>2014-06-07T07:47:12Z</time>
      </trkpt>
      <trkpt lat="42.83195" lon="0.10045">
        <ele>2731</ele>
        <time>2014-06-07T07:47:14Z</time>
      </trkpt>
      <trkpt lat="42.83194" lon="0.10045">
        <ele>2725</ele>
        <time>2014-06-07T07:47:19Z</time>
      </trkpt>
      <trkpt lat="42.83194" lon="0.10044">
        <ele>2726</ele>
        <time>2014-06-07T07:47:22Z</time>
      </trkpt>
      <trkpt lat="42.83195" lon="0.10044">
        <ele>2729</ele>
        <time>2014-06-07T07:47:23Z</time>
      </trkpt>
      <trkpt lat="42.83195" lon="0.10044">
        <ele>2733</ele>
        <time>2014-06-07T07:47:24Z</time>
      </trkpt>
      <trkpt lat="42.83194" lon="0.10041">
        <ele>2733</ele>
        <time>2014-06-07T07:47:34Z</time>
      </trkpt>
      <trkpt lat="42.83192" lon="0.1004">
        <ele>2737</ele>
        <time>2014-06-07T07:47:40Z</time>
      </trkpt>
      <trkpt lat="42.83191" lon="0.10039">
        <ele>2740</ele>
        <time>2014-06-07T07:47:43Z</time>
      </trkpt>
      <trkpt lat="42.83189" lon="0.10037">
        <ele>2737</ele>
        <time>2014-06-07T07:47:47Z</time>
      </trkpt>
      <trkpt lat="42.83187" lon="0.10036">
        <ele>2735</ele>
        <time>2014-06-07T07:47:50Z</time>
      </trkpt>
      <trkpt lat="42.83183" lon="0.10033">
        <ele>2735</ele>
        <time>2014-06-07T07:47:58Z</time>
      </trkpt>
      <trkpt lat="42.83177" lon="0.10028">
        <ele>2736</ele>
        <time>2014-06-07T07:48:12Z</time>
      </trkpt>
      <trkpt lat="42.83176" lon="0.10028">
        <ele>2738</ele>
        <time>2014-06-07T07:48:15Z</time>
      </trkpt>
      <trkpt lat="42.83174" lon="0.10027">
        <ele>2741</ele>
        <time>2014-06-07T07:48:20Z</time>
      </trkpt>
      <trkpt lat="42.83175" lon="0.10021">
        <ele>2738</ele>
        <time>2014-06-07T07:48:38Z</time>
      </trkpt>
      <trkpt lat="42.83173" lon="0.10019">
        <ele>2739</ele>
        <time>2014-06-07T07:48:56Z</time>
      </trkpt>
      <trkpt lat="42.83174" lon="0.10017">
        <ele>2739</ele>
        <time>2014-06-07T07:49:21Z</time>
      </trkpt>
      <trkpt lat="42.83175" lon="0.10016">
        <ele>2736</ele>
        <time>2014-06-07T07:49:29Z</time>
      </trkpt>
      <trkpt lat="42.83172" lon="0.10017">
        <ele>2738</ele>
        <time>2014-06-07T07:49:46Z</time>
      </trkpt>
      <trkpt lat="42.83171" lon="0.10019">
        <ele>2742</ele>
        <time>2014-06-07T07:49:55Z</time>
      </trkpt>
      <trkpt lat="42.8317" lon="0.10019">
        <ele>2742</ele>
        <time>2014-06-07T07:49:56Z</time>
      </trkpt>
      <trkpt lat="42.8317" lon="0.10019">
        <ele>2745</ele>
        <time>2014-06-07T07:50:00Z</time>
      </trkpt>
      <trkpt lat="42.8317" lon="0.10019">
        <ele>2742</ele>
        <time>2014-06-07T07:50:02Z</time>
      </trkpt>
      <trkpt lat="42.8317" lon="0.10019">
        <ele>2740</ele>
        <time>2014-06-07T07:50:04Z</time>
      </trkpt>
      <trkpt lat="42.8317" lon="0.10018">
        <ele>2745</ele>
        <time>2014-06-07T07:50:06Z</time>
      </trkpt>
      <trkpt lat="42.83169" lon="0.10018">
        <ele>2741</ele>
        <time>2014-06-07T07:50:07Z</time>
      </trkpt>
      <trkpt lat="42.83169" lon="0.10018">
        <ele>2739</ele>
        <time>2014-06-07T07:50:09Z</time>
      </trkpt>
      <trkpt lat="42.8317" lon="0.1002">
        <ele>2740</ele>
        <time>2014-06-07T07:50:26Z</time>
      </trkpt>
      <trkpt lat="42.8317" lon="0.10026">
        <ele>2741</ele>
        <time>2014-06-07T07:50:39Z</time>
      </trkpt>
      <trkpt lat="42.83171" lon="0.10036">
        <ele>2744</ele>
        <time>2014-06-07T07:50:53Z</time>
      </trkpt>
      <trkpt lat="42.83173" lon="0.10043">
        <ele>2745</ele>
        <time>2014-06-07T07:51:06Z</time>
      </trkpt>
      <trkpt lat="42.83174" lon="0.10054">
        <ele>2746</ele>
        <time>2014-06-07T07:51:22Z</time>
      </trkpt>
      <trkpt lat="42.83175" lon="0.10058">
        <ele>2746</ele>
        <time>2014-06-07T07:51:36Z</time>
      </trkpt>
      <trkpt lat="42.83174" lon="0.10059">
        <ele>2743</ele>
        <time>2014-06-07T07:51:40Z</time>
      </trkpt>
      <trkpt lat="42.83174" lon="0.10059">
        <ele>2743</ele>
        <time>2014-06-07T07:51:41Z</time>
      </trkpt>
      <trkpt lat="42.83174" lon="0.1006">
        <ele>2745</ele>
        <time>2014-06-07T07:51:44Z</time>
      </trkpt>
      <trkpt lat="42.83174" lon="0.1006">
        <ele>2748</ele>
        <time>2014-06-07T07:51:50Z</time>
      </trkpt>
      <trkpt lat="42.83174" lon="0.10059">
        <ele>2747</ele>
        <time>2014-06-07T07:51:51Z</time>
      </trkpt>
      <trkpt lat="42.83176" lon="0.10057">
        <ele>2742</ele>
        <time>2014-06-07T07:51:54Z</time>
      </trkpt>
      <trkpt lat="42.83176" lon="0.10058">
        <ele>2744</ele>
        <time>2014-06-07T07:51:55Z</time>
      </trkpt>
      <trkpt lat="42.83175" lon="0.10054">
        <ele>2746</ele>
        <time>2014-06-07T07:52:02Z</time>
      </trkpt>
      <trkpt lat="42.83173" lon="0.10053">
        <ele>2747</ele>
        <time>2014-06-07T07:52:06Z</time>
      </trkpt>
      <trkpt lat="42.83168" lon="0.1005">
        <ele>2754</ele>
        <time>2014-06-07T07:52:13Z</time>
      </trkpt>
      <trkpt lat="42.83167" lon="0.10049">
        <ele>2753</ele>
        <time>2014-06-07T07:52:14Z</time>
      </trkpt>
      <trkpt lat="42.83164" lon="0.10049">
        <ele>2758</ele>
        <time>2014-06-07T07:52:19Z</time>
      </trkpt>
      <trkpt lat="42.83164" lon="0.10048">
        <ele>2756</ele>
        <time>2014-06-07T07:52:20Z</time>
      </trkpt>
      <trkpt lat="42.83163" lon="0.10047">
        <ele>2752</ele>
        <time>2014-06-07T07:52:25Z</time>
      </trkpt>
      <trkpt lat="42.83163" lon="0.10046">
        <ele>2752</ele>
        <time>2014-06-07T07:52:31Z</time>
      </trkpt>
      <trkpt lat="42.83164" lon="0.10046">
        <ele>2755</ele>
        <time>2014-06-07T07:52:38Z</time>
      </trkpt>
      <trkpt lat="42.83164" lon="0.10045">
        <ele>2755</ele>
        <time>2014-06-07T07:52:42Z</time>
      </trkpt>
      <trkpt lat="42.83159" lon="0.10045">
        <ele>2758</ele>
        <time>2014-06-07T07:52:52Z</time>
      </trkpt>
      <trkpt lat="42.83155" lon="0.10045">
        <ele>2760</ele>
        <time>2014-06-07T07:52:58Z</time>
      </trkpt>
      <trkpt lat="42.83153" lon="0.10043">
        <ele>2756</ele>
        <time>2014-06-07T07:53:03Z</time>
      </trkpt>
      <trkpt lat="42.83151" lon="0.10038">
        <ele>2760</ele>
        <time>2014-06-07T07:53:16Z</time>
      </trkpt>
      <trkpt lat="42.83151" lon="0.10038">
        <ele>2764</ele>
        <time>2014-06-07T07:53:21Z</time>
      </trkpt>
      <trkpt lat="42.83151" lon="0.10038">
        <ele>2763</ele>
        <time>2014-06-07T07:53:22Z</time>
      </trkpt>
      <trkpt lat="42.83151" lon="0.10038">
        <ele>2762</ele>
        <time>2014-06-07T07:53:26Z</time>
      </trkpt>
      <trkpt lat="42.8315" lon="0.10039">
        <ele>2760</ele>
        <time>2014-06-07T07:53:32Z</time>
      </trkpt>
      <trkpt lat="42.8315" lon="0.10049">
        <ele>2762</ele>
        <time>2014-06-07T07:53:45Z</time>
      </trkpt>
      <trkpt lat="42.8315" lon="0.10052">
        <ele>2765</ele>
        <time>2014-06-07T07:53:50Z</time>
      </trkpt>
      <trkpt lat="42.83151" lon="0.10059">
        <ele>2766</ele>
        <time>2014-06-07T07:54:00Z</time>
      </trkpt>
      <trkpt lat="42.83153" lon="0.10063">
        <ele>2763</ele>
        <time>2014-06-07T07:54:05Z</time>
      </trkpt>
      <trkpt lat="42.83154" lon="0.10068">
        <ele>2760</ele>
        <time>2014-06-07T07:54:10Z</time>
      </trkpt>
      <trkpt lat="42.83154" lon="0.10069">
        <ele>2763</ele>
        <time>2014-06-07T07:54:19Z</time>
      </trkpt>
      <trkpt lat="42.83149" lon="0.10062">
        <ele>2765</ele>
        <time>2014-06-07T07:54:33Z</time>
      </trkpt>
      <trkpt lat="42.83147" lon="0.1006">
        <ele>2762</ele>
        <time>2014-06-07T07:54:37Z</time>
      </trkpt>
      <trkpt lat="42.83146" lon="0.1006">
        <ele>2764</ele>
        <time>2014-06-07T07:54:38Z</time>
      </trkpt>
      <trkpt lat="42.83146" lon="0.10059">
        <ele>2774</ele>
        <time>2014-06-07T07:54:39Z</time>
      </trkpt>
      <trkpt lat="42.83145" lon="0.10058">
        <ele>2785</ele>
        <time>2014-06-07T07:54:40Z</time>
      </trkpt>
      <trkpt lat="42.83145" lon="0.10057">
        <ele>2775</ele>
        <time>2014-06-07T07:54:41Z</time>
      </trkpt>
      <trkpt lat="42.83144" lon="0.10057">
        <ele>2765</ele>
        <time>2014-06-07T07:54:42Z</time>
      </trkpt>
      <trkpt lat="42.83144" lon="0.10056">
        <ele>2762</ele>
        <time>2014-06-07T07:54:43Z</time>
      </trkpt>
      <trkpt lat="42.83143" lon="0.10056">
        <ele>2760</ele>
        <time>2014-06-07T07:54:45Z</time>
      </trkpt>
      <trkpt lat="42.83143" lon="0.10054">
        <ele>2762</ele>
        <time>2014-06-07T07:54:47Z</time>
      </trkpt>
      <trkpt lat="42.83138" lon="0.10048">
        <ele>2763</ele>
        <time>2014-06-07T07:55:03Z</time>
      </trkpt>
      <trkpt lat="42.83137" lon="0.10049">
        <ele>2767</ele>
        <time>2014-06-07T07:55:07Z</time>
      </trkpt>
      <trkpt lat="42.83137" lon="0.10048">
        <ele>2767</ele>
        <time>2014-06-07T07:55:08Z</time>
      </trkpt>
      <trkpt lat="42.83136" lon="0.10048">
        <ele>2764</ele>
        <time>2014-06-07T07:55:14Z</time>
      </trkpt>
      <trkpt lat="42.83139" lon="0.10061">
        <ele>2763</ele>
        <time>2014-06-07T07:55:30Z</time>
      </trkpt>
      <trkpt lat="42.8314" lon="0.10067">
        <ele>2765</ele>
        <time>2014-06-07T07:55:39Z</time>
      </trkpt>
      <trkpt lat="42.8314" lon="0.10073">
        <ele>2769</ele>
        <time>2014-06-07T07:55:54Z</time>
      </trkpt>
      <trkpt lat="42.83141" lon="0.10073">
        <ele>2770</ele>
        <time>2014-06-07T07:56:17Z</time>
      </trkpt>
      <trkpt lat="42.83137" lon="0.10069">
        <ele>2773</ele>
        <time>2014-06-07T07:56:29Z</time>
      </trkpt>
      <trkpt lat="42.83134" lon="0.10067">
        <ele>2772</ele>
        <time>2014-06-07T07:56:36Z</time>
      </trkpt>
      <trkpt lat="42.83132" lon="0.10067">
        <ele>2774</ele>
        <time>2014-06-07T07:56:39Z</time>
      </trkpt>
      <trkpt lat="42.8313" lon="0.10063">
        <ele>2778</ele>
        <time>2014-06-07T07:56:46Z</time>
      </trkpt>
      <trkpt lat="42.8313" lon="0.10061">
        <ele>2782</ele>
        <time>2014-06-07T07:56:50Z</time>
      </trkpt>
      <trkpt lat="42.83128" lon="0.10061">
        <ele>2778</ele>
        <time>2014-06-07T07:57:00Z</time>
      </trkpt>
      <trkpt lat="42.83127" lon="0.10059">
        <ele>2775</ele>
        <time>2014-06-07T07:57:04Z</time>
      </trkpt>
      <trkpt lat="42.83124" lon="0.10057">
        <ele>2778</ele>
        <time>2014-06-07T07:57:14Z</time>
      </trkpt>
      <trkpt lat="42.83122" lon="0.10054">
        <ele>2781</ele>
        <time>2014-06-07T07:57:18Z</time>
      </trkpt>
      <trkpt lat="42.83117" lon="0.10052">
        <ele>2779</ele>
        <time>2014-06-07T07:57:29Z</time>
      </trkpt>
      <trkpt lat="42.83117" lon="0.10052">
        <ele>2778</ele>
        <time>2014-06-07T07:57:33Z</time>
      </trkpt>
      <trkpt lat="42.83119" lon="0.10052">
        <ele>2778</ele>
        <time>2014-06-07T07:57:54Z</time>
      </trkpt>
      <trkpt lat="42.83118" lon="0.1005">
        <ele>2778</ele>
        <time>2014-06-07T07:58:15Z</time>
      </trkpt>
      <trkpt lat="42.8312" lon="0.10051">
        <ele>2777</ele>
        <time>2014-06-07T07:58:29Z</time>
      </trkpt>
      <trkpt lat="42.83118" lon="0.10049">
        <ele>2781</ele>
        <time>2014-06-07T07:58:41Z</time>
      </trkpt>
      <trkpt lat="42.8312" lon="0.10048">
        <ele>2779</ele>
        <time>2014-06-07T07:58:54Z</time>
      </trkpt>
      <trkpt lat="42.83119" lon="0.10049">
        <ele>2777</ele>
        <time>2014-06-07T07:58:59Z</time>
      </trkpt>
      <trkpt lat="42.83118" lon="0.1005">
        <ele>2780</ele>
        <time>2014-06-07T07:59:04Z</time>
      </trkpt>
      <trkpt lat="42.83117" lon="0.10051">
        <ele>2779</ele>
        <time>2014-06-07T07:59:05Z</time>
      </trkpt>
      <trkpt lat="42.83117" lon="0.1005">
        <ele>2777</ele>
        <time>2014-06-07T07:59:07Z</time>
      </trkpt>
      <trkpt lat="42.83117" lon="0.10045">
        <ele>2774</ele>
        <time>2014-06-07T07:59:20Z</time>
      </trkpt>
      <trkpt lat="42.83118" lon="0.10045">
        <ele>2776</ele>
        <time>2014-06-07T07:59:21Z</time>
      </trkpt>
      <trkpt lat="42.83118" lon="0.10045">
        <ele>2778</ele>
        <time>2014-06-07T07:59:23Z</time>
      </trkpt>
      <trkpt lat="42.83118" lon="0.10045">
        <ele>2782</ele>
        <time>2014-06-07T07:59:24Z</time>
      </trkpt>
      <trkpt lat="42.83118" lon="0.10045">
        <ele>2781</ele>
        <time>2014-06-07T07:59:25Z</time>
      </trkpt>
      <trkpt lat="42.83117" lon="0.10045">
        <ele>2778</ele>
        <time>2014-06-07T07:59:26Z</time>
      </trkpt>
      <trkpt lat="42.83117" lon="0.10046">
        <ele>2780</ele>
        <time>2014-06-07T07:59:27Z</time>
      </trkpt>
      <trkpt lat="42.83116" lon="0.10046">
        <ele>2776</ele>
        <time>2014-06-07T07:59:30Z</time>
      </trkpt>
      <trkpt lat="42.83116" lon="0.10046">
        <ele>2775</ele>
        <time>2014-06-07T07:59:31Z</time>
      </trkpt>
      <trkpt lat="42.83116" lon="0.10046">
        <ele>2779</ele>
        <time>2014-06-07T07:59:33Z</time>
      </trkpt>
      <trkpt lat="42.83116" lon="0.10046">
        <ele>2779</ele>
        <time>2014-06-07T07:59:35Z</time>
      </trkpt>
      <trkpt lat="42.83116" lon="0.10046">
        <ele>2777</ele>
        <time>2014-06-07T07:59:39Z</time>
      </trkpt>
      <trkpt lat="42.83116" lon="0.10046">
        <ele>2775</ele>
        <time>2014-06-07T07:59:42Z</time>
      </trkpt>
      <trkpt lat="42.83117" lon="0.10046">
        <ele>2779</ele>
        <time>2014-06-07T07:59:43Z</time>
      </trkpt>
      <trkpt lat="42.83116" lon="0.10046">
        <ele>2781</ele>
        <time>2014-06-07T07:59:45Z</time>
      </trkpt>
      <trkpt lat="42.83116" lon="0.10047">
        <ele>2774</ele>
        <time>2014-06-07T07:59:47Z</time>
      </trkpt>
      <trkpt lat="42.83116" lon="0.10047">
        <ele>2775</ele>
        <time>2014-06-07T07:59:48Z</time>
      </trkpt>
      <trkpt lat="42.83117" lon="0.10048">
        <ele>2777</ele>
        <time>2014-06-07T07:59:50Z</time>
      </trkpt>
      <trkpt lat="42.83116" lon="0.10046">
        <ele>2773</ele>
        <time>2014-06-07T07:59:58Z</time>
      </trkpt>
      <trkpt lat="42.83116" lon="0.10047">
        <ele>2773</ele>
        <time>2014-06-07T07:59:59Z</time>
      </trkpt>
      <trkpt lat="42.83114" lon="0.10047">
        <ele>2776</ele>
        <time>2014-06-07T08:00:15Z</time>
      </trkpt>
      <trkpt lat="42.83115" lon="0.10051">
        <ele>2780</ele>
        <time>2014-06-07T08:00:25Z</time>
      </trkpt>
      <trkpt lat="42.83115" lon="0.10054">
        <ele>2783</ele>
        <time>2014-06-07T08:00:28Z</time>
      </trkpt>
      <trkpt lat="42.83115" lon="0.10057">
        <ele>2778</ele>
        <time>2014-06-07T08:00:32Z</time>
      </trkpt>
      <trkpt lat="42.83115" lon="0.10057">
        <ele>2777</ele>
        <time>2014-06-07T08:00:38Z</time>
      </trkpt>
      <trkpt lat="42.83115" lon="0.10058">
        <ele>2779</ele>
        <time>2014-06-07T08:00:51Z</time>
      </trkpt>
      <trkpt lat="42.83114" lon="0.10056">
        <ele>2778</ele>
        <time>2014-06-07T08:01:03Z</time>
      </trkpt>
      <trkpt lat="42.83117" lon="0.10057">
        <ele>2776</ele>
        <time>2014-06-07T08:01:27Z</time>
      </trkpt>
      <trkpt lat="42.83116" lon="0.10057">
        <ele>2778</ele>
        <time>2014-06-07T08:01:38Z</time>
      </trkpt>
      <trkpt lat="42.83116" lon="0.10063">
        <ele>2780</ele>
        <time>2014-06-07T08:01:54Z</time>
      </trkpt>
      <trkpt lat="42.83114" lon="0.10067">
        <ele>2778</ele>
        <time>2014-06-07T08:02:10Z</time>
      </trkpt>
      <trkpt lat="42.83115" lon="0.10072">
        <ele>2775</ele>
        <time>2014-06-07T08:02:17Z</time>
      </trkpt>
      <trkpt lat="42.83115" lon="0.10069">
        <ele>2779</ele>
        <time>2014-06-07T08:02:45Z</time>
      </trkpt>
      <trkpt lat="42.83116" lon="0.1008">
        <ele>2782</ele>
        <time>2014-06-07T08:03:01Z</time>
      </trkpt>
      <trkpt lat="42.83119" lon="0.1009">
        <ele>2785</ele>
        <time>2014-06-07T08:03:17Z</time>
      </trkpt>
      <trkpt lat="42.8312" lon="0.10096">
        <ele>2788</ele>
        <time>2014-06-07T08:03:26Z</time>
      </trkpt>
      <trkpt lat="42.83122" lon="0.10098">
        <ele>2786</ele>
        <time>2014-06-07T08:03:35Z</time>
      </trkpt>
      <trkpt lat="42.83123" lon="0.10098">
        <ele>2787</ele>
        <time>2014-06-07T08:03:37Z</time>
      </trkpt>
      <trkpt lat="42.83123" lon="0.10101">
        <ele>2786</ele>
        <time>2014-06-07T08:03:48Z</time>
      </trkpt>
      <trkpt lat="42.83127" lon="0.10115">
        <ele>2785</ele>
        <time>2014-06-07T08:04:07Z</time>
      </trkpt>
      <trkpt lat="42.83129" lon="0.10119">
        <ele>2788</ele>
        <time>2014-06-07T08:04:14Z</time>
      </trkpt>
      <trkpt lat="42.83129" lon="0.10121">
        <ele>2792</ele>
        <time>2014-06-07T08:04:17Z</time>
      </trkpt>
      <trkpt lat="42.83131" lon="0.10124">
        <ele>2791</ele>
        <time>2014-06-07T08:04:22Z</time>
      </trkpt>
      <trkpt lat="42.83134" lon="0.10138">
        <ele>2791</ele>
        <time>2014-06-07T08:04:40Z</time>
      </trkpt>
      <trkpt lat="42.83137" lon="0.10137">
        <ele>2794</ele>
        <time>2014-06-07T08:04:54Z</time>
      </trkpt>
      <trkpt lat="42.83138" lon="0.10137">
        <ele>2792</ele>
        <time>2014-06-07T08:05:05Z</time>
      </trkpt>
      <trkpt lat="42.83131" lon="0.10134">
        <ele>2796</ele>
        <time>2014-06-07T08:05:15Z</time>
      </trkpt>
      <trkpt lat="42.83131" lon="0.10134">
        <ele>2797</ele>
        <time>2014-06-07T08:05:17Z</time>
      </trkpt>
      <trkpt lat="42.83123" lon="0.10131">
        <ele>2797</ele>
        <time>2014-06-07T08:05:33Z</time>
      </trkpt>
      <trkpt lat="42.83122" lon="0.1013">
        <ele>2794</ele>
        <time>2014-06-07T08:05:36Z</time>
      </trkpt>
      <trkpt lat="42.83121" lon="0.1013">
        <ele>2795</ele>
        <time>2014-06-07T08:05:39Z</time>
      </trkpt>
      <trkpt lat="42.83113" lon="0.10126">
        <ele>2794</ele>
        <time>2014-06-07T08:05:54Z</time>
      </trkpt>
      <trkpt lat="42.83111" lon="0.10127">
        <ele>2797</ele>
        <time>2014-06-07T08:06:04Z</time>
      </trkpt>
      <trkpt lat="42.83117" lon="0.10142">
        <ele>2798</ele>
        <time>2014-06-07T08:06:24Z</time>
      </trkpt>
      <trkpt lat="42.83124" lon="0.10153">
        <ele>2799</ele>
        <time>2014-06-07T08:06:44Z</time>
      </trkpt>
      <trkpt lat="42.83124" lon="0.10152">
        <ele>2800</ele>
        <time>2014-06-07T08:06:58Z</time>
      </trkpt>
      <trkpt lat="42.83119" lon="0.10148">
        <ele>2802</ele>
        <time>2014-06-07T08:07:06Z</time>
      </trkpt>
      <trkpt lat="42.83113" lon="0.10144">
        <ele>2805</ele>
        <time>2014-06-07T08:07:24Z</time>
      </trkpt>
      <trkpt lat="42.83111" lon="0.10144">
        <ele>2804</ele>
        <time>2014-06-07T08:07:52Z</time>
      </trkpt>
      <trkpt lat="42.83112" lon="0.10144">
        <ele>2804</ele>
        <time>2014-06-07T08:08:28Z</time>
      </trkpt>
      <trkpt lat="42.83114" lon="0.10144">
        <ele>2804</ele>
        <time>2014-06-07T08:08:38Z</time>
      </trkpt>
      <trkpt lat="42.83113" lon="0.10145">
        <ele>2809</ele>
        <time>2014-06-07T08:08:45Z</time>
      </trkpt>
      <trkpt lat="42.83114" lon="0.10145">
        <ele>2813</ele>
        <time>2014-06-07T08:08:47Z</time>
      </trkpt>
      <trkpt lat="42.83113" lon="0.10145">
        <ele>2814</ele>
        <time>2014-06-07T08:08:49Z</time>
      </trkpt>
      <trkpt lat="42.83111" lon="0.10144">
        <ele>2807</ele>
        <time>2014-06-07T08:08:51Z</time>
      </trkpt>
      <trkpt lat="42.8311" lon="0.10144">
        <ele>2803</ele>
        <time>2014-06-07T08:08:52Z</time>
      </trkpt>
      <trkpt lat="42.83109" lon="0.10144">
        <ele>2805</ele>
        <time>2014-06-07T08:08:53Z</time>
      </trkpt>
      <trkpt lat="42.83109" lon="0.10144">
        <ele>2810</ele>
        <time>2014-06-07T08:08:55Z</time>
      </trkpt>
      <trkpt lat="42.83108" lon="0.10145">
        <ele>2813</ele>
        <time>2014-06-07T08:09:01Z</time>
      </trkpt>
      <trkpt lat="42.83107" lon="0.10143">
        <ele>2816</ele>
        <time>2014-06-07T08:09:07Z</time>
      </trkpt>
      <trkpt lat="42.83107" lon="0.10143">
        <ele>2812</ele>
        <time>2014-06-07T08:09:08Z</time>
      </trkpt>
      <trkpt lat="42.83107" lon="0.10142">
        <ele>2811</ele>
        <time>2014-06-07T08:09:10Z</time>
      </trkpt>
      <trkpt lat="42.83107" lon="0.10141">
        <ele>2806</ele>
        <time>2014-06-07T08:09:16Z</time>
      </trkpt>
      <trkpt lat="42.83107" lon="0.10141">
        <ele>2806</ele>
        <time>2014-06-07T08:09:17Z</time>
      </trkpt>
      <trkpt lat="42.83107" lon="0.10145">
        <ele>2804</ele>
        <time>2014-06-07T08:09:30Z</time>
      </trkpt>
      <trkpt lat="42.83108" lon="0.1015">
        <ele>2805</ele>
        <time>2014-06-07T08:09:36Z</time>
      </trkpt>
      <trkpt lat="42.83109" lon="0.10152">
        <ele>2809</ele>
        <time>2014-06-07T08:09:39Z</time>
      </trkpt>
      <trkpt lat="42.8311" lon="0.10153">
        <ele>2809</ele>
        <time>2014-06-07T08:09:40Z</time>
      </trkpt>
      <trkpt lat="42.83111" lon="0.10154">
        <ele>2806</ele>
        <time>2014-06-07T08:09:44Z</time>
      </trkpt>
      <trkpt lat="42.83113" lon="0.10157">
        <ele>2809</ele>
        <time>2014-06-07T08:09:51Z</time>
      </trkpt>
      <trkpt lat="42.83122" lon="0.10169">
        <ele>2811</ele>
        <time>2014-06-07T08:10:13Z</time>
      </trkpt>
      <trkpt lat="42.83132" lon="0.10181">
        <ele>2809</ele>
        <time>2014-06-07T08:10:33Z</time>
      </trkpt>
      <trkpt lat="42.83138" lon="0.10189">
        <ele>2812</ele>
        <time>2014-06-07T08:10:44Z</time>
      </trkpt>
      <trkpt lat="42.83143" lon="0.10197">
        <ele>2815</ele>
        <time>2014-06-07T08:10:54Z</time>
      </trkpt>
      <trkpt lat="42.83148" lon="0.10198">
        <ele>2819</ele>
        <time>2014-06-07T08:11:08Z</time>
      </trkpt>
      <trkpt lat="42.83152" lon="0.10197">
        <ele>2819</ele>
        <time>2014-06-07T08:11:29Z</time>
      </trkpt>
      <trkpt lat="42.83145" lon="0.10197">
        <ele>2821</ele>
        <time>2014-06-07T08:11:47Z</time>
      </trkpt>
      <trkpt lat="42.83143" lon="0.10197">
        <ele>2824</ele>
        <time>2014-06-07T08:11:51Z</time>
      </trkpt>
      <trkpt lat="42.83136" lon="0.10197">
        <ele>2824</ele>
        <time>2014-06-07T08:12:02Z</time>
      </trkpt>
      <trkpt lat="42.8314" lon="0.10205">
        <ele>2824</ele>
        <time>2014-06-07T08:12:18Z</time>
      </trkpt>
      <trkpt lat="42.83147" lon="0.10206">
        <ele>2825</ele>
        <time>2014-06-07T08:12:37Z</time>
      </trkpt>
      <trkpt lat="42.83147" lon="0.10204">
        <ele>2826</ele>
        <time>2014-06-07T08:12:45Z</time>
      </trkpt>
      <trkpt lat="42.83145" lon="0.10206">
        <ele>2826</ele>
        <time>2014-06-07T08:13:03Z</time>
      </trkpt>
      <trkpt lat="42.83145" lon="0.10205">
        <ele>2831</ele>
        <time>2014-06-07T08:13:08Z</time>
      </trkpt>
      <trkpt lat="42.83145" lon="0.10205">
        <ele>2833</ele>
        <time>2014-06-07T08:13:14Z</time>
      </trkpt>
      <trkpt lat="42.83145" lon="0.10205">
        <ele>2831</ele>
        <time>2014-06-07T08:13:16Z</time>
      </trkpt>
      <trkpt lat="42.83144" lon="0.10204">
        <ele>2832</ele>
        <time>2014-06-07T08:13:26Z</time>
      </trkpt>
      <trkpt lat="42.83144" lon="0.10204">
        <ele>2830</ele>
        <time>2014-06-07T08:13:29Z</time>
      </trkpt>
      <trkpt lat="42.83144" lon="0.10202">
        <ele>2832</ele>
        <time>2014-06-07T08:13:38Z</time>
      </trkpt>
      <trkpt lat="42.83146" lon="0.10204">
        <ele>2828</ele>
        <time>2014-06-07T08:14:02Z</time>
      </trkpt>
      <trkpt lat="42.83146" lon="0.10204">
        <ele>2828</ele>
        <time>2014-06-07T08:14:03Z</time>
      </trkpt>
      <trkpt lat="42.83144" lon="0.10204">
        <ele>2826</ele>
        <time>2014-06-07T08:14:09Z</time>
      </trkpt>
      <trkpt lat="42.83132" lon="0.10203">
        <ele>2827</ele>
        <time>2014-06-07T08:14:26Z</time>
      </trkpt>
      <trkpt lat="42.83126" lon="0.10202">
        <ele>2827</ele>
        <time>2014-06-07T08:14:39Z</time>
      </trkpt>
      <trkpt lat="42.83124" lon="0.10199">
        <ele>2827</ele>
        <time>2014-06-07T08:14:46Z</time>
      </trkpt>
      <trkpt lat="42.83121" lon="0.102">
        <ele>2827</ele>
        <time>2014-06-07T08:15:09Z</time>
      </trkpt>
      <trkpt lat="42.83122" lon="0.10201">
        <ele>2827</ele>
        <time>2014-06-07T08:15:27Z</time>
      </trkpt>
      <trkpt lat="42.83122" lon="0.10203">
        <ele>2830</ele>
        <time>2014-06-07T08:15:46Z</time>
      </trkpt>
      <trkpt lat="42.83121" lon="0.10203">
        <ele>2830</ele>
        <time>2014-06-07T08:15:47Z</time>
      </trkpt>
      <trkpt lat="42.83122" lon="0.10204">
        <ele>2833</ele>
        <time>2014-06-07T08:15:51Z</time>
      </trkpt>
      <trkpt lat="42.83123" lon="0.10206">
        <ele>2833</ele>
        <time>2014-06-07T08:16:05Z</time>
      </trkpt>
      <trkpt lat="42.83124" lon="0.10203">
        <ele>2829</ele>
        <time>2014-06-07T08:16:14Z</time>
      </trkpt>
      <trkpt lat="42.83124" lon="0.10202">
        <ele>2829</ele>
        <time>2014-06-07T08:16:15Z</time>
      </trkpt>
      <trkpt lat="42.83126" lon="0.10202">
        <ele>2827</ele>
        <time>2014-06-07T08:16:22Z</time>
      </trkpt>
      <trkpt lat="42.83133" lon="0.10203">
        <ele>2825</ele>
        <time>2014-06-07T08:16:37Z</time>
      </trkpt>
      <trkpt lat="42.83136" lon="0.10202">
        <ele>2825</ele>
        <time>2014-06-07T08:16:56Z</time>
      </trkpt>
      <trkpt lat="42.83141" lon="0.10205">
        <ele>2826</ele>
        <time>2014-06-07T08:17:10Z</time>
      </trkpt>
      <trkpt lat="42.83148" lon="0.10205">
        <ele>2825</ele>
        <time>2014-06-07T08:17:24Z</time>
      </trkpt>
      <trkpt lat="42.83149" lon="0.10208">
        <ele>2824</ele>
        <time>2014-06-07T08:17:33Z</time>
      </trkpt>
      <trkpt lat="42.8315" lon="0.10208">
        <ele>2827</ele>
        <time>2014-06-07T08:17:42Z</time>
      </trkpt>
      <trkpt lat="42.8315" lon="0.10208">
        <ele>2826</ele>
        <time>2014-06-07T08:17:43Z</time>
      </trkpt>
      <trkpt lat="42.8315" lon="0.10207">
        <ele>2824</ele>
        <time>2014-06-07T08:17:45Z</time>
      </trkpt>
      <trkpt lat="42.83151" lon="0.10209">
        <ele>2824</ele>
        <time>2014-06-07T08:18:01Z</time>
      </trkpt>
      <trkpt lat="42.83151" lon="0.10212">
        <ele>2827</ele>
        <time>2014-06-07T08:18:10Z</time>
      </trkpt>
      <trkpt lat="42.83151" lon="0.10212">
        <ele>2828</ele>
        <time>2014-06-07T08:18:12Z</time>
      </trkpt>
      <trkpt lat="42.83152" lon="0.10212">
        <ele>2832</ele>
        <time>2014-06-07T08:18:19Z</time>
      </trkpt>
      <trkpt lat="42.83152" lon="0.10212">
        <ele>2836</ele>
        <time>2014-06-07T08:18:21Z</time>
      </trkpt>
      <trkpt lat="42.83151" lon="0.10211">
        <ele>2833</ele>
        <time>2014-06-07T08:18:26Z</time>
      </trkpt>
      <trkpt lat="42.83151" lon="0.10211">
        <ele>2829</ele>
        <time>2014-06-07T08:18:32Z</time>
      </trkpt>
      <trkpt lat="42.8315" lon="0.10211">
        <ele>2832</ele>
        <time>2014-06-07T08:18:39Z</time>
      </trkpt>
      <trkpt lat="42.83149" lon="0.10212">
        <ele>2833</ele>
        <time>2014-06-07T08:19:00Z</time>
      </trkpt>
      <trkpt lat="42.83147" lon="0.10215">
        <ele>2836</ele>
        <time>2014-06-07T08:19:18Z</time>
      </trkpt>
      <trkpt lat="42.83147" lon="0.10217">
        <ele>2836</ele>
        <time>2014-06-07T08:19:22Z</time>
      </trkpt>
      <trkpt lat="42.83147" lon="0.10228">
        <ele>2835</ele>
        <time>2014-06-07T08:19:38Z</time>
      </trkpt>
      <trkpt lat="42.83145" lon="0.10235">
        <ele>2839</ele>
        <time>2014-06-07T08:19:50Z</time>
      </trkpt>
      <trkpt lat="42.83145" lon="0.10235">
        <ele>2839</ele>
        <time>2014-06-07T08:19:51Z</time>
      </trkpt>
      <trkpt lat="42.83144" lon="0.10237">
        <ele>2841</ele>
        <time>2014-06-07T08:19:55Z</time>
      </trkpt>
      <trkpt lat="42.83144" lon="0.10238">
        <ele>2844</ele>
        <time>2014-06-07T08:19:59Z</time>
      </trkpt>
      <trkpt lat="42.8314" lon="0.10242">
        <ele>2845</ele>
        <time>2014-06-07T08:20:15Z</time>
      </trkpt>
      <trkpt lat="42.83139" lon="0.10242">
        <ele>2843</ele>
        <time>2014-06-07T08:20:18Z</time>
      </trkpt>
      <trkpt lat="42.83139" lon="0.10242">
        <ele>2839</ele>
        <time>2014-06-07T08:20:22Z</time>
      </trkpt>
      <trkpt lat="42.83138" lon="0.10243">
        <ele>2838</ele>
        <time>2014-06-07T08:20:38Z</time>
      </trkpt>
      <trkpt lat="42.83131" lon="0.10251">
        <ele>2841</ele>
        <time>2014-06-07T08:20:54Z</time>
      </trkpt>
      <trkpt lat="42.83124" lon="0.10255">
        <ele>2843</ele>
        <time>2014-06-07T08:21:09Z</time>
      </trkpt>
      <trkpt lat="42.83121" lon="0.10258">
        <ele>2847</ele>
        <time>2014-06-07T08:21:17Z</time>
      </trkpt>
      <trkpt lat="42.83121" lon="0.10258">
        <ele>2847</ele>
        <time>2014-06-07T08:21:18Z</time>
      </trkpt>
      <trkpt lat="42.83118" lon="0.10259">
        <ele>2849</ele>
        <time>2014-06-07T08:21:23Z</time>
      </trkpt>
      <trkpt lat="42.83115" lon="0.10262">
        <ele>2852</ele>
        <time>2014-06-07T08:21:31Z</time>
      </trkpt>
      <trkpt lat="42.83111" lon="0.10266">
        <ele>2849</ele>
        <time>2014-06-07T08:21:40Z</time>
      </trkpt>
      <trkpt lat="42.83105" lon="0.10269">
        <ele>2851</ele>
        <time>2014-06-07T08:21:47Z</time>
      </trkpt>
      <trkpt lat="42.83104" lon="0.1027">
        <ele>2851</ele>
        <time>2014-06-07T08:21:49Z</time>
      </trkpt>
      <trkpt lat="42.83095" lon="0.1028">
        <ele>2852</ele>
        <time>2014-06-07T08:22:06Z</time>
      </trkpt>
      <trkpt lat="42.83093" lon="0.10281">
        <ele>2854</ele>
        <time>2014-06-07T08:22:09Z</time>
      </trkpt>
      <trkpt lat="42.83086" lon="0.10287">
        <ele>2851</ele>
        <time>2014-06-07T08:22:27Z</time>
      </trkpt>
      <trkpt lat="42.83078" lon="0.10293">
        <ele>2853</ele>
        <time>2014-06-07T08:22:43Z</time>
      </trkpt>
      <trkpt lat="42.83075" lon="0.10294">
        <ele>2856</ele>
        <time>2014-06-07T08:22:56Z</time>
      </trkpt>
      <trkpt lat="42.83074" lon="0.10295">
        <ele>2860</ele>
        <time>2014-06-07T08:23:00Z</time>
      </trkpt>
      <trkpt lat="42.83074" lon="0.10296">
        <ele>2860</ele>
        <time>2014-06-07T08:23:02Z</time>
      </trkpt>
      <trkpt lat="42.83073" lon="0.10301">
        <ele>2860</ele>
        <time>2014-06-07T08:23:12Z</time>
      </trkpt>
      <trkpt lat="42.83069" lon="0.10304">
        <ele>2861</ele>
        <time>2014-06-07T08:23:25Z</time>
      </trkpt>
      <trkpt lat="42.83066" lon="0.10306">
        <ele>2862</ele>
        <time>2014-06-07T08:23:36Z</time>
      </trkpt>
      <trkpt lat="42.83062" lon="0.10304">
        <ele>2863</ele>
        <time>2014-06-07T08:23:57Z</time>
      </trkpt>
      <trkpt lat="42.83058" lon="0.10308">
        <ele>2863</ele>
        <time>2014-06-07T08:24:09Z</time>
      </trkpt>
      <trkpt lat="42.83054" lon="0.10312">
        <ele>2863</ele>
        <time>2014-06-07T08:24:17Z</time>
      </trkpt>
      <trkpt lat="42.83052" lon="0.10315">
        <ele>2867</ele>
        <time>2014-06-07T08:24:25Z</time>
      </trkpt>
      <trkpt lat="42.83052" lon="0.10318">
        <ele>2868</ele>
        <time>2014-06-07T08:24:39Z</time>
      </trkpt>
      <trkpt lat="42.83048" lon="0.10319">
        <ele>2868</ele>
        <time>2014-06-07T08:24:56Z</time>
      </trkpt>
      <trkpt lat="42.83043" lon="0.10322">
        <ele>2870</ele>
        <time>2014-06-07T08:25:08Z</time>
      </trkpt>
      <trkpt lat="42.83037" lon="0.10324">
        <ele>2873</ele>
        <time>2014-06-07T08:25:20Z</time>
      </trkpt>
      <trkpt lat="42.83034" lon="0.10329">
        <ele>2874</ele>
        <time>2014-06-07T08:25:32Z</time>
      </trkpt>
      <trkpt lat="42.83027" lon="0.10332">
        <ele>2876</ele>
        <time>2014-06-07T08:25:46Z</time>
      </trkpt>
      <trkpt lat="42.83024" lon="0.10332">
        <ele>2876</ele>
        <time>2014-06-07T08:25:53Z</time>
      </trkpt>
      <trkpt lat="42.83022" lon="0.10334">
        <ele>2875</ele>
        <time>2014-06-07T08:25:57Z</time>
      </trkpt>
      <trkpt lat="42.83018" lon="0.10336">
        <ele>2875</ele>
        <time>2014-06-07T08:26:10Z</time>
      </trkpt>
      <trkpt lat="42.83017" lon="0.10337">
        <ele>2877</ele>
        <time>2014-06-07T08:26:12Z</time>
      </trkpt>
      <trkpt lat="42.83015" lon="0.10338">
        <ele>2880</ele>
        <time>2014-06-07T08:26:17Z</time>
      </trkpt>
      <trkpt lat="42.83016" lon="0.10338">
        <ele>2882</ele>
        <time>2014-06-07T08:26:19Z</time>
      </trkpt>
      <trkpt lat="42.83014" lon="0.10339">
        <ele>2883</ele>
        <time>2014-06-07T08:26:24Z</time>
      </trkpt>
      <trkpt lat="42.83012" lon="0.1034">
        <ele>2881</ele>
        <time>2014-06-07T08:26:27Z</time>
      </trkpt>
      <trkpt lat="42.83009" lon="0.10343">
        <ele>2885</ele>
        <time>2014-06-07T08:26:35Z</time>
      </trkpt>
      <trkpt lat="42.83009" lon="0.10344">
        <ele>2885</ele>
        <time>2014-06-07T08:26:36Z</time>
      </trkpt>
      <trkpt lat="42.83006" lon="0.10346">
        <ele>2886</ele>
        <time>2014-06-07T08:26:41Z</time>
      </trkpt>
      <trkpt lat="42.83002" lon="0.10349">
        <ele>2890</ele>
        <time>2014-06-07T08:26:52Z</time>
      </trkpt>
      <trkpt lat="42.83002" lon="0.10349">
        <ele>2889</ele>
        <time>2014-06-07T08:26:53Z</time>
      </trkpt>
      <trkpt lat="42.82999" lon="0.10354">
        <ele>2893</ele>
        <time>2014-06-07T08:27:02Z</time>
      </trkpt>
      <trkpt lat="42.82997" lon="0.10356">
        <ele>2896</ele>
        <time>2014-06-07T08:27:06Z</time>
      </trkpt>
      <trkpt lat="42.82995" lon="0.10356">
        <ele>2898</ele>
        <time>2014-06-07T08:27:09Z</time>
      </trkpt>
      <trkpt lat="42.82992" lon="0.10358">
        <ele>2894</ele>
        <time>2014-06-07T08:27:14Z</time>
      </trkpt>
      <trkpt lat="42.8299" lon="0.10362">
        <ele>2895</ele>
        <time>2014-06-07T08:27:21Z</time>
      </trkpt>
      <trkpt lat="42.82985" lon="0.10369">
        <ele>2897</ele>
        <time>2014-06-07T08:27:33Z</time>
      </trkpt>
      <trkpt lat="42.82978" lon="0.10377">
        <ele>2901</ele>
        <time>2014-06-07T08:27:49Z</time>
      </trkpt>
      <trkpt lat="42.82978" lon="0.10377">
        <ele>2901</ele>
        <time>2014-06-07T08:27:50Z</time>
      </trkpt>
      <trkpt lat="42.82974" lon="0.10378">
        <ele>2901</ele>
        <time>2014-06-07T08:28:04Z</time>
      </trkpt>
      <trkpt lat="42.82974" lon="0.10378">
        <ele>2898</ele>
        <time>2014-06-07T08:28:09Z</time>
      </trkpt>
      <trkpt lat="42.82974" lon="0.10379">
        <ele>2898</ele>
        <time>2014-06-07T08:28:10Z</time>
      </trkpt>
      <trkpt lat="42.82972" lon="0.1038">
        <ele>2894</ele>
        <time>2014-06-07T08:28:16Z</time>
      </trkpt>
      <trkpt lat="42.82973" lon="0.1038">
        <ele>2892</ele>
        <time>2014-06-07T08:28:19Z</time>
      </trkpt>
      <trkpt lat="42.82972" lon="0.10379">
        <ele>2897</ele>
        <time>2014-06-07T08:28:24Z</time>
      </trkpt>
      <trkpt lat="42.82971" lon="0.10379">
        <ele>2900</ele>
        <time>2014-06-07T08:28:30Z</time>
      </trkpt>
      <trkpt lat="42.82971" lon="0.10379">
        <ele>2904</ele>
        <time>2014-06-07T08:28:32Z</time>
      </trkpt>
      <trkpt lat="42.82972" lon="0.10379">
        <ele>2909</ele>
        <time>2014-06-07T08:28:36Z</time>
      </trkpt>
      <trkpt lat="42.82973" lon="0.1038">
        <ele>2911</ele>
        <time>2014-06-07T08:28:38Z</time>
      </trkpt>
      <trkpt lat="42.82973" lon="0.1038">
        <ele>2907</ele>
        <time>2014-06-07T08:28:40Z</time>
      </trkpt>
      <trkpt lat="42.82973" lon="0.1038">
        <ele>2905</ele>
        <time>2014-06-07T08:28:42Z</time>
      </trkpt>
      <trkpt lat="42.82974" lon="0.10379">
        <ele>2906</ele>
        <time>2014-06-07T08:28:46Z</time>
      </trkpt>
      <trkpt lat="42.82974" lon="0.1038">
        <ele>2902</ele>
        <time>2014-06-07T08:28:52Z</time>
      </trkpt>
      <trkpt lat="42.82974" lon="0.10379">
        <ele>2899</ele>
        <time>2014-06-07T08:28:57Z</time>
      </trkpt>
      <trkpt lat="42.82974" lon="0.10379">
        <ele>2905</ele>
        <time>2014-06-07T08:28:58Z</time>
      </trkpt>
      <trkpt lat="42.82974" lon="0.10379">
        <ele>2910</ele>
        <time>2014-06-07T08:29:00Z</time>
      </trkpt>
      <trkpt lat="42.82973" lon="0.10379">
        <ele>2907</ele>
        <time>2014-06-07T08:29:03Z</time>
      </trkpt>
      <trkpt lat="42.82973" lon="0.1038">
        <ele>2911</ele>
        <time>2014-06-07T08:29:06Z</time>
      </trkpt>
      <trkpt lat="42.82973" lon="0.1038">
        <ele>2908</ele>
        <time>2014-06-07T08:29:14Z</time>
      </trkpt>
      <trkpt lat="42.82973" lon="0.1038">
        <ele>2911</ele>
        <time>2014-06-07T08:29:16Z</time>
      </trkpt>
      <trkpt lat="42.82973" lon="0.1038">
        <ele>2913</ele>
        <time>2014-06-07T08:29:18Z</time>
      </trkpt>
      <trkpt lat="42.82974" lon="0.1038">
        <ele>2908</ele>
        <time>2014-06-07T08:29:19Z</time>
      </trkpt>
      <trkpt lat="42.82974" lon="0.1038">
        <ele>2913</ele>
        <time>2014-06-07T08:29:23Z</time>
      </trkpt>
      <trkpt lat="42.82974" lon="0.1038">
        <ele>2918</ele>
        <time>2014-06-07T08:29:24Z</time>
      </trkpt>
      <trkpt lat="42.82974" lon="0.1038">
        <ele>2917</ele>
        <time>2014-06-07T08:29:25Z</time>
      </trkpt>
      <trkpt lat="42.82973" lon="0.1038">
        <ele>2909</ele>
        <time>2014-06-07T08:29:29Z</time>
      </trkpt>
      <trkpt lat="42.82972" lon="0.1038">
        <ele>2917</ele>
        <time>2014-06-07T08:29:31Z</time>
      </trkpt>
      <trkpt lat="42.82972" lon="0.1038">
        <ele>2914</ele>
        <time>2014-06-07T08:29:32Z</time>
      </trkpt>
      <trkpt lat="42.8297" lon="0.10381">
        <ele>2909</ele>
        <time>2014-06-07T08:29:34Z</time>
      </trkpt>
      <trkpt lat="42.8297" lon="0.10382">
        <ele>2912</ele>
        <time>2014-06-07T08:29:35Z</time>
      </trkpt>
      <trkpt lat="42.82967" lon="0.10386">
        <ele>2908</ele>
        <time>2014-06-07T08:29:41Z</time>
      </trkpt>
      <trkpt lat="42.82967" lon="0.10386">
        <ele>2909</ele>
        <time>2014-06-07T08:29:42Z</time>
      </trkpt>
      <trkpt lat="42.82964" lon="0.10389">
        <ele>2914</ele>
        <time>2014-06-07T08:29:47Z</time>
      </trkpt>
      <trkpt lat="42.82964" lon="0.1039">
        <ele>2911</ele>
        <time>2014-06-07T08:29:48Z</time>
      </trkpt>
      <trkpt lat="42.82963" lon="0.10391">
        <ele>2907</ele>
        <time>2014-06-07T08:29:50Z</time>
      </trkpt>
      <trkpt lat="42.82961" lon="0.10393">
        <ele>2903</ele>
        <time>2014-06-07T08:29:54Z</time>
      </trkpt>
      <trkpt lat="42.8296" lon="0.10394">
        <ele>2903</ele>
        <time>2014-06-07T08:29:55Z</time>
      </trkpt>
      <trkpt lat="42.82957" lon="0.10399">
        <ele>2910</ele>
        <time>2014-06-07T08:30:03Z</time>
      </trkpt>
      <trkpt lat="42.82955" lon="0.10405">
        <ele>2906</ele>
        <time>2014-06-07T08:30:09Z</time>
      </trkpt>
      <trkpt lat="42.82952" lon="0.10416">
        <ele>2909</ele>
        <time>2014-06-07T08:30:19Z</time>
      </trkpt>
      <trkpt lat="42.82952" lon="0.10418">
        <ele>2911</ele>
        <time>2014-06-07T08:30:21Z</time>
      </trkpt>
      <trkpt lat="42.82952" lon="0.10421">
        <ele>2913</ele>
        <time>2014-06-07T08:30:24Z</time>
      </trkpt>
      <trkpt lat="42.82951" lon="0.10423">
        <ele>2911</ele>
        <time>2014-06-07T08:30:28Z</time>
      </trkpt>
      <trkpt lat="42.82951" lon="0.10426">
        <ele>2907</ele>
        <time>2014-06-07T08:30:31Z</time>
      </trkpt>
      <trkpt lat="42.8295" lon="0.10429">
        <ele>2904</ele>
        <time>2014-06-07T08:30:34Z</time>
      </trkpt>
      <trkpt lat="42.8295" lon="0.10429">
        <ele>2902</ele>
        <time>2014-06-07T08:30:36Z</time>
      </trkpt>
      <trkpt lat="42.8295" lon="0.10429">
        <ele>2907</ele>
        <time>2014-06-07T08:30:39Z</time>
      </trkpt>
      <trkpt lat="42.82949" lon="0.1043">
        <ele>2903</ele>
        <time>2014-06-07T08:30:42Z</time>
      </trkpt>
      <trkpt lat="42.82949" lon="0.1043">
        <ele>2904</ele>
        <time>2014-06-07T08:30:43Z</time>
      </trkpt>
      <trkpt lat="42.8295" lon="0.10437">
        <ele>2904</ele>
        <time>2014-06-07T08:30:51Z</time>
      </trkpt>
      <trkpt lat="42.82952" lon="0.10454">
        <ele>2902</ele>
        <time>2014-06-07T08:31:10Z</time>
      </trkpt>
      <trkpt lat="42.82952" lon="0.10456">
        <ele>2903</ele>
        <time>2014-06-07T08:31:11Z</time>
      </trkpt>
      <trkpt lat="42.82954" lon="0.10469">
        <ele>2905</ele>
        <time>2014-06-07T08:31:29Z</time>
      </trkpt>
      <trkpt lat="42.82957" lon="0.10475">
        <ele>2909</ele>
        <time>2014-06-07T08:31:36Z</time>
      </trkpt>
      <trkpt lat="42.82957" lon="0.10482">
        <ele>2911</ele>
        <time>2014-06-07T08:31:46Z</time>
      </trkpt>
      <trkpt lat="42.82959" lon="0.10487">
        <ele>2912</ele>
        <time>2014-06-07T08:31:56Z</time>
      </trkpt>
      <trkpt lat="42.82961" lon="0.10488">
        <ele>2912</ele>
        <time>2014-06-07T08:32:13Z</time>
      </trkpt>
      <trkpt lat="42.82961" lon="0.10488">
        <ele>2912</ele>
        <time>2014-06-07T08:32:16Z</time>
      </trkpt>
      <trkpt lat="42.82956" lon="0.10484">
        <ele>2915</ele>
        <time>2014-06-07T08:32:28Z</time>
      </trkpt>
      <trkpt lat="42.82954" lon="0.10483">
        <ele>2918</ele>
        <time>2014-06-07T08:32:31Z</time>
      </trkpt>
      <trkpt lat="42.8295" lon="0.10482">
        <ele>2917</ele>
        <time>2014-06-07T08:32:47Z</time>
      </trkpt>
      <trkpt lat="42.8295" lon="0.10481">
        <ele>2921</ele>
        <time>2014-06-07T08:32:51Z</time>
      </trkpt>
      <trkpt lat="42.8295" lon="0.10483">
        <ele>2919</ele>
        <time>2014-06-07T08:32:56Z</time>
      </trkpt>
      <trkpt lat="42.8295" lon="0.10486">
        <ele>2922</ele>
        <time>2014-06-07T08:33:00Z</time>
      </trkpt>
      <trkpt lat="42.8295" lon="0.10488">
        <ele>2920</ele>
        <time>2014-06-07T08:33:03Z</time>
      </trkpt>
      <trkpt lat="42.82952" lon="0.10491">
        <ele>2919</ele>
        <time>2014-06-07T08:33:08Z</time>
      </trkpt>
      <trkpt lat="42.82953" lon="0.10495">
        <ele>2917</ele>
        <time>2014-06-07T08:33:16Z</time>
      </trkpt>
      <trkpt lat="42.82954" lon="0.10497">
        <ele>2920</ele>
        <time>2014-06-07T08:33:19Z</time>
      </trkpt>
      <trkpt lat="42.82957" lon="0.10507">
        <ele>2919</ele>
        <time>2014-06-07T08:33:34Z</time>
      </trkpt>
      <trkpt lat="42.82959" lon="0.10519">
        <ele>2920</ele>
        <time>2014-06-07T08:33:50Z</time>
      </trkpt>
      <trkpt lat="42.82961" lon="0.10526">
        <ele>2923</ele>
        <time>2014-06-07T08:33:59Z</time>
      </trkpt>
      <trkpt lat="42.82962" lon="0.10529">
        <ele>2923</ele>
        <time>2014-06-07T08:34:05Z</time>
      </trkpt>
      <trkpt lat="42.82963" lon="0.1053">
        <ele>2922</ele>
        <time>2014-06-07T08:34:07Z</time>
      </trkpt>
      <trkpt lat="42.82964" lon="0.10534">
        <ele>2924</ele>
        <time>2014-06-07T08:34:21Z</time>
      </trkpt>
      <trkpt lat="42.82966" lon="0.10534">
        <ele>2923</ele>
        <time>2014-06-07T08:34:33Z</time>
      </trkpt>
      <trkpt lat="42.82963" lon="0.10533">
        <ele>2924</ele>
        <time>2014-06-07T08:34:40Z</time>
      </trkpt>
      <trkpt lat="42.82955" lon="0.10529">
        <ele>2926</ele>
        <time>2014-06-07T08:34:54Z</time>
      </trkpt>
      <trkpt lat="42.8295" lon="0.10525">
        <ele>2929</ele>
        <time>2014-06-07T08:35:08Z</time>
      </trkpt>
      <trkpt lat="42.82942" lon="0.1052">
        <ele>2932</ele>
        <time>2014-06-07T08:35:22Z</time>
      </trkpt>
      <trkpt lat="42.82941" lon="0.10522">
        <ele>2934</ele>
        <time>2014-06-07T08:35:42Z</time>
      </trkpt>
      <trkpt lat="42.82941" lon="0.10522">
        <ele>2936</ele>
        <time>2014-06-07T08:35:54Z</time>
      </trkpt>
      <trkpt lat="42.8294" lon="0.10523">
        <ele>2934</ele>
        <time>2014-06-07T08:35:58Z</time>
      </trkpt>
      <trkpt lat="42.8294" lon="0.10523">
        <ele>2936</ele>
        <time>2014-06-07T08:36:01Z</time>
      </trkpt>
      <trkpt lat="42.82939" lon="0.10524">
        <ele>2939</ele>
        <time>2014-06-07T08:36:14Z</time>
      </trkpt>
      <trkpt lat="42.82939" lon="0.10524">
        <ele>2939</ele>
        <time>2014-06-07T08:36:15Z</time>
      </trkpt>
      <trkpt lat="42.82939" lon="0.10524">
        <ele>2936</ele>
        <time>2014-06-07T08:36:17Z</time>
      </trkpt>
      <trkpt lat="42.8294" lon="0.10523">
        <ele>2933</ele>
        <time>2014-06-07T08:36:21Z</time>
      </trkpt>
      <trkpt lat="42.8294" lon="0.10523">
        <ele>2935</ele>
        <time>2014-06-07T08:36:24Z</time>
      </trkpt>
      <trkpt lat="42.8294" lon="0.10521">
        <ele>2935</ele>
        <time>2014-06-07T08:36:37Z</time>
      </trkpt>
      <trkpt lat="42.8294" lon="0.1052">
        <ele>2935</ele>
        <time>2014-06-07T08:37:02Z</time>
      </trkpt>
      <trkpt lat="42.82939" lon="0.10519">
        <ele>2934</ele>
        <time>2014-06-07T08:37:04Z</time>
      </trkpt>
      <trkpt lat="42.82939" lon="0.10523">
        <ele>2931</ele>
        <time>2014-06-07T08:37:27Z</time>
      </trkpt>
      <trkpt lat="42.82941" lon="0.10522">
        <ele>2933</ele>
        <time>2014-06-07T08:37:35Z</time>
      </trkpt>
      <trkpt lat="42.82942" lon="0.10522">
        <ele>2930</ele>
        <time>2014-06-07T08:37:50Z</time>
      </trkpt>
      <trkpt lat="42.82941" lon="0.10523">
        <ele>2927</ele>
        <time>2014-06-07T08:38:08Z</time>
      </trkpt>
      <trkpt lat="42.82942" lon="0.10523">
        <ele>2929</ele>
        <time>2014-06-07T08:38:12Z</time>
      </trkpt>
      <trkpt lat="42.82944" lon="0.10529">
        <ele>2931</ele>
        <time>2014-06-07T08:38:21Z</time>
      </trkpt>
      <trkpt lat="42.82944" lon="0.10531">
        <ele>2932</ele>
        <time>2014-06-07T08:38:24Z</time>
      </trkpt>
      <trkpt lat="42.82944" lon="0.10535">
        <ele>2934</ele>
        <time>2014-06-07T08:38:43Z</time>
      </trkpt>
      <trkpt lat="42.82942" lon="0.10545">
        <ele>2938</ele>
        <time>2014-06-07T08:38:53Z</time>
      </trkpt>
      <trkpt lat="42.82943" lon="0.10547">
        <ele>2937</ele>
        <time>2014-06-07T08:38:56Z</time>
      </trkpt>
      <trkpt lat="42.82942" lon="0.1055">
        <ele>2937</ele>
        <time>2014-06-07T08:39:02Z</time>
      </trkpt>
      <trkpt lat="42.82944" lon="0.10554">
        <ele>2941</ele>
        <time>2014-06-07T08:39:09Z</time>
      </trkpt>
      <trkpt lat="42.82945" lon="0.10556">
        <ele>2942</ele>
        <time>2014-06-07T08:39:11Z</time>
      </trkpt>
      <trkpt lat="42.82946" lon="0.10556">
        <ele>2941</ele>
        <time>2014-06-07T08:39:25Z</time>
      </trkpt>
      <trkpt lat="42.82944" lon="0.10556">
        <ele>2945</ele>
        <time>2014-06-07T08:39:30Z</time>
      </trkpt>
      <trkpt lat="42.82943" lon="0.10556">
        <ele>2945</ele>
        <time>2014-06-07T08:39:31Z</time>
      </trkpt>
      <trkpt lat="42.82937" lon="0.10554">
        <ele>2948</ele>
        <time>2014-06-07T08:39:43Z</time>
      </trkpt>
      <trkpt lat="42.82931" lon="0.10555">
        <ele>2950</ele>
        <time>2014-06-07T08:39:56Z</time>
      </trkpt>
      <trkpt lat="42.82931" lon="0.10557">
        <ele>2950</ele>
        <time>2014-06-07T08:39:58Z</time>
      </trkpt>
      <trkpt lat="42.82931" lon="0.1056">
        <ele>2952</ele>
        <time>2014-06-07T08:40:00Z</time>
      </trkpt>
      <trkpt lat="42.82933" lon="0.10569">
        <ele>2950</ele>
        <time>2014-06-07T08:40:13Z</time>
      </trkpt>
      <trkpt lat="42.82934" lon="0.10574">
        <ele>2953</ele>
        <time>2014-06-07T08:40:23Z</time>
      </trkpt>
      <trkpt lat="42.82934" lon="0.10574">
        <ele>2954</ele>
        <time>2014-06-07T08:40:25Z</time>
      </trkpt>
      <trkpt lat="42.82933" lon="0.10575">
        <ele>2952</ele>
        <time>2014-06-07T08:40:30Z</time>
      </trkpt>
      <trkpt lat="42.8293" lon="0.10577">
        <ele>2956</ele>
        <time>2014-06-07T08:40:36Z</time>
      </trkpt>
      <trkpt lat="42.8293" lon="0.10578">
        <ele>2955</ele>
        <time>2014-06-07T08:40:37Z</time>
      </trkpt>
      <trkpt lat="42.82928" lon="0.1058">
        <ele>2953</ele>
        <time>2014-06-07T08:40:40Z</time>
      </trkpt>
      <trkpt lat="42.82924" lon="0.10582">
        <ele>2954</ele>
        <time>2014-06-07T08:40:49Z</time>
      </trkpt>
      <trkpt lat="42.82921" lon="0.10583">
        <ele>2957</ele>
        <time>2014-06-07T08:40:55Z</time>
      </trkpt>
      <trkpt lat="42.82914" lon="0.10589">
        <ele>2955</ele>
        <time>2014-06-07T08:41:13Z</time>
      </trkpt>
      <trkpt lat="42.82912" lon="0.10592">
        <ele>2959</ele>
        <time>2014-06-07T08:41:18Z</time>
      </trkpt>
      <trkpt lat="42.82912" lon="0.10592">
        <ele>2959</ele>
        <time>2014-06-07T08:41:19Z</time>
      </trkpt>
      <trkpt lat="42.82911" lon="0.10594">
        <ele>2961</ele>
        <time>2014-06-07T08:41:23Z</time>
      </trkpt>
      <trkpt lat="42.82908" lon="0.10602">
        <ele>2959</ele>
        <time>2014-06-07T08:41:37Z</time>
      </trkpt>
      <trkpt lat="42.82908" lon="0.10602">
        <ele>2958</ele>
        <time>2014-06-07T08:41:38Z</time>
      </trkpt>
      <trkpt lat="42.82906" lon="0.10606">
        <ele>2961</ele>
        <time>2014-06-07T08:41:44Z</time>
      </trkpt>
      <trkpt lat="42.82904" lon="0.1061">
        <ele>2962</ele>
        <time>2014-06-07T08:41:52Z</time>
      </trkpt>
      <trkpt lat="42.82902" lon="0.10614">
        <ele>2967</ele>
        <time>2014-06-07T08:41:59Z</time>
      </trkpt>
      <trkpt lat="42.82901" lon="0.10614">
        <ele>2966</ele>
        <time>2014-06-07T08:42:00Z</time>
      </trkpt>
      <trkpt lat="42.82899" lon="0.10617">
        <ele>2966</ele>
        <time>2014-06-07T08:42:04Z</time>
      </trkpt>
      <trkpt lat="42.82895" lon="0.10622">
        <ele>2969</ele>
        <time>2014-06-07T08:42:13Z</time>
      </trkpt>
      <trkpt lat="42.82894" lon="0.10623">
        <ele>2969</ele>
        <time>2014-06-07T08:42:14Z</time>
      </trkpt>
      <trkpt lat="42.82893" lon="0.10625">
        <ele>2970</ele>
        <time>2014-06-07T08:42:17Z</time>
      </trkpt>
      <trkpt lat="42.82893" lon="0.10626">
        <ele>2972</ele>
        <time>2014-06-07T08:42:20Z</time>
      </trkpt>
      <trkpt lat="42.82892" lon="0.10627">
        <ele>2970</ele>
        <time>2014-06-07T08:42:22Z</time>
      </trkpt>
      <trkpt lat="42.82892" lon="0.10628">
        <ele>2974</ele>
        <time>2014-06-07T08:42:24Z</time>
      </trkpt>
      <trkpt lat="42.82891" lon="0.10628">
        <ele>2974</ele>
        <time>2014-06-07T08:42:25Z</time>
      </trkpt>
      <trkpt lat="42.8289" lon="0.10629">
        <ele>2971</ele>
        <time>2014-06-07T08:42:31Z</time>
      </trkpt>
      <trkpt lat="42.82888" lon="0.10634">
        <ele>2975</ele>
        <time>2014-06-07T08:42:37Z</time>
      </trkpt>
      <trkpt lat="42.82887" lon="0.10635">
        <ele>2973</ele>
        <time>2014-06-07T08:42:38Z</time>
      </trkpt>
      <trkpt lat="42.82887" lon="0.10637">
        <ele>2972</ele>
        <time>2014-06-07T08:42:40Z</time>
      </trkpt>
      <trkpt lat="42.82887" lon="0.10639">
        <ele>2970</ele>
        <time>2014-06-07T08:42:43Z</time>
      </trkpt>
      <trkpt lat="42.82888" lon="0.10647">
        <ele>2973</ele>
        <time>2014-06-07T08:42:52Z</time>
      </trkpt>
      <trkpt lat="42.82888" lon="0.10647">
        <ele>2973</ele>
        <time>2014-06-07T08:42:53Z</time>
      </trkpt>
      <trkpt lat="42.82888" lon="0.10652">
        <ele>2977</ele>
        <time>2014-06-07T08:43:02Z</time>
      </trkpt>
      <trkpt lat="42.82888" lon="0.10654">
        <ele>2973</ele>
        <time>2014-06-07T08:43:04Z</time>
      </trkpt>
      <trkpt lat="42.82889" lon="0.10655">
        <ele>2972</ele>
        <time>2014-06-07T08:43:06Z</time>
      </trkpt>
      <trkpt lat="42.82889" lon="0.10662">
        <ele>2975</ele>
        <time>2014-06-07T08:43:16Z</time>
      </trkpt>
      <trkpt lat="42.82891" lon="0.10667">
        <ele>2974</ele>
        <time>2014-06-07T08:43:22Z</time>
      </trkpt>
      <trkpt lat="42.82891" lon="0.10673">
        <ele>2977</ele>
        <time>2014-06-07T08:43:30Z</time>
      </trkpt>
      <trkpt lat="42.82892" lon="0.10674">
        <ele>2978</ele>
        <time>2014-06-07T08:43:32Z</time>
      </trkpt>
      <trkpt lat="42.82892" lon="0.10679">
        <ele>2981</ele>
        <time>2014-06-07T08:43:39Z</time>
      </trkpt>
      <trkpt lat="42.8289" lon="0.1068">
        <ele>2985</ele>
        <time>2014-06-07T08:43:45Z</time>
      </trkpt>
      <trkpt lat="42.82886" lon="0.1068">
        <ele>2988</ele>
        <time>2014-06-07T08:43:49Z</time>
      </trkpt>
      <trkpt lat="42.82884" lon="0.10681">
        <ele>2985</ele>
        <time>2014-06-07T08:43:53Z</time>
      </trkpt>
      <trkpt lat="42.82882" lon="0.10682">
        <ele>2984</ele>
        <time>2014-06-07T08:44:01Z</time>
      </trkpt>
      <trkpt lat="42.82871" lon="0.10685">
        <ele>2985</ele>
        <time>2014-06-07T08:44:18Z</time>
      </trkpt>
      <trkpt lat="42.82869" lon="0.10687">
        <ele>2989</ele>
        <time>2014-06-07T08:44:25Z</time>
      </trkpt>
      <trkpt lat="42.82869" lon="0.10687">
        <ele>2988</ele>
        <time>2014-06-07T08:44:26Z</time>
      </trkpt>
      <trkpt lat="42.82861" lon="0.1069">
        <ele>2988</ele>
        <time>2014-06-07T08:44:43Z</time>
      </trkpt>
      <trkpt lat="42.82856" lon="0.10692">
        <ele>2990</ele>
        <time>2014-06-07T08:44:51Z</time>
      </trkpt>
      <trkpt lat="42.82854" lon="0.10692">
        <ele>2993</ele>
        <time>2014-06-07T08:44:54Z</time>
      </trkpt>
      <trkpt lat="42.82853" lon="0.10693">
        <ele>2993</ele>
        <time>2014-06-07T08:44:55Z</time>
      </trkpt>
      <trkpt lat="42.82852" lon="0.10703">
        <ele>2993</ele>
        <time>2014-06-07T08:45:09Z</time>
      </trkpt>
      <trkpt lat="42.82852" lon="0.10707">
        <ele>2992</ele>
        <time>2014-06-07T08:45:16Z</time>
      </trkpt>
      <trkpt lat="42.82854" lon="0.10717">
        <ele>2993</ele>
        <time>2014-06-07T08:45:29Z</time>
      </trkpt>
      <trkpt lat="42.82854" lon="0.10719">
        <ele>2997</ele>
        <time>2014-06-07T08:45:32Z</time>
      </trkpt>
      <trkpt lat="42.82855" lon="0.10723">
        <ele>2995</ele>
        <time>2014-06-07T08:45:37Z</time>
      </trkpt>
      <trkpt lat="42.82856" lon="0.10726">
        <ele>2998</ele>
        <time>2014-06-07T08:45:41Z</time>
      </trkpt>
      <trkpt lat="42.82857" lon="0.10738">
        <ele>2999</ele>
        <time>2014-06-07T08:45:59Z</time>
      </trkpt>
      <trkpt lat="42.82858" lon="0.1074">
        <ele>2998</ele>
        <time>2014-06-07T08:46:02Z</time>
      </trkpt>
      <trkpt lat="42.82858" lon="0.10742">
        <ele>2999</ele>
        <time>2014-06-07T08:46:04Z</time>
      </trkpt>
      <trkpt lat="42.82858" lon="0.10745">
        <ele>3001</ele>
        <time>2014-06-07T08:46:07Z</time>
      </trkpt>
      <trkpt lat="42.82857" lon="0.10751">
        <ele>3001</ele>
        <time>2014-06-07T08:46:14Z</time>
      </trkpt>
      <trkpt lat="42.82857" lon="0.10754">
        <ele>3004</ele>
        <time>2014-06-07T08:46:18Z</time>
      </trkpt>
      <trkpt lat="42.82858" lon="0.10756">
        <ele>3006</ele>
        <time>2014-06-07T08:46:21Z</time>
      </trkpt>
      <trkpt lat="42.82858" lon="0.10756">
        <ele>3001</ele>
        <time>2014-06-07T08:46:22Z</time>
      </trkpt>
      <trkpt lat="42.82857" lon="0.10759">
        <ele>2998</ele>
        <time>2014-06-07T08:46:26Z</time>
      </trkpt>
      <trkpt lat="42.82857" lon="0.10759">
        <ele>2998</ele>
        <time>2014-06-07T08:46:27Z</time>
      </trkpt>
      <trkpt lat="42.82857" lon="0.10763">
        <ele>3002</ele>
        <time>2014-06-07T08:46:33Z</time>
      </trkpt>
      <trkpt lat="42.82857" lon="0.10763">
        <ele>3002</ele>
        <time>2014-06-07T08:46:34Z</time>
      </trkpt>
      <trkpt lat="42.82856" lon="0.10763">
        <ele>3006</ele>
        <time>2014-06-07T08:46:36Z</time>
      </trkpt>
      <trkpt lat="42.82856" lon="0.10763">
        <ele>3005</ele>
        <time>2014-06-07T08:46:37Z</time>
      </trkpt>
      <trkpt lat="42.82854" lon="0.10764">
        <ele>3009</ele>
        <time>2014-06-07T08:46:40Z</time>
      </trkpt>
      <trkpt lat="42.82852" lon="0.10763">
        <ele>3012</ele>
        <time>2014-06-07T08:46:42Z</time>
      </trkpt>
      <trkpt lat="42.82847" lon="0.10763">
        <ele>3007</ele>
        <time>2014-06-07T08:46:48Z</time>
      </trkpt>
      <trkpt lat="42.82846" lon="0.10762">
        <ele>3007</ele>
        <time>2014-06-07T08:46:50Z</time>
      </trkpt>
      <trkpt lat="42.82844" lon="0.10759">
        <ele>3012</ele>
        <time>2014-06-07T08:46:54Z</time>
      </trkpt>
      <trkpt lat="42.82843" lon="0.10758">
        <ele>3009</ele>
        <time>2014-06-07T08:46:55Z</time>
      </trkpt>
      <trkpt lat="42.82842" lon="0.10756">
        <ele>3005</ele>
        <time>2014-06-07T08:46:57Z</time>
      </trkpt>
      <trkpt lat="42.82841" lon="0.10754">
        <ele>3004</ele>
        <time>2014-06-07T08:46:59Z</time>
      </trkpt>
      <trkpt lat="42.8284" lon="0.10751">
        <ele>2999</ele>
        <time>2014-06-07T08:47:01Z</time>
      </trkpt>
      <trkpt lat="42.82839" lon="0.10749">
        <ele>2998</ele>
        <time>2014-06-07T08:47:03Z</time>
      </trkpt>
      <trkpt lat="42.82836" lon="0.10744">
        <ele>3000</ele>
        <time>2014-06-07T08:47:07Z</time>
      </trkpt>
      <trkpt lat="42.82831" lon="0.10739">
        <ele>2998</ele>
        <time>2014-06-07T08:47:16Z</time>
      </trkpt>
      <trkpt lat="42.82825" lon="0.10736">
        <ele>3002</ele>
        <time>2014-06-07T08:47:24Z</time>
      </trkpt>
      <trkpt lat="42.82821" lon="0.10735">
        <ele>3005</ele>
        <time>2014-06-07T08:47:33Z</time>
      </trkpt>
      <trkpt lat="42.82818" lon="0.10735">
        <ele>3008</ele>
        <time>2014-06-07T08:47:47Z</time>
      </trkpt>
      <trkpt lat="42.82816" lon="0.10734">
        <ele>3009</ele>
        <time>2014-06-07T08:47:50Z</time>
      </trkpt>
      <trkpt lat="42.82812" lon="0.10729">
        <ele>3010</ele>
        <time>2014-06-07T08:48:02Z</time>
      </trkpt>
      <trkpt lat="42.82809" lon="0.10724">
        <ele>3013</ele>
        <time>2014-06-07T08:48:13Z</time>
      </trkpt>
      <trkpt lat="42.82802" lon="0.10722">
        <ele>3015</ele>
        <time>2014-06-07T08:48:25Z</time>
      </trkpt>
      <trkpt lat="42.82799" lon="0.10721">
        <ele>3011</ele>
        <time>2014-06-07T08:48:28Z</time>
      </trkpt>
      <trkpt lat="42.82798" lon="0.10721">
        <ele>3011</ele>
        <time>2014-06-07T08:48:34Z</time>
      </trkpt>
      <trkpt lat="42.82798" lon="0.10721">
        <ele>3013</ele>
        <time>2014-06-07T08:48:38Z</time>
      </trkpt>
      <trkpt lat="42.82798" lon="0.10722">
        <ele>3017</ele>
        <time>2014-06-07T08:48:40Z</time>
      </trkpt>
      <trkpt lat="42.82798" lon="0.10722">
        <ele>3015</ele>
        <time>2014-06-07T08:48:41Z</time>
      </trkpt>
      <trkpt lat="42.82798" lon="0.10722">
        <ele>3012</ele>
        <time>2014-06-07T08:48:44Z</time>
      </trkpt>
      <trkpt lat="42.82798" lon="0.10722">
        <ele>3018</ele>
        <time>2014-06-07T08:48:46Z</time>
      </trkpt>
      <trkpt lat="42.82798" lon="0.10723">
        <ele>3017</ele>
        <time>2014-06-07T08:48:47Z</time>
      </trkpt>
      <trkpt lat="42.82798" lon="0.10723">
        <ele>3012</ele>
        <time>2014-06-07T08:48:50Z</time>
      </trkpt>
      <trkpt lat="42.82797" lon="0.10723">
        <ele>3012</ele>
        <time>2014-06-07T08:48:51Z</time>
      </trkpt>
      <trkpt lat="42.82797" lon="0.10722">
        <ele>3016</ele>
        <time>2014-06-07T08:49:02Z</time>
      </trkpt>
      <trkpt lat="42.82797" lon="0.10722">
        <ele>3012</ele>
        <time>2014-06-07T08:49:04Z</time>
      </trkpt>
      <trkpt lat="42.82797" lon="0.10722">
        <ele>3013</ele>
        <time>2014-06-07T08:49:05Z</time>
      </trkpt>
      <trkpt lat="42.82799" lon="0.10726">
        <ele>3015</ele>
        <time>2014-06-07T08:49:13Z</time>
      </trkpt>
      <trkpt lat="42.82801" lon="0.10729">
        <ele>3012</ele>
        <time>2014-06-07T08:49:20Z</time>
      </trkpt>
      <trkpt lat="42.82803" lon="0.10733">
        <ele>3011</ele>
        <time>2014-06-07T08:49:41Z</time>
      </trkpt>
      <trkpt lat="42.828" lon="0.10736">
        <ele>3015</ele>
        <time>2014-06-07T08:49:55Z</time>
      </trkpt>
      <trkpt lat="42.828" lon="0.10737">
        <ele>3014</ele>
        <time>2014-06-07T08:49:56Z</time>
      </trkpt>
      <trkpt lat="42.828" lon="0.10742">
        <ele>3015</ele>
        <time>2014-06-07T08:50:11Z</time>
      </trkpt>
      <trkpt lat="42.828" lon="0.10744">
        <ele>3016</ele>
        <time>2014-06-07T08:50:29Z</time>
      </trkpt>
      <trkpt lat="42.82799" lon="0.10749">
        <ele>3019</ele>
        <time>2014-06-07T08:50:43Z</time>
      </trkpt>
      <trkpt lat="42.82799" lon="0.10749">
        <ele>3019</ele>
        <time>2014-06-07T08:50:44Z</time>
      </trkpt>
      <trkpt lat="42.82796" lon="0.10762">
        <ele>3021</ele>
        <time>2014-06-07T08:51:03Z</time>
      </trkpt>
      <trkpt lat="42.82796" lon="0.10765">
        <ele>3023</ele>
        <time>2014-06-07T08:51:12Z</time>
      </trkpt>
      <trkpt lat="42.82796" lon="0.10766">
        <ele>3022</ele>
        <time>2014-06-07T08:51:15Z</time>
      </trkpt>
      <trkpt lat="42.82795" lon="0.10769">
        <ele>3024</ele>
        <time>2014-06-07T08:51:19Z</time>
      </trkpt>
      <trkpt lat="42.82795" lon="0.1077">
        <ele>3028</ele>
        <time>2014-06-07T08:51:21Z</time>
      </trkpt>
      <trkpt lat="42.82796" lon="0.1077">
        <ele>3027</ele>
        <time>2014-06-07T08:51:22Z</time>
      </trkpt>
      <trkpt lat="42.82795" lon="0.10772">
        <ele>3026</ele>
        <time>2014-06-07T08:51:24Z</time>
      </trkpt>
      <trkpt lat="42.82795" lon="0.10771">
        <ele>3023</ele>
        <time>2014-06-07T08:51:34Z</time>
      </trkpt>
      <trkpt lat="42.82794" lon="0.10771">
        <ele>3027</ele>
        <time>2014-06-07T08:51:44Z</time>
      </trkpt>
      <trkpt lat="42.82795" lon="0.10771">
        <ele>3024</ele>
        <time>2014-06-07T08:51:45Z</time>
      </trkpt>
      <trkpt lat="42.82795" lon="0.10771">
        <ele>3021</ele>
        <time>2014-06-07T08:51:52Z</time>
      </trkpt>
      <trkpt lat="42.82795" lon="0.10772">
        <ele>3025</ele>
        <time>2014-06-07T08:51:57Z</time>
      </trkpt>
      <trkpt lat="42.82795" lon="0.10771">
        <ele>3025</ele>
        <time>2014-06-07T08:51:58Z</time>
      </trkpt>
      <trkpt lat="42.82796" lon="0.1077">
        <ele>3022</ele>
        <time>2014-06-07T08:52:09Z</time>
      </trkpt>
      <trkpt lat="42.82795" lon="0.10771">
        <ele>3021</ele>
        <time>2014-06-07T08:52:11Z</time>
      </trkpt>
      <trkpt lat="42.82795" lon="0.10772">
        <ele>3024</ele>
        <time>2014-06-07T08:52:18Z</time>
      </trkpt>
      <trkpt lat="42.82795" lon="0.10772">
        <ele>3025</ele>
        <time>2014-06-07T08:52:20Z</time>
      </trkpt>
      <trkpt lat="42.82794" lon="0.10773">
        <ele>3021</ele>
        <time>2014-06-07T08:52:24Z</time>
      </trkpt>
      <trkpt lat="42.82793" lon="0.10772">
        <ele>3025</ele>
        <time>2014-06-07T08:52:29Z</time>
      </trkpt>
      <trkpt lat="42.82793" lon="0.10772">
        <ele>3028</ele>
        <time>2014-06-07T08:52:30Z</time>
      </trkpt>
      <trkpt lat="42.82793" lon="0.10772">
        <ele>3032</ele>
        <time>2014-06-07T08:52:31Z</time>
      </trkpt>
      <trkpt lat="42.82793" lon="0.10772">
        <ele>3031</ele>
        <time>2014-06-07T08:52:32Z</time>
      </trkpt>
      <trkpt lat="42.82793" lon="0.10772">
        <ele>3032</ele>
        <time>2014-06-07T08:52:40Z</time>
      </trkpt>
      <trkpt lat="42.82793" lon="0.10772">
        <ele>3035</ele>
        <time>2014-06-07T08:52:43Z</time>
      </trkpt>
      <trkpt lat="42.82794" lon="0.10772">
        <ele>3037</ele>
        <time>2014-06-07T08:52:44Z</time>
      </trkpt>
      <trkpt lat="42.82794" lon="0.10772">
        <ele>3036</ele>
        <time>2014-06-07T08:52:45Z</time>
      </trkpt>
      <trkpt lat="42.82796" lon="0.10771">
        <ele>3031</ele>
        <time>2014-06-07T08:52:50Z</time>
      </trkpt>
      <trkpt lat="42.82796" lon="0.10771">
        <ele>3028</ele>
        <time>2014-06-07T08:52:53Z</time>
      </trkpt>
      <trkpt lat="42.82795" lon="0.10772">
        <ele>3031</ele>
        <time>2014-06-07T08:53:01Z</time>
      </trkpt>
      <trkpt lat="42.82796" lon="0.10771">
        <ele>3034</ele>
        <time>2014-06-07T08:53:05Z</time>
      </trkpt>
      <trkpt lat="42.82796" lon="0.10771">
        <ele>3037</ele>
        <time>2014-06-07T08:53:07Z</time>
      </trkpt>
      <trkpt lat="42.82794" lon="0.10771">
        <ele>3035</ele>
        <time>2014-06-07T08:53:23Z</time>
      </trkpt>
      <trkpt lat="42.82795" lon="0.10771">
        <ele>3038</ele>
        <time>2014-06-07T08:53:27Z</time>
      </trkpt>
      <trkpt lat="42.82795" lon="0.10771">
        <ele>3033</ele>
        <time>2014-06-07T08:53:32Z</time>
      </trkpt>
      <trkpt lat="42.82795" lon="0.10771">
        <ele>3032</ele>
        <time>2014-06-07T08:53:38Z</time>
      </trkpt>
      <trkpt lat="42.82794" lon="0.10771">
        <ele>3032</ele>
        <time>2014-06-07T08:53:42Z</time>
      </trkpt>
      <trkpt lat="42.82794" lon="0.1077">
        <ele>3032</ele>
        <time>2014-06-07T08:53:48Z</time>
      </trkpt>
      <trkpt lat="42.82794" lon="0.1077">
        <ele>3029</ele>
        <time>2014-06-07T08:53:50Z</time>
      </trkpt>
      <trkpt lat="42.82795" lon="0.10771">
        <ele>3026</ele>
        <time>2014-06-07T08:53:52Z</time>
      </trkpt>
      <trkpt lat="42.82795" lon="0.10771">
        <ele>3029</ele>
        <time>2014-06-07T08:53:54Z</time>
      </trkpt>
      <trkpt lat="42.82795" lon="0.10771">
        <ele>3032</ele>
        <time>2014-06-07T08:53:57Z</time>
      </trkpt>
      <trkpt lat="42.82795" lon="0.10772">
        <ele>3028</ele>
        <time>2014-06-07T08:53:59Z</time>
      </trkpt>
      <trkpt lat="42.82794" lon="0.1077">
        <ele>3024</ele>
        <time>2014-06-07T08:54:06Z</time>
      </trkpt>
      <trkpt lat="42.82794" lon="0.1077">
        <ele>3028</ele>
        <time>2014-06-07T08:54:08Z</time>
      </trkpt>
      <trkpt lat="42.82794" lon="0.1077">
        <ele>3028</ele>
        <time>2014-06-07T08:54:09Z</time>
      </trkpt>
      <trkpt lat="42.82793" lon="0.10771">
        <ele>3025</ele>
        <time>2014-06-07T08:54:13Z</time>
      </trkpt>
      <trkpt lat="42.82793" lon="0.10771">
        <ele>3025</ele>
        <time>2014-06-07T08:54:14Z</time>
      </trkpt>
      <trkpt lat="42.82794" lon="0.10771">
        <ele>3021</ele>
        <time>2014-06-07T08:54:17Z</time>
      </trkpt>
      <trkpt lat="42.82794" lon="0.10771">
        <ele>3023</ele>
        <time>2014-06-07T08:54:18Z</time>
      </trkpt>
      <trkpt lat="42.82794" lon="0.10771">
        <ele>3024</ele>
        <time>2014-06-07T08:54:20Z</time>
      </trkpt>
      <trkpt lat="42.82794" lon="0.10772">
        <ele>3028</ele>
        <time>2014-06-07T08:54:26Z</time>
      </trkpt>
      <trkpt lat="42.82794" lon="0.10773">
        <ele>3024</ele>
        <time>2014-06-07T08:54:29Z</time>
      </trkpt>
      <trkpt lat="42.82794" lon="0.10772">
        <ele>3028</ele>
        <time>2014-06-07T08:54:31Z</time>
      </trkpt>
      <trkpt lat="42.82794" lon="0.10772">
        <ele>3028</ele>
        <time>2014-06-07T08:54:32Z</time>
      </trkpt>
      <trkpt lat="42.82794" lon="0.10772">
        <ele>3026</ele>
        <time>2014-06-07T08:54:37Z</time>
      </trkpt>
      <trkpt lat="42.82794" lon="0.10772">
        <ele>3024</ele>
        <time>2014-06-07T08:54:41Z</time>
      </trkpt>
      <trkpt lat="42.82794" lon="0.10772">
        <ele>3028</ele>
        <time>2014-06-07T08:54:45Z</time>
      </trkpt>
      <trkpt lat="42.82794" lon="0.10772">
        <ele>3028</ele>
        <time>2014-06-07T08:54:46Z</time>
      </trkpt>
      <trkpt lat="42.82794" lon="0.10772">
        <ele>3032</ele>
        <time>2014-06-07T08:54:49Z</time>
      </trkpt>
      <trkpt lat="42.82794" lon="0.10772">
        <ele>3032</ele>
        <time>2014-06-07T08:54:59Z</time>
      </trkpt>
      <trkpt lat="42.82795" lon="0.10772">
        <ele>3036</ele>
        <time>2014-06-07T08:55:04Z</time>
      </trkpt>
      <trkpt lat="42.82794" lon="0.10772">
        <ele>3041</ele>
        <time>2014-06-07T08:55:07Z</time>
      </trkpt>
      <trkpt lat="42.82794" lon="0.10772">
        <ele>3037</ele>
        <time>2014-06-07T08:55:10Z</time>
      </trkpt>
      <trkpt lat="42.82795" lon="0.10772">
        <ele>3033</ele>
        <time>2014-06-07T08:55:12Z</time>
      </trkpt>
      <trkpt lat="42.82796" lon="0.10772">
        <ele>3038</ele>
        <time>2014-06-07T08:55:20Z</time>
      </trkpt>
      <trkpt lat="42.82795" lon="0.10772">
        <ele>3034</ele>
        <time>2014-06-07T08:55:23Z</time>
      </trkpt>
      <trkpt lat="42.82795" lon="0.10772">
        <ele>3031</ele>
        <time>2014-06-07T08:55:25Z</time>
      </trkpt>
      <trkpt lat="42.82795" lon="0.10773">
        <ele>3035</ele>
        <time>2014-06-07T08:55:29Z</time>
      </trkpt>
      <trkpt lat="42.82795" lon="0.10773">
        <ele>3035</ele>
        <time>2014-06-07T08:55:30Z</time>
      </trkpt>
      <trkpt lat="42.82794" lon="0.10773">
        <ele>3032</ele>
        <time>2014-06-07T08:55:31Z</time>
      </trkpt>
      <trkpt lat="42.82794" lon="0.10773">
        <ele>3032</ele>
        <time>2014-06-07T08:55:32Z</time>
      </trkpt>
      <trkpt lat="42.82794" lon="0.10773">
        <ele>3036</ele>
        <time>2014-06-07T08:55:38Z</time>
      </trkpt>
      <trkpt lat="42.82795" lon="0.10772">
        <ele>3041</ele>
        <time>2014-06-07T08:55:40Z</time>
      </trkpt>
      <trkpt lat="42.82795" lon="0.10772">
        <ele>3045</ele>
        <time>2014-06-07T08:55:43Z</time>
      </trkpt>
      <trkpt lat="42.82795" lon="0.10772">
        <ele>3040</ele>
        <time>2014-06-07T08:55:47Z</time>
      </trkpt>
      <trkpt lat="42.82796" lon="0.10773">
        <ele>3044</ele>
        <time>2014-06-07T08:55:48Z</time>
      </trkpt>
      <trkpt lat="42.82796" lon="0.10772">
        <ele>3039</ele>
        <time>2014-06-07T08:55:51Z</time>
      </trkpt>
      <trkpt lat="42.82797" lon="0.10772">
        <ele>3040</ele>
        <time>2014-06-07T08:55:52Z</time>
      </trkpt>
      <trkpt lat="42.82797" lon="0.10773">
        <ele>3046</ele>
        <time>2014-06-07T08:55:54Z</time>
      </trkpt>
      <trkpt lat="42.82797" lon="0.10772">
        <ele>3036</ele>
        <time>2014-06-07T08:55:59Z</time>
      </trkpt>
      <trkpt lat="42.82797" lon="0.10772">
        <ele>3043</ele>
        <time>2014-06-07T08:56:02Z</time>
      </trkpt>
      <trkpt lat="42.82797" lon="0.10772">
        <ele>3043</ele>
        <time>2014-06-07T08:56:03Z</time>
      </trkpt>
      <trkpt lat="42.82797" lon="0.10772">
        <ele>3039</ele>
        <time>2014-06-07T08:56:04Z</time>
      </trkpt>
      <trkpt lat="42.82797" lon="0.10772">
        <ele>3036</ele>
        <time>2014-06-07T08:56:06Z</time>
      </trkpt>
      <trkpt lat="42.82797" lon="0.10772">
        <ele>3040</ele>
        <time>2014-06-07T08:56:07Z</time>
      </trkpt>
      <trkpt lat="42.82797" lon="0.10772">
        <ele>3037</ele>
        <time>2014-06-07T08:56:08Z</time>
      </trkpt>
      <trkpt lat="42.82797" lon="0.10772">
        <ele>3040</ele>
        <time>2014-06-07T08:56:12Z</time>
      </trkpt>
      <trkpt lat="42.82797" lon="0.10772">
        <ele>3037</ele>
        <time>2014-06-07T08:56:13Z</time>
      </trkpt>
      <trkpt lat="42.82797" lon="0.10772">
        <ele>3033</ele>
        <time>2014-06-07T08:56:14Z</time>
      </trkpt>
      <trkpt lat="42.82797" lon="0.10772">
        <ele>3029</ele>
        <time>2014-06-07T08:56:27Z</time>
      </trkpt>
      <trkpt lat="42.82798" lon="0.10772">
        <ele>3030</ele>
        <time>2014-06-07T08:56:41Z</time>
      </trkpt>
      <trkpt lat="42.82797" lon="0.10772">
        <ele>3026</ele>
        <time>2014-06-07T08:56:55Z</time>
      </trkpt>
      <trkpt lat="42.82797" lon="0.10772">
        <ele>3023</ele>
        <time>2014-06-07T08:57:03Z</time>
      </trkpt>
      <trkpt lat="42.82798" lon="0.10772">
        <ele>3020</ele>
        <time>2014-06-07T08:57:07Z</time>
      </trkpt>
      <trkpt lat="42.82798" lon="0.10772">
        <ele>3019</ele>
        <time>2014-06-07T08:57:09Z</time>
      </trkpt>
      <trkpt lat="42.82798" lon="0.10772">
        <ele>3020</ele>
        <time>2014-06-07T08:57:12Z</time>
      </trkpt>
      <trkpt lat="42.82798" lon="0.10772">
        <ele>3022</ele>
        <time>2014-06-07T08:57:16Z</time>
      </trkpt>
      <trkpt lat="42.82798" lon="0.10772">
        <ele>3023</ele>
        <time>2014-06-07T08:57:18Z</time>
      </trkpt>
      <trkpt lat="42.82797" lon="0.10773">
        <ele>3021</ele>
        <time>2014-06-07T08:57:21Z</time>
      </trkpt>
      <trkpt lat="42.82797" lon="0.10773">
        <ele>3025</ele>
        <time>2014-06-07T08:57:23Z</time>
      </trkpt>
      <trkpt lat="42.82797" lon="0.10772">
        <ele>3029</ele>
        <time>2014-06-07T08:57:34Z</time>
      </trkpt>
      <trkpt lat="42.82795" lon="0.10772">
        <ele>3027</ele>
        <time>2014-06-07T08:57:46Z</time>
      </trkpt>
      <trkpt lat="42.82795" lon="0.10772">
        <ele>3031</ele>
        <time>2014-06-07T08:57:49Z</time>
      </trkpt>
      <trkpt lat="42.82795" lon="0.10772">
        <ele>3035</ele>
        <time>2014-06-07T08:57:52Z</time>
      </trkpt>
      <trkpt lat="42.82795" lon="0.10772">
        <ele>3039</ele>
        <time>2014-06-07T08:57:53Z</time>
      </trkpt>
      <trkpt lat="42.82795" lon="0.10772">
        <ele>3038</ele>
        <time>2014-06-07T08:57:54Z</time>
      </trkpt>
      <trkpt lat="42.82795" lon="0.10772">
        <ele>3035</ele>
        <time>2014-06-07T08:57:56Z</time>
      </trkpt>
      <trkpt lat="42.82795" lon="0.10772">
        <ele>3035</ele>
        <time>2014-06-07T08:57:57Z</time>
      </trkpt>
      <trkpt lat="42.82795" lon="0.10772">
        <ele>3031</ele>
        <time>2014-06-07T08:58:00Z</time>
      </trkpt>
      <trkpt lat="42.82794" lon="0.10772">
        <ele>3029</ele>
        <time>2014-06-07T08:58:02Z</time>
      </trkpt>
      <trkpt lat="42.82794" lon="0.10772">
        <ele>3033</ele>
        <time>2014-06-07T08:58:07Z</time>
      </trkpt>
      <trkpt lat="42.82794" lon="0.10772">
        <ele>3033</ele>
        <time>2014-06-07T08:58:08Z</time>
      </trkpt>
      <trkpt lat="42.82794" lon="0.10772">
        <ele>3035</ele>
        <time>2014-06-07T08:58:10Z</time>
      </trkpt>
      <trkpt lat="42.82794" lon="0.10772">
        <ele>3032</ele>
        <time>2014-06-07T08:58:18Z</time>
      </trkpt>
      <trkpt lat="42.82795" lon="0.10772">
        <ele>3033</ele>
        <time>2014-06-07T08:58:25Z</time>
      </trkpt>
      <trkpt lat="42.82794" lon="0.10772">
        <ele>3030</ele>
        <time>2014-06-07T08:58:32Z</time>
      </trkpt>
      <trkpt lat="42.82795" lon="0.10772">
        <ele>3026</ele>
        <time>2014-06-07T08:58:38Z</time>
      </trkpt>
      <trkpt lat="42.82795" lon="0.10772">
        <ele>3026</ele>
        <time>2014-06-07T08:58:39Z</time>
      </trkpt>
      <trkpt lat="42.82795" lon="0.10772">
        <ele>3029</ele>
        <time>2014-06-07T08:58:42Z</time>
      </trkpt>
      <trkpt lat="42.82794" lon="0.10773">
        <ele>3030</ele>
        <time>2014-06-07T08:58:44Z</time>
      </trkpt>
      <trkpt lat="42.82795" lon="0.10773">
        <ele>3032</ele>
        <time>2014-06-07T08:58:47Z</time>
      </trkpt>
      <trkpt lat="42.82794" lon="0.10773">
        <ele>3035</ele>
        <time>2014-06-07T08:58:52Z</time>
      </trkpt>
      <trkpt lat="42.82794" lon="0.10772">
        <ele>3038</ele>
        <time>2014-06-07T08:58:55Z</time>
      </trkpt>
      <trkpt lat="42.82794" lon="0.10772">
        <ele>3042</ele>
        <time>2014-06-07T08:58:58Z</time>
      </trkpt>
      <trkpt lat="42.82795" lon="0.10772">
        <ele>3038</ele>
        <time>2014-06-07T08:59:02Z</time>
      </trkpt>
      <trkpt lat="42.82795" lon="0.10772">
        <ele>3038</ele>
        <time>2014-06-07T08:59:03Z</time>
      </trkpt>
      <trkpt lat="42.82795" lon="0.10773">
        <ele>3033</ele>
        <time>2014-06-07T08:59:06Z</time>
      </trkpt>
      <trkpt lat="42.82795" lon="0.10773">
        <ele>3029</ele>
        <time>2014-06-07T08:59:08Z</time>
      </trkpt>
      <trkpt lat="42.82794" lon="0.10773">
        <ele>3025</ele>
        <time>2014-06-07T08:59:15Z</time>
      </trkpt>
      <trkpt lat="42.82794" lon="0.10773">
        <ele>3023</ele>
        <time>2014-06-07T08:59:17Z</time>
      </trkpt>
      <trkpt lat="42.82794" lon="0.10773">
        <ele>3021</ele>
        <time>2014-06-07T08:59:19Z</time>
      </trkpt>
      <trkpt lat="42.82795" lon="0.10773">
        <ele>3024</ele>
        <time>2014-06-07T08:59:33Z</time>
      </trkpt>
      <trkpt lat="42.82795" lon="0.10773">
        <ele>3028</ele>
        <time>2014-06-07T08:59:43Z</time>
      </trkpt>
      <trkpt lat="42.82794" lon="0.10772">
        <ele>3033</ele>
        <time>2014-06-07T08:59:54Z</time>
      </trkpt>
      <trkpt lat="42.82794" lon="0.10772">
        <ele>3033</ele>
        <time>2014-06-07T08:59:55Z</time>
      </trkpt>
      <trkpt lat="42.82794" lon="0.10772">
        <ele>3029</ele>
        <time>2014-06-07T09:00:05Z</time>
      </trkpt>
      <trkpt lat="42.82796" lon="0.10773">
        <ele>3031</ele>
        <time>2014-06-07T09:00:13Z</time>
      </trkpt>
      <trkpt lat="42.82795" lon="0.10772">
        <ele>3028</ele>
        <time>2014-06-07T09:00:16Z</time>
      </trkpt>
      <trkpt lat="42.82795" lon="0.10772">
        <ele>3030</ele>
        <time>2014-06-07T09:00:18Z</time>
      </trkpt>
      <trkpt lat="42.82795" lon="0.10772">
        <ele>3030</ele>
        <time>2014-06-07T09:00:22Z</time>
      </trkpt>
      <trkpt lat="42.82795" lon="0.10772">
        <ele>3026</ele>
        <time>2014-06-07T09:00:28Z</time>
      </trkpt>
      <trkpt lat="42.82795" lon="0.10772">
        <ele>3026</ele>
        <time>2014-06-07T09:00:29Z</time>
      </trkpt>
      <trkpt lat="42.82795" lon="0.10773">
        <ele>3025</ele>
        <time>2014-06-07T09:00:34Z</time>
      </trkpt>
      <trkpt lat="42.82794" lon="0.10773">
        <ele>3026</ele>
        <time>2014-06-07T09:00:38Z</time>
      </trkpt>
      <trkpt lat="42.82794" lon="0.10773">
        <ele>3030</ele>
        <time>2014-06-07T09:00:48Z</time>
      </trkpt>
      <trkpt lat="42.82794" lon="0.10773">
        <ele>3035</ele>
        <time>2014-06-07T09:00:56Z</time>
      </trkpt>
      <trkpt lat="42.82794" lon="0.10773">
        <ele>3038</ele>
        <time>2014-06-07T09:00:58Z</time>
      </trkpt>
      <trkpt lat="42.82794" lon="0.10773">
        <ele>3037</ele>
        <time>2014-06-07T09:00:59Z</time>
      </trkpt>
      <trkpt lat="42.82794" lon="0.10773">
        <ele>3034</ele>
        <time>2014-06-07T09:01:02Z</time>
      </trkpt>
      <trkpt lat="42.82794" lon="0.10773">
        <ele>3035</ele>
        <time>2014-06-07T09:01:03Z</time>
      </trkpt>
      <trkpt lat="42.82795" lon="0.10773">
        <ele>3032</ele>
        <time>2014-06-07T09:01:08Z</time>
      </trkpt>
      <trkpt lat="42.82795" lon="0.10773">
        <ele>3026</ele>
        <time>2014-06-07T09:01:10Z</time>
      </trkpt>
      <trkpt lat="42.82795" lon="0.10772">
        <ele>3023</ele>
        <time>2014-06-07T09:01:11Z</time>
      </trkpt>
      <trkpt lat="42.82795" lon="0.10773">
        <ele>3024</ele>
        <time>2014-06-07T09:01:17Z</time>
      </trkpt>
      <trkpt lat="42.82796" lon="0.10772">
        <ele>3020</ele>
        <time>2014-06-07T09:01:20Z</time>
      </trkpt>
      <trkpt lat="42.82795" lon="0.10772">
        <ele>3017</ele>
        <time>2014-06-07T09:01:24Z</time>
      </trkpt>
      <trkpt lat="42.82795" lon="0.10773">
        <ele>3022</ele>
        <time>2014-06-07T09:01:26Z</time>
      </trkpt>
      <trkpt lat="42.82796" lon="0.10773">
        <ele>3017</ele>
        <time>2014-06-07T09:01:33Z</time>
      </trkpt>
      <trkpt lat="42.82796" lon="0.10773">
        <ele>3021</ele>
        <time>2014-06-07T09:01:34Z</time>
      </trkpt>
      <trkpt lat="42.82795" lon="0.10773">
        <ele>3024</ele>
        <time>2014-06-07T09:01:36Z</time>
      </trkpt>
      <trkpt lat="42.82795" lon="0.10773">
        <ele>3024</ele>
        <time>2014-06-07T09:01:37Z</time>
      </trkpt>
      <trkpt lat="42.82795" lon="0.10772">
        <ele>3021</ele>
        <time>2014-06-07T09:01:39Z</time>
      </trkpt>
      <trkpt lat="42.82796" lon="0.10772">
        <ele>3021</ele>
        <time>2014-06-07T09:01:57Z</time>
      </trkpt>
      <trkpt lat="42.82796" lon="0.10772">
        <ele>3024</ele>
        <time>2014-06-07T09:02:23Z</time>
      </trkpt>
      <trkpt lat="42.82796" lon="0.10772">
        <ele>3029</ele>
        <time>2014-06-07T09:02:26Z</time>
      </trkpt>
      <trkpt lat="42.82796" lon="0.10772">
        <ele>3024</ele>
        <time>2014-06-07T09:02:38Z</time>
      </trkpt>
      <trkpt lat="42.82796" lon="0.10772">
        <ele>3027</ele>
        <time>2014-06-07T09:02:41Z</time>
      </trkpt>
      <trkpt lat="42.82796" lon="0.10771">
        <ele>3029</ele>
        <time>2014-06-07T09:02:44Z</time>
      </trkpt>
      <trkpt lat="42.82795" lon="0.10772">
        <ele>3033</ele>
        <time>2014-06-07T09:02:59Z</time>
      </trkpt>
      <trkpt lat="42.82795" lon="0.10771">
        <ele>3030</ele>
        <time>2014-06-07T09:03:01Z</time>
      </trkpt>
      <trkpt lat="42.82795" lon="0.10772">
        <ele>3034</ele>
        <time>2014-06-07T09:03:03Z</time>
      </trkpt>
      <trkpt lat="42.82795" lon="0.10772">
        <ele>3034</ele>
        <time>2014-06-07T09:03:04Z</time>
      </trkpt>
      <trkpt lat="42.82795" lon="0.10772">
        <ele>3035</ele>
        <time>2014-06-07T09:03:18Z</time>
      </trkpt>
      <trkpt lat="42.82795" lon="0.10772">
        <ele>3038</ele>
        <time>2014-06-07T09:03:22Z</time>
      </trkpt>
      <trkpt lat="42.82795" lon="0.10772">
        <ele>3038</ele>
        <time>2014-06-07T09:03:23Z</time>
      </trkpt>
      <trkpt lat="42.82795" lon="0.10772">
        <ele>3035</ele>
        <time>2014-06-07T09:03:28Z</time>
      </trkpt>
      <trkpt lat="42.82795" lon="0.10772">
        <ele>3031</ele>
        <time>2014-06-07T09:03:36Z</time>
      </trkpt>
      <trkpt lat="42.82795" lon="0.10772">
        <ele>3035</ele>
        <time>2014-06-07T09:03:38Z</time>
      </trkpt>
      <trkpt lat="42.82795" lon="0.10773">
        <ele>3032</ele>
        <time>2014-06-07T09:03:44Z</time>
      </trkpt>
      <trkpt lat="42.82796" lon="0.10773">
        <ele>3030</ele>
        <time>2014-06-07T09:03:47Z</time>
      </trkpt>
      <trkpt lat="42.82795" lon="0.10773">
        <ele>3029</ele>
        <time>2014-06-07T09:03:49Z</time>
      </trkpt>
      <trkpt lat="42.82795" lon="0.10772">
        <ele>3028</ele>
        <time>2014-06-07T09:03:59Z</time>
      </trkpt>
      <trkpt lat="42.82794" lon="0.10772">
        <ele>3033</ele>
        <time>2014-06-07T09:04:02Z</time>
      </trkpt>
      <trkpt lat="42.82794" lon="0.10773">
        <ele>3032</ele>
        <time>2014-06-07T09:04:03Z</time>
      </trkpt>
      <trkpt lat="42.82793" lon="0.10772">
        <ele>3036</ele>
        <time>2014-06-07T09:04:06Z</time>
      </trkpt>
      <trkpt lat="42.82793" lon="0.10772">
        <ele>3041</ele>
        <time>2014-06-07T09:04:07Z</time>
      </trkpt>
      <trkpt lat="42.82794" lon="0.10773">
        <ele>3047</ele>
        <time>2014-06-07T09:04:10Z</time>
      </trkpt>
      <trkpt lat="42.82794" lon="0.10773">
        <ele>3051</ele>
        <time>2014-06-07T09:04:11Z</time>
      </trkpt>
      <trkpt lat="42.82794" lon="0.10773">
        <ele>3049</ele>
        <time>2014-06-07T09:04:12Z</time>
      </trkpt>
      <trkpt lat="42.82794" lon="0.10773">
        <ele>3045</ele>
        <time>2014-06-07T09:04:13Z</time>
      </trkpt>
      <trkpt lat="42.82795" lon="0.10774">
        <ele>3040</ele>
        <time>2014-06-07T09:04:14Z</time>
      </trkpt>
      <trkpt lat="42.82796" lon="0.10774">
        <ele>3042</ele>
        <time>2014-06-07T09:04:19Z</time>
      </trkpt>
      <trkpt lat="42.82796" lon="0.10774">
        <ele>3037</ele>
        <time>2014-06-07T09:04:20Z</time>
      </trkpt>
      <trkpt lat="42.82796" lon="0.10774">
        <ele>3038</ele>
        <time>2014-06-07T09:04:21Z</time>
      </trkpt>
      <trkpt lat="42.82796" lon="0.10774">
        <ele>3042</ele>
        <time>2014-06-07T09:04:22Z</time>
      </trkpt>
      <trkpt lat="42.82795" lon="0.10775">
        <ele>3044</ele>
        <time>2014-06-07T09:04:24Z</time>
      </trkpt>
      <trkpt lat="42.82796" lon="0.10776">
        <ele>3039</ele>
        <time>2014-06-07T09:04:27Z</time>
      </trkpt>
      <trkpt lat="42.82796" lon="0.10776">
        <ele>3040</ele>
        <time>2014-06-07T09:04:28Z</time>
      </trkpt>
      <trkpt lat="42.82796" lon="0.10776">
        <ele>3036</ele>
        <time>2014-06-07T09:04:31Z</time>
      </trkpt>
      <trkpt lat="42.82796" lon="0.10777">
        <ele>3040</ele>
        <time>2014-06-07T09:04:45Z</time>
      </trkpt>
      <trkpt lat="42.82796" lon="0.10777">
        <ele>3039</ele>
        <time>2014-06-07T09:04:46Z</time>
      </trkpt>
      <trkpt lat="42.82796" lon="0.10776">
        <ele>3036</ele>
        <time>2014-06-07T09:04:48Z</time>
      </trkpt>
      <trkpt lat="42.82797" lon="0.10776">
        <ele>3033</ele>
        <time>2014-06-07T09:04:51Z</time>
      </trkpt>
      <trkpt lat="42.82797" lon="0.10775">
        <ele>3033</ele>
        <time>2014-06-07T09:04:52Z</time>
      </trkpt>
      <trkpt lat="42.82797" lon="0.10776">
        <ele>3029</ele>
        <time>2014-06-07T09:04:55Z</time>
      </trkpt>
      <trkpt lat="42.82797" lon="0.10776">
        <ele>3029</ele>
        <time>2014-06-07T09:04:56Z</time>
      </trkpt>
      <trkpt lat="42.82799" lon="0.10777">
        <ele>3026</ele>
        <time>2014-06-07T09:05:02Z</time>
      </trkpt>
      <trkpt lat="42.82801" lon="0.10775">
        <ele>3027</ele>
        <time>2014-06-07T09:05:17Z</time>
      </trkpt>
      <trkpt lat="42.82801" lon="0.10775">
        <ele>3032</ele>
        <time>2014-06-07T09:05:24Z</time>
      </trkpt>
      <trkpt lat="42.82802" lon="0.10775">
        <ele>3034</ele>
        <time>2014-06-07T09:05:26Z</time>
      </trkpt>
      <trkpt lat="42.82802" lon="0.10776">
        <ele>3037</ele>
        <time>2014-06-07T09:05:29Z</time>
      </trkpt>
      <trkpt lat="42.82801" lon="0.10775">
        <ele>3041</ele>
        <time>2014-06-07T09:05:34Z</time>
      </trkpt>
      <trkpt lat="42.82801" lon="0.10775">
        <ele>3041</ele>
        <time>2014-06-07T09:05:35Z</time>
      </trkpt>
      <trkpt lat="42.828" lon="0.10775">
        <ele>3040</ele>
        <time>2014-06-07T09:05:39Z</time>
      </trkpt>
      <trkpt lat="42.828" lon="0.10775">
        <ele>3035</ele>
        <time>2014-06-07T09:05:41Z</time>
      </trkpt>
      <trkpt lat="42.828" lon="0.10775">
        <ele>3032</ele>
        <time>2014-06-07T09:05:43Z</time>
      </trkpt>
      <trkpt lat="42.828" lon="0.10775">
        <ele>3033</ele>
        <time>2014-06-07T09:05:44Z</time>
      </trkpt>
      <trkpt lat="42.828" lon="0.10775">
        <ele>3037</ele>
        <time>2014-06-07T09:05:47Z</time>
      </trkpt>
      <trkpt lat="42.828" lon="0.10775">
        <ele>3036</ele>
        <time>2014-06-07T09:05:48Z</time>
      </trkpt>
      <trkpt lat="42.828" lon="0.10775">
        <ele>3033</ele>
        <time>2014-06-07T09:05:49Z</time>
      </trkpt>
      <trkpt lat="42.82799" lon="0.10775">
        <ele>3028</ele>
        <time>2014-06-07T09:05:53Z</time>
      </trkpt>
      <trkpt lat="42.82799" lon="0.10775">
        <ele>3034</ele>
        <time>2014-06-07T09:05:55Z</time>
      </trkpt>
      <trkpt lat="42.82799" lon="0.10775">
        <ele>3031</ele>
        <time>2014-06-07T09:05:58Z</time>
      </trkpt>
      <trkpt lat="42.82799" lon="0.10775">
        <ele>3035</ele>
        <time>2014-06-07T09:06:01Z</time>
      </trkpt>
      <trkpt lat="42.82799" lon="0.10775">
        <ele>3032</ele>
        <time>2014-06-07T09:06:02Z</time>
      </trkpt>
      <trkpt lat="42.82799" lon="0.10775">
        <ele>3031</ele>
        <time>2014-06-07T09:06:04Z</time>
      </trkpt>
      <trkpt lat="42.82799" lon="0.10775">
        <ele>3028</ele>
        <time>2014-06-07T09:06:07Z</time>
      </trkpt>
      <trkpt lat="42.82798" lon="0.10775">
        <ele>3030</ele>
        <time>2014-06-07T09:06:16Z</time>
      </trkpt>
      <trkpt lat="42.82796" lon="0.10774">
        <ele>3030</ele>
        <time>2014-06-07T09:06:40Z</time>
      </trkpt>
      <trkpt lat="42.82795" lon="0.10774">
        <ele>3034</ele>
        <time>2014-06-07T09:06:48Z</time>
      </trkpt>
      <trkpt lat="42.82795" lon="0.10774">
        <ele>3033</ele>
        <time>2014-06-07T09:06:49Z</time>
      </trkpt>
      <trkpt lat="42.82795" lon="0.10775">
        <ele>3031</ele>
        <time>2014-06-07T09:06:53Z</time>
      </trkpt>
      <trkpt lat="42.82795" lon="0.10775">
        <ele>3035</ele>
        <time>2014-06-07T09:06:58Z</time>
      </trkpt>
      <trkpt lat="42.82795" lon="0.10775">
        <ele>3031</ele>
        <time>2014-06-07T09:07:03Z</time>
      </trkpt>
      <trkpt lat="42.82794" lon="0.10774">
        <ele>3038</ele>
        <time>2014-06-07T09:07:09Z</time>
      </trkpt>
      <trkpt lat="42.82795" lon="0.10774">
        <ele>3033</ele>
        <time>2014-06-07T09:07:10Z</time>
      </trkpt>
      <trkpt lat="42.82795" lon="0.10774">
        <ele>3032</ele>
        <time>2014-06-07T09:07:12Z</time>
      </trkpt>
      <trkpt lat="42.82795" lon="0.10774">
        <ele>3034</ele>
        <time>2014-06-07T09:07:15Z</time>
      </trkpt>
      <trkpt lat="42.82795" lon="0.10774">
        <ele>3033</ele>
        <time>2014-06-07T09:07:17Z</time>
      </trkpt>
      <trkpt lat="42.82796" lon="0.10774">
        <ele>3034</ele>
        <time>2014-06-07T09:07:22Z</time>
      </trkpt>
      <trkpt lat="42.82797" lon="0.10774">
        <ele>3031</ele>
        <time>2014-06-07T09:07:32Z</time>
      </trkpt>
      <trkpt lat="42.82796" lon="0.10774">
        <ele>3027</ele>
        <time>2014-06-07T09:07:37Z</time>
      </trkpt>
      <trkpt lat="42.82796" lon="0.10774">
        <ele>3026</ele>
        <time>2014-06-07T09:07:43Z</time>
      </trkpt>
      <trkpt lat="42.82796" lon="0.10773">
        <ele>3030</ele>
        <time>2014-06-07T09:07:50Z</time>
      </trkpt>
      <trkpt lat="42.82796" lon="0.10773">
        <ele>3031</ele>
        <time>2014-06-07T09:07:52Z</time>
      </trkpt>
      <trkpt lat="42.82796" lon="0.10773">
        <ele>3027</ele>
        <time>2014-06-07T09:08:00Z</time>
      </trkpt>
      <trkpt lat="42.82796" lon="0.10774">
        <ele>3030</ele>
        <time>2014-06-07T09:08:03Z</time>
      </trkpt>
      <trkpt lat="42.82796" lon="0.10773">
        <ele>3032</ele>
        <time>2014-06-07T09:08:05Z</time>
      </trkpt>
      <trkpt lat="42.82797" lon="0.10774">
        <ele>3036</ele>
        <time>2014-06-07T09:08:12Z</time>
      </trkpt>
      <trkpt lat="42.82797" lon="0.10774">
        <ele>3035</ele>
        <time>2014-06-07T09:08:13Z</time>
      </trkpt>
      <trkpt lat="42.82797" lon="0.10774">
        <ele>3032</ele>
        <time>2014-06-07T09:08:15Z</time>
      </trkpt>
      <trkpt lat="42.82798" lon="0.10775">
        <ele>3036</ele>
        <time>2014-06-07T09:08:19Z</time>
      </trkpt>
      <trkpt lat="42.82798" lon="0.10775">
        <ele>3036</ele>
        <time>2014-06-07T09:08:20Z</time>
      </trkpt>
      <trkpt lat="42.82796" lon="0.10775">
        <ele>3033</ele>
        <time>2014-06-07T09:08:26Z</time>
      </trkpt>
      <trkpt lat="42.82796" lon="0.10775">
        <ele>3037</ele>
        <time>2014-06-07T09:08:32Z</time>
      </trkpt>
      <trkpt lat="42.82796" lon="0.10775">
        <ele>3036</ele>
        <time>2014-06-07T09:08:33Z</time>
      </trkpt>
      <trkpt lat="42.82796" lon="0.10774">
        <ele>3034</ele>
        <time>2014-06-07T09:08:38Z</time>
      </trkpt>
      <trkpt lat="42.82796" lon="0.10773">
        <ele>3031</ele>
        <time>2014-06-07T09:08:41Z</time>
      </trkpt>
      <trkpt lat="42.82796" lon="0.10773">
        <ele>3035</ele>
        <time>2014-06-07T09:08:42Z</time>
      </trkpt>
      <trkpt lat="42.82796" lon="0.10773">
        <ele>3034</ele>
        <time>2014-06-07T09:08:43Z</time>
      </trkpt>
      <trkpt lat="42.82796" lon="0.10773">
        <ele>3030</ele>
        <time>2014-06-07T09:08:50Z</time>
      </trkpt>
      <trkpt lat="42.82796" lon="0.10773">
        <ele>3025</ele>
        <time>2014-06-07T09:08:52Z</time>
      </trkpt>
      <trkpt lat="42.82797" lon="0.10773">
        <ele>3025</ele>
        <time>2014-06-07T09:08:53Z</time>
      </trkpt>
      <trkpt lat="42.82796" lon="0.10774">
        <ele>3029</ele>
        <time>2014-06-07T09:08:58Z</time>
      </trkpt>
      <trkpt lat="42.82796" lon="0.10774">
        <ele>3029</ele>
        <time>2014-06-07T09:08:59Z</time>
      </trkpt>
      <trkpt lat="42.82796" lon="0.10773">
        <ele>3026</ele>
        <time>2014-06-07T09:09:05Z</time>
      </trkpt>
      <trkpt lat="42.82796" lon="0.10773">
        <ele>3029</ele>
        <time>2014-06-07T09:09:09Z</time>
      </trkpt>
      <trkpt lat="42.82796" lon="0.10774">
        <ele>3033</ele>
        <time>2014-06-07T09:09:13Z</time>
      </trkpt>
      <trkpt lat="42.82797" lon="0.10774">
        <ele>3030</ele>
        <time>2014-06-07T09:09:19Z</time>
      </trkpt>
      <trkpt lat="42.82797" lon="0.10774">
        <ele>3033</ele>
        <time>2014-06-07T09:09:21Z</time>
      </trkpt>
      <trkpt lat="42.82796" lon="0.10774">
        <ele>3032</ele>
        <time>2014-06-07T09:09:25Z</time>
      </trkpt>
      <trkpt lat="42.82796" lon="0.10775">
        <ele>3034</ele>
        <time>2014-06-07T09:09:30Z</time>
      </trkpt>
      <trkpt lat="42.82797" lon="0.10774">
        <ele>3033</ele>
        <time>2014-06-07T09:09:32Z</time>
      </trkpt>
      <trkpt lat="42.82798" lon="0.10773">
        <ele>3036</ele>
        <time>2014-06-07T09:09:35Z</time>
      </trkpt>
      <trkpt lat="42.82799" lon="0.10773">
        <ele>3040</ele>
        <time>2014-06-07T09:09:38Z</time>
      </trkpt>
      <trkpt lat="42.82799" lon="0.10773">
        <ele>3043</ele>
        <time>2014-06-07T09:09:39Z</time>
      </trkpt>
      <trkpt lat="42.82799" lon="0.10773">
        <ele>3042</ele>
        <time>2014-06-07T09:09:40Z</time>
      </trkpt>
      <trkpt lat="42.82798" lon="0.10773">
        <ele>3048</ele>
        <time>2014-06-07T09:09:42Z</time>
      </trkpt>
      <trkpt lat="42.82798" lon="0.10774">
        <ele>3044</ele>
        <time>2014-06-07T09:09:44Z</time>
      </trkpt>
      <trkpt lat="42.82798" lon="0.10773">
        <ele>3042</ele>
        <time>2014-06-07T09:09:46Z</time>
      </trkpt>
      <trkpt lat="42.82798" lon="0.10773">
        <ele>3046</ele>
        <time>2014-06-07T09:09:47Z</time>
      </trkpt>
      <trkpt lat="42.82798" lon="0.10774">
        <ele>3047</ele>
        <time>2014-06-07T09:09:49Z</time>
      </trkpt>
      <trkpt lat="42.82798" lon="0.10774">
        <ele>3038</ele>
        <time>2014-06-07T09:09:53Z</time>
      </trkpt>
      <trkpt lat="42.82798" lon="0.10774">
        <ele>3041</ele>
        <time>2014-06-07T09:09:58Z</time>
      </trkpt>
      <trkpt lat="42.82799" lon="0.10774">
        <ele>3045</ele>
        <time>2014-06-07T09:10:00Z</time>
      </trkpt>
      <trkpt lat="42.82799" lon="0.10773">
        <ele>3044</ele>
        <time>2014-06-07T09:10:01Z</time>
      </trkpt>
      <trkpt lat="42.82798" lon="0.10774">
        <ele>3051</ele>
        <time>2014-06-07T09:10:03Z</time>
      </trkpt>
      <trkpt lat="42.82798" lon="0.10774">
        <ele>3037</ele>
        <time>2014-06-07T09:10:05Z</time>
      </trkpt>
      <trkpt lat="42.82797" lon="0.10774">
        <ele>3043</ele>
        <time>2014-06-07T09:10:07Z</time>
      </trkpt>
      <trkpt lat="42.82797" lon="0.10774">
        <ele>3042</ele>
        <time>2014-06-07T09:10:08Z</time>
      </trkpt>
      <trkpt lat="42.82796" lon="0.10775">
        <ele>3037</ele>
        <time>2014-06-07T09:10:10Z</time>
      </trkpt>
      <trkpt lat="42.82796" lon="0.10774">
        <ele>3043</ele>
        <time>2014-06-07T09:10:11Z</time>
      </trkpt>
      <trkpt lat="42.82796" lon="0.10774">
        <ele>3038</ele>
        <time>2014-06-07T09:10:13Z</time>
      </trkpt>
      <trkpt lat="42.82797" lon="0.10774">
        <ele>3035</ele>
        <time>2014-06-07T09:10:18Z</time>
      </trkpt>
      <trkpt lat="42.82797" lon="0.10774">
        <ele>3042</ele>
        <time>2014-06-07T09:10:21Z</time>
      </trkpt>
      <trkpt lat="42.82796" lon="0.10774">
        <ele>3045</ele>
        <time>2014-06-07T09:10:26Z</time>
      </trkpt>
      <trkpt lat="42.82796" lon="0.10774">
        <ele>3041</ele>
        <time>2014-06-07T09:10:27Z</time>
      </trkpt>
      <trkpt lat="42.82796" lon="0.10774">
        <ele>3046</ele>
        <time>2014-06-07T09:10:29Z</time>
      </trkpt>
      <trkpt lat="42.82796" lon="0.10774">
        <ele>3052</ele>
        <time>2014-06-07T09:10:30Z</time>
      </trkpt>
      <trkpt lat="42.82796" lon="0.10774">
        <ele>3057</ele>
        <time>2014-06-07T09:10:31Z</time>
      </trkpt>
      <trkpt lat="42.82796" lon="0.10774">
        <ele>3057</ele>
        <time>2014-06-07T09:10:32Z</time>
      </trkpt>
      <trkpt lat="42.82796" lon="0.10774">
        <ele>3052</ele>
        <time>2014-06-07T09:10:33Z</time>
      </trkpt>
      <trkpt lat="42.82796" lon="0.10774">
        <ele>3048</ele>
        <time>2014-06-07T09:10:34Z</time>
      </trkpt>
      <trkpt lat="42.82795" lon="0.10774">
        <ele>3043</ele>
        <time>2014-06-07T09:10:36Z</time>
      </trkpt>
      <trkpt lat="42.82795" lon="0.10774">
        <ele>3039</ele>
        <time>2014-06-07T09:10:37Z</time>
      </trkpt>
      <trkpt lat="42.82795" lon="0.10774">
        <ele>3039</ele>
        <time>2014-06-07T09:10:38Z</time>
      </trkpt>
      <trkpt lat="42.82795" lon="0.10774">
        <ele>3046</ele>
        <time>2014-06-07T09:10:40Z</time>
      </trkpt>
      <trkpt lat="42.82796" lon="0.10776">
        <ele>3055</ele>
        <time>2014-06-07T09:10:42Z</time>
      </trkpt>
      <trkpt lat="42.82795" lon="0.10775">
        <ele>3051</ele>
        <time>2014-06-07T09:10:43Z</time>
      </trkpt>
      <trkpt lat="42.82795" lon="0.10775">
        <ele>3044</ele>
        <time>2014-06-07T09:10:44Z</time>
      </trkpt>
      <trkpt lat="42.82795" lon="0.10776">
        <ele>3045</ele>
        <time>2014-06-07T09:10:45Z</time>
      </trkpt>
      <trkpt lat="42.82795" lon="0.10777">
        <ele>3056</ele>
        <time>2014-06-07T09:10:47Z</time>
      </trkpt>
      <trkpt lat="42.82796" lon="0.10777">
        <ele>3050</ele>
        <time>2014-06-07T09:10:48Z</time>
      </trkpt>
      <trkpt lat="42.82796" lon="0.10777">
        <ele>3048</ele>
        <time>2014-06-07T09:10:50Z</time>
      </trkpt>
      <trkpt lat="42.82796" lon="0.10778">
        <ele>3053</ele>
        <time>2014-06-07T09:10:52Z</time>
      </trkpt>
      <trkpt lat="42.82796" lon="0.10778">
        <ele>3047</ele>
        <time>2014-06-07T09:10:53Z</time>
      </trkpt>
      <trkpt lat="42.82795" lon="0.10779">
        <ele>3052</ele>
        <time>2014-06-07T09:10:55Z</time>
      </trkpt>
      <trkpt lat="42.82794" lon="0.1078">
        <ele>3047</ele>
        <time>2014-06-07T09:10:57Z</time>
      </trkpt>
      <trkpt lat="42.82793" lon="0.1078">
        <ele>3042</ele>
        <time>2014-06-07T09:11:01Z</time>
      </trkpt>
      <trkpt lat="42.82793" lon="0.1078">
        <ele>3042</ele>
        <time>2014-06-07T09:11:02Z</time>
      </trkpt>
      <trkpt lat="42.82793" lon="0.10781">
        <ele>3043</ele>
        <time>2014-06-07T09:11:04Z</time>
      </trkpt>
      <trkpt lat="42.82793" lon="0.1078">
        <ele>3037</ele>
        <time>2014-06-07T09:11:07Z</time>
      </trkpt>
      <trkpt lat="42.82793" lon="0.1078">
        <ele>3038</ele>
        <time>2014-06-07T09:11:08Z</time>
      </trkpt>
      <trkpt lat="42.82792" lon="0.1078">
        <ele>3042</ele>
        <time>2014-06-07T09:11:11Z</time>
      </trkpt>
      <trkpt lat="42.82791" lon="0.10781">
        <ele>3043</ele>
        <time>2014-06-07T09:11:13Z</time>
      </trkpt>
      <trkpt lat="42.82791" lon="0.10781">
        <ele>3037</ele>
        <time>2014-06-07T09:11:15Z</time>
      </trkpt>
      <trkpt lat="42.8279" lon="0.10781">
        <ele>3038</ele>
        <time>2014-06-07T09:11:16Z</time>
      </trkpt>
      <trkpt lat="42.82788" lon="0.1078">
        <ele>3039</ele>
        <time>2014-06-07T09:11:18Z</time>
      </trkpt>
      <trkpt lat="42.82784" lon="0.10775">
        <ele>3041</ele>
        <time>2014-06-07T09:11:33Z</time>
      </trkpt>
      <trkpt lat="42.82783" lon="0.10775">
        <ele>3050</ele>
        <time>2014-06-07T09:11:35Z</time>
      </trkpt>
      <trkpt lat="42.82783" lon="0.10774">
        <ele>3050</ele>
        <time>2014-06-07T09:11:36Z</time>
      </trkpt>
      <trkpt lat="42.82782" lon="0.10773">
        <ele>3057</ele>
        <time>2014-06-07T09:11:45Z</time>
      </trkpt>
      <trkpt lat="42.82782" lon="0.10772">
        <ele>3056</ele>
        <time>2014-06-07T09:11:46Z</time>
      </trkpt>
      <trkpt lat="42.82782" lon="0.10773">
        <ele>3051</ele>
        <time>2014-06-07T09:11:51Z</time>
      </trkpt>
      <trkpt lat="42.82781" lon="0.10773">
        <ele>3055</ele>
        <time>2014-06-07T09:11:55Z</time>
      </trkpt>
      <trkpt lat="42.82781" lon="0.10773">
        <ele>3062</ele>
        <time>2014-06-07T09:11:56Z</time>
      </trkpt>
      <trkpt lat="42.82781" lon="0.10772">
        <ele>3054</ele>
        <time>2014-06-07T09:11:57Z</time>
      </trkpt>
      <trkpt lat="42.82781" lon="0.10772">
        <ele>3046</ele>
        <time>2014-06-07T09:11:58Z</time>
      </trkpt>
      <trkpt lat="42.82781" lon="0.10772">
        <ele>3041</ele>
        <time>2014-06-07T09:11:59Z</time>
      </trkpt>
      <trkpt lat="42.82781" lon="0.10772">
        <ele>3042</ele>
        <time>2014-06-07T09:12:00Z</time>
      </trkpt>
      <trkpt lat="42.82782" lon="0.10772">
        <ele>3048</ele>
        <time>2014-06-07T09:12:04Z</time>
      </trkpt>
      <trkpt lat="42.82781" lon="0.10772">
        <ele>3046</ele>
        <time>2014-06-07T09:12:05Z</time>
      </trkpt>
      <trkpt lat="42.82781" lon="0.10772">
        <ele>3041</ele>
        <time>2014-06-07T09:12:06Z</time>
      </trkpt>
      <trkpt lat="42.82781" lon="0.10772">
        <ele>3041</ele>
        <time>2014-06-07T09:12:11Z</time>
      </trkpt>
      <trkpt lat="42.82781" lon="0.10772">
        <ele>3036</ele>
        <time>2014-06-07T09:12:15Z</time>
      </trkpt>
      <trkpt lat="42.82781" lon="0.10771">
        <ele>3037</ele>
        <time>2014-06-07T09:12:16Z</time>
      </trkpt>
      <trkpt lat="42.82781" lon="0.1077">
        <ele>3041</ele>
        <time>2014-06-07T09:12:20Z</time>
      </trkpt>
      <trkpt lat="42.82779" lon="0.1077">
        <ele>3045</ele>
        <time>2014-06-07T09:12:29Z</time>
      </trkpt>
      <trkpt lat="42.8278" lon="0.1077">
        <ele>3052</ele>
        <time>2014-06-07T09:12:30Z</time>
      </trkpt>
      <trkpt lat="42.8278" lon="0.1077">
        <ele>3051</ele>
        <time>2014-06-07T09:12:31Z</time>
      </trkpt>
      <trkpt lat="42.8278" lon="0.1077">
        <ele>3057</ele>
        <time>2014-06-07T09:12:33Z</time>
      </trkpt>
      <trkpt lat="42.8278" lon="0.10771">
        <ele>3063</ele>
        <time>2014-06-07T09:12:34Z</time>
      </trkpt>
      <trkpt lat="42.8278" lon="0.10771">
        <ele>3058</ele>
        <time>2014-06-07T09:12:36Z</time>
      </trkpt>
      <trkpt lat="42.8278" lon="0.10772">
        <ele>3048</ele>
        <time>2014-06-07T09:12:37Z</time>
      </trkpt>
      <trkpt lat="42.82781" lon="0.10773">
        <ele>3043</ele>
        <time>2014-06-07T09:12:40Z</time>
      </trkpt>
      <trkpt lat="42.82781" lon="0.10773">
        <ele>3041</ele>
        <time>2014-06-07T09:12:43Z</time>
      </trkpt>
      <trkpt lat="42.8278" lon="0.10773">
        <ele>3042</ele>
        <time>2014-06-07T09:12:45Z</time>
      </trkpt>
      <trkpt lat="42.8278" lon="0.10774">
        <ele>3038</ele>
        <time>2014-06-07T09:12:48Z</time>
      </trkpt>
      <trkpt lat="42.8278" lon="0.10773">
        <ele>3038</ele>
        <time>2014-06-07T09:12:49Z</time>
      </trkpt>
      <trkpt lat="42.82781" lon="0.10773">
        <ele>3038</ele>
        <time>2014-06-07T09:13:04Z</time>
      </trkpt>
      <trkpt lat="42.82781" lon="0.10774">
        <ele>3037</ele>
        <time>2014-06-07T09:13:06Z</time>
      </trkpt>
      <trkpt lat="42.82782" lon="0.10776">
        <ele>3033</ele>
        <time>2014-06-07T09:13:08Z</time>
      </trkpt>
      <trkpt lat="42.82782" lon="0.10774">
        <ele>3034</ele>
        <time>2014-06-07T09:13:18Z</time>
      </trkpt>
      <trkpt lat="42.82783" lon="0.10773">
        <ele>3036</ele>
        <time>2014-06-07T09:13:23Z</time>
      </trkpt>
      <trkpt lat="42.82783" lon="0.10773">
        <ele>3040</ele>
        <time>2014-06-07T09:13:26Z</time>
      </trkpt>
      <trkpt lat="42.82783" lon="0.10773">
        <ele>3042</ele>
        <time>2014-06-07T09:13:28Z</time>
      </trkpt>
      <trkpt lat="42.82784" lon="0.10772">
        <ele>3049</ele>
        <time>2014-06-07T09:13:32Z</time>
      </trkpt>
      <trkpt lat="42.82784" lon="0.10771">
        <ele>3054</ele>
        <time>2014-06-07T09:13:33Z</time>
      </trkpt>
      <trkpt lat="42.82785" lon="0.10771">
        <ele>3053</ele>
        <time>2014-06-07T09:13:34Z</time>
      </trkpt>
      <trkpt lat="42.82785" lon="0.1077">
        <ele>3056</ele>
        <time>2014-06-07T09:13:37Z</time>
      </trkpt>
      <trkpt lat="42.82785" lon="0.10771">
        <ele>3051</ele>
        <time>2014-06-07T09:13:38Z</time>
      </trkpt>
      <trkpt lat="42.82785" lon="0.10771">
        <ele>3046</ele>
        <time>2014-06-07T09:13:39Z</time>
      </trkpt>
      <trkpt lat="42.82785" lon="0.10772">
        <ele>3043</ele>
        <time>2014-06-07T09:13:40Z</time>
      </trkpt>
      <trkpt lat="42.82784" lon="0.10772">
        <ele>3039</ele>
        <time>2014-06-07T09:13:42Z</time>
      </trkpt>
      <trkpt lat="42.82783" lon="0.10772">
        <ele>3038</ele>
        <time>2014-06-07T09:13:44Z</time>
      </trkpt>
      <trkpt lat="42.82782" lon="0.10771">
        <ele>3043</ele>
        <time>2014-06-07T09:13:46Z</time>
      </trkpt>
      <trkpt lat="42.82781" lon="0.1077">
        <ele>3048</ele>
        <time>2014-06-07T09:13:50Z</time>
      </trkpt>
      <trkpt lat="42.8278" lon="0.1077">
        <ele>3044</ele>
        <time>2014-06-07T09:13:59Z</time>
      </trkpt>
      <trkpt lat="42.8278" lon="0.1077">
        <ele>3041</ele>
        <time>2014-06-07T09:14:02Z</time>
      </trkpt>
      <trkpt lat="42.8278" lon="0.10769">
        <ele>3044</ele>
        <time>2014-06-07T09:14:05Z</time>
      </trkpt>
      <trkpt lat="42.8278" lon="0.10769">
        <ele>3045</ele>
        <time>2014-06-07T09:14:06Z</time>
      </trkpt>
      <trkpt lat="42.82782" lon="0.1077">
        <ele>3039</ele>
        <time>2014-06-07T09:14:11Z</time>
      </trkpt>
      <trkpt lat="42.82782" lon="0.10769">
        <ele>3039</ele>
        <time>2014-06-07T09:14:12Z</time>
      </trkpt>
      <trkpt lat="42.82782" lon="0.1077">
        <ele>3042</ele>
        <time>2014-06-07T09:14:14Z</time>
      </trkpt>
      <trkpt lat="42.82781" lon="0.1077">
        <ele>3043</ele>
        <time>2014-06-07T09:14:16Z</time>
      </trkpt>
      <trkpt lat="42.82781" lon="0.10771">
        <ele>3039</ele>
        <time>2014-06-07T09:14:19Z</time>
      </trkpt>
      <trkpt lat="42.82784" lon="0.10774">
        <ele>3043</ele>
        <time>2014-06-07T09:14:29Z</time>
      </trkpt>
      <trkpt lat="42.82784" lon="0.10774">
        <ele>3051</ele>
        <time>2014-06-07T09:14:30Z</time>
      </trkpt>
      <trkpt lat="42.82785" lon="0.10775">
        <ele>3046</ele>
        <time>2014-06-07T09:14:33Z</time>
      </trkpt>
      <trkpt lat="42.82785" lon="0.10776">
        <ele>3048</ele>
        <time>2014-06-07T09:14:34Z</time>
      </trkpt>
      <trkpt lat="42.82786" lon="0.10781">
        <ele>3044</ele>
        <time>2014-06-07T09:14:39Z</time>
      </trkpt>
      <trkpt lat="42.82786" lon="0.10781">
        <ele>3041</ele>
        <time>2014-06-07T09:14:40Z</time>
      </trkpt>
      <trkpt lat="42.82787" lon="0.10782">
        <ele>3035</ele>
        <time>2014-06-07T09:14:43Z</time>
      </trkpt>
      <trkpt lat="42.82787" lon="0.10783">
        <ele>3040</ele>
        <time>2014-06-07T09:14:44Z</time>
      </trkpt>
      <trkpt lat="42.82788" lon="0.10783">
        <ele>3037</ele>
        <time>2014-06-07T09:14:46Z</time>
      </trkpt>
      <trkpt lat="42.82787" lon="0.10782">
        <ele>3040</ele>
        <time>2014-06-07T09:14:47Z</time>
      </trkpt>
      <trkpt lat="42.82787" lon="0.10782">
        <ele>3043</ele>
        <time>2014-06-07T09:14:50Z</time>
      </trkpt>
      <trkpt lat="42.82787" lon="0.10782">
        <ele>3044</ele>
        <time>2014-06-07T09:14:52Z</time>
      </trkpt>
      <trkpt lat="42.82787" lon="0.10782">
        <ele>3040</ele>
        <time>2014-06-07T09:14:54Z</time>
      </trkpt>
      <trkpt lat="42.82787" lon="0.10782">
        <ele>3038</ele>
        <time>2014-06-07T09:14:56Z</time>
      </trkpt>
      <trkpt lat="42.82787" lon="0.10781">
        <ele>3034</ele>
        <time>2014-06-07T09:14:59Z</time>
      </trkpt>
      <trkpt lat="42.82787" lon="0.10781">
        <ele>3030</ele>
        <time>2014-06-07T09:15:02Z</time>
      </trkpt>
      <trkpt lat="42.82788" lon="0.10781">
        <ele>3033</ele>
        <time>2014-06-07T09:15:22Z</time>
      </trkpt>
      <trkpt lat="42.82788" lon="0.10782">
        <ele>3036</ele>
        <time>2014-06-07T09:15:25Z</time>
      </trkpt>
      <trkpt lat="42.82788" lon="0.10781">
        <ele>3040</ele>
        <time>2014-06-07T09:15:27Z</time>
      </trkpt>
      <trkpt lat="42.82788" lon="0.10781">
        <ele>3042</ele>
        <time>2014-06-07T09:15:29Z</time>
      </trkpt>
      <trkpt lat="42.82788" lon="0.10781">
        <ele>3050</ele>
        <time>2014-06-07T09:15:31Z</time>
      </trkpt>
      <trkpt lat="42.82788" lon="0.10781">
        <ele>3057</ele>
        <time>2014-06-07T09:15:33Z</time>
      </trkpt>
      <trkpt lat="42.82789" lon="0.10781">
        <ele>3056</ele>
        <time>2014-06-07T09:15:34Z</time>
      </trkpt>
      <trkpt lat="42.82789" lon="0.10781">
        <ele>3050</ele>
        <time>2014-06-07T09:15:35Z</time>
      </trkpt>
      <trkpt lat="42.82789" lon="0.10781">
        <ele>3040</ele>
        <time>2014-06-07T09:15:36Z</time>
      </trkpt>
      <trkpt lat="42.82789" lon="0.10781">
        <ele>3037</ele>
        <time>2014-06-07T09:15:39Z</time>
      </trkpt>
      <trkpt lat="42.82789" lon="0.10781">
        <ele>3038</ele>
        <time>2014-06-07T09:15:42Z</time>
      </trkpt>
      <trkpt lat="42.82789" lon="0.10781">
        <ele>3035</ele>
        <time>2014-06-07T09:15:45Z</time>
      </trkpt>
      <trkpt lat="42.82788" lon="0.10781">
        <ele>3038</ele>
        <time>2014-06-07T09:15:47Z</time>
      </trkpt>
      <trkpt lat="42.82788" lon="0.10781">
        <ele>3038</ele>
        <time>2014-06-07T09:15:48Z</time>
      </trkpt>
      <trkpt lat="42.82788" lon="0.1078">
        <ele>3035</ele>
        <time>2014-06-07T09:15:54Z</time>
      </trkpt>
      <trkpt lat="42.82788" lon="0.1078">
        <ele>3035</ele>
        <time>2014-06-07T09:15:55Z</time>
      </trkpt>
      <trkpt lat="42.82788" lon="0.1078">
        <ele>3039</ele>
        <time>2014-06-07T09:16:10Z</time>
      </trkpt>
      <trkpt lat="42.82788" lon="0.1078">
        <ele>3039</ele>
        <time>2014-06-07T09:16:11Z</time>
      </trkpt>
      <trkpt lat="42.82788" lon="0.1078">
        <ele>3043</ele>
        <time>2014-06-07T09:16:23Z</time>
      </trkpt>
      <trkpt lat="42.82789" lon="0.1078">
        <ele>3040</ele>
        <time>2014-06-07T09:16:26Z</time>
      </trkpt>
      <trkpt lat="42.82788" lon="0.1078">
        <ele>3044</ele>
        <time>2014-06-07T09:16:32Z</time>
      </trkpt>
      <trkpt lat="42.82788" lon="0.1078">
        <ele>3040</ele>
        <time>2014-06-07T09:16:36Z</time>
      </trkpt>
      <trkpt lat="42.82788" lon="0.10779">
        <ele>3040</ele>
        <time>2014-06-07T09:16:40Z</time>
      </trkpt>
      <trkpt lat="42.82788" lon="0.10779">
        <ele>3045</ele>
        <time>2014-06-07T09:16:42Z</time>
      </trkpt>
      <trkpt lat="42.82788" lon="0.10779">
        <ele>3044</ele>
        <time>2014-06-07T09:16:43Z</time>
      </trkpt>
      <trkpt lat="42.82788" lon="0.10779">
        <ele>3041</ele>
        <time>2014-06-07T09:16:44Z</time>
      </trkpt>
      <trkpt lat="42.82788" lon="0.10779">
        <ele>3041</ele>
        <time>2014-06-07T09:16:45Z</time>
      </trkpt>
      <trkpt lat="42.82789" lon="0.10779">
        <ele>3038</ele>
        <time>2014-06-07T09:16:47Z</time>
      </trkpt>
      <trkpt lat="42.82789" lon="0.10779">
        <ele>3042</ele>
        <time>2014-06-07T09:16:48Z</time>
      </trkpt>
      <trkpt lat="42.82789" lon="0.10779">
        <ele>3035</ele>
        <time>2014-06-07T09:16:50Z</time>
      </trkpt>
      <trkpt lat="42.82789" lon="0.10779">
        <ele>3036</ele>
        <time>2014-06-07T09:16:51Z</time>
      </trkpt>
      <trkpt lat="42.82789" lon="0.10779">
        <ele>3039</ele>
        <time>2014-06-07T09:16:53Z</time>
      </trkpt>
      <trkpt lat="42.82789" lon="0.10779">
        <ele>3043</ele>
        <time>2014-06-07T09:16:54Z</time>
      </trkpt>
      <trkpt lat="42.82789" lon="0.10779">
        <ele>3051</ele>
        <time>2014-06-07T09:16:55Z</time>
      </trkpt>
      <trkpt lat="42.82789" lon="0.10779">
        <ele>3051</ele>
        <time>2014-06-07T09:16:56Z</time>
      </trkpt>
      <trkpt lat="42.82789" lon="0.10779">
        <ele>3047</ele>
        <time>2014-06-07T09:16:57Z</time>
      </trkpt>
      <trkpt lat="42.82789" lon="0.10779">
        <ele>3050</ele>
        <time>2014-06-07T09:16:58Z</time>
      </trkpt>
      <trkpt lat="42.82789" lon="0.10779">
        <ele>3047</ele>
        <time>2014-06-07T09:16:59Z</time>
      </trkpt>
      <trkpt lat="42.82789" lon="0.10779">
        <ele>3041</ele>
        <time>2014-06-07T09:17:02Z</time>
      </trkpt>
      <trkpt lat="42.82789" lon="0.10779">
        <ele>3043</ele>
        <time>2014-06-07T09:17:03Z</time>
      </trkpt>
      <trkpt lat="42.8279" lon="0.1078">
        <ele>3047</ele>
        <time>2014-06-07T09:17:08Z</time>
      </trkpt>
      <trkpt lat="42.8279" lon="0.10782">
        <ele>3043</ele>
        <time>2014-06-07T09:17:11Z</time>
      </trkpt>
      <trkpt lat="42.82791" lon="0.10781">
        <ele>3042</ele>
        <time>2014-06-07T09:17:13Z</time>
      </trkpt>
      <trkpt lat="42.82791" lon="0.10781">
        <ele>3037</ele>
        <time>2014-06-07T09:17:14Z</time>
      </trkpt>
      <trkpt lat="42.82791" lon="0.10781">
        <ele>3044</ele>
        <time>2014-06-07T09:17:15Z</time>
      </trkpt>
      <trkpt lat="42.82791" lon="0.10781">
        <ele>3048</ele>
        <time>2014-06-07T09:17:16Z</time>
      </trkpt>
      <trkpt lat="42.82791" lon="0.10781">
        <ele>3046</ele>
        <time>2014-06-07T09:17:17Z</time>
      </trkpt>
      <trkpt lat="42.82791" lon="0.10781">
        <ele>3039</ele>
        <time>2014-06-07T09:17:18Z</time>
      </trkpt>
      <trkpt lat="42.82792" lon="0.10782">
        <ele>3036</ele>
        <time>2014-06-07T09:17:19Z</time>
      </trkpt>
      <trkpt lat="42.82792" lon="0.10782">
        <ele>3038</ele>
        <time>2014-06-07T09:17:20Z</time>
      </trkpt>
      <trkpt lat="42.82793" lon="0.10783">
        <ele>3041</ele>
        <time>2014-06-07T09:17:21Z</time>
      </trkpt>
      <trkpt lat="42.82793" lon="0.10784">
        <ele>3036</ele>
        <time>2014-06-07T09:17:22Z</time>
      </trkpt>
      <trkpt lat="42.82793" lon="0.10784">
        <ele>3033</ele>
        <time>2014-06-07T09:17:25Z</time>
      </trkpt>
      <trkpt lat="42.82794" lon="0.10783">
        <ele>3029</ele>
        <time>2014-06-07T09:17:27Z</time>
      </trkpt>
      <trkpt lat="42.82794" lon="0.10783">
        <ele>3027</ele>
        <time>2014-06-07T09:17:29Z</time>
      </trkpt>
      <trkpt lat="42.82795" lon="0.10782">
        <ele>3031</ele>
        <time>2014-06-07T09:17:33Z</time>
      </trkpt>
      <trkpt lat="42.82794" lon="0.1078">
        <ele>3035</ele>
        <time>2014-06-07T09:17:35Z</time>
      </trkpt>
      <trkpt lat="42.82794" lon="0.1078">
        <ele>3035</ele>
        <time>2014-06-07T09:17:36Z</time>
      </trkpt>
      <trkpt lat="42.82795" lon="0.10778">
        <ele>3033</ele>
        <time>2014-06-07T09:17:42Z</time>
      </trkpt>
      <trkpt lat="42.82795" lon="0.10778">
        <ele>3039</ele>
        <time>2014-06-07T09:17:44Z</time>
      </trkpt>
      <trkpt lat="42.82795" lon="0.10777">
        <ele>3037</ele>
        <time>2014-06-07T09:17:45Z</time>
      </trkpt>
      <trkpt lat="42.82795" lon="0.10777">
        <ele>3033</ele>
        <time>2014-06-07T09:17:46Z</time>
      </trkpt>
      <trkpt lat="42.82794" lon="0.10776">
        <ele>3037</ele>
        <time>2014-06-07T09:17:47Z</time>
      </trkpt>
      <trkpt lat="42.82794" lon="0.10776">
        <ele>3044</ele>
        <time>2014-06-07T09:17:48Z</time>
      </trkpt>
      <trkpt lat="42.82794" lon="0.10775">
        <ele>3041</ele>
        <time>2014-06-07T09:17:49Z</time>
      </trkpt>
      <trkpt lat="42.82794" lon="0.10775">
        <ele>3038</ele>
        <time>2014-06-07T09:17:50Z</time>
      </trkpt>
      <trkpt lat="42.82794" lon="0.10775">
        <ele>3035</ele>
        <time>2014-06-07T09:17:51Z</time>
      </trkpt>
      <trkpt lat="42.82794" lon="0.10775">
        <ele>3028</ele>
        <time>2014-06-07T09:17:55Z</time>
      </trkpt>
      <trkpt lat="42.82794" lon="0.10775">
        <ele>3024</ele>
        <time>2014-06-07T09:17:56Z</time>
      </trkpt>
      <trkpt lat="42.82794" lon="0.10775">
        <ele>3028</ele>
        <time>2014-06-07T09:17:57Z</time>
      </trkpt>
      <trkpt lat="42.82794" lon="0.10775">
        <ele>3033</ele>
        <time>2014-06-07T09:17:58Z</time>
      </trkpt>
      <trkpt lat="42.82794" lon="0.10775">
        <ele>3033</ele>
        <time>2014-06-07T09:17:59Z</time>
      </trkpt>
      <trkpt lat="42.82795" lon="0.10775">
        <ele>3038</ele>
        <time>2014-06-07T09:18:02Z</time>
      </trkpt>
      <trkpt lat="42.82795" lon="0.10775">
        <ele>3045</ele>
        <time>2014-06-07T09:18:03Z</time>
      </trkpt>
      <trkpt lat="42.82795" lon="0.10775">
        <ele>3053</ele>
        <time>2014-06-07T09:18:04Z</time>
      </trkpt>
      <trkpt lat="42.82795" lon="0.10775">
        <ele>3052</ele>
        <time>2014-06-07T09:18:05Z</time>
      </trkpt>
      <trkpt lat="42.82795" lon="0.10775">
        <ele>3046</ele>
        <time>2014-06-07T09:18:06Z</time>
      </trkpt>
      <trkpt lat="42.82795" lon="0.10775">
        <ele>3051</ele>
        <time>2014-06-07T09:18:08Z</time>
      </trkpt>
      <trkpt lat="42.82795" lon="0.10775">
        <ele>3049</ele>
        <time>2014-06-07T09:18:09Z</time>
      </trkpt>
      <trkpt lat="42.82795" lon="0.10774">
        <ele>3042</ele>
        <time>2014-06-07T09:18:10Z</time>
      </trkpt>
      <trkpt lat="42.82795" lon="0.10774">
        <ele>3060</ele>
        <time>2014-06-07T09:18:11Z</time>
      </trkpt>
      <trkpt lat="42.82795" lon="0.10775">
        <ele>3052</ele>
        <time>2014-06-07T09:18:12Z</time>
      </trkpt>
      <trkpt lat="42.82795" lon="0.10775">
        <ele>3046</ele>
        <time>2014-06-07T09:18:13Z</time>
      </trkpt>
      <trkpt lat="42.82795" lon="0.10774">
        <ele>3041</ele>
        <time>2014-06-07T09:18:14Z</time>
      </trkpt>
      <trkpt lat="42.82795" lon="0.10775">
        <ele>3042</ele>
        <time>2014-06-07T09:18:15Z</time>
      </trkpt>
      <trkpt lat="42.82795" lon="0.10775">
        <ele>3036</ele>
        <time>2014-06-07T09:18:16Z</time>
      </trkpt>
      <trkpt lat="42.82795" lon="0.10775">
        <ele>3030</ele>
        <time>2014-06-07T09:18:17Z</time>
      </trkpt>
      <trkpt lat="42.82795" lon="0.10775">
        <ele>3026</ele>
        <time>2014-06-07T09:18:18Z</time>
      </trkpt>
      <trkpt lat="42.82795" lon="0.10775">
        <ele>3027</ele>
        <time>2014-06-07T09:18:19Z</time>
      </trkpt>
      <trkpt lat="42.82795" lon="0.10775">
        <ele>3029</ele>
        <time>2014-06-07T09:18:31Z</time>
      </trkpt>
      <trkpt lat="42.82795" lon="0.10775">
        <ele>3033</ele>
        <time>2014-06-07T09:18:36Z</time>
      </trkpt>
      <trkpt lat="42.82795" lon="0.10775">
        <ele>3035</ele>
        <time>2014-06-07T09:18:37Z</time>
      </trkpt>
      <trkpt lat="42.82796" lon="0.10774">
        <ele>3031</ele>
        <time>2014-06-07T09:18:42Z</time>
      </trkpt>
      <trkpt lat="42.82796" lon="0.10774">
        <ele>3031</ele>
        <time>2014-06-07T09:18:43Z</time>
      </trkpt>
      <trkpt lat="42.82796" lon="0.10774">
        <ele>3035</ele>
        <time>2014-06-07T09:18:45Z</time>
      </trkpt>
      <trkpt lat="42.82796" lon="0.10775">
        <ele>3041</ele>
        <time>2014-06-07T09:18:47Z</time>
      </trkpt>
      <trkpt lat="42.82797" lon="0.10775">
        <ele>3049</ele>
        <time>2014-06-07T09:18:54Z</time>
      </trkpt>
      <trkpt lat="42.82797" lon="0.10775">
        <ele>3047</ele>
        <time>2014-06-07T09:18:55Z</time>
      </trkpt>
      <trkpt lat="42.82796" lon="0.10775">
        <ele>3043</ele>
        <time>2014-06-07T09:18:56Z</time>
      </trkpt>
      <trkpt lat="42.82797" lon="0.10774">
        <ele>3040</ele>
        <time>2014-06-07T09:18:59Z</time>
      </trkpt>
      <trkpt lat="42.82796" lon="0.10775">
        <ele>3036</ele>
        <time>2014-06-07T09:19:01Z</time>
      </trkpt>
      <trkpt lat="42.82796" lon="0.10774">
        <ele>3033</ele>
        <time>2014-06-07T09:19:02Z</time>
      </trkpt>
      <trkpt lat="42.82796" lon="0.10775">
        <ele>3029</ele>
        <time>2014-06-07T09:19:05Z</time>
      </trkpt>
      <trkpt lat="42.82796" lon="0.10775">
        <ele>3029</ele>
        <time>2014-06-07T09:19:06Z</time>
      </trkpt>
      <trkpt lat="42.82797" lon="0.10775">
        <ele>3031</ele>
        <time>2014-06-07T09:19:10Z</time>
      </trkpt>
      <trkpt lat="42.82797" lon="0.10775">
        <ele>3033</ele>
        <time>2014-06-07T09:19:12Z</time>
      </trkpt>
      <trkpt lat="42.82799" lon="0.10775">
        <ele>3038</ele>
        <time>2014-06-07T09:19:19Z</time>
      </trkpt>
      <trkpt lat="42.82798" lon="0.10775">
        <ele>3033</ele>
        <time>2014-06-07T09:19:22Z</time>
      </trkpt>
      <trkpt lat="42.82798" lon="0.10774">
        <ele>3036</ele>
        <time>2014-06-07T09:19:23Z</time>
      </trkpt>
      <trkpt lat="42.82798" lon="0.10774">
        <ele>3041</ele>
        <time>2014-06-07T09:19:25Z</time>
      </trkpt>
      <trkpt lat="42.82797" lon="0.10774">
        <ele>3045</ele>
        <time>2014-06-07T09:19:26Z</time>
      </trkpt>
      <trkpt lat="42.82797" lon="0.10774">
        <ele>3050</ele>
        <time>2014-06-07T09:19:29Z</time>
      </trkpt>
      <trkpt lat="42.82797" lon="0.10774">
        <ele>3048</ele>
        <time>2014-06-07T09:19:30Z</time>
      </trkpt>
      <trkpt lat="42.82797" lon="0.10774">
        <ele>3039</ele>
        <time>2014-06-07T09:19:31Z</time>
      </trkpt>
      <trkpt lat="42.82796" lon="0.10774">
        <ele>3042</ele>
        <time>2014-06-07T09:19:32Z</time>
      </trkpt>
      <trkpt lat="42.82796" lon="0.10774">
        <ele>3046</ele>
        <time>2014-06-07T09:19:33Z</time>
      </trkpt>
      <trkpt lat="42.82796" lon="0.10774">
        <ele>3049</ele>
        <time>2014-06-07T09:19:35Z</time>
      </trkpt>
      <trkpt lat="42.82796" lon="0.10774">
        <ele>3058</ele>
        <time>2014-06-07T09:19:37Z</time>
      </trkpt>
      <trkpt lat="42.82796" lon="0.10774">
        <ele>3058</ele>
        <time>2014-06-07T09:19:38Z</time>
      </trkpt>
      <trkpt lat="42.82796" lon="0.10774">
        <ele>3054</ele>
        <time>2014-06-07T09:19:39Z</time>
      </trkpt>
      <trkpt lat="42.82796" lon="0.10774">
        <ele>3048</ele>
        <time>2014-06-07T09:19:40Z</time>
      </trkpt>
      <trkpt lat="42.82796" lon="0.10774">
        <ele>3038</ele>
        <time>2014-06-07T09:19:41Z</time>
      </trkpt>
      <trkpt lat="42.82796" lon="0.10774">
        <ele>3034</ele>
        <time>2014-06-07T09:19:42Z</time>
      </trkpt>
      <trkpt lat="42.82796" lon="0.10774">
        <ele>3034</ele>
        <time>2014-06-07T09:19:44Z</time>
      </trkpt>
      <trkpt lat="42.82796" lon="0.10774">
        <ele>3037</ele>
        <time>2014-06-07T09:19:45Z</time>
      </trkpt>
      <trkpt lat="42.82797" lon="0.10774">
        <ele>3044</ele>
        <time>2014-06-07T09:19:48Z</time>
      </trkpt>
      <trkpt lat="42.82797" lon="0.10774">
        <ele>3044</ele>
        <time>2014-06-07T09:19:49Z</time>
      </trkpt>
      <trkpt lat="42.82797" lon="0.10774">
        <ele>3036</ele>
        <time>2014-06-07T09:19:53Z</time>
      </trkpt>
      <trkpt lat="42.82797" lon="0.10774">
        <ele>3039</ele>
        <time>2014-06-07T09:19:54Z</time>
      </trkpt>
      <trkpt lat="42.82797" lon="0.10774">
        <ele>3035</ele>
        <time>2014-06-07T09:20:00Z</time>
      </trkpt>
      <trkpt lat="42.82797" lon="0.10774">
        <ele>3030</ele>
        <time>2014-06-07T09:20:01Z</time>
      </trkpt>
      <trkpt lat="42.82797" lon="0.10774">
        <ele>3031</ele>
        <time>2014-06-07T09:20:02Z</time>
      </trkpt>
      <trkpt lat="42.82797" lon="0.10774">
        <ele>3034</ele>
        <time>2014-06-07T09:20:04Z</time>
      </trkpt>
      <trkpt lat="42.82797" lon="0.10774">
        <ele>3037</ele>
        <time>2014-06-07T09:20:06Z</time>
      </trkpt>
      <trkpt lat="42.82797" lon="0.10774">
        <ele>3033</ele>
        <time>2014-06-07T09:20:15Z</time>
      </trkpt>
      <trkpt lat="42.82797" lon="0.10773">
        <ele>3034</ele>
        <time>2014-06-07T09:20:16Z</time>
      </trkpt>
      <trkpt lat="42.82797" lon="0.10773">
        <ele>3035</ele>
        <time>2014-06-07T09:20:18Z</time>
      </trkpt>
      <trkpt lat="42.82797" lon="0.10773">
        <ele>3039</ele>
        <time>2014-06-07T09:20:19Z</time>
      </trkpt>
      <trkpt lat="42.82797" lon="0.10773">
        <ele>3046</ele>
        <time>2014-06-07T09:20:24Z</time>
      </trkpt>
      <trkpt lat="42.82797" lon="0.10773">
        <ele>3039</ele>
        <time>2014-06-07T09:20:25Z</time>
      </trkpt>
      <trkpt lat="42.82797" lon="0.10774">
        <ele>3037</ele>
        <time>2014-06-07T09:20:27Z</time>
      </trkpt>
      <trkpt lat="42.82797" lon="0.10774">
        <ele>3045</ele>
        <time>2014-06-07T09:20:32Z</time>
      </trkpt>
      <trkpt lat="42.82797" lon="0.10774">
        <ele>3045</ele>
        <time>2014-06-07T09:20:33Z</time>
      </trkpt>
      <trkpt lat="42.82797" lon="0.10774">
        <ele>3049</ele>
        <time>2014-06-07T09:20:36Z</time>
      </trkpt>
      <trkpt lat="42.82797" lon="0.10774">
        <ele>3046</ele>
        <time>2014-06-07T09:20:37Z</time>
      </trkpt>
      <trkpt lat="42.82797" lon="0.10774">
        <ele>3041</ele>
        <time>2014-06-07T09:20:38Z</time>
      </trkpt>
      <trkpt lat="42.82797" lon="0.10775">
        <ele>3043</ele>
        <time>2014-06-07T09:20:39Z</time>
      </trkpt>
      <trkpt lat="42.82797" lon="0.10775">
        <ele>3048</ele>
        <time>2014-06-07T09:20:40Z</time>
      </trkpt>
      <trkpt lat="42.82797" lon="0.10775">
        <ele>3042</ele>
        <time>2014-06-07T09:20:41Z</time>
      </trkpt>
      <trkpt lat="42.82797" lon="0.10775">
        <ele>3037</ele>
        <time>2014-06-07T09:20:44Z</time>
      </trkpt>
      <trkpt lat="42.82797" lon="0.10775">
        <ele>3038</ele>
        <time>2014-06-07T09:20:45Z</time>
      </trkpt>
      <trkpt lat="42.82798" lon="0.10775">
        <ele>3035</ele>
        <time>2014-06-07T09:20:51Z</time>
      </trkpt>
      <trkpt lat="42.82798" lon="0.10775">
        <ele>3035</ele>
        <time>2014-06-07T09:20:52Z</time>
      </trkpt>
      <trkpt lat="42.82798" lon="0.10775">
        <ele>3040</ele>
        <time>2014-06-07T09:20:56Z</time>
      </trkpt>
      <trkpt lat="42.82798" lon="0.10775">
        <ele>3045</ele>
        <time>2014-06-07T09:20:57Z</time>
      </trkpt>
      <trkpt lat="42.82799" lon="0.10775">
        <ele>3041</ele>
        <time>2014-06-07T09:20:59Z</time>
      </trkpt>
      <trkpt lat="42.82799" lon="0.10775">
        <ele>3035</ele>
        <time>2014-06-07T09:21:00Z</time>
      </trkpt>
      <trkpt lat="42.82799" lon="0.10775">
        <ele>3036</ele>
        <time>2014-06-07T09:21:01Z</time>
      </trkpt>
      <trkpt lat="42.82799" lon="0.10775">
        <ele>3040</ele>
        <time>2014-06-07T09:21:02Z</time>
      </trkpt>
      <trkpt lat="42.82799" lon="0.10776">
        <ele>3038</ele>
        <time>2014-06-07T09:21:03Z</time>
      </trkpt>
      <trkpt lat="42.828" lon="0.10776">
        <ele>3042</ele>
        <time>2014-06-07T09:21:05Z</time>
      </trkpt>
      <trkpt lat="42.828" lon="0.10776">
        <ele>3047</ele>
        <time>2014-06-07T09:21:06Z</time>
      </trkpt>
      <trkpt lat="42.828" lon="0.10775">
        <ele>3051</ele>
        <time>2014-06-07T09:21:07Z</time>
      </trkpt>
      <trkpt lat="42.828" lon="0.10775">
        <ele>3046</ele>
        <time>2014-06-07T09:21:10Z</time>
      </trkpt>
      <trkpt lat="42.82801" lon="0.10775">
        <ele>3051</ele>
        <time>2014-06-07T09:21:14Z</time>
      </trkpt>
      <trkpt lat="42.82801" lon="0.10775">
        <ele>3051</ele>
        <time>2014-06-07T09:21:15Z</time>
      </trkpt>
      <trkpt lat="42.82801" lon="0.10775">
        <ele>3044</ele>
        <time>2014-06-07T09:21:18Z</time>
      </trkpt>
      <trkpt lat="42.82801" lon="0.10775">
        <ele>3047</ele>
        <time>2014-06-07T09:21:20Z</time>
      </trkpt>
      <trkpt lat="42.82801" lon="0.10775">
        <ele>3050</ele>
        <time>2014-06-07T09:21:21Z</time>
      </trkpt>
      <trkpt lat="42.82801" lon="0.10775">
        <ele>3048</ele>
        <time>2014-06-07T09:21:22Z</time>
      </trkpt>
      <trkpt lat="42.82801" lon="0.10775">
        <ele>3045</ele>
        <time>2014-06-07T09:21:24Z</time>
      </trkpt>
      <trkpt lat="42.82801" lon="0.10776">
        <ele>3034</ele>
        <time>2014-06-07T09:21:26Z</time>
      </trkpt>
      <trkpt lat="42.828" lon="0.10776">
        <ele>3030</ele>
        <time>2014-06-07T09:21:29Z</time>
      </trkpt>
      <trkpt lat="42.828" lon="0.10776">
        <ele>3025</ele>
        <time>2014-06-07T09:21:30Z</time>
      </trkpt>
      <trkpt lat="42.828" lon="0.10776">
        <ele>3022</ele>
        <time>2014-06-07T09:21:32Z</time>
      </trkpt>
      <trkpt lat="42.828" lon="0.10776">
        <ele>3027</ele>
        <time>2014-06-07T09:21:34Z</time>
      </trkpt>
      <trkpt lat="42.828" lon="0.10776">
        <ele>3023</ele>
        <time>2014-06-07T09:21:35Z</time>
      </trkpt>
      <trkpt lat="42.82799" lon="0.10775">
        <ele>3023</ele>
        <time>2014-06-07T09:21:53Z</time>
      </trkpt>
      <trkpt lat="42.82799" lon="0.10774">
        <ele>3022</ele>
        <time>2014-06-07T09:21:55Z</time>
      </trkpt>
      <trkpt lat="42.82798" lon="0.10774">
        <ele>3018</ele>
        <time>2014-06-07T09:21:57Z</time>
      </trkpt>
      <trkpt lat="42.82798" lon="0.10774">
        <ele>3018</ele>
        <time>2014-06-07T09:21:58Z</time>
      </trkpt>
      <trkpt lat="42.82798" lon="0.10773">
        <ele>3021</ele>
        <time>2014-06-07T09:22:02Z</time>
      </trkpt>
      <trkpt lat="42.82798" lon="0.10773">
        <ele>3022</ele>
        <time>2014-06-07T09:22:06Z</time>
      </trkpt>
      <trkpt lat="42.82797" lon="0.10774">
        <ele>3026</ele>
        <time>2014-06-07T09:22:22Z</time>
      </trkpt>
      <trkpt lat="42.82798" lon="0.10774">
        <ele>3027</ele>
        <time>2014-06-07T09:22:24Z</time>
      </trkpt>
      <trkpt lat="42.82798" lon="0.10773">
        <ele>3031</ele>
        <time>2014-06-07T09:22:27Z</time>
      </trkpt>
      <trkpt lat="42.82798" lon="0.10772">
        <ele>3031</ele>
        <time>2014-06-07T09:22:28Z</time>
      </trkpt>
      <trkpt lat="42.82798" lon="0.10772">
        <ele>3027</ele>
        <time>2014-06-07T09:22:34Z</time>
      </trkpt>
      <trkpt lat="42.82799" lon="0.10771">
        <ele>3024</ele>
        <time>2014-06-07T09:22:42Z</time>
      </trkpt>
      <trkpt lat="42.82799" lon="0.10772">
        <ele>3027</ele>
        <time>2014-06-07T09:22:44Z</time>
      </trkpt>
      <trkpt lat="42.82798" lon="0.10772">
        <ele>3031</ele>
        <time>2014-06-07T09:22:47Z</time>
      </trkpt>
      <trkpt lat="42.82798" lon="0.10771">
        <ele>3036</ele>
        <time>2014-06-07T09:22:50Z</time>
      </trkpt>
      <trkpt lat="42.82798" lon="0.10771">
        <ele>3031</ele>
        <time>2014-06-07T09:22:53Z</time>
      </trkpt>
      <trkpt lat="42.82798" lon="0.10771">
        <ele>3038</ele>
        <time>2014-06-07T09:22:56Z</time>
      </trkpt>
      <trkpt lat="42.82798" lon="0.10771">
        <ele>3035</ele>
        <time>2014-06-07T09:22:57Z</time>
      </trkpt>
      <trkpt lat="42.82798" lon="0.10771">
        <ele>3033</ele>
        <time>2014-06-07T09:22:58Z</time>
      </trkpt>
      <trkpt lat="42.82798" lon="0.10771">
        <ele>3033</ele>
        <time>2014-06-07T09:22:59Z</time>
      </trkpt>
      <trkpt lat="42.82798" lon="0.10771">
        <ele>3039</ele>
        <time>2014-06-07T09:23:01Z</time>
      </trkpt>
      <trkpt lat="42.82799" lon="0.10771">
        <ele>3035</ele>
        <time>2014-06-07T09:23:08Z</time>
      </trkpt>
      <trkpt lat="42.82799" lon="0.10771">
        <ele>3032</ele>
        <time>2014-06-07T09:23:11Z</time>
      </trkpt>
      <trkpt lat="42.82799" lon="0.10771">
        <ele>3025</ele>
        <time>2014-06-07T09:23:12Z</time>
      </trkpt>
      <trkpt lat="42.82799" lon="0.10771">
        <ele>3024</ele>
        <time>2014-06-07T09:23:14Z</time>
      </trkpt>
      <trkpt lat="42.82799" lon="0.10771">
        <ele>3022</ele>
        <time>2014-06-07T09:23:19Z</time>
      </trkpt>
      <trkpt lat="42.828" lon="0.10771">
        <ele>3035</ele>
        <time>2014-06-07T09:23:20Z</time>
      </trkpt>
      <trkpt lat="42.828" lon="0.10771">
        <ele>3043</ele>
        <time>2014-06-07T09:23:21Z</time>
      </trkpt>
      <trkpt lat="42.828" lon="0.10772">
        <ele>3048</ele>
        <time>2014-06-07T09:23:23Z</time>
      </trkpt>
      <trkpt lat="42.828" lon="0.10771">
        <ele>3051</ele>
        <time>2014-06-07T09:23:24Z</time>
      </trkpt>
      <trkpt lat="42.82801" lon="0.10771">
        <ele>3050</ele>
        <time>2014-06-07T09:23:25Z</time>
      </trkpt>
      <trkpt lat="42.82801" lon="0.10771">
        <ele>3044</ele>
        <time>2014-06-07T09:23:26Z</time>
      </trkpt>
      <trkpt lat="42.82801" lon="0.10771">
        <ele>3039</ele>
        <time>2014-06-07T09:23:28Z</time>
      </trkpt>
      <trkpt lat="42.82801" lon="0.10771">
        <ele>3035</ele>
        <time>2014-06-07T09:23:29Z</time>
      </trkpt>
      <trkpt lat="42.82801" lon="0.10771">
        <ele>3032</ele>
        <time>2014-06-07T09:23:30Z</time>
      </trkpt>
      <trkpt lat="42.82801" lon="0.10771">
        <ele>3033</ele>
        <time>2014-06-07T09:23:31Z</time>
      </trkpt>
      <trkpt lat="42.82801" lon="0.10771">
        <ele>3027</ele>
        <time>2014-06-07T09:23:35Z</time>
      </trkpt>
      <trkpt lat="42.82801" lon="0.10771">
        <ele>3034</ele>
        <time>2014-06-07T09:23:37Z</time>
      </trkpt>
      <trkpt lat="42.82801" lon="0.1077">
        <ele>3037</ele>
        <time>2014-06-07T09:23:42Z</time>
      </trkpt>
      <trkpt lat="42.82801" lon="0.1077">
        <ele>3045</ele>
        <time>2014-06-07T09:23:43Z</time>
      </trkpt>
      <trkpt lat="42.82801" lon="0.1077">
        <ele>3036</ele>
        <time>2014-06-07T09:23:44Z</time>
      </trkpt>
      <trkpt lat="42.828" lon="0.1077">
        <ele>3032</ele>
        <time>2014-06-07T09:23:46Z</time>
      </trkpt>
      <trkpt lat="42.828" lon="0.1077">
        <ele>3034</ele>
        <time>2014-06-07T09:23:47Z</time>
      </trkpt>
      <trkpt lat="42.828" lon="0.1077">
        <ele>3032</ele>
        <time>2014-06-07T09:23:51Z</time>
      </trkpt>
      <trkpt lat="42.828" lon="0.1077">
        <ele>3028</ele>
        <time>2014-06-07T09:23:55Z</time>
      </trkpt>
      <trkpt lat="42.828" lon="0.1077">
        <ele>3023</ele>
        <time>2014-06-07T09:23:56Z</time>
      </trkpt>
      <trkpt lat="42.828" lon="0.10769">
        <ele>3020</ele>
        <time>2014-06-07T09:23:58Z</time>
      </trkpt>
      <trkpt lat="42.82801" lon="0.10769">
        <ele>3023</ele>
        <time>2014-06-07T09:24:01Z</time>
      </trkpt>
      <trkpt lat="42.82801" lon="0.10769">
        <ele>3023</ele>
        <time>2014-06-07T09:24:02Z</time>
      </trkpt>
      <trkpt lat="42.82801" lon="0.10769">
        <ele>3021</ele>
        <time>2014-06-07T09:24:04Z</time>
      </trkpt>
      <trkpt lat="42.82804" lon="0.10768">
        <ele>3022</ele>
        <time>2014-06-07T09:24:16Z</time>
      </trkpt>
      <trkpt lat="42.82804" lon="0.10768">
        <ele>3022</ele>
        <time>2014-06-07T09:24:17Z</time>
      </trkpt>
      <trkpt lat="42.82806" lon="0.1077">
        <ele>3032</ele>
        <time>2014-06-07T09:24:19Z</time>
      </trkpt>
      <trkpt lat="42.82807" lon="0.10771">
        <ele>3032</ele>
        <time>2014-06-07T09:24:21Z</time>
      </trkpt>
      <trkpt lat="42.82807" lon="0.10769">
        <ele>3025</ele>
        <time>2014-06-07T09:24:22Z</time>
      </trkpt>
      <trkpt lat="42.82807" lon="0.10767">
        <ele>3017</ele>
        <time>2014-06-07T09:24:23Z</time>
      </trkpt>
      <trkpt lat="42.82807" lon="0.10765">
        <ele>3011</ele>
        <time>2014-06-07T09:24:24Z</time>
      </trkpt>
      <trkpt lat="42.82807" lon="0.10763">
        <ele>3014</ele>
        <time>2014-06-07T09:24:25Z</time>
      </trkpt>
      <trkpt lat="42.82807" lon="0.10762">
        <ele>3011</ele>
        <time>2014-06-07T09:24:26Z</time>
      </trkpt>
      <trkpt lat="42.82809" lon="0.10764">
        <ele>3014</ele>
        <time>2014-06-07T09:24:31Z</time>
      </trkpt>
      <trkpt lat="42.8281" lon="0.10764">
        <ele>3016</ele>
        <time>2014-06-07T09:24:32Z</time>
      </trkpt>
      <trkpt lat="42.82815" lon="0.10763">
        <ele>3008</ele>
        <time>2014-06-07T09:24:37Z</time>
      </trkpt>
      <trkpt lat="42.82822" lon="0.10768">
        <ele>3021</ele>
        <time>2014-06-07T09:24:40Z</time>
      </trkpt>
      <trkpt lat="42.82825" lon="0.1077">
        <ele>3018</ele>
        <time>2014-06-07T09:24:41Z</time>
      </trkpt>
      <trkpt lat="42.82828" lon="0.10771">
        <ele>3022</ele>
        <time>2014-06-07T09:24:42Z</time>
      </trkpt>
      <trkpt lat="42.82834" lon="0.10771">
        <ele>3027</ele>
        <time>2014-06-07T09:24:44Z</time>
      </trkpt>
      <trkpt lat="42.82841" lon="0.10763">
        <ele>3017</ele>
        <time>2014-06-07T09:24:47Z</time>
      </trkpt>
      <trkpt lat="42.82843" lon="0.10758">
        <ele>3007</ele>
        <time>2014-06-07T09:24:48Z</time>
      </trkpt>
      <trkpt lat="42.82845" lon="0.10754">
        <ele>3005</ele>
        <time>2014-06-07T09:24:49Z</time>
      </trkpt>
      <trkpt lat="42.82847" lon="0.10728">
        <ele>2994</ele>
        <time>2014-06-07T09:24:54Z</time>
      </trkpt>
      <trkpt lat="42.82849" lon="0.10717">
        <ele>2994</ele>
        <time>2014-06-07T09:24:56Z</time>
      </trkpt>
      <trkpt lat="42.82852" lon="0.10701">
        <ele>2989</ele>
        <time>2014-06-07T09:24:59Z</time>
      </trkpt>
      <trkpt lat="42.82855" lon="0.10687">
        <ele>2984</ele>
        <time>2014-06-07T09:25:02Z</time>
      </trkpt>
      <trkpt lat="42.82864" lon="0.10677">
        <ele>2979</ele>
        <time>2014-06-07T09:25:05Z</time>
      </trkpt>
      <trkpt lat="42.82869" lon="0.10669">
        <ele>2976</ele>
        <time>2014-06-07T09:25:07Z</time>
      </trkpt>
      <trkpt lat="42.82873" lon="0.10666">
        <ele>2974</ele>
        <time>2014-06-07T09:25:08Z</time>
      </trkpt>
      <trkpt lat="42.82885" lon="0.10656">
        <ele>2973</ele>
        <time>2014-06-07T09:25:15Z</time>
      </trkpt>
      <trkpt lat="42.82886" lon="0.10655">
        <ele>2975</ele>
        <time>2014-06-07T09:25:17Z</time>
      </trkpt>
      <trkpt lat="42.82887" lon="0.10654">
        <ele>2975</ele>
        <time>2014-06-07T09:25:18Z</time>
      </trkpt>
      <trkpt lat="42.8289" lon="0.10651">
        <ele>2972</ele>
        <time>2014-06-07T09:25:29Z</time>
      </trkpt>
      <trkpt lat="42.8289" lon="0.10652">
        <ele>2974</ele>
        <time>2014-06-07T09:25:37Z</time>
      </trkpt>
      <trkpt lat="42.82888" lon="0.10652">
        <ele>2979</ele>
        <time>2014-06-07T09:25:43Z</time>
      </trkpt>
      <trkpt lat="42.82888" lon="0.10652">
        <ele>2979</ele>
        <time>2014-06-07T09:25:44Z</time>
      </trkpt>
      <trkpt lat="42.82879" lon="0.10658">
        <ele>2977</ele>
        <time>2014-06-07T09:26:09Z</time>
      </trkpt>
      <trkpt lat="42.82877" lon="0.10658">
        <ele>2974</ele>
        <time>2014-06-07T09:26:28Z</time>
      </trkpt>
      <trkpt lat="42.82878" lon="0.10658">
        <ele>2975</ele>
        <time>2014-06-07T09:26:31Z</time>
      </trkpt>
      <trkpt lat="42.82877" lon="0.10659">
        <ele>2978</ele>
        <time>2014-06-07T09:26:34Z</time>
      </trkpt>
      <trkpt lat="42.82876" lon="0.10658">
        <ele>2974</ele>
        <time>2014-06-07T09:26:38Z</time>
      </trkpt>
      <trkpt lat="42.82875" lon="0.10657">
        <ele>2973</ele>
        <time>2014-06-07T09:26:39Z</time>
      </trkpt>
      <trkpt lat="42.82879" lon="0.10649">
        <ele>2969</ele>
        <time>2014-06-07T09:26:42Z</time>
      </trkpt>
      <trkpt lat="42.82884" lon="0.10639">
        <ele>2965</ele>
        <time>2014-06-07T09:26:44Z</time>
      </trkpt>
      <trkpt lat="42.82884" lon="0.10633">
        <ele>2966</ele>
        <time>2014-06-07T09:26:45Z</time>
      </trkpt>
      <trkpt lat="42.82886" lon="0.10607">
        <ele>2964</ele>
        <time>2014-06-07T09:26:50Z</time>
      </trkpt>
      <trkpt lat="42.82896" lon="0.10599">
        <ele>2960</ele>
        <time>2014-06-07T09:26:53Z</time>
      </trkpt>
      <trkpt lat="42.82908" lon="0.10594">
        <ele>2956</ele>
        <time>2014-06-07T09:26:56Z</time>
      </trkpt>
      <trkpt lat="42.82909" lon="0.10589">
        <ele>2956</ele>
        <time>2014-06-07T09:26:57Z</time>
      </trkpt>
      <trkpt lat="42.82922" lon="0.10587">
        <ele>2952</ele>
        <time>2014-06-07T09:27:00Z</time>
      </trkpt>
      <trkpt lat="42.82926" lon="0.10585">
        <ele>2951</ele>
        <time>2014-06-07T09:27:01Z</time>
      </trkpt>
      <trkpt lat="42.82933" lon="0.10576">
        <ele>2948</ele>
        <time>2014-06-07T09:27:04Z</time>
      </trkpt>
      <trkpt lat="42.82938" lon="0.10568">
        <ele>2945</ele>
        <time>2014-06-07T09:27:07Z</time>
      </trkpt>
      <trkpt lat="42.82937" lon="0.10563">
        <ele>2945</ele>
        <time>2014-06-07T09:27:08Z</time>
      </trkpt>
      <trkpt lat="42.82935" lon="0.10555">
        <ele>2942</ele>
        <time>2014-06-07T09:27:10Z</time>
      </trkpt>
      <trkpt lat="42.82939" lon="0.10543">
        <ele>2938</ele>
        <time>2014-06-07T09:27:13Z</time>
      </trkpt>
      <trkpt lat="42.82946" lon="0.10535">
        <ele>2933</ele>
        <time>2014-06-07T09:27:16Z</time>
      </trkpt>
      <trkpt lat="42.82949" lon="0.10533">
        <ele>2932</ele>
        <time>2014-06-07T09:27:17Z</time>
      </trkpt>
      <trkpt lat="42.82963" lon="0.1052">
        <ele>2930</ele>
        <time>2014-06-07T09:27:25Z</time>
      </trkpt>
      <trkpt lat="42.82962" lon="0.10512">
        <ele>2929</ele>
        <time>2014-06-07T09:27:28Z</time>
      </trkpt>
      <trkpt lat="42.82964" lon="0.10498">
        <ele>2925</ele>
        <time>2014-06-07T09:27:33Z</time>
      </trkpt>
      <trkpt lat="42.82966" lon="0.10492">
        <ele>2922</ele>
        <time>2014-06-07T09:27:36Z</time>
      </trkpt>
      <trkpt lat="42.8297" lon="0.10484">
        <ele>2918</ele>
        <time>2014-06-07T09:27:39Z</time>
      </trkpt>
      <trkpt lat="42.8297" lon="0.10469">
        <ele>2914</ele>
        <time>2014-06-07T09:27:43Z</time>
      </trkpt>
      <trkpt lat="42.82964" lon="0.10465">
        <ele>2913</ele>
        <time>2014-06-07T09:27:46Z</time>
      </trkpt>
      <trkpt lat="42.82958" lon="0.10462">
        <ele>2916</ele>
        <time>2014-06-07T09:27:49Z</time>
      </trkpt>
      <trkpt lat="42.82953" lon="0.10433">
        <ele>2911</ele>
        <time>2014-06-07T09:27:58Z</time>
      </trkpt>
      <trkpt lat="42.82955" lon="0.10416">
        <ele>2908</ele>
        <time>2014-06-07T09:28:01Z</time>
      </trkpt>
      <trkpt lat="42.82958" lon="0.10401">
        <ele>2905</ele>
        <time>2014-06-07T09:28:04Z</time>
      </trkpt>
      <trkpt lat="42.8297" lon="0.10377">
        <ele>2902</ele>
        <time>2014-06-07T09:28:09Z</time>
      </trkpt>
      <trkpt lat="42.82982" lon="0.10349">
        <ele>2899</ele>
        <time>2014-06-07T09:28:19Z</time>
      </trkpt>
      <trkpt lat="42.82993" lon="0.10335">
        <ele>2896</ele>
        <time>2014-06-07T09:28:25Z</time>
      </trkpt>
      <trkpt lat="42.83005" lon="0.10323">
        <ele>2893</ele>
        <time>2014-06-07T09:28:31Z</time>
      </trkpt>
      <trkpt lat="42.83013" lon="0.10314">
        <ele>2889</ele>
        <time>2014-06-07T09:28:35Z</time>
      </trkpt>
      <trkpt lat="42.83017" lon="0.10308">
        <ele>2888</ele>
        <time>2014-06-07T09:28:37Z</time>
      </trkpt>
      <trkpt lat="42.83018" lon="0.10293">
        <ele>2890</ele>
        <time>2014-06-07T09:28:41Z</time>
      </trkpt>
      <trkpt lat="42.8302" lon="0.10286">
        <ele>2897</ele>
        <time>2014-06-07T09:28:43Z</time>
      </trkpt>
      <trkpt lat="42.83026" lon="0.10285">
        <ele>2891</ele>
        <time>2014-06-07T09:28:45Z</time>
      </trkpt>
      <trkpt lat="42.83035" lon="0.10285">
        <ele>2887</ele>
        <time>2014-06-07T09:28:48Z</time>
      </trkpt>
      <trkpt lat="42.83037" lon="0.10279">
        <ele>2885</ele>
        <time>2014-06-07T09:28:50Z</time>
      </trkpt>
      <trkpt lat="42.83041" lon="0.10277">
        <ele>2884</ele>
        <time>2014-06-07T09:28:52Z</time>
      </trkpt>
      <trkpt lat="42.83045" lon="0.10265">
        <ele>2882</ele>
        <time>2014-06-07T09:28:57Z</time>
      </trkpt>
      <trkpt lat="42.83046" lon="0.10262">
        <ele>2881</ele>
        <time>2014-06-07T09:28:58Z</time>
      </trkpt>
      <trkpt lat="42.83047" lon="0.10261">
        <ele>2879</ele>
        <time>2014-06-07T09:29:01Z</time>
      </trkpt>
      <trkpt lat="42.83047" lon="0.10263">
        <ele>2878</ele>
        <time>2014-06-07T09:29:03Z</time>
      </trkpt>
      <trkpt lat="42.83048" lon="0.10265">
        <ele>2881</ele>
        <time>2014-06-07T09:29:07Z</time>
      </trkpt>
      <trkpt lat="42.83049" lon="0.10266">
        <ele>2884</ele>
        <time>2014-06-07T09:29:10Z</time>
      </trkpt>
      <trkpt lat="42.83051" lon="0.10268">
        <ele>2881</ele>
        <time>2014-06-07T09:29:15Z</time>
      </trkpt>
      <trkpt lat="42.83051" lon="0.10268">
        <ele>2881</ele>
        <time>2014-06-07T09:29:16Z</time>
      </trkpt>
      <trkpt lat="42.83053" lon="0.10268">
        <ele>2883</ele>
        <time>2014-06-07T09:29:18Z</time>
      </trkpt>
      <trkpt lat="42.83055" lon="0.10268">
        <ele>2886</ele>
        <time>2014-06-07T09:29:21Z</time>
      </trkpt>
      <trkpt lat="42.83056" lon="0.10268">
        <ele>2887</ele>
        <time>2014-06-07T09:29:23Z</time>
      </trkpt>
      <trkpt lat="42.83056" lon="0.10269">
        <ele>2889</ele>
        <time>2014-06-07T09:29:28Z</time>
      </trkpt>
      <trkpt lat="42.83057" lon="0.10268">
        <ele>2892</ele>
        <time>2014-06-07T09:29:30Z</time>
      </trkpt>
      <trkpt lat="42.83058" lon="0.10267">
        <ele>2893</ele>
        <time>2014-06-07T09:29:31Z</time>
      </trkpt>
      <trkpt lat="42.8306" lon="0.10266">
        <ele>2894</ele>
        <time>2014-06-07T09:29:33Z</time>
      </trkpt>
      <trkpt lat="42.83062" lon="0.10267">
        <ele>2887</ele>
        <time>2014-06-07T09:29:35Z</time>
      </trkpt>
      <trkpt lat="42.83062" lon="0.10267">
        <ele>2887</ele>
        <time>2014-06-07T09:29:36Z</time>
      </trkpt>
      <trkpt lat="42.83065" lon="0.1027">
        <ele>2883</ele>
        <time>2014-06-07T09:29:45Z</time>
      </trkpt>
      <trkpt lat="42.83066" lon="0.10271">
        <ele>2880</ele>
        <time>2014-06-07T09:29:49Z</time>
      </trkpt>
      <trkpt lat="42.83066" lon="0.10271">
        <ele>2879</ele>
        <time>2014-06-07T09:29:55Z</time>
      </trkpt>
      <trkpt lat="42.83066" lon="0.10271">
        <ele>2884</ele>
        <time>2014-06-07T09:30:01Z</time>
      </trkpt>
      <trkpt lat="42.83066" lon="0.10271">
        <ele>2884</ele>
        <time>2014-06-07T09:30:02Z</time>
      </trkpt>
      <trkpt lat="42.83066" lon="0.10272">
        <ele>2879</ele>
        <time>2014-06-07T09:30:08Z</time>
      </trkpt>
      <trkpt lat="42.83066" lon="0.10272">
        <ele>2879</ele>
        <time>2014-06-07T09:30:09Z</time>
      </trkpt>
      <trkpt lat="42.83067" lon="0.10272">
        <ele>2882</ele>
        <time>2014-06-07T09:30:14Z</time>
      </trkpt>
      <trkpt lat="42.83069" lon="0.10274">
        <ele>2881</ele>
        <time>2014-06-07T09:30:27Z</time>
      </trkpt>
      <trkpt lat="42.8307" lon="0.10273">
        <ele>2881</ele>
        <time>2014-06-07T09:30:29Z</time>
      </trkpt>
      <trkpt lat="42.8307" lon="0.10274">
        <ele>2880</ele>
        <time>2014-06-07T09:30:35Z</time>
      </trkpt>
      <trkpt lat="42.83071" lon="0.10275">
        <ele>2884</ele>
        <time>2014-06-07T09:30:44Z</time>
      </trkpt>
      <trkpt lat="42.83072" lon="0.10275">
        <ele>2885</ele>
        <time>2014-06-07T09:30:51Z</time>
      </trkpt>
      <trkpt lat="42.83069" lon="0.10275">
        <ele>2881</ele>
        <time>2014-06-07T09:30:55Z</time>
      </trkpt>
      <trkpt lat="42.83069" lon="0.10275">
        <ele>2885</ele>
        <time>2014-06-07T09:30:57Z</time>
      </trkpt>
      <trkpt lat="42.83072" lon="0.10278">
        <ele>2883</ele>
        <time>2014-06-07T09:31:05Z</time>
      </trkpt>
      <trkpt lat="42.83071" lon="0.10279">
        <ele>2880</ele>
        <time>2014-06-07T09:31:10Z</time>
      </trkpt>
      <trkpt lat="42.83074" lon="0.10277">
        <ele>2876</ele>
        <time>2014-06-07T09:31:17Z</time>
      </trkpt>
      <trkpt lat="42.83077" lon="0.10274">
        <ele>2873</ele>
        <time>2014-06-07T09:31:20Z</time>
      </trkpt>
      <trkpt lat="42.83081" lon="0.10269">
        <ele>2872</ele>
        <time>2014-06-07T09:31:22Z</time>
      </trkpt>
      <trkpt lat="42.83083" lon="0.10265">
        <ele>2870</ele>
        <time>2014-06-07T09:31:24Z</time>
      </trkpt>
      <trkpt lat="42.83086" lon="0.10264">
        <ele>2868</ele>
        <time>2014-06-07T09:31:28Z</time>
      </trkpt>
      <trkpt lat="42.83088" lon="0.10265">
        <ele>2869</ele>
        <time>2014-06-07T09:31:36Z</time>
      </trkpt>
      <trkpt lat="42.83088" lon="0.10266">
        <ele>2871</ele>
        <time>2014-06-07T09:31:40Z</time>
      </trkpt>
      <trkpt lat="42.83094" lon="0.10274">
        <ele>2866</ele>
        <time>2014-06-07T09:31:45Z</time>
      </trkpt>
      <trkpt lat="42.83099" lon="0.10274">
        <ele>2864</ele>
        <time>2014-06-07T09:31:47Z</time>
      </trkpt>
      <trkpt lat="42.83109" lon="0.10271">
        <ele>2860</ele>
        <time>2014-06-07T09:31:52Z</time>
      </trkpt>
      <trkpt lat="42.83119" lon="0.10256">
        <ele>2856</ele>
        <time>2014-06-07T09:31:56Z</time>
      </trkpt>
      <trkpt lat="42.83124" lon="0.10251">
        <ele>2855</ele>
        <time>2014-06-07T09:31:58Z</time>
      </trkpt>
      <trkpt lat="42.8313" lon="0.10253">
        <ele>2851</ele>
        <time>2014-06-07T09:32:00Z</time>
      </trkpt>
      <trkpt lat="42.83132" lon="0.1026">
        <ele>2851</ele>
        <time>2014-06-07T09:32:02Z</time>
      </trkpt>
      <trkpt lat="42.83139" lon="0.10255">
        <ele>2849</ele>
        <time>2014-06-07T09:32:05Z</time>
      </trkpt>
      <trkpt lat="42.83142" lon="0.1025">
        <ele>2846</ele>
        <time>2014-06-07T09:32:07Z</time>
      </trkpt>
      <trkpt lat="42.83142" lon="0.1025">
        <ele>2846</ele>
        <time>2014-06-07T09:32:08Z</time>
      </trkpt>
      <trkpt lat="42.83142" lon="0.10247">
        <ele>2843</ele>
        <time>2014-06-07T09:32:20Z</time>
      </trkpt>
      <trkpt lat="42.8314" lon="0.10247">
        <ele>2842</ele>
        <time>2014-06-07T09:32:26Z</time>
      </trkpt>
      <trkpt lat="42.83139" lon="0.10246">
        <ele>2844</ele>
        <time>2014-06-07T09:32:35Z</time>
      </trkpt>
      <trkpt lat="42.83139" lon="0.10246">
        <ele>2843</ele>
        <time>2014-06-07T09:32:37Z</time>
      </trkpt>
      <trkpt lat="42.83141" lon="0.10247">
        <ele>2848</ele>
        <time>2014-06-07T09:32:57Z</time>
      </trkpt>
      <trkpt lat="42.83141" lon="0.10248">
        <ele>2844</ele>
        <time>2014-06-07T09:33:00Z</time>
      </trkpt>
      <trkpt lat="42.83142" lon="0.10248">
        <ele>2845</ele>
        <time>2014-06-07T09:33:15Z</time>
      </trkpt>
      <trkpt lat="42.83142" lon="0.10249">
        <ele>2843</ele>
        <time>2014-06-07T09:33:20Z</time>
      </trkpt>
      <trkpt lat="42.83142" lon="0.10249">
        <ele>2839</ele>
        <time>2014-06-07T09:33:23Z</time>
      </trkpt>
      <trkpt lat="42.83142" lon="0.10249">
        <ele>2840</ele>
        <time>2014-06-07T09:33:24Z</time>
      </trkpt>
      <trkpt lat="42.83142" lon="0.10249">
        <ele>2841</ele>
        <time>2014-06-07T09:33:27Z</time>
      </trkpt>
      <trkpt lat="42.83142" lon="0.10248">
        <ele>2845</ele>
        <time>2014-06-07T09:33:30Z</time>
      </trkpt>
      <trkpt lat="42.83143" lon="0.10248">
        <ele>2847</ele>
        <time>2014-06-07T09:33:32Z</time>
      </trkpt>
      <trkpt lat="42.83143" lon="0.10248">
        <ele>2845</ele>
        <time>2014-06-07T09:33:35Z</time>
      </trkpt>
      <trkpt lat="42.83142" lon="0.10249">
        <ele>2844</ele>
        <time>2014-06-07T09:33:39Z</time>
      </trkpt>
      <trkpt lat="42.83145" lon="0.10233">
        <ele>2843</ele>
        <time>2014-06-07T09:33:45Z</time>
      </trkpt>
      <trkpt lat="42.83147" lon="0.1023">
        <ele>2842</ele>
        <time>2014-06-07T09:33:46Z</time>
      </trkpt>
      <trkpt lat="42.83157" lon="0.10234">
        <ele>2837</ele>
        <time>2014-06-07T09:33:52Z</time>
      </trkpt>
      <trkpt lat="42.83162" lon="0.10231">
        <ele>2836</ele>
        <time>2014-06-07T09:33:54Z</time>
      </trkpt>
      <trkpt lat="42.83176" lon="0.10228">
        <ele>2831</ele>
        <time>2014-06-07T09:33:57Z</time>
      </trkpt>
      <trkpt lat="42.83181" lon="0.10219">
        <ele>2828</ele>
        <time>2014-06-07T09:34:01Z</time>
      </trkpt>
      <trkpt lat="42.8318" lon="0.10218">
        <ele>2829</ele>
        <time>2014-06-07T09:34:26Z</time>
      </trkpt>
      <trkpt lat="42.8318" lon="0.10218">
        <ele>2828</ele>
        <time>2014-06-07T09:34:27Z</time>
      </trkpt>
      <trkpt lat="42.83179" lon="0.10217">
        <ele>2829</ele>
        <time>2014-06-07T09:34:30Z</time>
      </trkpt>
      <trkpt lat="42.83175" lon="0.10202">
        <ele>2825</ele>
        <time>2014-06-07T09:34:35Z</time>
      </trkpt>
      <trkpt lat="42.83158" lon="0.10182">
        <ele>2824</ele>
        <time>2014-06-07T09:34:46Z</time>
      </trkpt>
      <trkpt lat="42.83148" lon="0.10173">
        <ele>2819</ele>
        <time>2014-06-07T09:34:49Z</time>
      </trkpt>
      <trkpt lat="42.83146" lon="0.1017">
        <ele>2818</ele>
        <time>2014-06-07T09:34:50Z</time>
      </trkpt>
      <trkpt lat="42.83145" lon="0.10156">
        <ele>2813</ele>
        <time>2014-06-07T09:34:54Z</time>
      </trkpt>
      <trkpt lat="42.83147" lon="0.10144">
        <ele>2806</ele>
        <time>2014-06-07T09:34:57Z</time>
      </trkpt>
      <trkpt lat="42.83147" lon="0.10142">
        <ele>2807</ele>
        <time>2014-06-07T09:34:58Z</time>
      </trkpt>
      <trkpt lat="42.83144" lon="0.10134">
        <ele>2802</ele>
        <time>2014-06-07T09:35:02Z</time>
      </trkpt>
      <trkpt lat="42.83146" lon="0.10129">
        <ele>2799</ele>
        <time>2014-06-07T09:35:04Z</time>
      </trkpt>
      <trkpt lat="42.83148" lon="0.10124">
        <ele>2797</ele>
        <time>2014-06-07T09:35:07Z</time>
      </trkpt>
      <trkpt lat="42.83149" lon="0.10118">
        <ele>2795</ele>
        <time>2014-06-07T09:35:09Z</time>
      </trkpt>
      <trkpt lat="42.83146" lon="0.10108">
        <ele>2789</ele>
        <time>2014-06-07T09:35:13Z</time>
      </trkpt>
      <trkpt lat="42.8315" lon="0.10111">
        <ele>2789</ele>
        <time>2014-06-07T09:35:28Z</time>
      </trkpt>
      <trkpt lat="42.83151" lon="0.10108">
        <ele>2787</ele>
        <time>2014-06-07T09:35:39Z</time>
      </trkpt>
      <trkpt lat="42.83156" lon="0.10096">
        <ele>2783</ele>
        <time>2014-06-07T09:35:44Z</time>
      </trkpt>
      <trkpt lat="42.83162" lon="0.10093">
        <ele>2779</ele>
        <time>2014-06-07T09:35:46Z</time>
      </trkpt>
      <trkpt lat="42.83166" lon="0.10089">
        <ele>2776</ele>
        <time>2014-06-07T09:35:48Z</time>
      </trkpt>
      <trkpt lat="42.83175" lon="0.1009">
        <ele>2772</ele>
        <time>2014-06-07T09:35:50Z</time>
      </trkpt>
      <trkpt lat="42.83184" lon="0.10086">
        <ele>2768</ele>
        <time>2014-06-07T09:35:53Z</time>
      </trkpt>
      <trkpt lat="42.83191" lon="0.10084">
        <ele>2764</ele>
        <time>2014-06-07T09:35:54Z</time>
      </trkpt>
      <trkpt lat="42.83195" lon="0.1007">
        <ele>2760</ele>
        <time>2014-06-07T09:35:58Z</time>
      </trkpt>
      <trkpt lat="42.83198" lon="0.10064">
        <ele>2755</ele>
        <time>2014-06-07T09:36:00Z</time>
      </trkpt>
      <trkpt lat="42.83204" lon="0.10058">
        <ele>2752</ele>
        <time>2014-06-07T09:36:02Z</time>
      </trkpt>
      <trkpt lat="42.83205" lon="0.10055">
        <ele>2749</ele>
        <time>2014-06-07T09:36:03Z</time>
      </trkpt>
      <trkpt lat="42.83217" lon="0.10038">
        <ele>2741</ele>
        <time>2014-06-07T09:36:07Z</time>
      </trkpt>
      <trkpt lat="42.83221" lon="0.10032">
        <ele>2739</ele>
        <time>2014-06-07T09:36:08Z</time>
      </trkpt>
      <trkpt lat="42.83225" lon="0.10027">
        <ele>2735</ele>
        <time>2014-06-07T09:36:10Z</time>
      </trkpt>
      <trkpt lat="42.83229" lon="0.10025">
        <ele>2733</ele>
        <time>2014-06-07T09:36:11Z</time>
      </trkpt>
      <trkpt lat="42.83233" lon="0.10021">
        <ele>2731</ele>
        <time>2014-06-07T09:36:12Z</time>
      </trkpt>
      <trkpt lat="42.83237" lon="0.10018">
        <ele>2728</ele>
        <time>2014-06-07T09:36:13Z</time>
      </trkpt>
      <trkpt lat="42.83244" lon="0.10014">
        <ele>2724</ele>
        <time>2014-06-07T09:36:15Z</time>
      </trkpt>
      <trkpt lat="42.83248" lon="0.10012">
        <ele>2722</ele>
        <time>2014-06-07T09:36:16Z</time>
      </trkpt>
      <trkpt lat="42.8326" lon="0.10006">
        <ele>2716</ele>
        <time>2014-06-07T09:36:19Z</time>
      </trkpt>
      <trkpt lat="42.83266" lon="0.10003">
        <ele>2712</ele>
        <time>2014-06-07T09:36:21Z</time>
      </trkpt>
      <trkpt lat="42.83272" lon="0.09994">
        <ele>2712</ele>
        <time>2014-06-07T09:36:28Z</time>
      </trkpt>
      <trkpt lat="42.83269" lon="0.09994">
        <ele>2714</ele>
        <time>2014-06-07T09:36:39Z</time>
      </trkpt>
      <trkpt lat="42.83263" lon="0.09997">
        <ele>2717</ele>
        <time>2014-06-07T09:36:55Z</time>
      </trkpt>
      <trkpt lat="42.83264" lon="0.09999">
        <ele>2715</ele>
        <time>2014-06-07T09:37:17Z</time>
      </trkpt>
      <trkpt lat="42.83259" lon="0.10002">
        <ele>2713</ele>
        <time>2014-06-07T09:37:41Z</time>
      </trkpt>
      <trkpt lat="42.83259" lon="0.10003">
        <ele>2714</ele>
        <time>2014-06-07T09:37:48Z</time>
      </trkpt>
      <trkpt lat="42.83264" lon="0.10005">
        <ele>2714</ele>
        <time>2014-06-07T09:37:51Z</time>
      </trkpt>
      <trkpt lat="42.83275" lon="0.10005">
        <ele>2710</ele>
        <time>2014-06-07T09:37:54Z</time>
      </trkpt>
      <trkpt lat="42.83284" lon="0.10003">
        <ele>2705</ele>
        <time>2014-06-07T09:37:56Z</time>
      </trkpt>
      <trkpt lat="42.83293" lon="0.10001">
        <ele>2700</ele>
        <time>2014-06-07T09:37:58Z</time>
      </trkpt>
      <trkpt lat="42.83301" lon="0.1">
        <ele>2696</ele>
        <time>2014-06-07T09:38:00Z</time>
      </trkpt>
      <trkpt lat="42.83309" lon="0.09999">
        <ele>2692</ele>
        <time>2014-06-07T09:38:02Z</time>
      </trkpt>
      <trkpt lat="42.83314" lon="0.09998">
        <ele>2690</ele>
        <time>2014-06-07T09:38:03Z</time>
      </trkpt>
      <trkpt lat="42.83324" lon="0.09998">
        <ele>2686</ele>
        <time>2014-06-07T09:38:05Z</time>
      </trkpt>
      <trkpt lat="42.83341" lon="0.09997">
        <ele>2681</ele>
        <time>2014-06-07T09:38:08Z</time>
      </trkpt>
      <trkpt lat="42.83352" lon="0.09994">
        <ele>2677</ele>
        <time>2014-06-07T09:38:10Z</time>
      </trkpt>
      <trkpt lat="42.83357" lon="0.09995">
        <ele>2676</ele>
        <time>2014-06-07T09:38:11Z</time>
      </trkpt>
      <trkpt lat="42.83362" lon="0.09993">
        <ele>2674</ele>
        <time>2014-06-07T09:38:12Z</time>
      </trkpt>
      <trkpt lat="42.83371" lon="0.09994">
        <ele>2673</ele>
        <time>2014-06-07T09:38:14Z</time>
      </trkpt>
      <trkpt lat="42.8339" lon="0.09999">
        <ele>2671</ele>
        <time>2014-06-07T09:38:18Z</time>
      </trkpt>
      <trkpt lat="42.83395" lon="0.09999">
        <ele>2668</ele>
        <time>2014-06-07T09:38:19Z</time>
      </trkpt>
      <trkpt lat="42.83398" lon="0.09999">
        <ele>2667</ele>
        <time>2014-06-07T09:38:20Z</time>
      </trkpt>
      <trkpt lat="42.83402" lon="0.09993">
        <ele>2665</ele>
        <time>2014-06-07T09:38:21Z</time>
      </trkpt>
      <trkpt lat="42.83407" lon="0.09984">
        <ele>2662</ele>
        <time>2014-06-07T09:38:23Z</time>
      </trkpt>
      <trkpt lat="42.8341" lon="0.0998">
        <ele>2661</ele>
        <time>2014-06-07T09:38:24Z</time>
      </trkpt>
      <trkpt lat="42.83416" lon="0.09979">
        <ele>2656</ele>
        <time>2014-06-07T09:38:26Z</time>
      </trkpt>
      <trkpt lat="42.8342" lon="0.09974">
        <ele>2654</ele>
        <time>2014-06-07T09:38:27Z</time>
      </trkpt>
      <trkpt lat="42.83432" lon="0.09969">
        <ele>2649</ele>
        <time>2014-06-07T09:38:30Z</time>
      </trkpt>
      <trkpt lat="42.83436" lon="0.09966">
        <ele>2646</ele>
        <time>2014-06-07T09:38:31Z</time>
      </trkpt>
      <trkpt lat="42.83431" lon="0.09953">
        <ele>2644</ele>
        <time>2014-06-07T09:38:33Z</time>
      </trkpt>
      <trkpt lat="42.83434" lon="0.09949">
        <ele>2644</ele>
        <time>2014-06-07T09:38:35Z</time>
      </trkpt>
      <trkpt lat="42.83446" lon="0.09949">
        <ele>2641</ele>
        <time>2014-06-07T09:38:38Z</time>
      </trkpt>
      <trkpt lat="42.83461" lon="0.09949">
        <ele>2639</ele>
        <time>2014-06-07T09:38:41Z</time>
      </trkpt>
      <trkpt lat="42.83461" lon="0.09954">
        <ele>2637</ele>
        <time>2014-06-07T09:38:49Z</time>
      </trkpt>
      <trkpt lat="42.83448" lon="0.09951">
        <ele>2637</ele>
        <time>2014-06-07T09:39:07Z</time>
      </trkpt>
      <trkpt lat="42.83452" lon="0.09956">
        <ele>2637</ele>
        <time>2014-06-07T09:39:39Z</time>
      </trkpt>
      <trkpt lat="42.83448" lon="0.09956">
        <ele>2636</ele>
        <time>2014-06-07T09:39:45Z</time>
      </trkpt>
      <trkpt lat="42.8344" lon="0.09961">
        <ele>2637</ele>
        <time>2014-06-07T09:40:08Z</time>
      </trkpt>
      <trkpt lat="42.83438" lon="0.0996">
        <ele>2638</ele>
        <time>2014-06-07T09:40:11Z</time>
      </trkpt>
      <trkpt lat="42.83445" lon="0.09947">
        <ele>2636</ele>
        <time>2014-06-07T09:40:16Z</time>
      </trkpt>
      <trkpt lat="42.83451" lon="0.09943">
        <ele>2634</ele>
        <time>2014-06-07T09:40:18Z</time>
      </trkpt>
      <trkpt lat="42.83454" lon="0.0993">
        <ele>2630</ele>
        <time>2014-06-07T09:40:21Z</time>
      </trkpt>
      <trkpt lat="42.83459" lon="0.0992">
        <ele>2625</ele>
        <time>2014-06-07T09:40:23Z</time>
      </trkpt>
      <trkpt lat="42.83461" lon="0.09914">
        <ele>2625</ele>
        <time>2014-06-07T09:40:24Z</time>
      </trkpt>
      <trkpt lat="42.83462" lon="0.09893">
        <ele>2619</ele>
        <time>2014-06-07T09:40:27Z</time>
      </trkpt>
      <trkpt lat="42.83472" lon="0.09884">
        <ele>2613</ele>
        <time>2014-06-07T09:40:30Z</time>
      </trkpt>
      <trkpt lat="42.83485" lon="0.09884">
        <ele>2610</ele>
        <time>2014-06-07T09:40:32Z</time>
      </trkpt>
      <trkpt lat="42.83495" lon="0.09881">
        <ele>2608</ele>
        <time>2014-06-07T09:40:34Z</time>
      </trkpt>
      <trkpt lat="42.83516" lon="0.09878">
        <ele>2600</ele>
        <time>2014-06-07T09:40:38Z</time>
      </trkpt>
      <trkpt lat="42.83527" lon="0.09878">
        <ele>2598</ele>
        <time>2014-06-07T09:40:40Z</time>
      </trkpt>
      <trkpt lat="42.83536" lon="0.09873">
        <ele>2595</ele>
        <time>2014-06-07T09:40:42Z</time>
      </trkpt>
      <trkpt lat="42.83551" lon="0.09872">
        <ele>2591</ele>
        <time>2014-06-07T09:40:45Z</time>
      </trkpt>
      <trkpt lat="42.83558" lon="0.09867">
        <ele>2589</ele>
        <time>2014-06-07T09:40:47Z</time>
      </trkpt>
      <trkpt lat="42.83579" lon="0.09852">
        <ele>2584</ele>
        <time>2014-06-07T09:40:51Z</time>
      </trkpt>
      <trkpt lat="42.83594" lon="0.09844">
        <ele>2580</ele>
        <time>2014-06-07T09:40:53Z</time>
      </trkpt>
      <trkpt lat="42.83616" lon="0.09832">
        <ele>2578</ele>
        <time>2014-06-07T09:40:56Z</time>
      </trkpt>
      <trkpt lat="42.83632" lon="0.09826">
        <ele>2576</ele>
        <time>2014-06-07T09:40:59Z</time>
      </trkpt>
      <trkpt lat="42.83653" lon="0.09825">
        <ele>2572</ele>
        <time>2014-06-07T09:41:04Z</time>
      </trkpt>
      <trkpt lat="42.83656" lon="0.09826">
        <ele>2572</ele>
        <time>2014-06-07T09:41:05Z</time>
      </trkpt>
      <trkpt lat="42.83663" lon="0.09826">
        <ele>2572</ele>
        <time>2014-06-07T09:41:07Z</time>
      </trkpt>
      <trkpt lat="42.83667" lon="0.09824">
        <ele>2568</ele>
        <time>2014-06-07T09:41:10Z</time>
      </trkpt>
      <trkpt lat="42.83675" lon="0.0982">
        <ele>2568</ele>
        <time>2014-06-07T09:41:13Z</time>
      </trkpt>
      <trkpt lat="42.83681" lon="0.09819">
        <ele>2567</ele>
        <time>2014-06-07T09:41:15Z</time>
      </trkpt>
      <trkpt lat="42.83688" lon="0.09816">
        <ele>2567</ele>
        <time>2014-06-07T09:41:17Z</time>
      </trkpt>
      <trkpt lat="42.83696" lon="0.09814">
        <ele>2567</ele>
        <time>2014-06-07T09:41:18Z</time>
      </trkpt>
      <trkpt lat="42.83713" lon="0.09807">
        <ele>2566</ele>
        <time>2014-06-07T09:41:22Z</time>
      </trkpt>
      <trkpt lat="42.8372" lon="0.09803">
        <ele>2565</ele>
        <time>2014-06-07T09:41:24Z</time>
      </trkpt>
      <trkpt lat="42.83725" lon="0.09801">
        <ele>2564</ele>
        <time>2014-06-07T09:41:25Z</time>
      </trkpt>
      <trkpt lat="42.83735" lon="0.09797">
        <ele>2563</ele>
        <time>2014-06-07T09:41:28Z</time>
      </trkpt>
      <trkpt lat="42.83766" lon="0.0979">
        <ele>2563</ele>
        <time>2014-06-07T09:41:38Z</time>
      </trkpt>
      <trkpt lat="42.83784" lon="0.09787">
        <ele>2560</ele>
        <time>2014-06-07T09:41:46Z</time>
      </trkpt>
      <trkpt lat="42.83803" lon="0.09787">
        <ele>2560</ele>
        <time>2014-06-07T09:41:55Z</time>
      </trkpt>
      <trkpt lat="42.83806" lon="0.09789">
        <ele>2558</ele>
        <time>2014-06-07T09:42:19Z</time>
      </trkpt>
      <trkpt lat="42.83806" lon="0.09798">
        <ele>2558</ele>
        <time>2014-06-07T09:42:41Z</time>
      </trkpt>
      <trkpt lat="42.83805" lon="0.09799">
        <ele>2562</ele>
        <time>2014-06-07T09:42:53Z</time>
      </trkpt>
      <trkpt lat="42.83802" lon="0.098">
        <ele>2560</ele>
        <time>2014-06-07T09:43:00Z</time>
      </trkpt>
      <trkpt lat="42.838" lon="0.09802">
        <ele>2557</ele>
        <time>2014-06-07T09:43:07Z</time>
      </trkpt>
      <trkpt lat="42.83799" lon="0.09802">
        <ele>2556</ele>
        <time>2014-06-07T09:43:09Z</time>
      </trkpt>
      <trkpt lat="42.83802" lon="0.09802">
        <ele>2557</ele>
        <time>2014-06-07T09:43:38Z</time>
      </trkpt>
      <trkpt lat="42.83801" lon="0.09802">
        <ele>2557</ele>
        <time>2014-06-07T09:44:12Z</time>
      </trkpt>
      <trkpt lat="42.838" lon="0.09797">
        <ele>2558</ele>
        <time>2014-06-07T09:44:35Z</time>
      </trkpt>
      <trkpt lat="42.83801" lon="0.09802">
        <ele>2558</ele>
        <time>2014-06-07T09:44:52Z</time>
      </trkpt>
      <trkpt lat="42.83799" lon="0.09804">
        <ele>2556</ele>
        <time>2014-06-07T09:45:16Z</time>
      </trkpt>
      <trkpt lat="42.83802" lon="0.09802">
        <ele>2557</ele>
        <time>2014-06-07T09:45:44Z</time>
      </trkpt>
      <trkpt lat="42.83804" lon="0.09801">
        <ele>2557</ele>
        <time>2014-06-07T09:46:06Z</time>
      </trkpt>
      <trkpt lat="42.83801" lon="0.09801">
        <ele>2557</ele>
        <time>2014-06-07T09:46:25Z</time>
      </trkpt>
      <trkpt lat="42.83799" lon="0.09804">
        <ele>2556</ele>
        <time>2014-06-07T09:46:47Z</time>
      </trkpt>
      <trkpt lat="42.83796" lon="0.09803">
        <ele>2556</ele>
        <time>2014-06-07T09:47:20Z</time>
      </trkpt>
      <trkpt lat="42.83797" lon="0.09808">
        <ele>2555</ele>
        <time>2014-06-07T09:47:48Z</time>
      </trkpt>
      <trkpt lat="42.838" lon="0.09805">
        <ele>2553</ele>
        <time>2014-06-07T09:48:17Z</time>
      </trkpt>
      <trkpt lat="42.83802" lon="0.09803">
        <ele>2556</ele>
        <time>2014-06-07T09:48:30Z</time>
      </trkpt>
      <trkpt lat="42.83802" lon="0.098">
        <ele>2560</ele>
        <time>2014-06-07T09:48:39Z</time>
      </trkpt>
      <trkpt lat="42.83801" lon="0.09803">
        <ele>2559</ele>
        <time>2014-06-07T09:48:49Z</time>
      </trkpt>
      <trkpt lat="42.83814" lon="0.09795">
        <ele>2554</ele>
        <time>2014-06-07T09:48:54Z</time>
      </trkpt>
      <trkpt lat="42.83817" lon="0.09791">
        <ele>2554</ele>
        <time>2014-06-07T09:48:55Z</time>
      </trkpt>
      <trkpt lat="42.83825" lon="0.09785">
        <ele>2551</ele>
        <time>2014-06-07T09:48:57Z</time>
      </trkpt>
      <trkpt lat="42.83829" lon="0.09783">
        <ele>2549</ele>
        <time>2014-06-07T09:48:58Z</time>
      </trkpt>
      <trkpt lat="42.83838" lon="0.09784">
        <ele>2546</ele>
        <time>2014-06-07T09:49:00Z</time>
      </trkpt>
      <trkpt lat="42.83859" lon="0.09778">
        <ele>2540</ele>
        <time>2014-06-07T09:49:04Z</time>
      </trkpt>
      <trkpt lat="42.83865" lon="0.09777">
        <ele>2540</ele>
        <time>2014-06-07T09:49:05Z</time>
      </trkpt>
      <trkpt lat="42.83896" lon="0.09766">
        <ele>2538</ele>
        <time>2014-06-07T09:49:14Z</time>
      </trkpt>
      <trkpt lat="42.83917" lon="0.09754">
        <ele>2534</ele>
        <time>2014-06-07T09:49:20Z</time>
      </trkpt>
      <trkpt lat="42.83923" lon="0.09757">
        <ele>2533</ele>
        <time>2014-06-07T09:49:22Z</time>
      </trkpt>
      <trkpt lat="42.83938" lon="0.09761">
        <ele>2527</ele>
        <time>2014-06-07T09:49:25Z</time>
      </trkpt>
      <trkpt lat="42.83942" lon="0.09759">
        <ele>2526</ele>
        <time>2014-06-07T09:49:26Z</time>
      </trkpt>
      <trkpt lat="42.83946" lon="0.09758">
        <ele>2524</ele>
        <time>2014-06-07T09:49:32Z</time>
      </trkpt>
      <trkpt lat="42.83957" lon="0.09765">
        <ele>2518</ele>
        <time>2014-06-07T09:49:35Z</time>
      </trkpt>
      <trkpt lat="42.83962" lon="0.09766">
        <ele>2515</ele>
        <time>2014-06-07T09:49:37Z</time>
      </trkpt>
      <trkpt lat="42.83973" lon="0.09768">
        <ele>2510</ele>
        <time>2014-06-07T09:49:40Z</time>
      </trkpt>
      <trkpt lat="42.83983" lon="0.09764">
        <ele>2507</ele>
        <time>2014-06-07T09:49:42Z</time>
      </trkpt>
      <trkpt lat="42.83988" lon="0.09764">
        <ele>2506</ele>
        <time>2014-06-07T09:49:43Z</time>
      </trkpt>
      <trkpt lat="42.83992" lon="0.09763">
        <ele>2504</ele>
        <time>2014-06-07T09:49:44Z</time>
      </trkpt>
      <trkpt lat="42.84015" lon="0.09753">
        <ele>2500</ele>
        <time>2014-06-07T09:49:49Z</time>
      </trkpt>
      <trkpt lat="42.84022" lon="0.0975">
        <ele>2498</ele>
        <time>2014-06-07T09:49:51Z</time>
      </trkpt>
      <trkpt lat="42.84029" lon="0.09746">
        <ele>2497</ele>
        <time>2014-06-07T09:49:53Z</time>
      </trkpt>
      <trkpt lat="42.84032" lon="0.09744">
        <ele>2496</ele>
        <time>2014-06-07T09:49:54Z</time>
      </trkpt>
      <trkpt lat="42.84041" lon="0.09746">
        <ele>2492</ele>
        <time>2014-06-07T09:49:56Z</time>
      </trkpt>
      <trkpt lat="42.84046" lon="0.0975">
        <ele>2492</ele>
        <time>2014-06-07T09:49:57Z</time>
      </trkpt>
      <trkpt lat="42.84057" lon="0.09753">
        <ele>2488</ele>
        <time>2014-06-07T09:49:59Z</time>
      </trkpt>
      <trkpt lat="42.84073" lon="0.09757">
        <ele>2482</ele>
        <time>2014-06-07T09:50:02Z</time>
      </trkpt>
      <trkpt lat="42.84083" lon="0.09759">
        <ele>2480</ele>
        <time>2014-06-07T09:50:04Z</time>
      </trkpt>
      <trkpt lat="42.84096" lon="0.09761">
        <ele>2474</ele>
        <time>2014-06-07T09:50:07Z</time>
      </trkpt>
      <trkpt lat="42.84107" lon="0.09761">
        <ele>2471</ele>
        <time>2014-06-07T09:50:09Z</time>
      </trkpt>
      <trkpt lat="42.84114" lon="0.09753">
        <ele>2467</ele>
        <time>2014-06-07T09:50:11Z</time>
      </trkpt>
      <trkpt lat="42.84124" lon="0.09756">
        <ele>2464</ele>
        <time>2014-06-07T09:50:13Z</time>
      </trkpt>
      <trkpt lat="42.84133" lon="0.09761">
        <ele>2460</ele>
        <time>2014-06-07T09:50:15Z</time>
      </trkpt>
      <trkpt lat="42.84144" lon="0.09759">
        <ele>2458</ele>
        <time>2014-06-07T09:50:17Z</time>
      </trkpt>
      <trkpt lat="42.84148" lon="0.09756">
        <ele>2456</ele>
        <time>2014-06-07T09:50:18Z</time>
      </trkpt>
      <trkpt lat="42.84157" lon="0.0975">
        <ele>2456</ele>
        <time>2014-06-07T09:50:21Z</time>
      </trkpt>
      <trkpt lat="42.84165" lon="0.09743">
        <ele>2454</ele>
        <time>2014-06-07T09:50:24Z</time>
      </trkpt>
      <trkpt lat="42.84174" lon="0.09736">
        <ele>2453</ele>
        <time>2014-06-07T09:50:27Z</time>
      </trkpt>
      <trkpt lat="42.84202" lon="0.09731">
        <ele>2450</ele>
        <time>2014-06-07T09:50:35Z</time>
      </trkpt>
      <trkpt lat="42.8421" lon="0.09725">
        <ele>2449</ele>
        <time>2014-06-07T09:50:44Z</time>
      </trkpt>
      <trkpt lat="42.84215" lon="0.09718">
        <ele>2449</ele>
        <time>2014-06-07T09:50:56Z</time>
      </trkpt>
      <trkpt lat="42.84218" lon="0.09714">
        <ele>2450</ele>
        <time>2014-06-07T09:51:08Z</time>
      </trkpt>
      <trkpt lat="42.8422" lon="0.09713">
        <ele>2451</ele>
        <time>2014-06-07T09:51:26Z</time>
      </trkpt>
      <trkpt lat="42.84224" lon="0.09711">
        <ele>2451</ele>
        <time>2014-06-07T09:51:38Z</time>
      </trkpt>
      <trkpt lat="42.84227" lon="0.09711">
        <ele>2453</ele>
        <time>2014-06-07T09:51:50Z</time>
      </trkpt>
      <trkpt lat="42.84234" lon="0.09711">
        <ele>2453</ele>
        <time>2014-06-07T09:52:07Z</time>
      </trkpt>
      <trkpt lat="42.84238" lon="0.09713">
        <ele>2454</ele>
        <time>2014-06-07T09:52:23Z</time>
      </trkpt>
      <trkpt lat="42.84244" lon="0.09715">
        <ele>2455</ele>
        <time>2014-06-07T09:52:34Z</time>
      </trkpt>
      <trkpt lat="42.84252" lon="0.09724">
        <ele>2455</ele>
        <time>2014-06-07T09:52:50Z</time>
      </trkpt>
      <trkpt lat="42.84256" lon="0.09731">
        <ele>2455</ele>
        <time>2014-06-07T09:53:03Z</time>
      </trkpt>
      <trkpt lat="42.84259" lon="0.09737">
        <ele>2456</ele>
        <time>2014-06-07T09:53:14Z</time>
      </trkpt>
      <trkpt lat="42.84261" lon="0.09734">
        <ele>2455</ele>
        <time>2014-06-07T09:53:33Z</time>
      </trkpt>
      <trkpt lat="42.84262" lon="0.09735">
        <ele>2455</ele>
        <time>2014-06-07T09:53:35Z</time>
      </trkpt>
      <trkpt lat="42.84276" lon="0.09743">
        <ele>2452</ele>
        <time>2014-06-07T09:53:41Z</time>
      </trkpt>
      <trkpt lat="42.84288" lon="0.09743">
        <ele>2451</ele>
        <time>2014-06-07T09:53:45Z</time>
      </trkpt>
      <trkpt lat="42.84303" lon="0.0974">
        <ele>2451</ele>
        <time>2014-06-07T09:53:57Z</time>
      </trkpt>
      <trkpt lat="42.84323" lon="0.09724">
        <ele>2450</ele>
        <time>2014-06-07T09:54:10Z</time>
      </trkpt>
      <trkpt lat="42.84341" lon="0.09719">
        <ele>2447</ele>
        <time>2014-06-07T09:54:15Z</time>
      </trkpt>
      <trkpt lat="42.84357" lon="0.09716">
        <ele>2446</ele>
        <time>2014-06-07T09:54:23Z</time>
      </trkpt>
      <trkpt lat="42.84363" lon="0.09714">
        <ele>2447</ele>
        <time>2014-06-07T09:54:31Z</time>
      </trkpt>
      <trkpt lat="42.84378" lon="0.09713">
        <ele>2446</ele>
        <time>2014-06-07T09:54:40Z</time>
      </trkpt>
      <trkpt lat="42.84401" lon="0.09713">
        <ele>2442</ele>
        <time>2014-06-07T09:54:48Z</time>
      </trkpt>
      <trkpt lat="42.84433" lon="0.09727">
        <ele>2440</ele>
        <time>2014-06-07T09:54:59Z</time>
      </trkpt>
      <trkpt lat="42.84438" lon="0.09731">
        <ele>2441</ele>
        <time>2014-06-07T09:55:12Z</time>
      </trkpt>
      <trkpt lat="42.84455" lon="0.09738">
        <ele>2440</ele>
        <time>2014-06-07T09:55:25Z</time>
      </trkpt>
      <trkpt lat="42.8449" lon="0.09744">
        <ele>2438</ele>
        <time>2014-06-07T09:55:39Z</time>
      </trkpt>
      <trkpt lat="42.84511" lon="0.09746">
        <ele>2436</ele>
        <time>2014-06-07T09:55:47Z</time>
      </trkpt>
      <trkpt lat="42.84537" lon="0.0973">
        <ele>2432</ele>
        <time>2014-06-07T09:55:56Z</time>
      </trkpt>
      <trkpt lat="42.8456" lon="0.09712">
        <ele>2429</ele>
        <time>2014-06-07T09:56:03Z</time>
      </trkpt>
      <trkpt lat="42.84564" lon="0.09711">
        <ele>2428</ele>
        <time>2014-06-07T09:56:04Z</time>
      </trkpt>
      <trkpt lat="42.8457" lon="0.09713">
        <ele>2429</ele>
        <time>2014-06-07T09:56:14Z</time>
      </trkpt>
      <trkpt lat="42.84573" lon="0.09712">
        <ele>2429</ele>
        <time>2014-06-07T09:56:17Z</time>
      </trkpt>
      <trkpt lat="42.84583" lon="0.09712">
        <ele>2429</ele>
        <time>2014-06-07T09:56:24Z</time>
      </trkpt>
      <trkpt lat="42.84598" lon="0.09708">
        <ele>2429</ele>
        <time>2014-06-07T09:56:32Z</time>
      </trkpt>
      <trkpt lat="42.84614" lon="0.0971">
        <ele>2426</ele>
        <time>2014-06-07T09:56:37Z</time>
      </trkpt>
      <trkpt lat="42.84629" lon="0.09718">
        <ele>2425</ele>
        <time>2014-06-07T09:56:43Z</time>
      </trkpt>
      <trkpt lat="42.84635" lon="0.09743">
        <ele>2423</ele>
        <time>2014-06-07T09:56:50Z</time>
      </trkpt>
      <trkpt lat="42.84641" lon="0.09758">
        <ele>2424</ele>
        <time>2014-06-07T09:57:04Z</time>
      </trkpt>
      <trkpt lat="42.84643" lon="0.09769">
        <ele>2423</ele>
        <time>2014-06-07T09:57:20Z</time>
      </trkpt>
      <trkpt lat="42.84651" lon="0.09766">
        <ele>2423</ele>
        <time>2014-06-07T09:57:31Z</time>
      </trkpt>
      <trkpt lat="42.84656" lon="0.09766">
        <ele>2423</ele>
        <time>2014-06-07T09:57:43Z</time>
      </trkpt>
      <trkpt lat="42.84655" lon="0.09764">
        <ele>2422</ele>
        <time>2014-06-07T09:58:09Z</time>
      </trkpt>
      <trkpt lat="42.84654" lon="0.09765">
        <ele>2425</ele>
        <time>2014-06-07T09:58:20Z</time>
      </trkpt>
      <trkpt lat="42.84654" lon="0.09767">
        <ele>2426</ele>
        <time>2014-06-07T09:58:25Z</time>
      </trkpt>
      <trkpt lat="42.84662" lon="0.09766">
        <ele>2423</ele>
        <time>2014-06-07T09:58:30Z</time>
      </trkpt>
      <trkpt lat="42.84702" lon="0.09761">
        <ele>2419</ele>
        <time>2014-06-07T09:58:49Z</time>
      </trkpt>
      <trkpt lat="42.84709" lon="0.09763">
        <ele>2420</ele>
        <time>2014-06-07T09:58:53Z</time>
      </trkpt>
      <trkpt lat="42.84715" lon="0.09763">
        <ele>2421</ele>
        <time>2014-06-07T09:58:59Z</time>
      </trkpt>
      <trkpt lat="42.84745" lon="0.09765">
        <ele>2417</ele>
        <time>2014-06-07T09:59:14Z</time>
      </trkpt>
      <trkpt lat="42.8476" lon="0.09762">
        <ele>2416</ele>
        <time>2014-06-07T09:59:22Z</time>
      </trkpt>
      <trkpt lat="42.84765" lon="0.09757">
        <ele>2415</ele>
        <time>2014-06-07T09:59:35Z</time>
      </trkpt>
      <trkpt lat="42.84782" lon="0.09743">
        <ele>2412</ele>
        <time>2014-06-07T09:59:48Z</time>
      </trkpt>
      <trkpt lat="42.84784" lon="0.09742">
        <ele>2412</ele>
        <time>2014-06-07T09:59:49Z</time>
      </trkpt>
      <trkpt lat="42.84799" lon="0.09748">
        <ele>2407</ele>
        <time>2014-06-07T09:59:53Z</time>
      </trkpt>
      <trkpt lat="42.8481" lon="0.0975">
        <ele>2402</ele>
        <time>2014-06-07T09:59:55Z</time>
      </trkpt>
      <trkpt lat="42.8482" lon="0.09744">
        <ele>2401</ele>
        <time>2014-06-07T09:59:57Z</time>
      </trkpt>
      <trkpt lat="42.84846" lon="0.09729">
        <ele>2397</ele>
        <time>2014-06-07T10:00:03Z</time>
      </trkpt>
      <trkpt lat="42.84865" lon="0.09728">
        <ele>2393</ele>
        <time>2014-06-07T10:00:07Z</time>
      </trkpt>
      <trkpt lat="42.84873" lon="0.09728">
        <ele>2390</ele>
        <time>2014-06-07T10:00:09Z</time>
      </trkpt>
      <trkpt lat="42.84877" lon="0.09728">
        <ele>2389</ele>
        <time>2014-06-07T10:00:10Z</time>
      </trkpt>
      <trkpt lat="42.84894" lon="0.09733">
        <ele>2387</ele>
        <time>2014-06-07T10:00:14Z</time>
      </trkpt>
      <trkpt lat="42.84919" lon="0.09745">
        <ele>2383</ele>
        <time>2014-06-07T10:00:23Z</time>
      </trkpt>
      <trkpt lat="42.84928" lon="0.09752">
        <ele>2382</ele>
        <time>2014-06-07T10:00:26Z</time>
      </trkpt>
      <trkpt lat="42.84934" lon="0.09753">
        <ele>2382</ele>
        <time>2014-06-07T10:00:28Z</time>
      </trkpt>
      <trkpt lat="42.84956" lon="0.09757">
        <ele>2379</ele>
        <time>2014-06-07T10:00:35Z</time>
      </trkpt>
      <trkpt lat="42.84969" lon="0.09759">
        <ele>2375</ele>
        <time>2014-06-07T10:00:38Z</time>
      </trkpt>
      <trkpt lat="42.84978" lon="0.09758">
        <ele>2374</ele>
        <time>2014-06-07T10:00:40Z</time>
      </trkpt>
      <trkpt lat="42.84987" lon="0.09756">
        <ele>2374</ele>
        <time>2014-06-07T10:00:43Z</time>
      </trkpt>
      <trkpt lat="42.84999" lon="0.09767">
        <ele>2374</ele>
        <time>2014-06-07T10:00:49Z</time>
      </trkpt>
      <trkpt lat="42.85012" lon="0.09779">
        <ele>2374</ele>
        <time>2014-06-07T10:00:58Z</time>
      </trkpt>
      <trkpt lat="42.85014" lon="0.09779">
        <ele>2375</ele>
        <time>2014-06-07T10:01:09Z</time>
      </trkpt>
      <trkpt lat="42.85016" lon="0.09781">
        <ele>2377</ele>
        <time>2014-06-07T10:01:21Z</time>
      </trkpt>
      <trkpt lat="42.85017" lon="0.09783">
        <ele>2375</ele>
        <time>2014-06-07T10:01:35Z</time>
      </trkpt>
      <trkpt lat="42.85017" lon="0.09784">
        <ele>2375</ele>
        <time>2014-06-07T10:01:52Z</time>
      </trkpt>
      <trkpt lat="42.85018" lon="0.09789">
        <ele>2377</ele>
        <time>2014-06-07T10:02:10Z</time>
      </trkpt>
      <trkpt lat="42.8502" lon="0.098">
        <ele>2378</ele>
        <time>2014-06-07T10:02:28Z</time>
      </trkpt>
      <trkpt lat="42.8502" lon="0.09806">
        <ele>2381</ele>
        <time>2014-06-07T10:02:39Z</time>
      </trkpt>
      <trkpt lat="42.8502" lon="0.09806">
        <ele>2381</ele>
        <time>2014-06-07T10:02:40Z</time>
      </trkpt>
      <trkpt lat="42.85025" lon="0.09812">
        <ele>2383</ele>
        <time>2014-06-07T10:02:55Z</time>
      </trkpt>
      <trkpt lat="42.85031" lon="0.09812">
        <ele>2386</ele>
        <time>2014-06-07T10:03:09Z</time>
      </trkpt>
      <trkpt lat="42.85034" lon="0.09814">
        <ele>2389</ele>
        <time>2014-06-07T10:03:16Z</time>
      </trkpt>
      <trkpt lat="42.85041" lon="0.0981">
        <ele>2392</ele>
        <time>2014-06-07T10:03:31Z</time>
      </trkpt>
      <trkpt lat="42.85041" lon="0.0981">
        <ele>2392</ele>
        <time>2014-06-07T10:03:32Z</time>
      </trkpt>
      <trkpt lat="42.85043" lon="0.098">
        <ele>2394</ele>
        <time>2014-06-07T10:03:48Z</time>
      </trkpt>
      <trkpt lat="42.85047" lon="0.09802">
        <ele>2394</ele>
        <time>2014-06-07T10:04:02Z</time>
      </trkpt>
      <trkpt lat="42.85048" lon="0.09805">
        <ele>2393</ele>
        <time>2014-06-07T10:04:31Z</time>
      </trkpt>
      <trkpt lat="42.8505" lon="0.09803">
        <ele>2392</ele>
        <time>2014-06-07T10:04:54Z</time>
      </trkpt>
      <trkpt lat="42.85055" lon="0.09791">
        <ele>2394</ele>
        <time>2014-06-07T10:05:11Z</time>
      </trkpt>
      <trkpt lat="42.8506" lon="0.0978">
        <ele>2394</ele>
        <time>2014-06-07T10:05:25Z</time>
      </trkpt>
      <trkpt lat="42.85063" lon="0.09778">
        <ele>2394</ele>
        <time>2014-06-07T10:05:40Z</time>
      </trkpt>
      <trkpt lat="42.85062" lon="0.09776">
        <ele>2393</ele>
        <time>2014-06-07T10:06:01Z</time>
      </trkpt>
      <trkpt lat="42.85062" lon="0.09777">
        <ele>2396</ele>
        <time>2014-06-07T10:06:21Z</time>
      </trkpt>
      <trkpt lat="42.85062" lon="0.09776">
        <ele>2394</ele>
        <time>2014-06-07T10:06:28Z</time>
      </trkpt>
      <trkpt lat="42.85065" lon="0.09773">
        <ele>2395</ele>
        <time>2014-06-07T10:06:39Z</time>
      </trkpt>
      <trkpt lat="42.85074" lon="0.09764">
        <ele>2397</ele>
        <time>2014-06-07T10:06:52Z</time>
      </trkpt>
      <trkpt lat="42.85078" lon="0.09762">
        <ele>2396</ele>
        <time>2014-06-07T10:06:59Z</time>
      </trkpt>
      <trkpt lat="42.85088" lon="0.09771">
        <ele>2395</ele>
        <time>2014-06-07T10:07:04Z</time>
      </trkpt>
      <trkpt lat="42.85092" lon="0.0977">
        <ele>2394</ele>
        <time>2014-06-07T10:07:05Z</time>
      </trkpt>
      <trkpt lat="42.85105" lon="0.09763">
        <ele>2391</ele>
        <time>2014-06-07T10:07:16Z</time>
      </trkpt>
      <trkpt lat="42.85107" lon="0.09763">
        <ele>2391</ele>
        <time>2014-06-07T10:07:30Z</time>
      </trkpt>
      <trkpt lat="42.85113" lon="0.09754">
        <ele>2390</ele>
        <time>2014-06-07T10:07:43Z</time>
      </trkpt>
      <trkpt lat="42.85115" lon="0.09752">
        <ele>2389</ele>
        <time>2014-06-07T10:07:45Z</time>
      </trkpt>
      <trkpt lat="42.85123" lon="0.09748">
        <ele>2391</ele>
        <time>2014-06-07T10:07:56Z</time>
      </trkpt>
      <trkpt lat="42.85128" lon="0.09741">
        <ele>2393</ele>
        <time>2014-06-07T10:08:09Z</time>
      </trkpt>
      <trkpt lat="42.85134" lon="0.09732">
        <ele>2394</ele>
        <time>2014-06-07T10:08:22Z</time>
      </trkpt>
      <trkpt lat="42.85139" lon="0.09727">
        <ele>2395</ele>
        <time>2014-06-07T10:08:33Z</time>
      </trkpt>
      <trkpt lat="42.85144" lon="0.09724">
        <ele>2397</ele>
        <time>2014-06-07T10:08:44Z</time>
      </trkpt>
      <trkpt lat="42.8515" lon="0.09718">
        <ele>2398</ele>
        <time>2014-06-07T10:08:55Z</time>
      </trkpt>
      <trkpt lat="42.85153" lon="0.09714">
        <ele>2398</ele>
        <time>2014-06-07T10:09:00Z</time>
      </trkpt>
      <trkpt lat="42.85158" lon="0.09699">
        <ele>2399</ele>
        <time>2014-06-07T10:09:14Z</time>
      </trkpt>
      <trkpt lat="42.85165" lon="0.09691">
        <ele>2398</ele>
        <time>2014-06-07T10:09:28Z</time>
      </trkpt>
      <trkpt lat="42.85164" lon="0.09692">
        <ele>2398</ele>
        <time>2014-06-07T10:09:43Z</time>
      </trkpt>
      <trkpt lat="42.85165" lon="0.09693">
        <ele>2397</ele>
        <time>2014-06-07T10:10:00Z</time>
      </trkpt>
      <trkpt lat="42.85164" lon="0.09693">
        <ele>2395</ele>
        <time>2014-06-07T10:10:13Z</time>
      </trkpt>
      <trkpt lat="42.85164" lon="0.09693">
        <ele>2394</ele>
        <time>2014-06-07T10:10:51Z</time>
      </trkpt>
      <trkpt lat="42.85164" lon="0.09693">
        <ele>2394</ele>
        <time>2014-06-07T10:11:34Z</time>
      </trkpt>
      <trkpt lat="42.85164" lon="0.09695">
        <ele>2395</ele>
        <time>2014-06-07T10:12:13Z</time>
      </trkpt>
      <trkpt lat="42.85164" lon="0.09693">
        <ele>2397</ele>
        <time>2014-06-07T10:12:33Z</time>
      </trkpt>
      <trkpt lat="42.85163" lon="0.09698">
        <ele>2396</ele>
        <time>2014-06-07T10:12:38Z</time>
      </trkpt>
      <trkpt lat="42.8516" lon="0.09702">
        <ele>2396</ele>
        <time>2014-06-07T10:12:48Z</time>
      </trkpt>
      <trkpt lat="42.8516" lon="0.09702">
        <ele>2396</ele>
        <time>2014-06-07T10:12:49Z</time>
      </trkpt>
      <trkpt lat="42.85162" lon="0.09702">
        <ele>2397</ele>
        <time>2014-06-07T10:13:19Z</time>
      </trkpt>
      <trkpt lat="42.85161" lon="0.09702">
        <ele>2397</ele>
        <time>2014-06-07T10:13:36Z</time>
      </trkpt>
      <trkpt lat="42.85163" lon="0.09702">
        <ele>2395</ele>
        <time>2014-06-07T10:14:09Z</time>
      </trkpt>
      <trkpt lat="42.85163" lon="0.09701">
        <ele>2392</ele>
        <time>2014-06-07T10:14:44Z</time>
      </trkpt>
      <trkpt lat="42.85162" lon="0.09702">
        <ele>2393</ele>
        <time>2014-06-07T10:15:23Z</time>
      </trkpt>
      <trkpt lat="42.85163" lon="0.09702">
        <ele>2393</ele>
        <time>2014-06-07T10:16:00Z</time>
      </trkpt>
      <trkpt lat="42.85162" lon="0.09702">
        <ele>2392</ele>
        <time>2014-06-07T10:16:39Z</time>
      </trkpt>
      <trkpt lat="42.85162" lon="0.09702">
        <ele>2391</ele>
        <time>2014-06-07T10:17:21Z</time>
      </trkpt>
      <trkpt lat="42.85163" lon="0.09702">
        <ele>2392</ele>
        <time>2014-06-07T10:17:59Z</time>
      </trkpt>
      <trkpt lat="42.85162" lon="0.09702">
        <ele>2393</ele>
        <time>2014-06-07T10:18:35Z</time>
      </trkpt>
      <trkpt lat="42.85163" lon="0.09702">
        <ele>2394</ele>
        <time>2014-06-07T10:19:11Z</time>
      </trkpt>
      <trkpt lat="42.85162" lon="0.09702">
        <ele>2395</ele>
        <time>2014-06-07T10:19:56Z</time>
      </trkpt>
      <trkpt lat="42.85162" lon="0.09702">
        <ele>2395</ele>
        <time>2014-06-07T10:20:39Z</time>
      </trkpt>
      <trkpt lat="42.85162" lon="0.09702">
        <ele>2395</ele>
        <time>2014-06-07T10:21:17Z</time>
      </trkpt>
      <trkpt lat="42.85161" lon="0.09702">
        <ele>2392</ele>
        <time>2014-06-07T10:21:56Z</time>
      </trkpt>
      <trkpt lat="42.85161" lon="0.09701">
        <ele>2393</ele>
        <time>2014-06-07T10:22:13Z</time>
      </trkpt>
      <trkpt lat="42.85161" lon="0.09702">
        <ele>2393</ele>
        <time>2014-06-07T10:22:22Z</time>
      </trkpt>
      <trkpt lat="42.85162" lon="0.09702">
        <ele>2390</ele>
        <time>2014-06-07T10:22:45Z</time>
      </trkpt>
      <trkpt lat="42.85161" lon="0.09702">
        <ele>2394</ele>
        <time>2014-06-07T10:22:47Z</time>
      </trkpt>
      <trkpt lat="42.85161" lon="0.09701">
        <ele>2398</ele>
        <time>2014-06-07T10:22:48Z</time>
      </trkpt>
      <trkpt lat="42.85161" lon="0.09702">
        <ele>2397</ele>
        <time>2014-06-07T10:22:49Z</time>
      </trkpt>
      <trkpt lat="42.85161" lon="0.09702">
        <ele>2391</ele>
        <time>2014-06-07T10:22:52Z</time>
      </trkpt>
      <trkpt lat="42.85161" lon="0.09701">
        <ele>2394</ele>
        <time>2014-06-07T10:22:55Z</time>
      </trkpt>
      <trkpt lat="42.85162" lon="0.09701">
        <ele>2400</ele>
        <time>2014-06-07T10:22:57Z</time>
      </trkpt>
      <trkpt lat="42.85162" lon="0.09701">
        <ele>2400</ele>
        <time>2014-06-07T10:22:58Z</time>
      </trkpt>
      <trkpt lat="42.85162" lon="0.09702">
        <ele>2397</ele>
        <time>2014-06-07T10:23:01Z</time>
      </trkpt>
      <trkpt lat="42.85162" lon="0.09702">
        <ele>2392</ele>
        <time>2014-06-07T10:23:04Z</time>
      </trkpt>
      <trkpt lat="42.85162" lon="0.09702">
        <ele>2392</ele>
        <time>2014-06-07T10:23:05Z</time>
      </trkpt>
      <trkpt lat="42.85162" lon="0.09701">
        <ele>2390</ele>
        <time>2014-06-07T10:23:07Z</time>
      </trkpt>
      <trkpt lat="42.85162" lon="0.09701">
        <ele>2394</ele>
        <time>2014-06-07T10:23:08Z</time>
      </trkpt>
      <trkpt lat="42.85162" lon="0.09701">
        <ele>2392</ele>
        <time>2014-06-07T10:23:09Z</time>
      </trkpt>
      <trkpt lat="42.85161" lon="0.09701">
        <ele>2396</ele>
        <time>2014-06-07T10:23:11Z</time>
      </trkpt>
      <trkpt lat="42.85161" lon="0.09701">
        <ele>2396</ele>
        <time>2014-06-07T10:23:12Z</time>
      </trkpt>
      <trkpt lat="42.85161" lon="0.09701">
        <ele>2397</ele>
        <time>2014-06-07T10:23:16Z</time>
      </trkpt>
      <trkpt lat="42.85161" lon="0.09701">
        <ele>2393</ele>
        <time>2014-06-07T10:23:17Z</time>
      </trkpt>
      <trkpt lat="42.85161" lon="0.09701">
        <ele>2389</ele>
        <time>2014-06-07T10:23:19Z</time>
      </trkpt>
      <trkpt lat="42.85161" lon="0.09701">
        <ele>2394</ele>
        <time>2014-06-07T10:23:21Z</time>
      </trkpt>
      <trkpt lat="42.85161" lon="0.09702">
        <ele>2396</ele>
        <time>2014-06-07T10:23:23Z</time>
      </trkpt>
      <trkpt lat="42.85162" lon="0.09702">
        <ele>2393</ele>
        <time>2014-06-07T10:23:28Z</time>
      </trkpt>
      <trkpt lat="42.85162" lon="0.09702">
        <ele>2396</ele>
        <time>2014-06-07T10:23:30Z</time>
      </trkpt>
      <trkpt lat="42.85162" lon="0.09702">
        <ele>2393</ele>
        <time>2014-06-07T10:23:33Z</time>
      </trkpt>
      <trkpt lat="42.85162" lon="0.09702">
        <ele>2391</ele>
        <time>2014-06-07T10:23:36Z</time>
      </trkpt>
      <trkpt lat="42.85162" lon="0.09702">
        <ele>2395</ele>
        <time>2014-06-07T10:23:49Z</time>
      </trkpt>
      <trkpt lat="42.85162" lon="0.09702">
        <ele>2394</ele>
        <time>2014-06-07T10:23:50Z</time>
      </trkpt>
      <trkpt lat="42.85163" lon="0.09702">
        <ele>2395</ele>
        <time>2014-06-07T10:23:55Z</time>
      </trkpt>
      <trkpt lat="42.85163" lon="0.09702">
        <ele>2392</ele>
        <time>2014-06-07T10:24:35Z</time>
      </trkpt>
      <trkpt lat="42.85162" lon="0.09702">
        <ele>2392</ele>
        <time>2014-06-07T10:24:56Z</time>
      </trkpt>
      <trkpt lat="42.85163" lon="0.09703">
        <ele>2392</ele>
        <time>2014-06-07T10:25:30Z</time>
      </trkpt>
      <trkpt lat="42.85162" lon="0.09702">
        <ele>2391</ele>
        <time>2014-06-07T10:26:01Z</time>
      </trkpt>
      <trkpt lat="42.85162" lon="0.09702">
        <ele>2392</ele>
        <time>2014-06-07T10:26:06Z</time>
      </trkpt>
      <trkpt lat="42.85163" lon="0.09702">
        <ele>2389</ele>
        <time>2014-06-07T10:26:12Z</time>
      </trkpt>
      <trkpt lat="42.85163" lon="0.09702">
        <ele>2391</ele>
        <time>2014-06-07T10:26:28Z</time>
      </trkpt>
      <trkpt lat="42.85163" lon="0.09702">
        <ele>2391</ele>
        <time>2014-06-07T10:27:08Z</time>
      </trkpt>
      <trkpt lat="42.85162" lon="0.09702">
        <ele>2391</ele>
        <time>2014-06-07T10:27:50Z</time>
      </trkpt>
      <trkpt lat="42.85163" lon="0.09702">
        <ele>2391</ele>
        <time>2014-06-07T10:28:20Z</time>
      </trkpt>
      <trkpt lat="42.85162" lon="0.09702">
        <ele>2391</ele>
        <time>2014-06-07T10:29:00Z</time>
      </trkpt>
      <trkpt lat="42.85162" lon="0.09702">
        <ele>2393</ele>
        <time>2014-06-07T10:29:47Z</time>
      </trkpt>
      <trkpt lat="42.85162" lon="0.09702">
        <ele>2392</ele>
        <time>2014-06-07T10:30:20Z</time>
      </trkpt>
      <trkpt lat="42.85162" lon="0.09702">
        <ele>2390</ele>
        <time>2014-06-07T10:30:36Z</time>
      </trkpt>
      <trkpt lat="42.85162" lon="0.09703">
        <ele>2391</ele>
        <time>2014-06-07T10:31:12Z</time>
      </trkpt>
      <trkpt lat="42.85163" lon="0.09703">
        <ele>2389</ele>
        <time>2014-06-07T10:31:32Z</time>
      </trkpt>
      <trkpt lat="42.85163" lon="0.09703">
        <ele>2391</ele>
        <time>2014-06-07T10:31:34Z</time>
      </trkpt>
      <trkpt lat="42.85163" lon="0.09703">
        <ele>2392</ele>
        <time>2014-06-07T10:31:45Z</time>
      </trkpt>
      <trkpt lat="42.85163" lon="0.09702">
        <ele>2396</ele>
        <time>2014-06-07T10:31:52Z</time>
      </trkpt>
      <trkpt lat="42.85163" lon="0.09702">
        <ele>2394</ele>
        <time>2014-06-07T10:31:58Z</time>
      </trkpt>
      <trkpt lat="42.85163" lon="0.09702">
        <ele>2393</ele>
        <time>2014-06-07T10:32:05Z</time>
      </trkpt>
      <trkpt lat="42.85164" lon="0.09703">
        <ele>2391</ele>
        <time>2014-06-07T10:32:15Z</time>
      </trkpt>
      <trkpt lat="42.85164" lon="0.09702">
        <ele>2393</ele>
        <time>2014-06-07T10:32:45Z</time>
      </trkpt>
      <trkpt lat="42.85164" lon="0.09703">
        <ele>2390</ele>
        <time>2014-06-07T10:33:07Z</time>
      </trkpt>
      <trkpt lat="42.85163" lon="0.09703">
        <ele>2390</ele>
        <time>2014-06-07T10:33:30Z</time>
      </trkpt>
      <trkpt lat="42.85162" lon="0.09702">
        <ele>2390</ele>
        <time>2014-06-07T10:34:03Z</time>
      </trkpt>
      <trkpt lat="42.85161" lon="0.09702">
        <ele>2390</ele>
        <time>2014-06-07T10:34:33Z</time>
      </trkpt>
      <trkpt lat="42.85161" lon="0.09702">
        <ele>2392</ele>
        <time>2014-06-07T10:35:07Z</time>
      </trkpt>
      <trkpt lat="42.85161" lon="0.09702">
        <ele>2392</ele>
        <time>2014-06-07T10:35:08Z</time>
      </trkpt>
      <trkpt lat="42.85161" lon="0.09702">
        <ele>2392</ele>
        <time>2014-06-07T10:35:13Z</time>
      </trkpt>
      <trkpt lat="42.85162" lon="0.09702">
        <ele>2393</ele>
        <time>2014-06-07T10:35:49Z</time>
      </trkpt>
      <trkpt lat="42.85162" lon="0.09703">
        <ele>2392</ele>
        <time>2014-06-07T10:36:12Z</time>
      </trkpt>
      <trkpt lat="42.85162" lon="0.09703">
        <ele>2394</ele>
        <time>2014-06-07T10:36:15Z</time>
      </trkpt>
      <trkpt lat="42.85162" lon="0.09703">
        <ele>2392</ele>
        <time>2014-06-07T10:36:19Z</time>
      </trkpt>
      <trkpt lat="42.85162" lon="0.09703">
        <ele>2397</ele>
        <time>2014-06-07T10:36:27Z</time>
      </trkpt>
      <trkpt lat="42.85162" lon="0.09703">
        <ele>2396</ele>
        <time>2014-06-07T10:36:28Z</time>
      </trkpt>
      <trkpt lat="42.85161" lon="0.09702">
        <ele>2394</ele>
        <time>2014-06-07T10:36:37Z</time>
      </trkpt>
      <trkpt lat="42.85161" lon="0.09701">
        <ele>2391</ele>
        <time>2014-06-07T10:36:50Z</time>
      </trkpt>
      <trkpt lat="42.8516" lon="0.09702">
        <ele>2389</ele>
        <time>2014-06-07T10:37:08Z</time>
      </trkpt>
      <trkpt lat="42.8516" lon="0.09702">
        <ele>2390</ele>
        <time>2014-06-07T10:37:14Z</time>
      </trkpt>
      <trkpt lat="42.8516" lon="0.09702">
        <ele>2390</ele>
        <time>2014-06-07T10:37:19Z</time>
      </trkpt>
      <trkpt lat="42.85161" lon="0.09701">
        <ele>2390</ele>
        <time>2014-06-07T10:37:31Z</time>
      </trkpt>
      <trkpt lat="42.85162" lon="0.09702">
        <ele>2392</ele>
        <time>2014-06-07T10:37:36Z</time>
      </trkpt>
      <trkpt lat="42.85161" lon="0.09701">
        <ele>2392</ele>
        <time>2014-06-07T10:37:52Z</time>
      </trkpt>
      <trkpt lat="42.85163" lon="0.09699">
        <ele>2391</ele>
        <time>2014-06-07T10:38:07Z</time>
      </trkpt>
      <trkpt lat="42.85167" lon="0.09695">
        <ele>2389</ele>
        <time>2014-06-07T10:38:16Z</time>
      </trkpt>
      <trkpt lat="42.85166" lon="0.09695">
        <ele>2389</ele>
        <time>2014-06-07T10:38:28Z</time>
      </trkpt>
      <trkpt lat="42.85169" lon="0.09695">
        <ele>2387</ele>
        <time>2014-06-07T10:38:32Z</time>
      </trkpt>
      <trkpt lat="42.85173" lon="0.09697">
        <ele>2385</ele>
        <time>2014-06-07T10:38:40Z</time>
      </trkpt>
      <trkpt lat="42.85176" lon="0.09693">
        <ele>2385</ele>
        <time>2014-06-07T10:38:56Z</time>
      </trkpt>
      <trkpt lat="42.85177" lon="0.09694">
        <ele>2386</ele>
        <time>2014-06-07T10:39:16Z</time>
      </trkpt>
      <trkpt lat="42.85176" lon="0.09694">
        <ele>2386</ele>
        <time>2014-06-07T10:39:34Z</time>
      </trkpt>
      <trkpt lat="42.85178" lon="0.09694">
        <ele>2384</ele>
        <time>2014-06-07T10:39:55Z</time>
      </trkpt>
      <trkpt lat="42.85176" lon="0.09694">
        <ele>2384</ele>
        <time>2014-06-07T10:40:18Z</time>
      </trkpt>
      <trkpt lat="42.85176" lon="0.09692">
        <ele>2385</ele>
        <time>2014-06-07T10:40:42Z</time>
      </trkpt>
      <trkpt lat="42.85177" lon="0.09693">
        <ele>2385</ele>
        <time>2014-06-07T10:41:18Z</time>
      </trkpt>
      <trkpt lat="42.85176" lon="0.09692">
        <ele>2384</ele>
        <time>2014-06-07T10:41:35Z</time>
      </trkpt>
      <trkpt lat="42.85186" lon="0.09687">
        <ele>2379</ele>
        <time>2014-06-07T10:41:39Z</time>
      </trkpt>
      <trkpt lat="42.85197" lon="0.09684">
        <ele>2376</ele>
        <time>2014-06-07T10:41:42Z</time>
      </trkpt>
      <trkpt lat="42.85206" lon="0.0968">
        <ele>2371</ele>
        <time>2014-06-07T10:41:44Z</time>
      </trkpt>
      <trkpt lat="42.85215" lon="0.09679">
        <ele>2367</ele>
        <time>2014-06-07T10:41:46Z</time>
      </trkpt>
      <trkpt lat="42.85219" lon="0.09677">
        <ele>2364</ele>
        <time>2014-06-07T10:41:47Z</time>
      </trkpt>
      <trkpt lat="42.85229" lon="0.09678">
        <ele>2360</ele>
        <time>2014-06-07T10:41:49Z</time>
      </trkpt>
      <trkpt lat="42.85237" lon="0.0967">
        <ele>2355</ele>
        <time>2014-06-07T10:41:51Z</time>
      </trkpt>
      <trkpt lat="42.85243" lon="0.09659">
        <ele>2350</ele>
        <time>2014-06-07T10:41:53Z</time>
      </trkpt>
      <trkpt lat="42.85259" lon="0.09652">
        <ele>2344</ele>
        <time>2014-06-07T10:41:56Z</time>
      </trkpt>
      <trkpt lat="42.8527" lon="0.09647">
        <ele>2341</ele>
        <time>2014-06-07T10:41:58Z</time>
      </trkpt>
      <trkpt lat="42.85281" lon="0.0964">
        <ele>2336</ele>
        <time>2014-06-07T10:42:00Z</time>
      </trkpt>
      <trkpt lat="42.85292" lon="0.09632">
        <ele>2333</ele>
        <time>2014-06-07T10:42:02Z</time>
      </trkpt>
      <trkpt lat="42.853" lon="0.09623">
        <ele>2330</ele>
        <time>2014-06-07T10:42:04Z</time>
      </trkpt>
      <trkpt lat="42.85307" lon="0.09619">
        <ele>2329</ele>
        <time>2014-06-07T10:42:06Z</time>
      </trkpt>
      <trkpt lat="42.85307" lon="0.09615">
        <ele>2330</ele>
        <time>2014-06-07T10:42:22Z</time>
      </trkpt>
      <trkpt lat="42.85302" lon="0.09613">
        <ele>2330</ele>
        <time>2014-06-07T10:42:43Z</time>
      </trkpt>
      <trkpt lat="42.85304" lon="0.09614">
        <ele>2330</ele>
        <time>2014-06-07T10:42:46Z</time>
      </trkpt>
      <trkpt lat="42.8531" lon="0.09607">
        <ele>2328</ele>
        <time>2014-06-07T10:42:50Z</time>
      </trkpt>
      <trkpt lat="42.85312" lon="0.09604">
        <ele>2328</ele>
        <time>2014-06-07T10:42:51Z</time>
      </trkpt>
      <trkpt lat="42.85323" lon="0.09603">
        <ele>2323</ele>
        <time>2014-06-07T10:42:55Z</time>
      </trkpt>
      <trkpt lat="42.85325" lon="0.09599">
        <ele>2320</ele>
        <time>2014-06-07T10:42:57Z</time>
      </trkpt>
      <trkpt lat="42.85331" lon="0.0959">
        <ele>2316</ele>
        <time>2014-06-07T10:43:01Z</time>
      </trkpt>
      <trkpt lat="42.85333" lon="0.09586">
        <ele>2315</ele>
        <time>2014-06-07T10:43:03Z</time>
      </trkpt>
      <trkpt lat="42.85334" lon="0.09582">
        <ele>2313</ele>
        <time>2014-06-07T10:43:05Z</time>
      </trkpt>
      <trkpt lat="42.85335" lon="0.09576">
        <ele>2310</ele>
        <time>2014-06-07T10:43:07Z</time>
      </trkpt>
      <trkpt lat="42.85337" lon="0.09548">
        <ele>2305</ele>
        <time>2014-06-07T10:43:12Z</time>
      </trkpt>
      <trkpt lat="42.85344" lon="0.09524">
        <ele>2304</ele>
        <time>2014-06-07T10:43:21Z</time>
      </trkpt>
      <trkpt lat="42.85348" lon="0.09511">
        <ele>2302</ele>
        <time>2014-06-07T10:43:29Z</time>
      </trkpt>
      <trkpt lat="42.85357" lon="0.0949">
        <ele>2299</ele>
        <time>2014-06-07T10:43:34Z</time>
      </trkpt>
      <trkpt lat="42.85358" lon="0.09485">
        <ele>2299</ele>
        <time>2014-06-07T10:43:35Z</time>
      </trkpt>
      <trkpt lat="42.85363" lon="0.09451">
        <ele>2296</ele>
        <time>2014-06-07T10:43:44Z</time>
      </trkpt>
      <trkpt lat="42.85362" lon="0.09443">
        <ele>2297</ele>
        <time>2014-06-07T10:43:47Z</time>
      </trkpt>
      <trkpt lat="42.85358" lon="0.09427">
        <ele>2299</ele>
        <time>2014-06-07T10:43:52Z</time>
      </trkpt>
      <trkpt lat="42.85353" lon="0.09418">
        <ele>2294</ele>
        <time>2014-06-07T10:43:57Z</time>
      </trkpt>
      <trkpt lat="42.85353" lon="0.09416">
        <ele>2293</ele>
        <time>2014-06-07T10:44:11Z</time>
      </trkpt>
      <trkpt lat="42.85351" lon="0.09411">
        <ele>2292</ele>
        <time>2014-06-07T10:44:15Z</time>
      </trkpt>
      <trkpt lat="42.8535" lon="0.09406">
        <ele>2290</ele>
        <time>2014-06-07T10:44:18Z</time>
      </trkpt>
      <trkpt lat="42.8535" lon="0.09404">
        <ele>2290</ele>
        <time>2014-06-07T10:44:21Z</time>
      </trkpt>
      <trkpt lat="42.85352" lon="0.09398">
        <ele>2286</ele>
        <time>2014-06-07T10:44:24Z</time>
      </trkpt>
      <trkpt lat="42.85352" lon="0.09397">
        <ele>2287</ele>
        <time>2014-06-07T10:44:25Z</time>
      </trkpt>
      <trkpt lat="42.85355" lon="0.09388">
        <ele>2283</ele>
        <time>2014-06-07T10:44:29Z</time>
      </trkpt>
      <trkpt lat="42.85356" lon="0.09376">
        <ele>2279</ele>
        <time>2014-06-07T10:44:32Z</time>
      </trkpt>
      <trkpt lat="42.85361" lon="0.09371">
        <ele>2278</ele>
        <time>2014-06-07T10:44:35Z</time>
      </trkpt>
      <trkpt lat="42.85364" lon="0.09362">
        <ele>2272</ele>
        <time>2014-06-07T10:44:38Z</time>
      </trkpt>
      <trkpt lat="42.85366" lon="0.09355">
        <ele>2268</ele>
        <time>2014-06-07T10:44:41Z</time>
      </trkpt>
      <trkpt lat="42.85366" lon="0.09347">
        <ele>2263</ele>
        <time>2014-06-07T10:44:44Z</time>
      </trkpt>
      <trkpt lat="42.85369" lon="0.09341">
        <ele>2258</ele>
        <time>2014-06-07T10:44:48Z</time>
      </trkpt>
      <trkpt lat="42.85374" lon="0.09343">
        <ele>2256</ele>
        <time>2014-06-07T10:44:58Z</time>
      </trkpt>
      <trkpt lat="42.85376" lon="0.09341">
        <ele>2258</ele>
        <time>2014-06-07T10:45:03Z</time>
      </trkpt>
      <trkpt lat="42.85376" lon="0.09341">
        <ele>2257</ele>
        <time>2014-06-07T10:45:08Z</time>
      </trkpt>
      <trkpt lat="42.85376" lon="0.0934">
        <ele>2257</ele>
        <time>2014-06-07T10:45:24Z</time>
      </trkpt>
      <trkpt lat="42.85377" lon="0.0934">
        <ele>2256</ele>
        <time>2014-06-07T10:45:39Z</time>
      </trkpt>
      <trkpt lat="42.85381" lon="0.09341">
        <ele>2255</ele>
        <time>2014-06-07T10:45:56Z</time>
      </trkpt>
      <trkpt lat="42.85386" lon="0.09345">
        <ele>2254</ele>
        <time>2014-06-07T10:46:05Z</time>
      </trkpt>
      <trkpt lat="42.85391" lon="0.09344">
        <ele>2253</ele>
        <time>2014-06-07T10:46:10Z</time>
      </trkpt>
      <trkpt lat="42.85402" lon="0.09343">
        <ele>2251</ele>
        <time>2014-06-07T10:46:19Z</time>
      </trkpt>
      <trkpt lat="42.85404" lon="0.09341">
        <ele>2252</ele>
        <time>2014-06-07T10:46:23Z</time>
      </trkpt>
      <trkpt lat="42.85413" lon="0.09342">
        <ele>2252</ele>
        <time>2014-06-07T10:46:35Z</time>
      </trkpt>
      <trkpt lat="42.85415" lon="0.09342">
        <ele>2252</ele>
        <time>2014-06-07T10:46:38Z</time>
      </trkpt>
      <trkpt lat="42.85419" lon="0.09343">
        <ele>2252</ele>
        <time>2014-06-07T10:46:46Z</time>
      </trkpt>
      <trkpt lat="42.8542" lon="0.09344">
        <ele>2252</ele>
        <time>2014-06-07T10:46:50Z</time>
      </trkpt>
      <trkpt lat="42.8542" lon="0.09342">
        <ele>2253</ele>
        <time>2014-06-07T10:47:13Z</time>
      </trkpt>
      <trkpt lat="42.8542" lon="0.09338">
        <ele>2251</ele>
        <time>2014-06-07T10:47:33Z</time>
      </trkpt>
      <trkpt lat="42.85421" lon="0.09339">
        <ele>2253</ele>
        <time>2014-06-07T10:47:47Z</time>
      </trkpt>
      <trkpt lat="42.8542" lon="0.0934">
        <ele>2254</ele>
        <time>2014-06-07T10:47:50Z</time>
      </trkpt>
      <trkpt lat="42.85422" lon="0.0934">
        <ele>2256</ele>
        <time>2014-06-07T10:48:07Z</time>
      </trkpt>
      <trkpt lat="42.85421" lon="0.0934">
        <ele>2252</ele>
        <time>2014-06-07T10:48:10Z</time>
      </trkpt>
      <trkpt lat="42.85422" lon="0.09341">
        <ele>2252</ele>
        <time>2014-06-07T10:48:16Z</time>
      </trkpt>
      <trkpt lat="42.85421" lon="0.09341">
        <ele>2249</ele>
        <time>2014-06-07T10:48:24Z</time>
      </trkpt>
      <trkpt lat="42.85423" lon="0.09337">
        <ele>2248</ele>
        <time>2014-06-07T10:48:35Z</time>
      </trkpt>
      <trkpt lat="42.85422" lon="0.09337">
        <ele>2247</ele>
        <time>2014-06-07T10:48:58Z</time>
      </trkpt>
      <trkpt lat="42.85422" lon="0.09338">
        <ele>2249</ele>
        <time>2014-06-07T10:49:18Z</time>
      </trkpt>
      <trkpt lat="42.85423" lon="0.09337">
        <ele>2248</ele>
        <time>2014-06-07T10:49:32Z</time>
      </trkpt>
      <trkpt lat="42.85429" lon="0.0933">
        <ele>2247</ele>
        <time>2014-06-07T10:49:40Z</time>
      </trkpt>
      <trkpt lat="42.85439" lon="0.09315">
        <ele>2243</ele>
        <time>2014-06-07T10:49:43Z</time>
      </trkpt>
      <trkpt lat="42.85458" lon="0.09304">
        <ele>2237</ele>
        <time>2014-06-07T10:49:47Z</time>
      </trkpt>
      <trkpt lat="42.85473" lon="0.09289">
        <ele>2233</ele>
        <time>2014-06-07T10:49:50Z</time>
      </trkpt>
      <trkpt lat="42.85482" lon="0.09281">
        <ele>2231</ele>
        <time>2014-06-07T10:49:52Z</time>
      </trkpt>
      <trkpt lat="42.85505" lon="0.09265">
        <ele>2227</ele>
        <time>2014-06-07T10:49:56Z</time>
      </trkpt>
      <trkpt lat="42.85536" lon="0.09249">
        <ele>2222</ele>
        <time>2014-06-07T10:50:01Z</time>
      </trkpt>
      <trkpt lat="42.85552" lon="0.09241">
        <ele>2220</ele>
        <time>2014-06-07T10:50:04Z</time>
      </trkpt>
      <trkpt lat="42.85567" lon="0.09233">
        <ele>2220</ele>
        <time>2014-06-07T10:50:08Z</time>
      </trkpt>
      <trkpt lat="42.85576" lon="0.0923">
        <ele>2216</ele>
        <time>2014-06-07T10:50:11Z</time>
      </trkpt>
      <trkpt lat="42.85585" lon="0.09237">
        <ele>2213</ele>
        <time>2014-06-07T10:50:14Z</time>
      </trkpt>
      <trkpt lat="42.85589" lon="0.09238">
        <ele>2212</ele>
        <time>2014-06-07T10:50:15Z</time>
      </trkpt>
      <trkpt lat="42.85596" lon="0.09239">
        <ele>2213</ele>
        <time>2014-06-07T10:50:19Z</time>
      </trkpt>
      <trkpt lat="42.85601" lon="0.09235">
        <ele>2214</ele>
        <time>2014-06-07T10:50:29Z</time>
      </trkpt>
      <trkpt lat="42.85615" lon="0.09227">
        <ele>2212</ele>
        <time>2014-06-07T10:50:40Z</time>
      </trkpt>
      <trkpt lat="42.85626" lon="0.09207">
        <ele>2205</ele>
        <time>2014-06-07T10:50:45Z</time>
      </trkpt>
      <trkpt lat="42.85636" lon="0.09208">
        <ele>2201</ele>
        <time>2014-06-07T10:50:48Z</time>
      </trkpt>
      <trkpt lat="42.85642" lon="0.09207">
        <ele>2198</ele>
        <time>2014-06-07T10:50:51Z</time>
      </trkpt>
      <trkpt lat="42.85642" lon="0.09204">
        <ele>2198</ele>
        <time>2014-06-07T10:51:11Z</time>
      </trkpt>
      <trkpt lat="42.85639" lon="0.09205">
        <ele>2197</ele>
        <time>2014-06-07T10:51:25Z</time>
      </trkpt>
      <trkpt lat="42.85636" lon="0.09212">
        <ele>2200</ele>
        <time>2014-06-07T10:51:40Z</time>
      </trkpt>
      <trkpt lat="42.85635" lon="0.09208">
        <ele>2200</ele>
        <time>2014-06-07T10:51:52Z</time>
      </trkpt>
      <trkpt lat="42.85636" lon="0.09197">
        <ele>2203</ele>
        <time>2014-06-07T10:52:08Z</time>
      </trkpt>
      <trkpt lat="42.8564" lon="0.0919">
        <ele>2204</ele>
        <time>2014-06-07T10:52:22Z</time>
      </trkpt>
      <trkpt lat="42.85646" lon="0.09184">
        <ele>2205</ele>
        <time>2014-06-07T10:52:34Z</time>
      </trkpt>
      <trkpt lat="42.85649" lon="0.09174">
        <ele>2206</ele>
        <time>2014-06-07T10:52:45Z</time>
      </trkpt>
      <trkpt lat="42.85651" lon="0.09169">
        <ele>2206</ele>
        <time>2014-06-07T10:52:50Z</time>
      </trkpt>
      <trkpt lat="42.85657" lon="0.09155">
        <ele>2206</ele>
        <time>2014-06-07T10:53:03Z</time>
      </trkpt>
      <trkpt lat="42.85658" lon="0.09154">
        <ele>2206</ele>
        <time>2014-06-07T10:53:04Z</time>
      </trkpt>
      <trkpt lat="42.85667" lon="0.09139">
        <ele>2206</ele>
        <time>2014-06-07T10:53:16Z</time>
      </trkpt>
      <trkpt lat="42.85672" lon="0.09136">
        <ele>2208</ele>
        <time>2014-06-07T10:53:27Z</time>
      </trkpt>
      <trkpt lat="42.85677" lon="0.09129">
        <ele>2206</ele>
        <time>2014-06-07T10:53:34Z</time>
      </trkpt>
      <trkpt lat="42.85686" lon="0.09127">
        <ele>2205</ele>
        <time>2014-06-07T10:53:38Z</time>
      </trkpt>
      <trkpt lat="42.85697" lon="0.09135">
        <ele>2202</ele>
        <time>2014-06-07T10:53:41Z</time>
      </trkpt>
      <trkpt lat="42.85707" lon="0.09134">
        <ele>2198</ele>
        <time>2014-06-07T10:53:43Z</time>
      </trkpt>
      <trkpt lat="42.8572" lon="0.09128">
        <ele>2194</ele>
        <time>2014-06-07T10:53:46Z</time>
      </trkpt>
      <trkpt lat="42.85724" lon="0.09129">
        <ele>2193</ele>
        <time>2014-06-07T10:53:47Z</time>
      </trkpt>
      <trkpt lat="42.85736" lon="0.09136">
        <ele>2194</ele>
        <time>2014-06-07T10:54:00Z</time>
      </trkpt>
      <trkpt lat="42.85739" lon="0.09139">
        <ele>2193</ele>
        <time>2014-06-07T10:54:13Z</time>
      </trkpt>
      <trkpt lat="42.85742" lon="0.0914">
        <ele>2193</ele>
        <time>2014-06-07T10:54:25Z</time>
      </trkpt>
      <trkpt lat="42.8574" lon="0.0914">
        <ele>2193</ele>
        <time>2014-06-07T10:54:47Z</time>
      </trkpt>
      <trkpt lat="42.85745" lon="0.09142">
        <ele>2192</ele>
        <time>2014-06-07T10:55:06Z</time>
      </trkpt>
      <trkpt lat="42.85744" lon="0.09142">
        <ele>2192</ele>
        <time>2014-06-07T10:55:22Z</time>
      </trkpt>
      <trkpt lat="42.85745" lon="0.09141">
        <ele>2193</ele>
        <time>2014-06-07T10:55:40Z</time>
      </trkpt>
      <trkpt lat="42.85746" lon="0.09144">
        <ele>2194</ele>
        <time>2014-06-07T10:55:57Z</time>
      </trkpt>
      <trkpt lat="42.85752" lon="0.0915">
        <ele>2196</ele>
        <time>2014-06-07T10:56:11Z</time>
      </trkpt>
      <trkpt lat="42.8575" lon="0.09147">
        <ele>2197</ele>
        <time>2014-06-07T10:56:25Z</time>
      </trkpt>
      <trkpt lat="42.85753" lon="0.09146">
        <ele>2198</ele>
        <time>2014-06-07T10:56:40Z</time>
      </trkpt>
      <trkpt lat="42.85754" lon="0.09145">
        <ele>2198</ele>
        <time>2014-06-07T10:56:57Z</time>
      </trkpt>
      <trkpt lat="42.85754" lon="0.09145">
        <ele>2197</ele>
        <time>2014-06-07T10:57:19Z</time>
      </trkpt>
      <trkpt lat="42.85754" lon="0.09145">
        <ele>2197</ele>
        <time>2014-06-07T10:57:32Z</time>
      </trkpt>
      <trkpt lat="42.85754" lon="0.09145">
        <ele>2198</ele>
        <time>2014-06-07T10:57:47Z</time>
      </trkpt>
      <trkpt lat="42.85755" lon="0.09143">
        <ele>2197</ele>
        <time>2014-06-07T10:58:01Z</time>
      </trkpt>
      <trkpt lat="42.85757" lon="0.09142">
        <ele>2196</ele>
        <time>2014-06-07T10:58:09Z</time>
      </trkpt>
      <trkpt lat="42.8576" lon="0.09137">
        <ele>2195</ele>
        <time>2014-06-07T10:58:20Z</time>
      </trkpt>
      <trkpt lat="42.85762" lon="0.09129">
        <ele>2193</ele>
        <time>2014-06-07T10:58:36Z</time>
      </trkpt>
      <trkpt lat="42.85766" lon="0.09118">
        <ele>2191</ele>
        <time>2014-06-07T10:58:53Z</time>
      </trkpt>
      <trkpt lat="42.85767" lon="0.09115">
        <ele>2190</ele>
        <time>2014-06-07T10:58:54Z</time>
      </trkpt>
      <trkpt lat="42.85772" lon="0.0911">
        <ele>2187</ele>
        <time>2014-06-07T10:58:56Z</time>
      </trkpt>
      <trkpt lat="42.8578" lon="0.09107">
        <ele>2183</ele>
        <time>2014-06-07T10:58:58Z</time>
      </trkpt>
      <trkpt lat="42.8579" lon="0.091">
        <ele>2179</ele>
        <time>2014-06-07T10:59:01Z</time>
      </trkpt>
      <trkpt lat="42.85797" lon="0.09098">
        <ele>2175</ele>
        <time>2014-06-07T10:59:03Z</time>
      </trkpt>
      <trkpt lat="42.85806" lon="0.09083">
        <ele>2171</ele>
        <time>2014-06-07T10:59:06Z</time>
      </trkpt>
      <trkpt lat="42.85808" lon="0.09076">
        <ele>2170</ele>
        <time>2014-06-07T10:59:07Z</time>
      </trkpt>
      <trkpt lat="42.85811" lon="0.09065">
        <ele>2167</ele>
        <time>2014-06-07T10:59:09Z</time>
      </trkpt>
      <trkpt lat="42.85812" lon="0.09063">
        <ele>2165</ele>
        <time>2014-06-07T10:59:10Z</time>
      </trkpt>
      <trkpt lat="42.85816" lon="0.09064">
        <ele>2164</ele>
        <time>2014-06-07T10:59:11Z</time>
      </trkpt>
      <trkpt lat="42.85826" lon="0.09069">
        <ele>2162</ele>
        <time>2014-06-07T10:59:14Z</time>
      </trkpt>
      <trkpt lat="42.8583" lon="0.0907">
        <ele>2160</ele>
        <time>2014-06-07T10:59:15Z</time>
      </trkpt>
      <trkpt lat="42.85835" lon="0.09067">
        <ele>2158</ele>
        <time>2014-06-07T10:59:18Z</time>
      </trkpt>
      <trkpt lat="42.85844" lon="0.09054">
        <ele>2155</ele>
        <time>2014-06-07T10:59:22Z</time>
      </trkpt>
      <trkpt lat="42.85845" lon="0.09053">
        <ele>2155</ele>
        <time>2014-06-07T10:59:24Z</time>
      </trkpt>
      <trkpt lat="42.85845" lon="0.09047">
        <ele>2158</ele>
        <time>2014-06-07T10:59:35Z</time>
      </trkpt>
      <trkpt lat="42.85845" lon="0.09045">
        <ele>2155</ele>
        <time>2014-06-07T10:59:38Z</time>
      </trkpt>
      <trkpt lat="42.85844" lon="0.09044">
        <ele>2155</ele>
        <time>2014-06-07T10:59:39Z</time>
      </trkpt>
      <trkpt lat="42.85852" lon="0.09037">
        <ele>2159</ele>
        <time>2014-06-07T10:59:50Z</time>
      </trkpt>
      <trkpt lat="42.85852" lon="0.09037">
        <ele>2158</ele>
        <time>2014-06-07T10:59:51Z</time>
      </trkpt>
      <trkpt lat="42.85852" lon="0.09037">
        <ele>2160</ele>
        <time>2014-06-07T10:59:58Z</time>
      </trkpt>
      <trkpt lat="42.85852" lon="0.09037">
        <ele>2161</ele>
        <time>2014-06-07T11:00:01Z</time>
      </trkpt>
      <trkpt lat="42.85852" lon="0.09036">
        <ele>2158</ele>
        <time>2014-06-07T11:00:04Z</time>
      </trkpt>
      <trkpt lat="42.85853" lon="0.09037">
        <ele>2159</ele>
        <time>2014-06-07T11:00:13Z</time>
      </trkpt>
      <trkpt lat="42.85852" lon="0.09037">
        <ele>2161</ele>
        <time>2014-06-07T11:00:24Z</time>
      </trkpt>
      <trkpt lat="42.85851" lon="0.0904">
        <ele>2163</ele>
        <time>2014-06-07T11:00:28Z</time>
      </trkpt>
      <trkpt lat="42.85852" lon="0.09046">
        <ele>2162</ele>
        <time>2014-06-07T11:00:39Z</time>
      </trkpt>
      <trkpt lat="42.85856" lon="0.09047">
        <ele>2164</ele>
        <time>2014-06-07T11:00:51Z</time>
      </trkpt>
      <trkpt lat="42.85858" lon="0.09048">
        <ele>2165</ele>
        <time>2014-06-07T11:00:53Z</time>
      </trkpt>
      <trkpt lat="42.8586" lon="0.09054">
        <ele>2168</ele>
        <time>2014-06-07T11:01:04Z</time>
      </trkpt>
      <trkpt lat="42.85861" lon="0.0906">
        <ele>2167</ele>
        <time>2014-06-07T11:01:15Z</time>
      </trkpt>
      <trkpt lat="42.85864" lon="0.09067">
        <ele>2166</ele>
        <time>2014-06-07T11:01:28Z</time>
      </trkpt>
      <trkpt lat="42.85867" lon="0.09076">
        <ele>2165</ele>
        <time>2014-06-07T11:01:39Z</time>
      </trkpt>
      <trkpt lat="42.8587" lon="0.0908">
        <ele>2165</ele>
        <time>2014-06-07T11:01:52Z</time>
      </trkpt>
      <trkpt lat="42.85879" lon="0.0908">
        <ele>2165</ele>
        <time>2014-06-07T11:02:04Z</time>
      </trkpt>
      <trkpt lat="42.8588" lon="0.09082">
        <ele>2165</ele>
        <time>2014-06-07T11:02:19Z</time>
      </trkpt>
      <trkpt lat="42.85878" lon="0.09078">
        <ele>2165</ele>
        <time>2014-06-07T11:02:46Z</time>
      </trkpt>
      <trkpt lat="42.85882" lon="0.09078">
        <ele>2164</ele>
        <time>2014-06-07T11:03:05Z</time>
      </trkpt>
      <trkpt lat="42.85888" lon="0.09088">
        <ele>2160</ele>
        <time>2014-06-07T11:03:11Z</time>
      </trkpt>
      <trkpt lat="42.85891" lon="0.09095">
        <ele>2156</ele>
        <time>2014-06-07T11:03:13Z</time>
      </trkpt>
      <trkpt lat="42.85895" lon="0.09107">
        <ele>2152</ele>
        <time>2014-06-07T11:03:16Z</time>
      </trkpt>
      <trkpt lat="42.85894" lon="0.09116">
        <ele>2147</ele>
        <time>2014-06-07T11:03:18Z</time>
      </trkpt>
      <trkpt lat="42.8589" lon="0.09119">
        <ele>2146</ele>
        <time>2014-06-07T11:03:27Z</time>
      </trkpt>
      <trkpt lat="42.85891" lon="0.09122">
        <ele>2145</ele>
        <time>2014-06-07T11:03:50Z</time>
      </trkpt>
      <trkpt lat="42.85885" lon="0.09112">
        <ele>2145</ele>
        <time>2014-06-07T11:04:16Z</time>
      </trkpt>
      <trkpt lat="42.85889" lon="0.09122">
        <ele>2144</ele>
        <time>2014-06-07T11:04:42Z</time>
      </trkpt>
      <trkpt lat="42.8589" lon="0.0912">
        <ele>2145</ele>
        <time>2014-06-07T11:04:52Z</time>
      </trkpt>
      <trkpt lat="42.85901" lon="0.09117">
        <ele>2142</ele>
        <time>2014-06-07T11:04:58Z</time>
      </trkpt>
      <trkpt lat="42.85908" lon="0.09113">
        <ele>2140</ele>
        <time>2014-06-07T11:05:01Z</time>
      </trkpt>
      <trkpt lat="42.85915" lon="0.09123">
        <ele>2136</ele>
        <time>2014-06-07T11:05:04Z</time>
      </trkpt>
      <trkpt lat="42.85919" lon="0.09127">
        <ele>2134</ele>
        <time>2014-06-07T11:05:05Z</time>
      </trkpt>
      <trkpt lat="42.85922" lon="0.09128">
        <ele>2133</ele>
        <time>2014-06-07T11:05:06Z</time>
      </trkpt>
      <trkpt lat="42.8593" lon="0.09132">
        <ele>2129</ele>
        <time>2014-06-07T11:05:09Z</time>
      </trkpt>
      <trkpt lat="42.85937" lon="0.09129">
        <ele>2126</ele>
        <time>2014-06-07T11:05:11Z</time>
      </trkpt>
      <trkpt lat="42.85949" lon="0.09126">
        <ele>2124</ele>
        <time>2014-06-07T11:05:14Z</time>
      </trkpt>
      <trkpt lat="42.85955" lon="0.09126">
        <ele>2123</ele>
        <time>2014-06-07T11:05:16Z</time>
      </trkpt>
      <trkpt lat="42.85982" lon="0.0913">
        <ele>2120</ele>
        <time>2014-06-07T11:05:24Z</time>
      </trkpt>
      <trkpt lat="42.85984" lon="0.0913">
        <ele>2119</ele>
        <time>2014-06-07T11:05:25Z</time>
      </trkpt>
      <trkpt lat="42.85993" lon="0.09128">
        <ele>2120</ele>
        <time>2014-06-07T11:05:38Z</time>
      </trkpt>
      <trkpt lat="42.85995" lon="0.09127">
        <ele>2120</ele>
        <time>2014-06-07T11:06:04Z</time>
      </trkpt>
      <trkpt lat="42.86002" lon="0.09124">
        <ele>2121</ele>
        <time>2014-06-07T11:06:23Z</time>
      </trkpt>
      <trkpt lat="42.86002" lon="0.09123">
        <ele>2123</ele>
        <time>2014-06-07T11:06:38Z</time>
      </trkpt>
      <trkpt lat="42.86" lon="0.09123">
        <ele>2122</ele>
        <time>2014-06-07T11:06:58Z</time>
      </trkpt>
      <trkpt lat="42.86002" lon="0.0912">
        <ele>2122</ele>
        <time>2014-06-07T11:07:24Z</time>
      </trkpt>
      <trkpt lat="42.86008" lon="0.09127">
        <ele>2122</ele>
        <time>2014-06-07T11:07:40Z</time>
      </trkpt>
      <trkpt lat="42.86015" lon="0.09133">
        <ele>2121</ele>
        <time>2014-06-07T11:07:53Z</time>
      </trkpt>
      <trkpt lat="42.86024" lon="0.09141">
        <ele>2120</ele>
        <time>2014-06-07T11:08:05Z</time>
      </trkpt>
      <trkpt lat="42.86033" lon="0.09148">
        <ele>2120</ele>
        <time>2014-06-07T11:08:16Z</time>
      </trkpt>
      <trkpt lat="42.86043" lon="0.09156">
        <ele>2122</ele>
        <time>2014-06-07T11:08:29Z</time>
      </trkpt>
      <trkpt lat="42.86053" lon="0.09161">
        <ele>2119</ele>
        <time>2014-06-07T11:08:39Z</time>
      </trkpt>
      <trkpt lat="42.86056" lon="0.09161">
        <ele>2119</ele>
        <time>2014-06-07T11:08:42Z</time>
      </trkpt>
      <trkpt lat="42.86068" lon="0.09166">
        <ele>2117</ele>
        <time>2014-06-07T11:08:58Z</time>
      </trkpt>
      <trkpt lat="42.86069" lon="0.09167">
        <ele>2118</ele>
        <time>2014-06-07T11:09:00Z</time>
      </trkpt>
      <trkpt lat="42.8608" lon="0.09172">
        <ele>2119</ele>
        <time>2014-06-07T11:09:11Z</time>
      </trkpt>
      <trkpt lat="42.86099" lon="0.09173">
        <ele>2119</ele>
        <time>2014-06-07T11:09:25Z</time>
      </trkpt>
      <trkpt lat="42.86108" lon="0.09171">
        <ele>2121</ele>
        <time>2014-06-07T11:09:37Z</time>
      </trkpt>
      <trkpt lat="42.86121" lon="0.09167">
        <ele>2120</ele>
        <time>2014-06-07T11:09:52Z</time>
      </trkpt>
      <trkpt lat="42.86125" lon="0.09164">
        <ele>2122</ele>
        <time>2014-06-07T11:10:04Z</time>
      </trkpt>
      <trkpt lat="42.86128" lon="0.09161">
        <ele>2121</ele>
        <time>2014-06-07T11:10:23Z</time>
      </trkpt>
      <trkpt lat="42.8613" lon="0.09158">
        <ele>2121</ele>
        <time>2014-06-07T11:10:37Z</time>
      </trkpt>
      <trkpt lat="42.86132" lon="0.09157">
        <ele>2121</ele>
        <time>2014-06-07T11:10:50Z</time>
      </trkpt>
      <trkpt lat="42.86134" lon="0.09158">
        <ele>2119</ele>
        <time>2014-06-07T11:10:58Z</time>
      </trkpt>
      <trkpt lat="42.86136" lon="0.0916">
        <ele>2118</ele>
        <time>2014-06-07T11:11:15Z</time>
      </trkpt>
      <trkpt lat="42.86136" lon="0.09158">
        <ele>2118</ele>
        <time>2014-06-07T11:11:35Z</time>
      </trkpt>
      <trkpt lat="42.86137" lon="0.09158">
        <ele>2119</ele>
        <time>2014-06-07T11:11:51Z</time>
      </trkpt>
      <trkpt lat="42.86146" lon="0.09153">
        <ele>2116</ele>
        <time>2014-06-07T11:12:00Z</time>
      </trkpt>
      <trkpt lat="42.86148" lon="0.09151">
        <ele>2116</ele>
        <time>2014-06-07T11:12:01Z</time>
      </trkpt>
      <trkpt lat="42.86162" lon="0.09154">
        <ele>2113</ele>
        <time>2014-06-07T11:12:05Z</time>
      </trkpt>
      <trkpt lat="42.86167" lon="0.09158">
        <ele>2112</ele>
        <time>2014-06-07T11:12:07Z</time>
      </trkpt>
      <trkpt lat="42.86168" lon="0.09158">
        <ele>2112</ele>
        <time>2014-06-07T11:12:08Z</time>
      </trkpt>
      <trkpt lat="42.86176" lon="0.09154">
        <ele>2111</ele>
        <time>2014-06-07T11:12:13Z</time>
      </trkpt>
      <trkpt lat="42.86177" lon="0.09156">
        <ele>2110</ele>
        <time>2014-06-07T11:12:15Z</time>
      </trkpt>
      <trkpt lat="42.8618" lon="0.09156">
        <ele>2111</ele>
        <time>2014-06-07T11:12:17Z</time>
      </trkpt>
      <trkpt lat="42.8619" lon="0.09151">
        <ele>2106</ele>
        <time>2014-06-07T11:12:22Z</time>
      </trkpt>
      <trkpt lat="42.86194" lon="0.09151">
        <ele>2105</ele>
        <time>2014-06-07T11:12:23Z</time>
      </trkpt>
      <trkpt lat="42.86201" lon="0.09149">
        <ele>2103</ele>
        <time>2014-06-07T11:12:26Z</time>
      </trkpt>
      <trkpt lat="42.86205" lon="0.09149">
        <ele>2102</ele>
        <time>2014-06-07T11:12:36Z</time>
      </trkpt>
      <trkpt lat="42.86207" lon="0.09149">
        <ele>2102</ele>
        <time>2014-06-07T11:12:40Z</time>
      </trkpt>
      <trkpt lat="42.86212" lon="0.09133">
        <ele>2099</ele>
        <time>2014-06-07T11:12:45Z</time>
      </trkpt>
      <trkpt lat="42.86213" lon="0.09128">
        <ele>2098</ele>
        <time>2014-06-07T11:12:47Z</time>
      </trkpt>
      <trkpt lat="42.86213" lon="0.09128">
        <ele>2098</ele>
        <time>2014-06-07T11:12:55Z</time>
      </trkpt>
      <trkpt lat="42.86214" lon="0.0913">
        <ele>2098</ele>
        <time>2014-06-07T11:13:01Z</time>
      </trkpt>
      <trkpt lat="42.86229" lon="0.09136">
        <ele>2096</ele>
        <time>2014-06-07T11:13:07Z</time>
      </trkpt>
      <trkpt lat="42.86237" lon="0.09142">
        <ele>2094</ele>
        <time>2014-06-07T11:13:10Z</time>
      </trkpt>
      <trkpt lat="42.86252" lon="0.0915">
        <ele>2091</ele>
        <time>2014-06-07T11:13:14Z</time>
      </trkpt>
      <trkpt lat="42.86254" lon="0.09152">
        <ele>2091</ele>
        <time>2014-06-07T11:13:15Z</time>
      </trkpt>
      <trkpt lat="42.86257" lon="0.09159">
        <ele>2091</ele>
        <time>2014-06-07T11:13:19Z</time>
      </trkpt>
      <trkpt lat="42.86268" lon="0.09159">
        <ele>2087</ele>
        <time>2014-06-07T11:13:24Z</time>
      </trkpt>
      <trkpt lat="42.86272" lon="0.09159">
        <ele>2084</ele>
        <time>2014-06-07T11:13:28Z</time>
      </trkpt>
      <trkpt lat="42.86273" lon="0.09161">
        <ele>2083</ele>
        <time>2014-06-07T11:13:31Z</time>
      </trkpt>
      <trkpt lat="42.86283" lon="0.09163">
        <ele>2080</ele>
        <time>2014-06-07T11:13:36Z</time>
      </trkpt>
      <trkpt lat="42.8629" lon="0.0916">
        <ele>2076</ele>
        <time>2014-06-07T11:13:40Z</time>
      </trkpt>
      <trkpt lat="42.86291" lon="0.09159">
        <ele>2077</ele>
        <time>2014-06-07T11:13:48Z</time>
      </trkpt>
      <trkpt lat="42.86288" lon="0.09158">
        <ele>2077</ele>
        <time>2014-06-07T11:14:11Z</time>
      </trkpt>
      <trkpt lat="42.86291" lon="0.09158">
        <ele>2075</ele>
        <time>2014-06-07T11:14:31Z</time>
      </trkpt>
      <trkpt lat="42.8629" lon="0.09161">
        <ele>2077</ele>
        <time>2014-06-07T11:15:06Z</time>
      </trkpt>
      <trkpt lat="42.86291" lon="0.0916">
        <ele>2076</ele>
        <time>2014-06-07T11:15:12Z</time>
      </trkpt>
      <trkpt lat="42.86298" lon="0.09158">
        <ele>2076</ele>
        <time>2014-06-07T11:15:35Z</time>
      </trkpt>
      <trkpt lat="42.86295" lon="0.09159">
        <ele>2075</ele>
        <time>2014-06-07T11:15:56Z</time>
      </trkpt>
      <trkpt lat="42.86294" lon="0.09156">
        <ele>2073</ele>
        <time>2014-06-07T11:16:37Z</time>
      </trkpt>
      <trkpt lat="42.8629" lon="0.09158">
        <ele>2073</ele>
        <time>2014-06-07T11:17:03Z</time>
      </trkpt>
      <trkpt lat="42.86291" lon="0.09156">
        <ele>2073</ele>
        <time>2014-06-07T11:17:31Z</time>
      </trkpt>
      <trkpt lat="42.86291" lon="0.09155">
        <ele>2074</ele>
        <time>2014-06-07T11:18:02Z</time>
      </trkpt>
      <trkpt lat="42.86294" lon="0.09158">
        <ele>2073</ele>
        <time>2014-06-07T11:18:39Z</time>
      </trkpt>
      <trkpt lat="42.86289" lon="0.09159">
        <ele>2072</ele>
        <time>2014-06-07T11:19:14Z</time>
      </trkpt>
      <trkpt lat="42.86294" lon="0.09156">
        <ele>2072</ele>
        <time>2014-06-07T11:19:47Z</time>
      </trkpt>
      <trkpt lat="42.86294" lon="0.09158">
        <ele>2073</ele>
        <time>2014-06-07T11:20:17Z</time>
      </trkpt>
      <trkpt lat="42.86293" lon="0.09157">
        <ele>2074</ele>
        <time>2014-06-07T11:20:31Z</time>
      </trkpt>
      <trkpt lat="42.86292" lon="0.0916">
        <ele>2073</ele>
        <time>2014-06-07T11:20:50Z</time>
      </trkpt>
      <trkpt lat="42.86294" lon="0.09162">
        <ele>2072</ele>
        <time>2014-06-07T11:21:11Z</time>
      </trkpt>
      <trkpt lat="42.86294" lon="0.09158">
        <ele>2072</ele>
        <time>2014-06-07T11:21:21Z</time>
      </trkpt>
      <trkpt lat="42.86301" lon="0.09152">
        <ele>2070</ele>
        <time>2014-06-07T11:21:34Z</time>
      </trkpt>
      <trkpt lat="42.86308" lon="0.0915">
        <ele>2069</ele>
        <time>2014-06-07T11:21:45Z</time>
      </trkpt>
      <trkpt lat="42.86314" lon="0.09142">
        <ele>2067</ele>
        <time>2014-06-07T11:21:58Z</time>
      </trkpt>
      <trkpt lat="42.86317" lon="0.09141">
        <ele>2067</ele>
        <time>2014-06-07T11:22:05Z</time>
      </trkpt>
      <trkpt lat="42.8632" lon="0.09137">
        <ele>2067</ele>
        <time>2014-06-07T11:22:11Z</time>
      </trkpt>
      <trkpt lat="42.86321" lon="0.09136">
        <ele>2066</ele>
        <time>2014-06-07T11:22:13Z</time>
      </trkpt>
      <trkpt lat="42.86328" lon="0.09136">
        <ele>2067</ele>
        <time>2014-06-07T11:22:18Z</time>
      </trkpt>
      <trkpt lat="42.8633" lon="0.09129">
        <ele>2067</ele>
        <time>2014-06-07T11:22:25Z</time>
      </trkpt>
      <trkpt lat="42.8633" lon="0.09123">
        <ele>2067</ele>
        <time>2014-06-07T11:22:29Z</time>
      </trkpt>
      <trkpt lat="42.86332" lon="0.09114">
        <ele>2067</ele>
        <time>2014-06-07T11:22:34Z</time>
      </trkpt>
      <trkpt lat="42.86335" lon="0.09102">
        <ele>2066</ele>
        <time>2014-06-07T11:22:42Z</time>
      </trkpt>
      <trkpt lat="42.86336" lon="0.09087">
        <ele>2066</ele>
        <time>2014-06-07T11:22:53Z</time>
      </trkpt>
      <trkpt lat="42.86337" lon="0.09079">
        <ele>2066</ele>
        <time>2014-06-07T11:22:59Z</time>
      </trkpt>
      <trkpt lat="42.86345" lon="0.09053">
        <ele>2067</ele>
        <time>2014-06-07T11:23:13Z</time>
      </trkpt>
      <trkpt lat="42.86354" lon="0.09035">
        <ele>2066</ele>
        <time>2014-06-07T11:23:26Z</time>
      </trkpt>
      <trkpt lat="42.86362" lon="0.09029">
        <ele>2064</ele>
        <time>2014-06-07T11:23:40Z</time>
      </trkpt>
      <trkpt lat="42.86362" lon="0.09028">
        <ele>2063</ele>
        <time>2014-06-07T11:23:41Z</time>
      </trkpt>
      <trkpt lat="42.86367" lon="0.09018">
        <ele>2060</ele>
        <time>2014-06-07T11:23:54Z</time>
      </trkpt>
      <trkpt lat="42.86372" lon="0.09001">
        <ele>2058</ele>
        <time>2014-06-07T11:24:09Z</time>
      </trkpt>
      <trkpt lat="42.86375" lon="0.08988">
        <ele>2056</ele>
        <time>2014-06-07T11:24:24Z</time>
      </trkpt>
      <trkpt lat="42.8638" lon="0.0898">
        <ele>2053</ele>
        <time>2014-06-07T11:24:34Z</time>
      </trkpt>
      <trkpt lat="42.86389" lon="0.08966">
        <ele>2053</ele>
        <time>2014-06-07T11:24:48Z</time>
      </trkpt>
      <trkpt lat="42.86398" lon="0.08963">
        <ele>2051</ele>
        <time>2014-06-07T11:25:01Z</time>
      </trkpt>
      <trkpt lat="42.86405" lon="0.08964">
        <ele>2051</ele>
        <time>2014-06-07T11:25:13Z</time>
      </trkpt>
      <trkpt lat="42.86413" lon="0.08964">
        <ele>2048</ele>
        <time>2014-06-07T11:25:24Z</time>
      </trkpt>
      <trkpt lat="42.86418" lon="0.08959">
        <ele>2046</ele>
        <time>2014-06-07T11:25:32Z</time>
      </trkpt>
      <trkpt lat="42.86429" lon="0.08953">
        <ele>2044</ele>
        <time>2014-06-07T11:25:46Z</time>
      </trkpt>
      <trkpt lat="42.86431" lon="0.08951">
        <ele>2043</ele>
        <time>2014-06-07T11:25:49Z</time>
      </trkpt>
      <trkpt lat="42.86448" lon="0.08951">
        <ele>2042</ele>
        <time>2014-06-07T11:26:02Z</time>
      </trkpt>
      <trkpt lat="42.86458" lon="0.08957">
        <ele>2042</ele>
        <time>2014-06-07T11:26:11Z</time>
      </trkpt>
      <trkpt lat="42.86466" lon="0.08952">
        <ele>2038</ele>
        <time>2014-06-07T11:26:27Z</time>
      </trkpt>
      <trkpt lat="42.86471" lon="0.08952">
        <ele>2036</ele>
        <time>2014-06-07T11:26:38Z</time>
      </trkpt>
      <trkpt lat="42.86474" lon="0.08946">
        <ele>2033</ele>
        <time>2014-06-07T11:26:53Z</time>
      </trkpt>
      <trkpt lat="42.86478" lon="0.08945">
        <ele>2031</ele>
        <time>2014-06-07T11:27:07Z</time>
      </trkpt>
      <trkpt lat="42.86484" lon="0.08941">
        <ele>2029</ele>
        <time>2014-06-07T11:27:21Z</time>
      </trkpt>
      <trkpt lat="42.86484" lon="0.08941">
        <ele>2027</ele>
        <time>2014-06-07T11:27:30Z</time>
      </trkpt>
      <trkpt lat="42.86487" lon="0.08942">
        <ele>2025</ele>
        <time>2014-06-07T11:27:40Z</time>
      </trkpt>
      <trkpt lat="42.86492" lon="0.08944">
        <ele>2022</ele>
        <time>2014-06-07T11:27:55Z</time>
      </trkpt>
      <trkpt lat="42.86494" lon="0.08944">
        <ele>2021</ele>
        <time>2014-06-07T11:28:00Z</time>
      </trkpt>
      <trkpt lat="42.86499" lon="0.08946">
        <ele>2018</ele>
        <time>2014-06-07T11:28:09Z</time>
      </trkpt>
      <trkpt lat="42.86501" lon="0.08938">
        <ele>2016</ele>
        <time>2014-06-07T11:28:24Z</time>
      </trkpt>
      <trkpt lat="42.86507" lon="0.0893">
        <ele>2013</ele>
        <time>2014-06-07T11:28:36Z</time>
      </trkpt>
      <trkpt lat="42.86509" lon="0.08928">
        <ele>2010</ele>
        <time>2014-06-07T11:28:42Z</time>
      </trkpt>
      <trkpt lat="42.86512" lon="0.08927">
        <ele>2008</ele>
        <time>2014-06-07T11:28:53Z</time>
      </trkpt>
      <trkpt lat="42.86513" lon="0.08927">
        <ele>2007</ele>
        <time>2014-06-07T11:28:55Z</time>
      </trkpt>
      <trkpt lat="42.86517" lon="0.0893">
        <ele>2005</ele>
        <time>2014-06-07T11:29:08Z</time>
      </trkpt>
      <trkpt lat="42.8652" lon="0.0894">
        <ele>2005</ele>
        <time>2014-06-07T11:29:19Z</time>
      </trkpt>
      <trkpt lat="42.86522" lon="0.08955">
        <ele>2003</ele>
        <time>2014-06-07T11:29:30Z</time>
      </trkpt>
      <trkpt lat="42.86525" lon="0.08964">
        <ele>2000</ele>
        <time>2014-06-07T11:29:43Z</time>
      </trkpt>
      <trkpt lat="42.86525" lon="0.08973">
        <ele>1999</ele>
        <time>2014-06-07T11:29:57Z</time>
      </trkpt>
      <trkpt lat="42.86529" lon="0.08978">
        <ele>1996</ele>
        <time>2014-06-07T11:30:09Z</time>
      </trkpt>
      <trkpt lat="42.8653" lon="0.08978">
        <ele>1995</ele>
        <time>2014-06-07T11:30:12Z</time>
      </trkpt>
      <trkpt lat="42.86531" lon="0.08976">
        <ele>1993</ele>
        <time>2014-06-07T11:30:16Z</time>
      </trkpt>
      <trkpt lat="42.86536" lon="0.08978">
        <ele>1991</ele>
        <time>2014-06-07T11:30:29Z</time>
      </trkpt>
      <trkpt lat="42.86538" lon="0.08991">
        <ele>1989</ele>
        <time>2014-06-07T11:30:42Z</time>
      </trkpt>
      <trkpt lat="42.8654" lon="0.08996">
        <ele>1988</ele>
        <time>2014-06-07T11:30:50Z</time>
      </trkpt>
      <trkpt lat="42.86543" lon="0.09008">
        <ele>1984</ele>
        <time>2014-06-07T11:31:01Z</time>
      </trkpt>
      <trkpt lat="42.86544" lon="0.09026">
        <ele>1982</ele>
        <time>2014-06-07T11:31:15Z</time>
      </trkpt>
      <trkpt lat="42.86546" lon="0.09035">
        <ele>1978</ele>
        <time>2014-06-07T11:31:28Z</time>
      </trkpt>
      <trkpt lat="42.86548" lon="0.0904">
        <ele>1977</ele>
        <time>2014-06-07T11:31:40Z</time>
      </trkpt>
      <trkpt lat="42.86552" lon="0.09044">
        <ele>1974</ele>
        <time>2014-06-07T11:31:50Z</time>
      </trkpt>
      <trkpt lat="42.86556" lon="0.09045">
        <ele>1971</ele>
        <time>2014-06-07T11:31:56Z</time>
      </trkpt>
      <trkpt lat="42.86557" lon="0.09045">
        <ele>1971</ele>
        <time>2014-06-07T11:31:57Z</time>
      </trkpt>
      <trkpt lat="42.86563" lon="0.09044">
        <ele>1967</ele>
        <time>2014-06-07T11:32:06Z</time>
      </trkpt>
      <trkpt lat="42.86571" lon="0.09042">
        <ele>1965</ele>
        <time>2014-06-07T11:32:18Z</time>
      </trkpt>
      <trkpt lat="42.86574" lon="0.0904">
        <ele>1964</ele>
        <time>2014-06-07T11:32:22Z</time>
      </trkpt>
      <trkpt lat="42.86579" lon="0.0903">
        <ele>1962</ele>
        <time>2014-06-07T11:32:30Z</time>
      </trkpt>
      <trkpt lat="42.86584" lon="0.09026">
        <ele>1962</ele>
        <time>2014-06-07T11:32:35Z</time>
      </trkpt>
      <trkpt lat="42.86588" lon="0.09032">
        <ele>1962</ele>
        <time>2014-06-07T11:32:52Z</time>
      </trkpt>
      <trkpt lat="42.86592" lon="0.09023">
        <ele>1962</ele>
        <time>2014-06-07T11:33:07Z</time>
      </trkpt>
      <trkpt lat="42.86591" lon="0.09026">
        <ele>1961</ele>
        <time>2014-06-07T11:33:36Z</time>
      </trkpt>
      <trkpt lat="42.86592" lon="0.09025">
        <ele>1961</ele>
        <time>2014-06-07T11:34:06Z</time>
      </trkpt>
      <trkpt lat="42.8659" lon="0.09026">
        <ele>1962</ele>
        <time>2014-06-07T11:34:17Z</time>
      </trkpt>
      <trkpt lat="42.8659" lon="0.09025">
        <ele>1962</ele>
        <time>2014-06-07T11:34:33Z</time>
      </trkpt>
      <trkpt lat="42.86591" lon="0.09022">
        <ele>1960</ele>
        <time>2014-06-07T11:34:56Z</time>
      </trkpt>
      <trkpt lat="42.86591" lon="0.09027">
        <ele>1961</ele>
        <time>2014-06-07T11:35:30Z</time>
      </trkpt>
      <trkpt lat="42.86589" lon="0.09027">
        <ele>1961</ele>
        <time>2014-06-07T11:35:46Z</time>
      </trkpt>
      <trkpt lat="42.8659" lon="0.09024">
        <ele>1961</ele>
        <time>2014-06-07T11:36:08Z</time>
      </trkpt>
      <trkpt lat="42.8659" lon="0.09025">
        <ele>1960</ele>
        <time>2014-06-07T11:36:10Z</time>
      </trkpt>
      <trkpt lat="42.86588" lon="0.09029">
        <ele>1959</ele>
        <time>2014-06-07T11:36:34Z</time>
      </trkpt>
      <trkpt lat="42.8659" lon="0.09024">
        <ele>1960</ele>
        <time>2014-06-07T11:36:40Z</time>
      </trkpt>
      <trkpt lat="42.86589" lon="0.09029">
        <ele>1959</ele>
        <time>2014-06-07T11:37:03Z</time>
      </trkpt>
      <trkpt lat="42.86589" lon="0.09028">
        <ele>1961</ele>
        <time>2014-06-07T11:37:28Z</time>
      </trkpt>
      <trkpt lat="42.8659" lon="0.09027">
        <ele>1961</ele>
        <time>2014-06-07T11:37:47Z</time>
      </trkpt>
      <trkpt lat="42.86589" lon="0.09031">
        <ele>1961</ele>
        <time>2014-06-07T11:38:12Z</time>
      </trkpt>
      <trkpt lat="42.86591" lon="0.09024">
        <ele>1961</ele>
        <time>2014-06-07T11:38:34Z</time>
      </trkpt>
      <trkpt lat="42.86586" lon="0.09037">
        <ele>1959</ele>
        <time>2014-06-07T11:39:04Z</time>
      </trkpt>
      <trkpt lat="42.86588" lon="0.09031">
        <ele>1960</ele>
        <time>2014-06-07T11:39:09Z</time>
      </trkpt>
      <trkpt lat="42.8659" lon="0.09038">
        <ele>1957</ele>
        <time>2014-06-07T11:39:19Z</time>
      </trkpt>
      <trkpt lat="42.86593" lon="0.09037">
        <ele>1955</ele>
        <time>2014-06-07T11:39:30Z</time>
      </trkpt>
      <trkpt lat="42.86598" lon="0.09036">
        <ele>1953</ele>
        <time>2014-06-07T11:39:40Z</time>
      </trkpt>
      <trkpt lat="42.86603" lon="0.09036">
        <ele>1951</ele>
        <time>2014-06-07T11:39:57Z</time>
      </trkpt>
      <trkpt lat="42.86604" lon="0.09034">
        <ele>1951</ele>
        <time>2014-06-07T11:40:00Z</time>
      </trkpt>
      <trkpt lat="42.86612" lon="0.09027">
        <ele>1950</ele>
        <time>2014-06-07T11:40:15Z</time>
      </trkpt>
      <trkpt lat="42.86618" lon="0.09025">
        <ele>1949</ele>
        <time>2014-06-07T11:40:28Z</time>
      </trkpt>
      <trkpt lat="42.86621" lon="0.0902">
        <ele>1946</ele>
        <time>2014-06-07T11:40:41Z</time>
      </trkpt>
      <trkpt lat="42.86622" lon="0.09018">
        <ele>1944</ele>
        <time>2014-06-07T11:40:54Z</time>
      </trkpt>
      <trkpt lat="42.86625" lon="0.09013">
        <ele>1942</ele>
        <time>2014-06-07T11:41:07Z</time>
      </trkpt>
      <trkpt lat="42.86629" lon="0.09011">
        <ele>1942</ele>
        <time>2014-06-07T11:41:18Z</time>
      </trkpt>
      <trkpt lat="42.8663" lon="0.09009">
        <ele>1941</ele>
        <time>2014-06-07T11:41:27Z</time>
      </trkpt>
      <trkpt lat="42.86631" lon="0.09007">
        <ele>1940</ele>
        <time>2014-06-07T11:41:33Z</time>
      </trkpt>
      <trkpt lat="42.86631" lon="0.08993">
        <ele>1939</ele>
        <time>2014-06-07T11:41:49Z</time>
      </trkpt>
      <trkpt lat="42.86631" lon="0.08988">
        <ele>1937</ele>
        <time>2014-06-07T11:42:01Z</time>
      </trkpt>
      <trkpt lat="42.86634" lon="0.08973">
        <ele>1935</ele>
        <time>2014-06-07T11:42:17Z</time>
      </trkpt>
      <trkpt lat="42.86635" lon="0.08973">
        <ele>1934</ele>
        <time>2014-06-07T11:42:18Z</time>
      </trkpt>
      <trkpt lat="42.86643" lon="0.08959">
        <ele>1933</ele>
        <time>2014-06-07T11:42:31Z</time>
      </trkpt>
      <trkpt lat="42.86646" lon="0.08943">
        <ele>1932</ele>
        <time>2014-06-07T11:42:45Z</time>
      </trkpt>
      <trkpt lat="42.8665" lon="0.08931">
        <ele>1930</ele>
        <time>2014-06-07T11:42:54Z</time>
      </trkpt>
      <trkpt lat="42.8665" lon="0.08927">
        <ele>1929</ele>
        <time>2014-06-07T11:42:56Z</time>
      </trkpt>
      <trkpt lat="42.86652" lon="0.08922">
        <ele>1929</ele>
        <time>2014-06-07T11:42:59Z</time>
      </trkpt>
      <trkpt lat="42.86654" lon="0.08912">
        <ele>1928</ele>
        <time>2014-06-07T11:43:08Z</time>
      </trkpt>
      <trkpt lat="42.86656" lon="0.08895">
        <ele>1925</ele>
        <time>2014-06-07T11:43:21Z</time>
      </trkpt>
      <trkpt lat="42.86656" lon="0.08894">
        <ele>1924</ele>
        <time>2014-06-07T11:43:22Z</time>
      </trkpt>
      <trkpt lat="42.86657" lon="0.08885">
        <ele>1922</ele>
        <time>2014-06-07T11:43:29Z</time>
      </trkpt>
      <trkpt lat="42.86658" lon="0.08881">
        <ele>1921</ele>
        <time>2014-06-07T11:43:32Z</time>
      </trkpt>
      <trkpt lat="42.86656" lon="0.08876">
        <ele>1921</ele>
        <time>2014-06-07T11:43:36Z</time>
      </trkpt>
      <trkpt lat="42.86652" lon="0.0887">
        <ele>1919</ele>
        <time>2014-06-07T11:43:42Z</time>
      </trkpt>
      <trkpt lat="42.86646" lon="0.08863">
        <ele>1918</ele>
        <time>2014-06-07T11:43:48Z</time>
      </trkpt>
      <trkpt lat="42.86643" lon="0.0886">
        <ele>1918</ele>
        <time>2014-06-07T11:43:52Z</time>
      </trkpt>
      <trkpt lat="42.86633" lon="0.08842">
        <ele>1917</ele>
        <time>2014-06-07T11:44:07Z</time>
      </trkpt>
      <trkpt lat="42.86633" lon="0.08835">
        <ele>1916</ele>
        <time>2014-06-07T11:44:16Z</time>
      </trkpt>
      <trkpt lat="42.86633" lon="0.08825">
        <ele>1914</ele>
        <time>2014-06-07T11:44:24Z</time>
      </trkpt>
      <trkpt lat="42.86632" lon="0.08823">
        <ele>1914</ele>
        <time>2014-06-07T11:44:26Z</time>
      </trkpt>
      <trkpt lat="42.86633" lon="0.08811">
        <ele>1913</ele>
        <time>2014-06-07T11:44:36Z</time>
      </trkpt>
      <trkpt lat="42.86639" lon="0.08793">
        <ele>1910</ele>
        <time>2014-06-07T11:44:49Z</time>
      </trkpt>
      <trkpt lat="42.86645" lon="0.08784">
        <ele>1908</ele>
        <time>2014-06-07T11:45:01Z</time>
      </trkpt>
      <trkpt lat="42.86654" lon="0.08773">
        <ele>1907</ele>
        <time>2014-06-07T11:45:15Z</time>
      </trkpt>
      <trkpt lat="42.86667" lon="0.0877">
        <ele>1904</ele>
        <time>2014-06-07T11:45:31Z</time>
      </trkpt>
      <trkpt lat="42.86679" lon="0.08763">
        <ele>1903</ele>
        <time>2014-06-07T11:45:44Z</time>
      </trkpt>
      <trkpt lat="42.8668" lon="0.08763">
        <ele>1902</ele>
        <time>2014-06-07T11:45:45Z</time>
      </trkpt>
      <trkpt lat="42.86688" lon="0.08765">
        <ele>1901</ele>
        <time>2014-06-07T11:45:53Z</time>
      </trkpt>
      <trkpt lat="42.86703" lon="0.08755">
        <ele>1899</ele>
        <time>2014-06-07T11:46:07Z</time>
      </trkpt>
      <trkpt lat="42.86707" lon="0.0875">
        <ele>1898</ele>
        <time>2014-06-07T11:46:13Z</time>
      </trkpt>
      <trkpt lat="42.8672" lon="0.08734">
        <ele>1895</ele>
        <time>2014-06-07T11:46:28Z</time>
      </trkpt>
      <trkpt lat="42.8673" lon="0.08722">
        <ele>1893</ele>
        <time>2014-06-07T11:46:39Z</time>
      </trkpt>
      <trkpt lat="42.86738" lon="0.08717">
        <ele>1892</ele>
        <time>2014-06-07T11:46:48Z</time>
      </trkpt>
      <trkpt lat="42.86745" lon="0.08714">
        <ele>1891</ele>
        <time>2014-06-07T11:46:55Z</time>
      </trkpt>
      <trkpt lat="42.86751" lon="0.08708">
        <ele>1889</ele>
        <time>2014-06-07T11:47:02Z</time>
      </trkpt>
      <trkpt lat="42.86756" lon="0.08697">
        <ele>1889</ele>
        <time>2014-06-07T11:47:10Z</time>
      </trkpt>
      <trkpt lat="42.86767" lon="0.08689">
        <ele>1887</ele>
        <time>2014-06-07T11:47:24Z</time>
      </trkpt>
      <trkpt lat="42.86778" lon="0.08675">
        <ele>1885</ele>
        <time>2014-06-07T11:47:41Z</time>
      </trkpt>
      <trkpt lat="42.86788" lon="0.08668">
        <ele>1883</ele>
        <time>2014-06-07T11:47:53Z</time>
      </trkpt>
      <trkpt lat="42.868" lon="0.08656">
        <ele>1881</ele>
        <time>2014-06-07T11:48:08Z</time>
      </trkpt>
      <trkpt lat="42.8681" lon="0.08644">
        <ele>1879</ele>
        <time>2014-06-07T11:48:21Z</time>
      </trkpt>
      <trkpt lat="42.86821" lon="0.0863">
        <ele>1876</ele>
        <time>2014-06-07T11:48:35Z</time>
      </trkpt>
      <trkpt lat="42.8683" lon="0.08618">
        <ele>1873</ele>
        <time>2014-06-07T11:48:49Z</time>
      </trkpt>
      <trkpt lat="42.86841" lon="0.086">
        <ele>1871</ele>
        <time>2014-06-07T11:49:05Z</time>
      </trkpt>
      <trkpt lat="42.86849" lon="0.08584">
        <ele>1868</ele>
        <time>2014-06-07T11:49:15Z</time>
      </trkpt>
      <trkpt lat="42.86851" lon="0.0858">
        <ele>1867</ele>
        <time>2014-06-07T11:49:19Z</time>
      </trkpt>
      <trkpt lat="42.86855" lon="0.08573">
        <ele>1866</ele>
        <time>2014-06-07T11:49:25Z</time>
      </trkpt>
      <trkpt lat="42.86857" lon="0.08571">
        <ele>1866</ele>
        <time>2014-06-07T11:49:27Z</time>
      </trkpt>
      <trkpt lat="42.86869" lon="0.08554">
        <ele>1865</ele>
        <time>2014-06-07T11:49:41Z</time>
      </trkpt>
      <trkpt lat="42.86872" lon="0.08553">
        <ele>1863</ele>
        <time>2014-06-07T11:49:45Z</time>
      </trkpt>
      <trkpt lat="42.86879" lon="0.08548">
        <ele>1862</ele>
        <time>2014-06-07T11:49:58Z</time>
      </trkpt>
      <trkpt lat="42.86878" lon="0.08545">
        <ele>1862</ele>
        <time>2014-06-07T11:50:02Z</time>
      </trkpt>
      <trkpt lat="42.86875" lon="0.08547">
        <ele>1862</ele>
        <time>2014-06-07T11:50:05Z</time>
      </trkpt>
      <trkpt lat="42.86875" lon="0.08549">
        <ele>1862</ele>
        <time>2014-06-07T11:50:06Z</time>
      </trkpt>
      <trkpt lat="42.86874" lon="0.0855">
        <ele>1861</ele>
        <time>2014-06-07T11:50:07Z</time>
      </trkpt>
      <trkpt lat="42.86876" lon="0.08548">
        <ele>1861</ele>
        <time>2014-06-07T11:50:10Z</time>
      </trkpt>
      <trkpt lat="42.86878" lon="0.08541">
        <ele>1861</ele>
        <time>2014-06-07T11:50:16Z</time>
      </trkpt>
      <trkpt lat="42.86877" lon="0.08543">
        <ele>1860</ele>
        <time>2014-06-07T11:50:19Z</time>
      </trkpt>
      <trkpt lat="42.86871" lon="0.08557">
        <ele>1858</ele>
        <time>2014-06-07T11:50:28Z</time>
      </trkpt>
      <trkpt lat="42.86867" lon="0.08568">
        <ele>1858</ele>
        <time>2014-06-07T11:50:35Z</time>
      </trkpt>
      <trkpt lat="42.86862" lon="0.08594">
        <ele>1855</ele>
        <time>2014-06-07T11:50:49Z</time>
      </trkpt>
      <trkpt lat="42.86862" lon="0.08604">
        <ele>1854</ele>
        <time>2014-06-07T11:50:56Z</time>
      </trkpt>
      <trkpt lat="42.86865" lon="0.08623">
        <ele>1851</ele>
        <time>2014-06-07T11:51:10Z</time>
      </trkpt>
      <trkpt lat="42.86869" lon="0.08646">
        <ele>1849</ele>
        <time>2014-06-07T11:51:25Z</time>
      </trkpt>
      <trkpt lat="42.8687" lon="0.08654">
        <ele>1848</ele>
        <time>2014-06-07T11:51:28Z</time>
      </trkpt>
      <trkpt lat="42.86865" lon="0.08674">
        <ele>1846</ele>
        <time>2014-06-07T11:51:39Z</time>
      </trkpt>
      <trkpt lat="42.86854" lon="0.08698">
        <ele>1843</ele>
        <time>2014-06-07T11:51:54Z</time>
      </trkpt>
      <trkpt lat="42.86849" lon="0.08714">
        <ele>1841</ele>
        <time>2014-06-07T11:52:05Z</time>
      </trkpt>
      <trkpt lat="42.86845" lon="0.08725">
        <ele>1840</ele>
        <time>2014-06-07T11:52:12Z</time>
      </trkpt>
      <trkpt lat="42.86838" lon="0.08739">
        <ele>1838</ele>
        <time>2014-06-07T11:52:21Z</time>
      </trkpt>
      <trkpt lat="42.86837" lon="0.08742">
        <ele>1837</ele>
        <time>2014-06-07T11:52:23Z</time>
      </trkpt>
      <trkpt lat="42.86835" lon="0.08747">
        <ele>1837</ele>
        <time>2014-06-07T11:52:27Z</time>
      </trkpt>
      <trkpt lat="42.86831" lon="0.08761">
        <ele>1836</ele>
        <time>2014-06-07T11:52:37Z</time>
      </trkpt>
      <trkpt lat="42.86828" lon="0.08768">
        <ele>1836</ele>
        <time>2014-06-07T11:52:42Z</time>
      </trkpt>
      <trkpt lat="42.86827" lon="0.08797">
        <ele>1834</ele>
        <time>2014-06-07T11:52:59Z</time>
      </trkpt>
      <trkpt lat="42.86828" lon="0.08804">
        <ele>1833</ele>
        <time>2014-06-07T11:53:04Z</time>
      </trkpt>
      <trkpt lat="42.86832" lon="0.08816">
        <ele>1832</ele>
        <time>2014-06-07T11:53:12Z</time>
      </trkpt>
      <trkpt lat="42.86839" lon="0.08812">
        <ele>1831</ele>
        <time>2014-06-07T11:53:25Z</time>
      </trkpt>
      <trkpt lat="42.86843" lon="0.08795">
        <ele>1830</ele>
        <time>2014-06-07T11:53:38Z</time>
      </trkpt>
      <trkpt lat="42.86849" lon="0.08776">
        <ele>1829</ele>
        <time>2014-06-07T11:53:51Z</time>
      </trkpt>
      <trkpt lat="42.86854" lon="0.08763">
        <ele>1828</ele>
        <time>2014-06-07T11:53:59Z</time>
      </trkpt>
      <trkpt lat="42.86856" lon="0.08758">
        <ele>1827</ele>
        <time>2014-06-07T11:54:02Z</time>
      </trkpt>
      <trkpt lat="42.86867" lon="0.08744">
        <ele>1825</ele>
        <time>2014-06-07T11:54:14Z</time>
      </trkpt>
      <trkpt lat="42.8688" lon="0.08731">
        <ele>1824</ele>
        <time>2014-06-07T11:54:28Z</time>
      </trkpt>
      <trkpt lat="42.86882" lon="0.08727">
        <ele>1823</ele>
        <time>2014-06-07T11:54:31Z</time>
      </trkpt>
      <trkpt lat="42.86891" lon="0.08714">
        <ele>1821</ele>
        <time>2014-06-07T11:54:41Z</time>
      </trkpt>
      <trkpt lat="42.86896" lon="0.08706">
        <ele>1820</ele>
        <time>2014-06-07T11:54:46Z</time>
      </trkpt>
      <trkpt lat="42.86898" lon="0.08702">
        <ele>1820</ele>
        <time>2014-06-07T11:54:49Z</time>
      </trkpt>
      <trkpt lat="42.86903" lon="0.08696">
        <ele>1819</ele>
        <time>2014-06-07T11:54:54Z</time>
      </trkpt>
      <trkpt lat="42.86906" lon="0.08694">
        <ele>1818</ele>
        <time>2014-06-07T11:54:57Z</time>
      </trkpt>
      <trkpt lat="42.8691" lon="0.08693">
        <ele>1817</ele>
        <time>2014-06-07T11:55:01Z</time>
      </trkpt>
      <trkpt lat="42.86922" lon="0.08683">
        <ele>1815</ele>
        <time>2014-06-07T11:55:12Z</time>
      </trkpt>
      <trkpt lat="42.86923" lon="0.08681">
        <ele>1814</ele>
        <time>2014-06-07T11:55:14Z</time>
      </trkpt>
      <trkpt lat="42.86926" lon="0.08673">
        <ele>1814</ele>
        <time>2014-06-07T11:55:18Z</time>
      </trkpt>
      <trkpt lat="42.86932" lon="0.08661">
        <ele>1812</ele>
        <time>2014-06-07T11:55:26Z</time>
      </trkpt>
      <trkpt lat="42.86935" lon="0.08652">
        <ele>1811</ele>
        <time>2014-06-07T11:55:32Z</time>
      </trkpt>
      <trkpt lat="42.8694" lon="0.08635">
        <ele>1807</ele>
        <time>2014-06-07T11:55:45Z</time>
      </trkpt>
      <trkpt lat="42.86944" lon="0.08622">
        <ele>1806</ele>
        <time>2014-06-07T11:55:57Z</time>
      </trkpt>
      <trkpt lat="42.86948" lon="0.08611">
        <ele>1805</ele>
        <time>2014-06-07T11:56:08Z</time>
      </trkpt>
      <trkpt lat="42.86951" lon="0.08609">
        <ele>1804</ele>
        <time>2014-06-07T11:56:11Z</time>
      </trkpt>
      <trkpt lat="42.86953" lon="0.08607">
        <ele>1803</ele>
        <time>2014-06-07T11:56:13Z</time>
      </trkpt>
      <trkpt lat="42.86956" lon="0.08605">
        <ele>1803</ele>
        <time>2014-06-07T11:56:16Z</time>
      </trkpt>
      <trkpt lat="42.86966" lon="0.08588">
        <ele>1801</ele>
        <time>2014-06-07T11:56:30Z</time>
      </trkpt>
      <trkpt lat="42.86971" lon="0.0858">
        <ele>1800</ele>
        <time>2014-06-07T11:56:37Z</time>
      </trkpt>
      <trkpt lat="42.8698" lon="0.08562">
        <ele>1798</ele>
        <time>2014-06-07T11:56:49Z</time>
      </trkpt>
      <trkpt lat="42.86985" lon="0.08557">
        <ele>1797</ele>
        <time>2014-06-07T11:56:55Z</time>
      </trkpt>
      <trkpt lat="42.86996" lon="0.08541">
        <ele>1795</ele>
        <time>2014-06-07T11:57:07Z</time>
      </trkpt>
      <trkpt lat="42.87007" lon="0.0852">
        <ele>1792</ele>
        <time>2014-06-07T11:57:22Z</time>
      </trkpt>
      <trkpt lat="42.87009" lon="0.08518">
        <ele>1792</ele>
        <time>2014-06-07T11:57:24Z</time>
      </trkpt>
      <trkpt lat="42.87012" lon="0.08514">
        <ele>1791</ele>
        <time>2014-06-07T11:57:27Z</time>
      </trkpt>
      <trkpt lat="42.87016" lon="0.08511">
        <ele>1790</ele>
        <time>2014-06-07T11:57:31Z</time>
      </trkpt>
      <trkpt lat="42.87018" lon="0.08509">
        <ele>1790</ele>
        <time>2014-06-07T11:57:33Z</time>
      </trkpt>
      <trkpt lat="42.87025" lon="0.08504">
        <ele>1789</ele>
        <time>2014-06-07T11:57:39Z</time>
      </trkpt>
      <trkpt lat="42.87034" lon="0.08501">
        <ele>1787</ele>
        <time>2014-06-07T11:57:47Z</time>
      </trkpt>
      <trkpt lat="42.87039" lon="0.08501">
        <ele>1787</ele>
        <time>2014-06-07T11:57:51Z</time>
      </trkpt>
      <trkpt lat="42.87045" lon="0.08498">
        <ele>1787</ele>
        <time>2014-06-07T11:57:56Z</time>
      </trkpt>
      <trkpt lat="42.87054" lon="0.08491">
        <ele>1786</ele>
        <time>2014-06-07T11:58:11Z</time>
      </trkpt>
      <trkpt lat="42.87057" lon="0.08489">
        <ele>1785</ele>
        <time>2014-06-07T11:58:14Z</time>
      </trkpt>
      <trkpt lat="42.87072" lon="0.08483">
        <ele>1783</ele>
        <time>2014-06-07T11:58:27Z</time>
      </trkpt>
      <trkpt lat="42.87073" lon="0.08482">
        <ele>1783</ele>
        <time>2014-06-07T11:58:28Z</time>
      </trkpt>
      <trkpt lat="42.87076" lon="0.0848">
        <ele>1783</ele>
        <time>2014-06-07T11:58:31Z</time>
      </trkpt>
      <trkpt lat="42.87078" lon="0.08479">
        <ele>1782</ele>
        <time>2014-06-07T11:58:33Z</time>
      </trkpt>
      <trkpt lat="42.8708" lon="0.08476">
        <ele>1783</ele>
        <time>2014-06-07T11:58:35Z</time>
      </trkpt>
      <trkpt lat="42.87093" lon="0.08464">
        <ele>1780</ele>
        <time>2014-06-07T11:58:47Z</time>
      </trkpt>
      <trkpt lat="42.87096" lon="0.08463">
        <ele>1780</ele>
        <time>2014-06-07T11:58:49Z</time>
      </trkpt>
      <trkpt lat="42.87105" lon="0.08459">
        <ele>1779</ele>
        <time>2014-06-07T11:58:56Z</time>
      </trkpt>
      <trkpt lat="42.87115" lon="0.0845">
        <ele>1777</ele>
        <time>2014-06-07T11:59:08Z</time>
      </trkpt>
      <trkpt lat="42.87119" lon="0.08447">
        <ele>1776</ele>
        <time>2014-06-07T11:59:12Z</time>
      </trkpt>
      <trkpt lat="42.87132" lon="0.08436">
        <ele>1774</ele>
        <time>2014-06-07T11:59:24Z</time>
      </trkpt>
      <trkpt lat="42.87135" lon="0.08434">
        <ele>1773</ele>
        <time>2014-06-07T11:59:27Z</time>
      </trkpt>
      <trkpt lat="42.87143" lon="0.08434">
        <ele>1772</ele>
        <time>2014-06-07T11:59:34Z</time>
      </trkpt>
      <trkpt lat="42.87145" lon="0.08434">
        <ele>1771</ele>
        <time>2014-06-07T11:59:36Z</time>
      </trkpt>
      <trkpt lat="42.87158" lon="0.08434">
        <ele>1770</ele>
        <time>2014-06-07T11:59:46Z</time>
      </trkpt>
      <trkpt lat="42.87176" lon="0.08432">
        <ele>1767</ele>
        <time>2014-06-07T12:00:00Z</time>
      </trkpt>
      <trkpt lat="42.87179" lon="0.08431">
        <ele>1767</ele>
        <time>2014-06-07T12:00:03Z</time>
      </trkpt>
      <trkpt lat="42.87185" lon="0.08425">
        <ele>1766</ele>
        <time>2014-06-07T12:00:11Z</time>
      </trkpt>
      <trkpt lat="42.87189" lon="0.08425">
        <ele>1765</ele>
        <time>2014-06-07T12:00:15Z</time>
      </trkpt>
      <trkpt lat="42.87199" lon="0.08425">
        <ele>1763</ele>
        <time>2014-06-07T12:00:24Z</time>
      </trkpt>
      <trkpt lat="42.87205" lon="0.08423">
        <ele>1762</ele>
        <time>2014-06-07T12:00:30Z</time>
      </trkpt>
      <trkpt lat="42.87209" lon="0.08422">
        <ele>1761</ele>
        <time>2014-06-07T12:00:34Z</time>
      </trkpt>
      <trkpt lat="42.87223" lon="0.08418">
        <ele>1758</ele>
        <time>2014-06-07T12:00:47Z</time>
      </trkpt>
      <trkpt lat="42.87229" lon="0.08423">
        <ele>1755</ele>
        <time>2014-06-07T12:00:59Z</time>
      </trkpt>
      <trkpt lat="42.87234" lon="0.08421">
        <ele>1754</ele>
        <time>2014-06-07T12:01:18Z</time>
      </trkpt>
      <trkpt lat="42.87235" lon="0.08425">
        <ele>1751</ele>
        <time>2014-06-07T12:01:32Z</time>
      </trkpt>
      <trkpt lat="42.87235" lon="0.0843">
        <ele>1748</ele>
        <time>2014-06-07T12:01:40Z</time>
      </trkpt>
      <trkpt lat="42.87237" lon="0.08431">
        <ele>1747</ele>
        <time>2014-06-07T12:01:43Z</time>
      </trkpt>
      <trkpt lat="42.87241" lon="0.08434">
        <ele>1745</ele>
        <time>2014-06-07T12:01:48Z</time>
      </trkpt>
      <trkpt lat="42.87241" lon="0.08444">
        <ele>1742</ele>
        <time>2014-06-07T12:02:00Z</time>
      </trkpt>
      <trkpt lat="42.87243" lon="0.08446">
        <ele>1742</ele>
        <time>2014-06-07T12:02:04Z</time>
      </trkpt>
      <trkpt lat="42.87247" lon="0.08451">
        <ele>1738</ele>
        <time>2014-06-07T12:02:17Z</time>
      </trkpt>
      <trkpt lat="42.87249" lon="0.08453">
        <ele>1737</ele>
        <time>2014-06-07T12:02:21Z</time>
      </trkpt>
      <trkpt lat="42.87249" lon="0.08464">
        <ele>1735</ele>
        <time>2014-06-07T12:02:35Z</time>
      </trkpt>
      <trkpt lat="42.87251" lon="0.0847">
        <ele>1733</ele>
        <time>2014-06-07T12:02:45Z</time>
      </trkpt>
      <trkpt lat="42.87252" lon="0.08474">
        <ele>1731</ele>
        <time>2014-06-07T12:02:48Z</time>
      </trkpt>
      <trkpt lat="42.87254" lon="0.08479">
        <ele>1730</ele>
        <time>2014-06-07T12:03:02Z</time>
      </trkpt>
      <trkpt lat="42.87255" lon="0.08483">
        <ele>1728</ele>
        <time>2014-06-07T12:03:07Z</time>
      </trkpt>
      <trkpt lat="42.87257" lon="0.08484">
        <ele>1727</ele>
        <time>2014-06-07T12:03:09Z</time>
      </trkpt>
      <trkpt lat="42.8726" lon="0.08492">
        <ele>1725</ele>
        <time>2014-06-07T12:03:18Z</time>
      </trkpt>
      <trkpt lat="42.87261" lon="0.08498">
        <ele>1724</ele>
        <time>2014-06-07T12:03:22Z</time>
      </trkpt>
      <trkpt lat="42.87264" lon="0.08506">
        <ele>1720</ele>
        <time>2014-06-07T12:03:34Z</time>
      </trkpt>
      <trkpt lat="42.87264" lon="0.08507">
        <ele>1720</ele>
        <time>2014-06-07T12:03:35Z</time>
      </trkpt>
      <trkpt lat="42.87267" lon="0.08512">
        <ele>1719</ele>
        <time>2014-06-07T12:03:41Z</time>
      </trkpt>
      <trkpt lat="42.87268" lon="0.08516">
        <ele>1718</ele>
        <time>2014-06-07T12:03:44Z</time>
      </trkpt>
      <trkpt lat="42.87272" lon="0.08525">
        <ele>1715</ele>
        <time>2014-06-07T12:03:55Z</time>
      </trkpt>
      <trkpt lat="42.87277" lon="0.0853">
        <ele>1713</ele>
        <time>2014-06-07T12:03:59Z</time>
      </trkpt>
      <trkpt lat="42.87278" lon="0.08536">
        <ele>1712</ele>
        <time>2014-06-07T12:04:05Z</time>
      </trkpt>
      <trkpt lat="42.87282" lon="0.08542">
        <ele>1710</ele>
        <time>2014-06-07T12:04:10Z</time>
      </trkpt>
      <trkpt lat="42.87285" lon="0.08551">
        <ele>1707</ele>
        <time>2014-06-07T12:04:20Z</time>
      </trkpt>
      <trkpt lat="42.87278" lon="0.08568">
        <ele>1704</ele>
        <time>2014-06-07T12:04:34Z</time>
      </trkpt>
      <trkpt lat="42.87278" lon="0.08572">
        <ele>1704</ele>
        <time>2014-06-07T12:04:36Z</time>
      </trkpt>
      <trkpt lat="42.87274" lon="0.0858">
        <ele>1703</ele>
        <time>2014-06-07T12:04:43Z</time>
      </trkpt>
      <trkpt lat="42.87276" lon="0.08588">
        <ele>1703</ele>
        <time>2014-06-07T12:04:47Z</time>
      </trkpt>
      <trkpt lat="42.87278" lon="0.08593">
        <ele>1702</ele>
        <time>2014-06-07T12:04:53Z</time>
      </trkpt>
      <trkpt lat="42.8728" lon="0.08594">
        <ele>1702</ele>
        <time>2014-06-07T12:04:55Z</time>
      </trkpt>
      <trkpt lat="42.87294" lon="0.08604">
        <ele>1700</ele>
        <time>2014-06-07T12:05:08Z</time>
      </trkpt>
      <trkpt lat="42.87296" lon="0.08607">
        <ele>1699</ele>
        <time>2014-06-07T12:05:10Z</time>
      </trkpt>
      <trkpt lat="42.87299" lon="0.08609">
        <ele>1700</ele>
        <time>2014-06-07T12:05:13Z</time>
      </trkpt>
      <trkpt lat="42.87313" lon="0.08615">
        <ele>1697</ele>
        <time>2014-06-07T12:05:26Z</time>
      </trkpt>
      <trkpt lat="42.87315" lon="0.08614">
        <ele>1697</ele>
        <time>2014-06-07T12:05:28Z</time>
      </trkpt>
      <trkpt lat="42.87327" lon="0.08603">
        <ele>1693</ele>
        <time>2014-06-07T12:05:42Z</time>
      </trkpt>
      <trkpt lat="42.87327" lon="0.08602">
        <ele>1694</ele>
        <time>2014-06-07T12:05:43Z</time>
      </trkpt>
      <trkpt lat="42.87338" lon="0.08593">
        <ele>1692</ele>
        <time>2014-06-07T12:05:55Z</time>
      </trkpt>
      <trkpt lat="42.87346" lon="0.08588">
        <ele>1692</ele>
        <time>2014-06-07T12:06:04Z</time>
      </trkpt>
      <trkpt lat="42.87356" lon="0.08574">
        <ele>1689</ele>
        <time>2014-06-07T12:06:17Z</time>
      </trkpt>
      <trkpt lat="42.87357" lon="0.08573">
        <ele>1689</ele>
        <time>2014-06-07T12:06:18Z</time>
      </trkpt>
      <trkpt lat="42.87358" lon="0.08567">
        <ele>1688</ele>
        <time>2014-06-07T12:06:21Z</time>
      </trkpt>
      <trkpt lat="42.8736" lon="0.08564">
        <ele>1687</ele>
        <time>2014-06-07T12:06:23Z</time>
      </trkpt>
      <trkpt lat="42.87362" lon="0.08564">
        <ele>1687</ele>
        <time>2014-06-07T12:06:26Z</time>
      </trkpt>
      <trkpt lat="42.87369" lon="0.08566">
        <ele>1687</ele>
        <time>2014-06-07T12:06:32Z</time>
      </trkpt>
      <trkpt lat="42.87369" lon="0.08583">
        <ele>1686</ele>
        <time>2014-06-07T12:06:44Z</time>
      </trkpt>
      <trkpt lat="42.87375" lon="0.086">
        <ele>1684</ele>
        <time>2014-06-07T12:06:56Z</time>
      </trkpt>
      <trkpt lat="42.87385" lon="0.08616">
        <ele>1681</ele>
        <time>2014-06-07T12:07:08Z</time>
      </trkpt>
      <trkpt lat="42.87394" lon="0.08619">
        <ele>1680</ele>
        <time>2014-06-07T12:07:19Z</time>
      </trkpt>
      <trkpt lat="42.87398" lon="0.08615">
        <ele>1680</ele>
        <time>2014-06-07T12:07:40Z</time>
      </trkpt>
      <trkpt lat="42.87402" lon="0.08613">
        <ele>1680</ele>
        <time>2014-06-07T12:07:47Z</time>
      </trkpt>
      <trkpt lat="42.87402" lon="0.08611">
        <ele>1679</ele>
        <time>2014-06-07T12:07:49Z</time>
      </trkpt>
      <trkpt lat="42.87404" lon="0.08602">
        <ele>1679</ele>
        <time>2014-06-07T12:08:00Z</time>
      </trkpt>
      <trkpt lat="42.87411" lon="0.08592">
        <ele>1677</ele>
        <time>2014-06-07T12:08:08Z</time>
      </trkpt>
      <trkpt lat="42.87414" lon="0.08583">
        <ele>1677</ele>
        <time>2014-06-07T12:08:13Z</time>
      </trkpt>
      <trkpt lat="42.87417" lon="0.08577">
        <ele>1677</ele>
        <time>2014-06-07T12:08:18Z</time>
      </trkpt>
      <trkpt lat="42.87418" lon="0.08574">
        <ele>1676</ele>
        <time>2014-06-07T12:08:20Z</time>
      </trkpt>
      <trkpt lat="42.87426" lon="0.0856">
        <ele>1675</ele>
        <time>2014-06-07T12:08:31Z</time>
      </trkpt>
      <trkpt lat="42.87435" lon="0.08548">
        <ele>1673</ele>
        <time>2014-06-07T12:08:43Z</time>
      </trkpt>
      <trkpt lat="42.87438" lon="0.08548">
        <ele>1674</ele>
        <time>2014-06-07T12:08:46Z</time>
      </trkpt>
      <trkpt lat="42.87451" lon="0.08544">
        <ele>1672</ele>
        <time>2014-06-07T12:08:58Z</time>
      </trkpt>
      <trkpt lat="42.87456" lon="0.08544">
        <ele>1672</ele>
        <time>2014-06-07T12:09:01Z</time>
      </trkpt>
      <trkpt lat="42.87457" lon="0.08545">
        <ele>1671</ele>
        <time>2014-06-07T12:09:02Z</time>
      </trkpt>
      <trkpt lat="42.8747" lon="0.08549">
        <ele>1671</ele>
        <time>2014-06-07T12:09:14Z</time>
      </trkpt>
      <trkpt lat="42.87475" lon="0.08555">
        <ele>1670</ele>
        <time>2014-06-07T12:09:26Z</time>
      </trkpt>
      <trkpt lat="42.87476" lon="0.08557">
        <ele>1671</ele>
        <time>2014-06-07T12:09:48Z</time>
      </trkpt>
      <trkpt lat="42.8748" lon="0.08558">
        <ele>1671</ele>
        <time>2014-06-07T12:10:07Z</time>
      </trkpt>
      <trkpt lat="42.87482" lon="0.08557">
        <ele>1671</ele>
        <time>2014-06-07T12:10:22Z</time>
      </trkpt>
      <trkpt lat="42.87488" lon="0.08558">
        <ele>1670</ele>
        <time>2014-06-07T12:10:49Z</time>
      </trkpt>
      <trkpt lat="42.87491" lon="0.0856">
        <ele>1670</ele>
        <time>2014-06-07T12:11:15Z</time>
      </trkpt>
      <trkpt lat="42.87486" lon="0.08558">
        <ele>1669</ele>
        <time>2014-06-07T12:11:45Z</time>
      </trkpt>
      <trkpt lat="42.87484" lon="0.08561">
        <ele>1668</ele>
        <time>2014-06-07T12:12:19Z</time>
      </trkpt>
      <trkpt lat="42.87484" lon="0.08564">
        <ele>1667</ele>
        <time>2014-06-07T12:12:57Z</time>
      </trkpt>
      <trkpt lat="42.87485" lon="0.08563">
        <ele>1668</ele>
        <time>2014-06-07T12:13:15Z</time>
      </trkpt>
      <trkpt lat="42.87484" lon="0.08559">
        <ele>1666</ele>
        <time>2014-06-07T12:13:41Z</time>
      </trkpt>
      <trkpt lat="42.87483" lon="0.08556">
        <ele>1668</ele>
        <time>2014-06-07T12:14:05Z</time>
      </trkpt>
      <trkpt lat="42.87483" lon="0.08555">
        <ele>1665</ele>
        <time>2014-06-07T12:14:06Z</time>
      </trkpt>
    </trkseg>
  </trk>
</gpx>